GFSWCAN_850_dewp_000.txt.gz
Dewpoint
-6 -3 -3 -2 -3 -3 -4 -4 -2 -3 -4 -4 -6 -4 -3 -2 -1 0 1 2 4 4 5 4 4 4 4 3 4 5 5 5 5 7 7 7 7 4 4 3 5 5 5 5 5 6 4 1 1 4 1 -0 -0 2
-5 -3 -3 -2 -2 -3 -3 -4 -4 -3 -4 -4 -5 -4 -4 -2 -2 -0 1 3 4 4 4 4 4 4 4 4 3 4 4 5 5 7 5 6 6 4 4 5 3 6 4 4 4 3 0 1 0 1 -0 0 -0 -0
-4 -2 -2 -3 -3 -4 -6 -5 -5 -3 -4 -5 -4 -3 -12 -5 -3 -1 -0 1 3 3 3 4 4 3 4 3 4 4 5 4 5 6 5 4 6 4 5 4 4 3 2 4 4 2 2 0 1 0 0 0 0 -0
-4 -3 -3 -3 -3 -4 -8 -4 -5 -3 -3 -4 -4 -11 -16 -8 -4 -2 -2 1 2 4 4 3 4 4 3 4 4 4 4 5 5 5 6 5 5 2 4 3 4 3 3 3 3 1 0 0 1 0 0 0 0 -0
-4 -3 -4 -7 -9 -8 -8 -5 -5 -5 -6 -12 -12 -8 -9 -6 -4 -4 -4 2 3 4 5 5 5 4 5 4 4 5 5 5 5 6 6 7 3 3 2 2 3 2 4 4 5 2 1 0 1 0 0 0 0 -0
-3 -4 -3 -12 -14 -15 -17 -10 -4 -5 -4 -4 -4 -4 -5 -9 -5 -4 2 1 3 3 5 5 5 5 4 4 5 5 5 5 5 6 6 6 5 4 4 4 2 1 2 2 2 1 -0 0 0 -0 -0 -0 -0 0
-3 -6 -2 -4 -9 -15 -16 -13 -7 -4 -5 -4 -4 -4 -5 -11 -8 -3 0 2 3 4 5 4 3 5 5 5 5 5 5 5 5 4 6 6 6 5 6 6 3 2 2 0 1 0 0 1 0 -0 -0 -0 -0 -0
-3 -3 -2 -3 -3 -9 -12 -11 -7 -5 -5 -5 -4 -6 -8 -9 -8 -7 -4 -1 2 4 4 4 4 4 5 5 5 5 5 5 6 6 6 5 4 4 6 3 3 2 2 0 0 0 0 0 0 -0 -0 -1 -2 -4
-3 -4 -3 -3 -4 -4 -7 -7 -5 -9 -6 -6 -6 -2 -1 -0 -1 -0 1 3 3 4 4 4 4 4 5 5 5 6 6 6 5 6 5 5 5 5 4 3 2 2 1 1 0 -0 -0 0 -0 -0 -1 -3 -5 -7
-3 -5 -3 -8 -7 -4 -4 -4 -10 -6 -7 -6 -3 -3 -0 -0 -0 1 3 3 4 5 5 4 3 4 4 5 4 5 4 5 5 5 4 5 5 3 3 2 2 2 1 0 -0 -1 -0 -0 -0 -1 -2 -4 -7 -8
-3 -9 -9 -10 -9 -6 -5 -7 -10 -6 -7 -5 -5 -3 -4 -1 0 2 3 4 4 3 4 4 3 3 4 4 5 4 3 2 5 2 5 5 5 3 3 2 2 2 1 0 -0 -0 -1 -1 -0 -1 -3 -5 -7 -7
-4 -13 -13 -13 -13 -9 -12 -15 -14 -8 -4 -4 -3 -3 -2 -1 -0 1 2 2 3 3 3 4 3 3 4 3 3 2 3 2 4 0 4 5 2 1 1 2 3 2 1 -0 -0 -1 -1 -1 -1 -2 -4 -6 -6 -8
-6 -13 -14 -15 -14 -14 -13 -16 -18 -13 -4 -4 -3 -3 -3 -2 1 2 3 3 3 2 3 3 2 2 2 2 1 1 3 3 -1 2 3 2 -0 -0 0 1 3 1 0 -0 -1 -1 -1 -1 -1 -3 -5 -6 -9 -11
-9 -13 -14 -15 -15 -14 -14 -19 -20 -5 -3 -4 -3 -4 -2 -0 1 1 1 1 0 1 3 2 1 -0 1 -0 0 3 2 1 2 3 1 -2 -2 -3 -0 1 2 1 -0 -1 -1 -1 -1 -1 -2 -4 -6 -9 -11 -13
-11 -14 -16 -15 -14 -16 -18 -20 -13 -3 -3 -3 -3 -4 -2 -0 -0 -0 0 -0 1 1 2 1 1 0 0 -1 -1 1 2 2 1 1 -2 -3 -3 -1 0 1 1 0 -1 -1 -1 -2 -2 -2 -4 -7 -9 -10 -13 -15
-10 -13 -15 -15 -16 -17 -18 -15 -4 -3 -4 -3 -3 -4 -2 -2 -3 -1 -0 -0 0 2 2 1 1 -0 2 -1 -0 1 0 1 0 -3 -2 -3 -2 -0 0 1 0 -0 -1 -1 -2 -2 -3 -4 -7 -9 -10 -12 -14 -14
-7 -10 -11 -15 -18 -17 -17 -5 -4 -4 -4 -4 -2 -2 -2 -3 -2 -1 -1 -0 1 2 2 1 2 1 -3 -2 -1 -3 -0 -0 -2 -3 -3 -3 -2 -0 0 0 -1 -1 -2 -2 -3 -3 -4 -7 -8 -10 -13 -11 -12 -11
-6 -10 -11 -14 -17 -18 -15 -5 -4 -4 -5 -4 -3 -3 -3 -3 -3 -2 -1 -1 0 1 1 1 -3 -3 -3 -1 -2 -3 -3 -3 -3 -2 -2 -3 -1 -1 -0 -0 -1 -1 -2 -3 -3 -4 -7 -9 -10 -12 -13 -11 -10 -10
-5 -7 -11 -13 -14 -16 -15 -7 -5 -5 -5 -5 -4 -4 -4 -4 -5 -5 -3 -2 -1 -1 0 -0 -1 -3 -2 -5 -5 -4 -4 -4 -3 -2 -2 -2 -1 -1 -1 -1 -2 -2 -2 -3 -4 -6 -8 -10 -12 -13 -12 -11 -11 -10
-6 -9 -13 -14 -15 -17 -12 -7 -5 -5 -6 -5 -5 -5 -5 -4 -5 -5 -3 -2 -2 -0 -0 0 -0 -3 -4 -3 -2 -3 -2 -3 -3 -3 -2 -2 -2 -2 -2 -2 -2 -3 -4 -5 -6 -8 -10 -11 -12 -12 -12 -11 -12 -11
-8 -12 -13 -14 -14 -15 -9 -6 -6 -6 -6 -6 -6 -6 -5 -5 -4 -3 -2 -2 -2 -1 0 -1 -1 -2 -3 -4 -4 -3 -4 -2 -3 -3 -3 -2 -2 -2 -2 -3 -3 -4 -4 -5 -7 -9 -11 -12 -11 -11 -11 -11 -11 -11
-9 -11 -11 -13 -14 -9 -8 -6 -6 -8 -8 -7 -6 -6 -7 -6 -6 -4 -4 -4 -3 -5 -5 -5 -5 -3 -2 -2 -4 -5 -4 -2 -2 -3 -4 -3 -3 -3 -3 -3 -4 -5 -6 -7 -9 -11 -11 -12 -12 -11 -11 -11 -11 -11
-9 -11 -12 -13 -11 -11 -11 -9 -8 -7 -8 -9 -8 -11 -13 -10 -5 -5 -5 -5 -6 -7 -8 -7 -7 -5 -4 -3 -2 -3 -3 -3 -3 -3 -3 -3 -3 -3 -3 -4 -4 -4 -7 -8 -10 -11 -11 -11 -10 -10 -11 -11 -10 -9
-9 -10 -11 -12 -12 -16 -13 -11 -10 -9 -8 -11 -13 -11 -14 -10 -5 -8 -9 -8 -9 -9 -9 -8 -8 -7 -6 -5 -4 -3 -3 -3 -3 -3 -3 -3 -3 -4 -4 -5 -5 -6 -7 -9 -10 -10 -10 -10 -10 -10 -10 -10 -9 -9
-9 -11 -12 -17 -12 -15 -16 -15 -17 -14 -11 -15 -10 -12 -13 -6 -10 -12 -11 -12 -11 -10 -10 -9 -9 -8 -9 -8 -6 -5 -4 -3 -3 -3 -3 -3 -4 -4 -5 -5 -6 -7 -8 -10 -10 -9 -9 -9 -9 -9 -9 -9 -9 -12
-11 -12 -14 -16 -16 -15 -14 -15 -15 -14 -15 -14 -14 -11 -9 -11 -10 -10 -13 -11 -10 -12 -12 -12 -11 -11 -9 -8 -8 -7 -6 -5 -4 -3 -3 -4 -4 -4 -5 -6 -7 -8 -8 -9 -10 -9 -9 -9 -9 -9 -8 -10 -12 -14
-12 -14 -13 -12 -11 -11 -12 -11 -11 -14 -14 -11 -15 -14 -14 -11 -13 -12 -10 -11 -13 -13 -13 -12 -11 -11 -11 -9 -9 -8 -7 -6 -5 -5 -4 -4 -5 -4 -5 -5 -6 -7 -8 -9 -8 -8 -9 -8 -8 -8 -10 -13 -15 -17
-9 -11 -12 -9 -9 -10 -15 -15 -15 -13 -14 -11 -11 -13 -13 -12 -12 -11 -12 -13 -13 -13 -12 -12 -11 -11 -10 -10 -9 -9 -8 -7 -7 -6 -6 -7 -7 -6 -5 -5 -4 -5 -5 -4 -6 -8 -8 -8 -8 -8 -12 -15 -18 -22
-8 -9 -11 -13 -13 -13 -13 -14 -15 -13 -11 -11 -13 -13 -14 -11 -11 -12 -12 -13 -13 -12 -12 -12 -12 -11 -11 -11 -10 -10 -9 -9 -8 -8 -8 -8 -8 -8 -7 -5 -4 -4 -4 -6 -7 -5 -5 -5 -9 -14 -16 -19 -22 -22
-8 -9 -11 -14 -14 -13 -14 -12 -11 -11 -11 -11 -11 -12 -12 -12 -12 -13 -13 -12 -12 -12 -12 -12 -12 -12 -12 -12 -11 -11 -10 -10 -9 -8 -8 -8 -8 -8 -6 -5 -5 -5 -6 -5 -6 -7 -8 -13 -15 -18 -21 -22 -21 -20
-9 -9 -11 -12 -15 -12 -12 -12 -11 -11 -11 -11 -12 -12 -12 -12 -12 -12 -12 -12 -12 -12 -12 -12 -12 -12 -12 -11 -11 -11 -10 -10 -9 -8 -6 -6 -7 -7 -7 -6 -6 -6 -6 -5 -6 -10 -15 -16 -19 -21 -21 -20 -20 -22
-9 -10 -13 -15 -15 -13 -12 -12 -11 -11 -11 -12 -12 -12 -12 -12 -12 -12 -12 -12 -12 -12 -12 -12 -11 -11 -10 -10 -10 -9 -8 -8 -8 -7 -7 -7 -7 -6 -6 -6 -6 -6 -8 -13 -15 -16 -18 -20 -21 -20 -19 -21 -23 -27
-11 -11 -13 -13 -14 -15 -13 -13 -13 -14 -13 -13 -12 -12 -12 -12 -13 -12 -12 -11 -11 -11 -11 -10 -10 -10 -10 -9 -9 -8 -8 -8 -7 -7 -7 -7 -7 -7 -7 -8 -9 -10 -14 -17 -19 -20 -20 -19 -18 -20 -22 -25 -28 -29

GFSWCAN_850_dewp_003.txt.gz
Dewpoint
-6 -2 -2 -3 -3 -7 -14 -6 -3 -4 -7 -4 -3 -3 -3 -14 -5 -2 -0 1 1 3 5 3 2 3 4 4 5 4 5 5 5 6 7 7 5 4 4 2 4 4 5 5 5 6 4 1 3 5 1 -0 -0 2
-15 -3 -2 -3 -8 -22 -21 -16 -5 -3 -5 -5 -4 -3 -4 -12 -10 -4 -1 1 2 2 4 4 4 3 3 4 3 4 4 4 4 6 6 6 7 4 3 5 3 6 3 4 4 3 -1 1 1 0 1 0 0 0
-14 -2 -2 -3 -8 -21 -20 -12 -7 -8 -4 -7 -8 -4 -5 -8 -4 -3 -3 -2 2 3 3 3 3 4 4 4 4 4 5 4 4 5 6 5 6 3 5 4 4 3 2 5 4 1 1 1 1 1 0 0 -0 -0
-11 -2 -2 -5 -6 -18 -18 -12 -12 -9 -4 -4 -4 -4 -4 -4 -6 -5 -4 -6 -1 1 4 3 3 3 3 4 4 4 4 4 5 5 5 6 5 2 3 3 4 3 3 3 3 2 1 1 0 0 0 -0 -1 -0
-9 -3 -3 -9 -4 -16 -14 -12 -6 -10 -4 -5 -4 -5 -4 -4 -8 -6 -11 -7 -0 -0 3 4 4 4 4 4 4 4 5 5 5 5 5 6 4 3 2 2 3 2 3 4 5 2 1 1 1 0 0 -0 -1 -0
-7 -2 -3 -3 -2 -8 -7 -9 -3 -3 -4 -4 -5 -3 -3 -3 -4 -4 0 1 1 0 3 5 5 5 5 5 4 5 5 5 4 5 5 5 5 3 4 4 3 2 2 2 2 1 0 0 0 0 -0 -0 -0 0
-7 -2 -2 -3 -2 -2 -3 -4 -3 -3 -4 -8 -4 -4 -4 -3 -4 -4 -1 0 0 2 3 3 2 4 5 5 5 4 5 5 5 5 5 6 6 6 6 6 3 3 3 2 2 1 0 1 0 -0 -0 -0 0 0
-7 -3 -3 -6 -2 -3 -2 -3 -3 -3 -7 -16 -12 -7 -5 -5 -6 -10 -9 -2 1 2 3 3 3 3 5 5 5 5 5 5 5 5 6 6 5 5 6 4 3 3 2 2 1 1 0 1 0 -0 -0 -0 -0 -1
-9 -3 -3 -7 -3 -5 -3 -4 -3 -4 -12 -16 -7 -3 -2 -1 -1 -1 -2 0 2 2 4 3 3 2 5 5 5 5 5 6 5 5 5 5 5 6 5 3 3 3 2 2 1 0 0 1 -0 -0 -1 -1 -2 -5
-7 -3 -3 -11 -6 -8 -5 -9 -5 -6 -12 -7 -6 -3 -1 -3 -2 -1 0 2 3 3 4 4 2 3 4 4 5 5 4 5 5 5 4 4 6 4 3 4 3 1 2 1 0 -0 0 0 -0 -1 -1 -3 -6 -10
-8 -3 -6 -14 -13 -11 -9 -11 -9 -6 -13 -5 -5 -3 -3 -2 0 1 1 3 3 3 3 4 3 3 4 4 5 3 3 2 5 3 5 5 4 2 2 3 3 2 1 1 1 0 -0 -0 -0 -1 -3 -5 -8 -8
-8 -3 -9 -15 -14 -13 -7 -14 -11 -10 -7 -3 -3 -3 -2 -1 -0 -0 1 2 3 1 3 4 3 3 4 4 3 3 3 2 5 -0 3 4 1 1 1 1 2 3 1 0 -0 -0 -0 -0 -0 -1 -4 -7 -7 -7
-9 -3 -10 -13 -13 -15 -14 -16 -16 -19 -4 -4 -3 -3 -3 -2 0 1 2 3 3 2 3 3 2 3 3 3 0 0 4 4 -1 2 3 1 -0 -1 -0 1 2 2 1 -0 -1 -1 -1 -1 -1 -2 -5 -7 -7 -7
-10 -4 -12 -13 -14 -15 -14 -17 -19 -7 -3 -4 -4 -5 -2 0 -0 1 0 0 0 1 2 3 2 1 1 -1 -0 4 2 1 2 3 0 -3 -2 -3 -2 0 2 1 -0 -1 -1 -1 -1 -1 -1 -3 -6 -6 -8 -11
-9 -4 -13 -14 -15 -15 -16 -19 -11 -3 -4 -4 -4 -5 -2 -1 -1 -1 -1 -1 1 1 2 2 1 0 -2 0 -0 1 2 2 2 1 -2 -2 -3 -2 -1 0 1 1 -0 -1 -1 -1 -1 -1 -2 -5 -6 -8 -11 -13
-3 -5 -12 -13 -15 -17 -16 -16 -5 -4 -4 -4 -4 -5 -3 -4 -6 -3 -2 -1 0 1 2 2 1 1 0 1 1 2 2 2 0 -3 -2 -2 -3 -2 -0 0 1 0 -1 -1 -1 -2 -2 -2 -3 -5 -8 -11 -13 -16
-3 -6 -9 -11 -14 -17 -16 -11 -4 -4 -4 -4 -3 -3 -3 -4 -4 -3 -3 -1 -0 1 2 1 3 2 -3 -2 -0 -2 -0 -0 -1 -2 -3 -3 -2 -1 -0 0 -0 -1 -1 -2 -2 -2 -2 -3 -5 -9 -11 -12 -14 -13
-4 -6 -9 -12 -14 -16 -14 -8 -5 -5 -5 -5 -4 -4 -4 -4 -4 -5 -4 -3 -2 -1 -0 1 -2 -2 -2 -1 -1 -2 -2 -2 -3 -4 -3 -4 -3 -2 -1 -0 -1 -1 -2 -2 -3 -3 -3 -6 -9 -10 -12 -14 -12 -10
-5 -5 -7 -11 -14 -14 -16 -8 -5 -6 -6 -5 -5 -5 -5 -5 -6 -6 -5 -4 -3 -2 -1 -0 -0 -3 -3 -5 -5 -4 -4 -3 -3 -3 -3 -4 -3 -2 -1 -1 -1 -2 -2 -3 -3 -4 -5 -8 -9 -11 -13 -12 -12 -10
-4 -4 -7 -12 -14 -15 -15 -8 -7 -6 -6 -6 -6 -6 -6 -6 -7 -7 -6 -4 -3 -2 -1 -0 -0 -1 -3 -3 -3 -3 -3 -3 -3 -3 -3 -3 -3 -2 -1 -1 -1 -2 -3 -4 -4 -5 -7 -8 -10 -11 -14 -12 -12 -12
-5 -6 -10 -13 -12 -14 -12 -8 -7 -6 -6 -7 -7 -7 -7 -6 -6 -5 -4 -4 -3 -2 -0 -2 -4 -4 -3 -3 -2 -4 -4 -3 -3 -3 -3 -3 -3 -2 -1 -2 -2 -2 -3 -4 -4 -6 -8 -9 -9 -11 -11 -11 -12 -12
-6 -9 -10 -12 -12 -11 -7 -7 -6 -7 -8 -8 -7 -8 -8 -7 -7 -5 -5 -5 -4 -5 -6 -7 -7 -6 -5 -4 -3 -2 -2 -3 -3 -2 -3 -3 -3 -3 -2 -2 -3 -3 -3 -4 -5 -7 -9 -10 -11 -12 -11 -11 -11 -12
-7 -10 -10 -11 -11 -10 -10 -8 -9 -8 -8 -11 -9 -11 -12 -11 -6 -6 -6 -6 -6 -7 -8 -8 -8 -6 -5 -5 -5 -4 -3 -3 -3 -2 -2 -3 -3 -3 -3 -3 -3 -3 -4 -5 -6 -8 -10 -10 -10 -11 -11 -11 -12 -12
-6 -9 -10 -11 -11 -14 -12 -11 -10 -9 -9 -11 -9 -11 -14 -10 -6 -8 -7 -8 -7 -10 -10 -11 -10 -9 -8 -6 -6 -6 -5 -4 -3 -3 -3 -3 -3 -3 -4 -3 -3 -4 -4 -5 -7 -9 -10 -11 -11 -11 -11 -12 -11 -10
-8 -9 -11 -15 -11 -14 -15 -15 -17 -14 -13 -16 -9 -11 -14 -9 -9 -14 -9 -10 -9 -10 -12 -12 -12 -12 -11 -10 -8 -7 -6 -6 -5 -4 -4 -4 -4 -4 -4 -4 -4 -4 -5 -6 -8 -10 -11 -11 -11 -11 -11 -11 -10 -10
-10 -12 -13 -15 -16 -15 -15 -15 -16 -15 -15 -13 -12 -12 -10 -12 -10 -9 -12 -10 -10 -11 -12 -12 -12 -12 -12 -11 -10 -9 -7 -7 -6 -6 -5 -4 -4 -4 -4 -4 -5 -6 -7 -7 -9 -10 -11 -11 -11 -11 -10 -9 -10 -12
-10 -11 -13 -14 -13 -13 -12 -11 -11 -14 -13 -13 -16 -14 -15 -12 -13 -13 -10 -9 -10 -12 -12 -13 -12 -12 -12 -11 -11 -9 -9 -8 -8 -7 -6 -5 -5 -5 -4 -4 -5 -5 -7 -8 -10 -11 -7 -10 -10 -10 -9 -10 -12 -14
-7 -11 -12 -10 -9 -11 -15 -15 -15 -13 -14 -12 -12 -13 -13 -12 -12 -11 -13 -13 -12 -12 -12 -12 -12 -12 -12 -11 -11 -10 -10 -9 -8 -8 -7 -6 -7 -6 -6 -5 -4 -4 -4 -4 -9 -6 -8 -9 -9 -9 -10 -13 -15 -20
-8 -9 -11 -13 -13 -13 -13 -14 -15 -14 -13 -10 -13 -14 -13 -11 -13 -13 -13 -13 -12 -12 -12 -12 -12 -12 -12 -12 -11 -11 -10 -10 -10 -9 -8 -8 -8 -8 -7 -6 -6 -5 -4 -5 -6 -3 -6 -8 -9 -8 -6 -11 -19 -21
-8 -9 -11 -13 -14 -13 -13 -13 -12 -12 -11 -11 -11 -12 -12 -12 -13 -13 -13 -12 -12 -12 -12 -12 -12 -12 -12 -12 -12 -11 -11 -10 -10 -10 -9 -8 -8 -8 -8 -7 -7 -6 -5 -5 -6 -6 -7 -7 -6 -7 -15 -20 -21 -20
-8 -9 -11 -12 -15 -12 -13 -12 -12 -11 -11 -11 -11 -11 -12 -12 -12 -13 -12 -12 -12 -12 -12 -12 -12 -12 -12 -12 -12 -11 -11 -10 -10 -10 -10 -9 -9 -9 -8 -7 -6 -6 -5 -5 -6 -6 -6 -7 -8 -18 -21 -21 -20 -21
-9 -9 -13 -14 -15 -13 -12 -12 -12 -11 -12 -12 -12 -12 -12 -12 -12 -12 -12 -11 -11 -12 -12 -12 -12 -12 -11 -11 -11 -11 -10 -10 -10 -10 -10 -9 -9 -9 -8 -7 -6 -5 -5 -6 -6 -7 -7 -11 -19 -20 -19 -19 -22 -25
-12 -11 -12 -13 -14 -15 -13 -13 -13 -14 -13 -13 -13 -13 -12 -12 -13 -12 -11 -11 -11 -11 -11 -12 -12 -12 -13 -12 -11 -11 -11 -11 -11 -11 -10 -9 -8 -8 -7 -7 -7 -7 -7 -7 -8 -10 -17 -19 -19 -19 -20 -23 -26 -28

GFSWCAN_850_dewp_006.txt.gz
Dewpoint
-11 -10 -4 -1 -5 -3 -8 -4 -3 -14 -21 -12 -4 -10 -9 -13 -15 -5 -2 -0 0 1 3 3 1 3 4 3 4 4 5 5 5 6 5 5 6 4 4 3 4 4 6 6 5 5 7 0 3 3 2 1 0 2
-10 -13 -4 -1 -5 -2 -12 -6 -3 -16 -22 -9 -4 -4 -4 -3 -6 -6 -2 -2 -0 1 3 4 4 3 2 2 3 4 4 4 4 5 5 5 5 4 4 5 2 5 3 4 4 3 0 1 1 1 1 1 1 1
-18 -15 -4 -2 -4 -2 -10 -5 -3 -6 -10 -14 -4 -4 -4 -4 -3 -6 -4 -3 0 2 3 3 4 4 4 4 4 4 4 4 5 4 5 5 6 5 6 5 4 3 2 5 4 2 2 1 1 1 0 1 0 1
-18 -13 -8 -2 -3 -5 -2 -3 -3 -3 -3 -4 -4 -4 -4 -3 -3 -3 -5 -4 -3 -0 1 3 3 3 3 4 4 4 4 4 4 5 4 5 6 3 5 3 4 3 3 4 4 2 2 1 1 1 -0 -0 0 2
-15 -9 -11 -2 -3 -4 -2 -2 -2 -2 -3 -3 -4 -3 -5 -4 -4 -5 -10 -13 -8 -1 1 4 4 3 3 3 4 4 4 5 5 5 5 5 4 4 3 3 4 2 3 3 3 2 2 1 1 0 -0 -1 -0 -0
-16 -15 -8 -3 -4 -4 -2 -2 -2 -2 -2 -3 -4 -4 -4 -3 -4 -4 -1 0 -0 0 -0 4 4 5 5 5 5 5 5 5 5 5 5 4 4 4 6 6 3 2 2 2 2 1 1 0 0 0 -0 -1 -1 0
-16 -16 -5 -3 -2 -7 -2 -3 -2 -3 -3 -4 -5 -4 -4 -3 -4 -3 -1 -0 -0 -0 1 4 3 4 5 4 4 5 5 5 5 5 5 4 5 5 6 6 3 3 3 2 2 2 1 1 0 -0 -0 -0 -0 -0
-15 -16 -9 -3 -3 -8 -3 -3 -2 -3 -9 -14 -4 -6 -2 -1 -3 -4 -11 -6 -0 0 1 4 4 4 4 4 5 4 5 5 5 5 5 6 5 5 7 5 4 3 3 2 2 1 1 1 0 -0 -0 -0 -0 -1
-13 -15 -12 -3 -3 -11 -13 -4 -2 -7 -15 -8 -6 -3 -2 -3 -3 -2 -1 -2 -0 1 3 4 4 4 4 5 5 5 5 6 5 6 5 5 5 6 5 4 4 3 3 2 1 1 0 1 -0 -0 -0 -0 -0 -1
-12 -15 -12 -2 -4 -11 -15 -5 -5 -12 -17 -6 -6 -3 -1 -4 -3 -2 -1 0 1 2 3 4 2 4 4 4 5 5 4 5 5 5 4 4 5 4 3 4 4 3 2 2 0 0 0 0 -0 -0 -0 -1 -1 -3
-10 -15 -13 -3 -6 -14 -14 -8 -14 -15 -18 -4 -5 -4 -2 -2 -0 0 0 1 2 3 4 4 2 3 3 4 5 4 4 3 6 4 5 5 5 3 2 2 3 3 3 2 1 1 1 0 -0 -1 -1 -2 -4 -9
-10 -13 -12 -3 -9 -12 -12 -16 -16 -17 -12 -4 -3 -3 -2 -1 -0 1 2 1 3 3 3 4 3 3 4 4 4 3 4 3 5 0 4 5 3 1 -0 0 1 2 3 2 1 -0 0 -0 -0 -1 -1 -3 -8 -9
-11 -12 -11 -3 -10 -13 -15 -17 -18 -17 -3 -4 -4 -3 -2 -1 1 1 1 2 3 1 2 3 3 3 3 3 2 3 4 4 0 3 3 3 1 -0 -2 0 2 2 2 1 0 -0 -0 -0 -0 -1 -2 -6 -8 -8
-9 -12 -7 -6 -11 -15 -16 -18 -19 -5 -4 -4 -4 -3 -2 -1 -0 0 0 0 -0 0 1 2 2 2 1 3 1 4 2 1 3 4 3 2 -2 -3 -3 -1 1 1 1 0 -0 -1 -1 -0 -1 -2 -4 -8 -8 -7
-4 -10 -3 -9 -13 -14 -16 -18 -15 -4 -4 -4 -4 -2 -2 -3 -2 -1 -1 -1 -0 0 1 2 1 1 1 2 1 2 3 3 2 3 2 -1 -3 -3 -1 -0 1 1 -0 -1 -1 -1 -1 -1 -1 -3 -6 -7 -7 -9
-7 -5 -6 -13 -13 -15 -16 -17 -9 -4 -4 -4 -4 -3 -3 -3 -4 -3 -3 -2 -1 -0 1 2 2 3 4 2 3 3 3 3 3 2 -1 -2 -3 -2 -1 -0 0 1 -0 -1 -1 -1 -1 -1 -2 -4 -6 -6 -9 -11
-5 -4 -7 -10 -12 -15 -16 -15 -5 -4 -4 -4 -3 -3 -3 -4 -4 -4 -4 -3 -3 -1 1 1 3 4 -0 2 2 1 2 2 -1 -2 -3 -3 -3 -2 -1 -0 0 0 -0 -1 -2 -2 -2 -2 -3 -5 -6 -9 -11 -13
-4 -4 -4 -9 -11 -15 -14 -12 -5 -5 -5 -5 -4 -4 -4 -4 -4 -5 -5 -4 -4 -2 -1 1 -1 1 1 2 2 -1 -3 -3 -3 -3 -3 -2 -3 -2 -1 -1 -0 -0 -1 -2 -2 -2 -2 -3 -5 -6 -9 -11 -13 -12
-3 -2 -5 -6 -11 -14 -15 -9 -6 -6 -6 -6 -5 -5 -5 -5 -6 -6 -6 -5 -4 -3 -2 -1 0 1 -0 -3 -3 -3 -3 -4 -3 -3 -3 -3 -3 -2 -1 -1 -1 -1 -1 -2 -3 -3 -3 -5 -6 -9 -11 -12 -14 -12
-2 -3 -4 -6 -11 -14 -16 -10 -10 -6 -7 -6 -6 -6 -6 -6 -7 -9 -8 -5 -4 -3 -2 -0 -0 -2 -4 -5 -5 -5 -4 -3 -3 -4 -3 -3 -3 -2 -2 -2 -1 -1 -2 -3 -3 -3 -4 -6 -8 -10 -12 -12 -14 -12
-2 -3 -4 -7 -13 -13 -13 -10 -8 -7 -7 -7 -7 -7 -8 -7 -7 -7 -5 -4 -5 -4 -2 -3 -4 -5 -5 -4 -4 -4 -4 -3 -2 -3 -4 -3 -3 -3 -2 -2 -2 -2 -3 -3 -3 -4 -5 -7 -9 -11 -10 -6 -11 -12
-3 -5 -9 -11 -11 -12 -9 -8 -7 -7 -8 -8 -8 -9 -8 -8 -7 -7 -6 -6 -5 -4 -5 -6 -6 -7 -8 -8 -8 -5 -4 -4 -3 -2 -2 -3 -3 -3 -3 -3 -3 -3 -3 -3 -4 -4 -6 -8 -10 -10 -5 -10 -11 -11
-5 -7 -9 -11 -11 -11 -10 -7 -7 -8 -8 -9 -10 -10 -9 -8 -7 -6 -6 -6 -6 -6 -6 -9 -11 -12 -12 -12 -10 -7 -6 -5 -4 -3 -2 -2 -3 -3 -3 -3 -3 -3 -3 -4 -4 -5 -7 -9 -10 -2 -9 -11 -11 -11
-7 -10 -10 -11 -12 -12 -12 -11 -10 -10 -10 -10 -8 -9 -11 -11 -8 -8 -6 -7 -6 -7 -9 -11 -12 -13 -15 -14 -12 -11 -9 -7 -6 -5 -3 -3 -1 -2 -3 -4 -4 -4 -4 -4 -5 -6 -7 -9 -5 -9 -10 -11 -12 -12
-7 -9 -11 -13 -12 -12 -13 -13 -14 -11 -11 -13 -8 -10 -11 -9 -8 -9 -8 -9 -9 -8 -9 -10 -11 -13 -13 -13 -13 -12 -11 -9 -8 -7 -5 -5 -4 -2 -3 -4 -4 -4 -4 -5 -6 -7 -8 -9 -9 -10 -11 -12 -12 -12
-7 -11 -12 -11 -12 -12 -12 -13 -12 -11 -13 -11 -11 -13 -11 -10 -9 -8 -10 -9 -9 -9 -9 -10 -13 -13 -13 -13 -12 -12 -11 -10 -9 -8 -7 -6 -5 -5 -4 -4 -4 -5 -5 -6 -5 -7 -8 -9 -10 -11 -12 -12 -12 -10
-7 -10 -12 -14 -14 -14 -13 -12 -12 -13 -12 -13 -13 -12 -11 -11 -10 -11 -10 -10 -10 -13 -14 -13 -13 -12 -12 -12 -12 -12 -12 -11 -10 -9 -8 -7 -7 -6 -5 -5 -5 -5 -5 -6 -7 -8 -9 -10 -11 -11 -12 -11 -10 -11
-7 -11 -10 -11 -10 -13 -13 -13 -13 -12 -13 -14 -12 -12 -11 -10 -11 -12 -13 -16 -15 -14 -14 -13 -12 -12 -12 -12 -12 -12 -12 -11 -10 -9 -8 -8 -7 -7 -6 -6 -6 -6 -6 -6 -6 -6 -8 -9 -7 -10 -11 -10 -12 -14
-8 -10 -11 -13 -12 -12 -13 -13 -13 -15 -15 -13 -11 -12 -13 -13 -16 -17 -16 -15 -14 -14 -13 -12 -12 -12 -12 -12 -12 -12 -12 -11 -11 -11 -10 -9 -8 -8 -8 -7 -7 -7 -6 -6 -6 -5 -7 -3 -7 -10 -9 -12 -15 -18
-8 -10 -12 -12 -12 -12 -13 -13 -13 -14 -13 -11 -11 -12 -12 -14 -15 -15 -14 -14 -13 -13 -12 -11 -12 -12 -12 -12 -12 -12 -12 -12 -11 -11 -11 -10 -9 -8 -8 -8 -8 -8 -8 -7 -7 -6 -6 -7 -6 -7 -13 -12 -8 -16
-9 -10 -11 -12 -13 -13 -13 -13 -12 -12 -12 -12 -11 -11 -12 -12 -14 -14 -15 -14 -12 -11 -11 -12 -12 -12 -12 -12 -12 -12 -12 -12 -11 -10 -11 -10 -10 -9 -9 -9 -9 -9 -9 -8 -7 -7 -7 -6 -8 -10 -7 -9 -19 -21
-9 -10 -12 -12 -14 -13 -12 -12 -12 -12 -12 -12 -12 -12 -12 -12 -12 -12 -12 -12 -11 -11 -11 -11 -11 -12 -12 -12 -12 -12 -11 -11 -11 -10 -10 -10 -10 -10 -10 -10 -10 -9 -9 -7 -7 -6 -6 -7 -7 -8 -11 -19 -20 -22
-12 -12 -12 -14 -14 -15 -13 -13 -13 -14 -13 -13 -13 -13 -13 -12 -13 -12 -12 -11 -11 -11 -11 -12 -13 -13 -13 -13 -13 -12 -12 -12 -12 -11 -11 -11 -10 -10 -11 -10 -10 -9 -8 -7 -7 -7 -7 -7 -8 -12 -19 -20 -24 -27

GFSWCAN_850_dewp_009.txt.gz
Dewpoint
-9 -7 -5 -2 -2 -2 -2 -3 -3 -5 -18 -20 -13 -6 -4 -5 -8 -12 -0 -1 -0 0 2 3 2 2 4 3 4 4 5 5 5 5 6 6 7 4 4 2 4 4 5 5 5 6 6 0 1 4 2 1 1 2
-5 -8 -6 -3 -2 -2 -3 -2 -3 -3 -6 -10 -8 -4 -4 -4 -4 -4 -2 -1 -1 0 2 3 4 3 3 3 3 4 5 4 4 5 5 5 6 4 3 4 1 4 2 3 3 3 0 1 1 1 1 1 1 1
-14 -10 -7 -2 -2 -3 -3 -1 -2 -3 -3 -4 -4 -4 -4 -4 -4 -3 -2 -2 -1 0 2 3 4 4 3 2 2 4 5 4 4 5 5 5 7 5 7 4 3 2 1 4 4 2 1 1 1 1 1 1 1 2
-13 -11 -9 -3 -2 -2 -2 -2 -2 -3 -3 -3 -3 -2 -2 -4 -4 -3 -2 -2 -2 -1 1 4 3 4 4 4 4 4 4 4 4 4 5 5 5 4 4 4 4 3 3 3 3 2 2 1 1 1 0 0 2 1
-13 -12 -12 -4 -2 -2 -3 -2 -2 -3 -4 -4 -3 -3 -4 -4 -4 -4 -3 -3 -5 -1 1 3 4 3 3 3 4 4 5 5 5 5 5 5 4 4 3 4 4 2 3 4 3 2 2 1 1 0 -0 -0 -0 -1
-10 -13 -14 -7 -3 -2 -3 -2 -2 -4 -3 -4 -3 -4 -4 -4 -4 -3 -1 -2 -2 -3 0 4 4 5 4 4 4 4 5 5 5 5 5 4 3 4 6 5 1 0 0 1 1 1 1 1 1 0 -0 -1 -1 -1
-10 -12 -15 -10 -3 -2 -3 -4 -3 -3 -5 -5 -5 -4 -3 -3 -3 -3 -3 -1 -1 -1 0 3 4 4 5 5 5 5 5 5 5 5 5 5 4 6 5 5 1 1 2 2 2 2 1 1 1 -0 -1 -1 -1 -1
-2 -3 -12 -12 -4 -2 -3 -4 -4 -4 -13 -16 -5 -4 -3 -2 -2 -2 -4 -1 -1 -0 0 3 4 4 3 5 4 4 5 5 5 5 5 5 5 5 6 3 3 3 2 3 2 2 1 1 0 -0 -1 -0 -1 -1
-2 -2 -6 -12 -9 -2 -5 -3 -5 -8 -20 -16 -5 -2 -2 -3 -2 -2 -3 -6 -1 -0 1 4 4 4 4 5 5 5 5 6 5 6 5 5 5 6 4 4 4 3 3 3 2 1 1 0 -0 -0 -1 -1 -1 -2
-3 -1 -3 -11 -11 -2 -6 -4 -12 -17 -22 -9 -5 -3 -2 -2 -4 -3 -2 -0 -1 0 1 3 2 4 4 4 4 5 5 5 6 4 4 5 5 3 2 2 3 4 3 2 1 1 1 0 -0 -1 -1 -1 -2 -2
-2 -1 -2 -10 -10 -2 -6 -5 -16 -20 -22 -4 -3 -2 -2 -2 -1 -0 -0 0 0 2 3 4 2 2 3 4 4 4 4 4 6 4 4 5 5 3 3 1 1 3 3 3 2 1 1 1 0 -0 -1 -1 -2 -3
-2 -1 -4 -11 -5 -3 -4 -10 -16 -18 -14 -4 -3 -3 -2 -1 -0 0 2 1 2 4 3 3 3 2 4 4 4 4 5 4 6 1 4 5 3 2 1 -1 -1 1 2 2 2 1 1 1 0 -1 -1 -1 -2 -6
-2 -2 -3 -9 -3 -4 -10 -13 -17 -16 -4 -4 -3 -3 -2 -0 1 2 2 2 3 0 1 2 4 3 3 3 3 3 5 5 1 4 4 3 2 0 -2 -3 -1 2 2 2 2 1 -0 0 -0 -1 -1 -1 -4 -10
-2 -2 -3 -8 -3 -4 -11 -12 -17 -8 -3 -3 -3 -1 -0 0 -1 -0 0 0 -0 -0 0 1 2 3 2 4 3 5 3 2 4 4 4 5 1 -2 -3 -2 0 2 1 0 0 -0 -0 -0 -1 -1 -1 -2 -9 -9
-2 -2 -2 -6 -3 -7 -11 -12 -15 -4 -4 -3 -3 -1 -1 -2 -1 -1 -2 -1 -1 -0 0 1 2 1 2 3 2 3 3 3 2 4 4 1 -2 -2 -2 -1 0 1 1 0 -0 -1 -1 -1 -1 -1 -2 -6 -8 -8
-2 -2 -3 -5 -8 -10 -11 -12 -10 -4 -4 -4 -4 -3 -3 -2 -2 -2 -2 -2 -1 -1 1 1 2 3 3 4 3 3 3 4 4 2 -0 -2 -2 -2 -2 -1 -0 0 -0 -0 -1 -1 -1 -1 -1 -2 -4 -7 -7 -7
-2 -2 -3 -6 -8 -8 -10 -13 -7 -4 -4 -4 -3 -3 -3 -3 -3 -3 -4 -4 -3 -1 1 1 3 3 1 3 3 2 3 2 -1 -1 -2 -3 -3 -3 -3 -2 -1 -0 -1 -1 -1 -1 -1 -1 -2 -3 -6 -7 -6 -8
-2 -2 -4 -4 -6 -8 -12 -11 -6 -5 -5 -4 -4 -4 -3 -3 -4 -4 -4 -3 -3 -2 -1 0 -2 1 3 3 3 0 -1 -2 -2 -2 -2 -3 -3 -3 -3 -2 -1 -1 -1 -2 -2 -2 -2 -2 -3 -4 -6 -6 -7 -9
-2 -3 -3 -4 -5 -8 -13 -10 -8 -5 -5 -5 -5 -5 -5 -5 -5 -5 -5 -4 -3 -3 -3 -1 0 1 1 -1 -2 -3 -3 -3 -3 -3 -2 -2 -3 -3 -3 -2 -2 -1 -2 -2 -2 -2 -2 -3 -3 -4 -6 -7 -10 -12
-3 -3 -3 -3 -5 -12 -13 -10 -11 -6 -6 -5 -6 -6 -6 -6 -6 -7 -8 -6 -3 -4 -2 -2 -1 -3 -3 -4 -4 -4 -4 -4 -4 -4 -3 -2 -2 -3 -3 -3 -2 -2 -2 -3 -3 -3 -3 -4 -4 -5 -6 -9 -12 -13
-3 -3 -3 -3 -5 -11 -13 -11 -7 -6 -6 -6 -6 -6 -7 -7 -7 -6 -6 -5 -4 -5 -4 -4 -3 -4 -5 -7 -9 -9 -9 -6 -5 -5 -4 -4 -2 -2 -3 -3 -3 -2 -3 -3 -3 -4 -4 -4 -5 -6 -9 -11 -13 -7
-3 -3 -3 -4 -11 -12 -10 -9 -6 -7 -8 -7 -7 -8 -8 -7 -6 -7 -7 -6 -5 -4 -4 -5 -5 -7 -11 -15 -16 -14 -12 -10 -8 -6 -5 -4 -4 -3 -2 -3 -3 -3 -3 -4 -4 -4 -4 -4 -6 -8 -10 -11 -11 -3
-3 -4 -4 -8 -10 -10 -9 -9 -7 -8 -7 -8 -9 -8 -8 -7 -7 -7 -7 -6 -5 -5 -6 -6 -8 -12 -14 -16 -19 -18 -15 -13 -11 -8 -7 -6 -5 -4 -3 -2 -3 -3 -3 -4 -4 -4 -4 -5 -7 -9 -10 -10 -3 -10
-4 -5 -7 -9 -10 -9 -11 -9 -9 -9 -8 -9 -8 -9 -8 -8 -9 -7 -6 -6 -6 -8 -7 -8 -11 -11 -12 -16 -16 -15 -14 -13 -12 -11 -9 -7 -6 -5 -4 -4 -3 -3 -3 -3 -4 -5 -5 -6 -7 -9 -10 -4 -7 -11
-5 -6 -8 -9 -11 -11 -9 -10 -10 -9 -8 -9 -8 -9 -9 -9 -7 -6 -7 -8 -9 -9 -9 -9 -9 -10 -13 -17 -16 -14 -13 -12 -12 -12 -11 -10 -8 -7 -6 -5 -4 -4 -4 -4 -4 -5 -6 -7 -8 -9 -8 -4 -10 -11
-5 -7 -9 -9 -10 -10 -10 -9 -10 -9 -9 -9 -9 -11 -10 -8 -8 -8 -9 -9 -11 -10 -11 -11 -10 -13 -15 -15 -14 -13 -12 -12 -12 -12 -12 -11 -9 -8 -7 -7 -6 -5 -5 -4 -4 -5 -6 -7 -8 -9 -5 -5 -11 -12
-4 -6 -11 -13 -13 -14 -13 -13 -13 -11 -10 -10 -11 -10 -9 -8 -8 -9 -13 -13 -12 -11 -11 -15 -16 -15 -15 -14 -12 -12 -12 -12 -12 -12 -12 -11 -10 -9 -8 -7 -7 -6 -5 -5 -4 -5 -6 -7 -9 -8 -4 -9 -11 -12
-6 -10 -10 -12 -12 -13 -11 -11 -10 -10 -11 -13 -10 -10 -9 -9 -10 -15 -14 -14 -15 -16 -16 -16 -15 -14 -13 -12 -12 -12 -12 -12 -12 -12 -12 -11 -10 -9 -8 -7 -7 -6 -7 -6 -6 -6 -7 -7 -8 -6 -5 -7 -12 -12
-8 -10 -11 -10 -11 -12 -11 -11 -11 -15 -15 -14 -9 -9 -10 -14 -17 -18 -18 -17 -16 -15 -15 -14 -14 -13 -12 -12 -12 -12 -12 -12 -12 -12 -12 -12 -11 -10 -8 -7 -7 -7 -7 -7 -8 -6 -7 -7 -6 -5 -5 -8 -10 -12
-7 -10 -10 -11 -11 -10 -12 -14 -14 -16 -15 -14 -13 -13 -14 -15 -17 -17 -17 -16 -15 -15 -14 -14 -12 -11 -12 -12 -11 -12 -12 -12 -12 -12 -12 -12 -11 -10 -9 -8 -8 -8 -8 -8 -9 -9 -9 -8 -7 -6 -7 -7 -12 -16
-8 -9 -10 -11 -10 -12 -13 -14 -13 -13 -13 -13 -13 -13 -13 -14 -15 -16 -16 -16 -15 -14 -12 -11 -11 -11 -11 -12 -12 -12 -12 -12 -12 -11 -11 -11 -11 -11 -10 -9 -9 -9 -9 -9 -9 -10 -10 -9 -7 -7 -8 -10 -17 -17
-9 -9 -10 -10 -11 -13 -13 -13 -13 -13 -13 -13 -13 -13 -13 -13 -13 -14 -14 -14 -13 -12 -11 -11 -11 -12 -13 -13 -13 -13 -12 -12 -12 -11 -11 -11 -11 -10 -10 -10 -10 -9 -10 -10 -10 -9 -9 -8 -7 -8 -8 -12 -9 -8
-12 -11 -12 -13 -13 -13 -13 -13 -13 -13 -13 -13 -13 -13 -13 -13 -12 -13 -13 -13 -12 -11 -11 -11 -12 -12 -13 -13 -13 -13 -13 -12 -12 -11 -11 -10 -10 -10 -11 -11 -10 -10 -10 -10 -10 -9 -8 -7 -7 -9 -8 -8 -10 -16

GFSWCAN_850_dewp_012.txt.gz
Dewpoint
-1 -15 -4 -4 -5 -2 -2 -2 -2 -2 -2 -3 -3 -2 -3 -8 -7 -11 -8 -0 -0 0 1 2 3 3 3 3 5 4 5 4 5 5 5 6 7 5 4 3 4 4 5 6 6 7 6 0 2 4 3 2 1 1
-3 -14 -7 -3 -5 -3 -1 -2 -2 -2 -2 -2 -3 -2 -2 -3 -6 -5 -4 -5 -2 -0 0 2 3 4 4 4 4 4 5 4 4 5 5 5 5 5 5 5 1 4 2 4 3 4 -0 1 1 1 1 1 1 1
-9 -13 -6 -3 -5 -3 -1 -2 -2 -2 -2 -2 -3 -3 -3 -3 -3 -5 -4 -3 -3 -1 0 1 3 2 3 3 3 4 4 3 4 4 5 5 6 5 6 5 4 1 0 4 4 2 2 2 1 1 1 0 1 1
-2 -8 -12 -4 -5 -3 -2 -2 -3 -2 -3 -3 -2 -2 -3 -3 -3 -5 -5 -4 -3 -2 -1 3 3 4 4 2 2 2 4 3 4 4 5 4 5 4 5 4 4 3 3 3 3 2 2 1 1 1 -0 1 2 2
-3 -8 -11 -4 -7 -3 -3 -2 -2 -3 -3 -4 -3 -3 -3 -3 -3 -5 -6 -5 -3 -2 -0 1 3 3 4 3 4 4 4 5 4 5 5 4 4 4 3 3 4 2 4 5 5 2 2 1 1 0 -0 0 0 0
-5 -4 -10 -6 -12 -8 -4 -2 -2 -3 -3 -4 -3 -3 -4 -3 -4 -5 -4 -3 -4 -3 -1 3 4 4 4 3 4 4 4 4 5 5 5 4 3 4 5 4 1 1 1 1 1 2 1 1 1 -0 -1 -0 -0 -0
-4 -2 -2 -3 -10 -10 -4 -2 -2 -2 -4 -2 -4 -4 -3 -3 -4 -5 -4 -2 -1 -3 -1 1 4 4 5 5 5 5 5 5 5 5 5 4 4 4 6 5 1 0 1 1 2 2 2 1 1 -0 -1 -1 -1 -1
-4 -2 -2 -1 -4 -9 -3 -2 -4 -4 -3 -6 -6 -3 -3 -3 -4 -4 -5 -3 -2 -1 -1 2 4 4 4 5 5 4 5 5 5 5 5 5 4 5 6 4 3 2 2 2 3 2 2 1 1 -0 -1 -1 -1 -2
-4 -2 -1 -1 -1 -8 -3 -2 -6 -2 -11 -13 -6 -2 -2 -3 -3 -3 -3 -4 -2 -1 -1 2 4 4 4 5 5 4 5 5 5 5 5 5 5 6 4 3 3 4 4 3 3 2 2 1 0 -0 -1 -1 -1 -2
-2 -2 -1 -2 -1 -8 -4 -2 -3 -13 -16 -6 -4 -2 -2 -2 -3 -2 -2 -1 -1 -0 -0 2 2 4 4 4 5 5 5 5 5 4 4 5 5 3 3 3 3 3 3 3 2 2 1 0 0 -0 -1 -1 -1 -0
-2 -2 -2 -2 -2 -7 -4 -3 -7 -15 -15 -4 -3 -2 -3 -4 -3 -1 -1 -1 -0 1 2 3 3 3 3 4 4 4 4 3 5 3 4 4 5 3 1 0 -1 -1 2 3 3 2 2 1 1 -0 -1 -1 -1 -1
-2 -2 -1 -2 -1 -7 -3 -4 -10 -13 -12 -4 -3 -3 -2 -1 -1 -0 1 0 1 3 3 4 3 3 4 3 3 3 4 3 5 1 3 5 3 -0 -2 -3 -2 -0 1 2 3 2 1 1 1 -0 -1 -1 -1 -2
-1 -2 -2 -2 -2 -5 -3 -3 -12 -13 -7 -3 -3 -3 -2 -1 1 2 2 2 3 0 1 2 3 3 3 4 3 2 4 4 1 3 3 1 1 -1 -2 -1 -0 1 1 2 2 1 0 1 2 0 -1 -1 -2 -2
-1 -2 -2 -2 -2 -3 -2 -4 -12 -12 -4 -3 -4 -3 -2 -1 -2 0 0 0 -0 0 0 1 2 3 2 2 2 3 3 1 2 3 2 1 -0 -2 -2 -1 -0 0 1 1 1 0 -0 0 2 1 -1 -1 1 -3
-1 -2 -2 -2 -2 -2 -3 -9 -12 -8 -4 -4 -4 -2 -2 -2 -2 -1 -2 -1 -1 -0 0 2 2 2 2 3 2 3 3 2 2 2 1 -0 -2 -3 -3 -2 -1 -1 -0 0 -0 -1 -1 -0 1 1 1 1 -1 -7
-2 -2 -2 -2 -2 -3 -7 -8 -13 -5 -4 -4 -4 -3 -3 -2 -3 -2 -2 -1 -1 -1 0 1 2 3 3 3 3 2 2 2 1 -1 -1 -2 -3 -3 -3 -3 -2 -1 -1 -1 -1 -1 -1 -1 -1 -1 -2 -2 -5 -9
-2 -2 -2 -2 -4 -5 -6 -8 -9 -5 -5 -5 -4 -4 -3 -3 -2 -3 -4 -4 -4 -1 1 0 2 3 1 3 2 1 2 1 -2 -2 -2 -2 -2 -3 -3 -3 -2 -2 -1 -1 -1 -2 -2 -2 -2 -2 -2 -4 -8 -8
-2 -2 -2 -2 -3 -4 -7 -11 -7 -5 -5 -5 -4 -4 -4 -4 -3 -4 -4 -3 -3 -2 -1 -0 -2 1 3 3 2 -1 -2 -3 -3 -3 -3 -3 -2 -2 -2 -3 -3 -2 -2 -1 -1 -2 -2 -2 -2 -3 -4 -5 -7 -7
-2 -2 -2 -3 -3 -5 -12 -9 -8 -5 -5 -5 -5 -5 -5 -4 -4 -4 -5 -6 -4 -4 -3 -2 -0 1 1 -2 -2 -3 -3 -4 -4 -4 -5 -4 -2 -3 -2 -2 -3 -3 -2 -2 -2 -2 -3 -3 -3 -3 -4 -6 -7 -7
-2 -2 -2 -3 -3 -7 -13 -10 -11 -5 -5 -5 -5 -5 -6 -5 -5 -6 -7 -8 -5 -4 -4 -3 -2 -2 -3 -3 -4 -7 -8 -8 -8 -6 -6 -6 -7 -6 -5 -3 -2 -3 -3 -2 -2 -3 -3 -3 -4 -4 -5 -6 -6 -7
-2 -2 -3 -3 -3 -5 -11 -10 -8 -6 -6 -6 -6 -6 -6 -7 -7 -6 -6 -5 -5 -4 -7 -4 -4 -4 -3 -5 -10 -12 -14 -14 -13 -10 -9 -8 -7 -5 -5 -3 -3 -2 -3 -3 -3 -3 -3 -3 -4 -4 -5 -6 -7 -9
-3 -3 -3 -3 -5 -8 -12 -9 -6 -7 -8 -7 -7 -7 -7 -7 -6 -7 -7 -6 -6 -5 -4 -4 -4 -5 -7 -14 -18 -19 -20 -20 -19 -18 -16 -13 -10 -9 -6 -6 -4 -3 -2 -3 -3 -3 -3 -3 -4 -5 -6 -6 -8 -10
-3 -3 -4 -5 -5 -7 -9 -10 -7 -7 -6 -7 -8 -9 -9 -7 -7 -8 -8 -7 -7 -6 -6 -5 -6 -7 -9 -13 -15 -20 -21 -19 -17 -16 -15 -15 -14 -13 -8 -6 -5 -4 -3 -3 -3 -4 -4 -4 -4 -6 -6 -8 -9 -11
-4 -4 -5 -5 -6 -7 -11 -8 -8 -7 -8 -8 -8 -9 -9 -8 -8 -8 -8 -6 -8 -10 -10 -9 -8 -8 -10 -11 -15 -22 -20 -18 -16 -14 -13 -13 -13 -13 -12 -11 -8 -6 -5 -4 -3 -4 -4 -4 -5 -6 -7 -8 -10 -11
-4 -6 -6 -7 -9 -10 -9 -9 -9 -8 -8 -8 -8 -10 -10 -9 -9 -10 -9 -8 -8 -10 -12 -11 -10 -10 -10 -12 -18 -20 -18 -16 -14 -14 -13 -12 -12 -12 -12 -12 -10 -8 -6 -5 -4 -4 -5 -5 -5 -5 -7 -9 -10 -8
-4 -6 -7 -8 -10 -9 -9 -8 -9 -9 -9 -10 -10 -11 -10 -10 -10 -11 -10 -12 -14 -17 -15 -16 -17 -15 -14 -16 -17 -17 -16 -14 -12 -12 -12 -12 -12 -12 -11 -10 -9 -9 -7 -6 -6 -6 -6 -6 -6 -6 -7 -9 -10 -5
-5 -7 -7 -10 -12 -13 -12 -13 -12 -10 -10 -10 -11 -12 -12 -11 -12 -12 -16 -17 -18 -17 -14 -12 -12 -13 -16 -16 -15 -15 -14 -12 -12 -12 -12 -12 -12 -12 -12 -12 -12 -11 -9 -7 -7 -6 -6 -6 -6 -7 -7 -9 -9 -5
-6 -9 -10 -12 -13 -13 -11 -11 -11 -11 -11 -12 -11 -11 -11 -12 -13 -17 -18 -19 -18 -16 -14 -14 -16 -16 -15 -15 -14 -13 -12 -12 -12 -12 -12 -12 -12 -12 -12 -11 -10 -10 -9 -7 -7 -7 -7 -7 -7 -7 -7 -8 -9 -5
-8 -10 -12 -9 -11 -13 -12 -12 -12 -14 -15 -14 -12 -11 -11 -14 -17 -19 -19 -19 -18 -17 -17 -16 -15 -15 -15 -13 -12 -11 -11 -11 -12 -12 -12 -12 -12 -12 -12 -11 -10 -8 -8 -7 -7 -7 -7 -8 -8 -8 -8 -8 -6 -5
-7 -10 -10 -11 -10 -10 -12 -14 -12 -14 -15 -14 -13 -14 -15 -17 -18 -18 -18 -18 -17 -16 -15 -15 -15 -13 -11 -11 -11 -11 -12 -12 -13 -12 -12 -12 -12 -12 -12 -11 -10 -9 -8 -8 -8 -8 -8 -9 -9 -9 -9 -7 -6 -7
-9 -9 -10 -11 -11 -11 -12 -13 -14 -14 -14 -15 -14 -14 -14 -15 -17 -17 -17 -16 -16 -16 -16 -14 -12 -11 -11 -12 -12 -13 -13 -13 -13 -12 -13 -12 -12 -12 -11 -11 -10 -9 -9 -9 -8 -9 -10 -10 -10 -10 -9 -8 -7 -8
-9 -8 -9 -10 -12 -13 -13 -13 -13 -13 -13 -13 -13 -13 -14 -14 -14 -15 -15 -15 -15 -15 -13 -11 -11 -11 -12 -12 -12 -13 -13 -13 -13 -13 -12 -12 -12 -12 -11 -10 -10 -10 -10 -9 -9 -10 -10 -10 -10 -10 -9 -8 -8 -12
-11 -10 -11 -12 -13 -13 -13 -13 -13 -13 -13 -13 -13 -13 -13 -13 -13 -14 -14 -15 -15 -13 -11 -11 -11 -11 -12 -12 -13 -13 -14 -13 -13 -12 -12 -12 -11 -11 -11 -10 -11 -10 -10 -10 -10 -10 -10 -10 -11 -10 -8 -8 -12 -12

GFSWCAN_850_dewp_015.txt.gz
Dewpoint
-3 -1 0 -2 -8 -13 -3 -1 -2 -3 -3 -2 -3 -2 -2 -2 -4 -9 -10 -2 -1 -0 -0 -0 1 4 4 3 3 3 3 4 4 5 4 5 5 5 4 3 4 5 5 6 6 6 5 -1 3 5 2 2 1 1
-3 -1 -0 -7 -10 -6 -3 -2 -1 -2 -3 -2 -2 -2 -2 -3 -4 -3 -7 -6 -4 -2 -0 -0 1 2 3 5 5 4 4 4 4 4 4 5 5 4 5 5 1 6 3 4 3 3 -1 -0 1 1 2 1 1 1
-1 -1 -2 -3 -7 -4 -3 -3 -2 -2 -4 -3 -3 -2 -3 -2 -3 -3 -3 -6 -4 -3 -4 -3 -2 1 2 4 5 4 4 4 3 4 4 4 5 4 5 5 5 2 1 3 3 2 1 1 1 1 1 0 0 1
-1 -1 -1 -2 -6 -7 -4 -3 -3 -2 -2 -4 -3 -3 -3 -4 -4 -4 -2 -5 -4 -3 -1 -0 2 4 3 3 2 3 4 4 4 3 4 4 5 4 4 4 4 3 3 3 3 2 2 1 1 1 -0 1 1 3
-1 -1 -1 -2 -6 -5 -4 -3 -4 -2 -2 -2 -3 -3 -3 -4 -4 -3 -5 -6 -7 -4 -1 -1 2 4 4 4 3 3 4 4 4 5 5 5 4 4 3 3 4 2 3 4 5 2 2 1 1 1 -0 0 1 1
-1 -1 -2 -3 -1 -2 -6 -5 -4 -2 -2 -3 -3 -3 -4 -3 -3 -3 -5 -3 -3 -4 -2 0 3 4 4 4 4 4 4 5 5 4 4 4 3 3 5 5 1 1 1 1 2 2 1 1 1 0 -0 -0 0 0
-1 -1 -1 -2 -1 -1 -2 -5 -4 -3 -4 -2 -3 -3 -4 -3 -3 -3 -5 -2 -2 -3 -3 -0 3 4 4 5 5 5 4 4 5 4 5 4 4 4 5 4 1 1 2 2 2 2 2 1 1 1 -1 -1 -1 -1
-1 -1 -2 -2 -2 -1 -1 -7 -3 -3 -3 -7 -4 -6 -3 -4 -5 -4 -5 -4 -2 -2 -2 -0 3 4 4 5 5 4 5 5 5 5 5 5 4 4 5 3 3 3 3 3 3 2 2 2 1 0 -1 -1 -1 -2
-1 -1 -1 -2 -2 -2 -2 -7 -3 -4 -13 -13 -5 -3 -2 -2 -3 -4 -3 -3 -4 -2 -2 0 3 4 5 4 5 4 5 5 4 5 4 4 4 5 4 4 4 3 2 3 3 2 2 2 1 0 -1 -1 -1 -2
-1 -1 -1 -2 -2 -2 -4 -8 -3 -10 -17 -7 -4 -2 -2 -3 -3 -3 -2 -1 -2 -1 -2 1 3 4 4 4 4 5 5 4 5 5 4 5 4 3 -1 -2 -2 -2 -2 1 3 2 2 1 1 -0 -1 -1 -1 -1
-1 -1 -2 -2 -2 -2 -4 -5 -3 -11 -17 -7 -3 -3 -3 -3 -2 -2 -1 -1 -1 1 1 2 4 3 3 3 4 4 3 3 5 3 3 3 5 0 -2 -2 -1 -1 -0 0 1 2 2 2 1 0 -1 -1 -1 -1
-1 -1 -1 -2 -2 -1 -2 -3 -3 -10 -13 -10 -3 -3 -2 -2 -1 -1 -0 0 1 2 3 3 3 3 3 3 3 3 3 3 4 1 3 3 2 -2 -2 -2 -1 0 1 1 2 3 3 2 1 0 -1 0 2 0
-1 -1 -1 -2 -2 -2 -2 -2 -2 -9 -11 -3 -3 -3 -2 -1 -1 1 1 2 2 0 1 2 2 3 3 3 2 2 3 3 0 3 3 1 -1 -2 -3 -3 -2 -0 1 0 1 2 2 1 1 0 -0 -1 -1 -1
-1 -1 -1 -2 -2 -2 -2 -2 -6 -11 -8 -4 -4 -3 -2 -1 -1 -1 -0 0 -0 -0 0 1 2 2 2 2 2 3 2 1 2 3 1 0 -1 -3 -3 -3 -2 -1 -1 1 -0 0 0 0 1 2 1 -0 -1 -2
-0 -1 -1 -2 -2 -2 -2 -4 -9 -12 -7 -4 -4 -4 -2 -3 -3 -1 -2 -1 -0 -0 0 1 2 2 1 2 1 2 2 2 1 0 0 -1 -2 -3 -3 -3 -3 -2 -1 -1 -0 -0 -0 -0 1 2 2 1 -1 -0
-1 -1 -2 -2 -2 -2 -3 -6 -9 -10 -4 -4 -4 -3 -3 -3 -2 -3 -3 -2 -1 -2 1 1 1 2 3 2 3 2 1 1 -1 -2 -2 -2 -2 -3 -2 -3 -3 -2 -2 -2 -2 -1 -1 -1 -1 0 2 1 -1 1
-1 -2 -2 -2 -2 -3 -4 -5 -9 -5 -4 -5 -4 -4 -3 -2 -3 -2 -4 -3 -3 -3 1 0 2 3 1 3 2 1 2 -1 -2 -2 -3 -3 -2 -3 -3 -2 -2 -3 -2 -2 -2 -2 -2 -2 -2 -1 -1 -1 -1 -0
-1 -2 -2 -2 -2 -3 -4 -8 -9 -5 -5 -5 -4 -4 -4 -3 -3 -4 -4 -4 -5 -2 -1 0 -2 0 2 3 2 -1 -2 -2 -3 -3 -6 -5 -3 -3 -6 -5 -2 -2 -3 -2 -2 -2 -2 -2 -2 -2 -2 -3 -3 -5
-1 -1 -2 -2 -3 -4 -8 -10 -9 -5 -5 -5 -5 -5 -5 -4 -4 -4 -4 -5 -5 -4 -4 -2 -1 -0 -1 -2 -2 -3 -3 -6 -6 -8 -9 -10 -5 -8 -9 -8 -5 -2 -2 -3 -2 -2 -2 -3 -3 -3 -3 -3 -5 -7
-1 -2 -2 -2 -3 -5 -10 -10 -10 -7 -5 -6 -5 -5 -5 -5 -5 -5 -6 -7 -6 -5 -5 -6 -3 -2 -2 -2 -3 -6 -8 -10 -11 -12 -15 -16 -14 -15 -14 -11 -7 -5 -3 -2 -3 -3 -3 -3 -3 -4 -4 -4 -5 -7
-2 -2 -2 -3 -3 -6 -9 -12 -10 -7 -5 -7 -6 -6 -6 -6 -7 -8 -8 -7 -6 -4 -9 -6 -5 -4 -3 -3 -4 -9 -15 -19 -19 -18 -17 -18 -17 -15 -16 -15 -13 -10 -6 -3 -2 -3 -3 -3 -4 -4 -4 -5 -6 -7
-2 -2 -3 -3 -4 -5 -6 -7 -8 -7 -8 -7 -7 -7 -8 -7 -7 -8 -7 -7 -7 -7 -6 -6 -7 -5 -4 -5 -9 -16 -18 -19 -21 -21 -18 -17 -16 -16 -16 -16 -15 -12 -8 -6 -3 -3 -3 -4 -4 -4 -5 -5 -6 -7
-2 -3 -3 -4 -4 -5 -6 -8 -9 -8 -7 -8 -8 -9 -9 -8 -7 -8 -9 -8 -8 -12 -12 -7 -6 -6 -6 -9 -13 -14 -19 -22 -22 -22 -21 -19 -17 -15 -14 -14 -12 -13 -13 -12 -7 -4 -3 -4 -4 -5 -5 -6 -6 -7
-3 -3 -3 -4 -4 -7 -8 -8 -8 -7 -7 -8 -8 -9 -10 -8 -8 -8 -8 -8 -10 -12 -11 -10 -9 -6 -7 -8 -10 -11 -14 -20 -20 -20 -18 -17 -17 -16 -13 -13 -13 -13 -13 -13 -9 -6 -4 -4 -5 -5 -6 -7 -7 -7
-3 -5 -5 -8 -6 -11 -12 -10 -9 -8 -8 -8 -8 -9 -11 -9 -11 -11 -9 -10 -12 -11 -12 -13 -12 -13 -13 -15 -16 -16 -14 -16 -17 -18 -18 -16 -14 -12 -12 -12 -12 -12 -12 -11 -8 -6 -5 -5 -6 -5 -6 -7 -7 -8
-4 -6 -7 -10 -12 -11 -11 -9 -9 -9 -8 -8 -9 -11 -10 -10 -10 -11 -10 -14 -16 -19 -20 -22 -22 -20 -18 -19 -19 -18 -15 -15 -16 -15 -17 -14 -12 -12 -12 -12 -12 -12 -12 -12 -10 -7 -6 -6 -6 -6 -6 -7 -8 -8
-5 -8 -7 -8 -11 -12 -11 -12 -11 -9 -9 -9 -11 -10 -11 -11 -12 -12 -18 -20 -21 -23 -20 -19 -17 -15 -15 -13 -12 -12 -14 -15 -15 -14 -13 -12 -12 -12 -12 -12 -12 -12 -12 -12 -11 -10 -8 -7 -7 -7 -7 -7 -8 -8
-6 -8 -9 -11 -13 -13 -11 -11 -11 -11 -10 -12 -11 -10 -11 -13 -13 -19 -20 -23 -22 -21 -20 -20 -19 -16 -15 -16 -16 -16 -15 -14 -12 -11 -11 -11 -11 -11 -11 -12 -12 -12 -12 -11 -10 -10 -8 -8 -7 -7 -7 -7 -8 -8
-9 -10 -11 -10 -12 -13 -12 -12 -12 -16 -14 -13 -12 -12 -12 -16 -17 -21 -22 -21 -21 -20 -19 -18 -17 -16 -16 -15 -15 -14 -11 -11 -11 -12 -12 -12 -12 -12 -12 -12 -12 -12 -11 -10 -9 -8 -8 -8 -8 -8 -8 -8 -8 -8
-9 -11 -11 -11 -11 -11 -12 -15 -13 -14 -14 -14 -14 -14 -15 -16 -18 -19 -19 -19 -19 -18 -17 -17 -16 -16 -16 -14 -11 -11 -11 -12 -12 -13 -13 -13 -13 -12 -12 -12 -12 -11 -11 -10 -9 -8 -8 -8 -8 -9 -9 -9 -9 -9
-10 -10 -11 -11 -11 -11 -12 -13 -14 -15 -15 -15 -15 -15 -16 -17 -18 -17 -16 -16 -16 -16 -16 -16 -16 -14 -12 -11 -11 -12 -12 -12 -13 -13 -13 -13 -13 -13 -12 -12 -12 -11 -11 -10 -9 -9 -9 -9 -9 -9 -10 -10 -10 -9
-9 -9 -10 -10 -13 -13 -12 -13 -13 -13 -13 -13 -13 -13 -13 -14 -14 -14 -14 -14 -16 -16 -16 -16 -13 -11 -11 -11 -12 -12 -12 -13 -13 -13 -13 -12 -13 -12 -12 -12 -12 -11 -10 -10 -10 -9 -9 -9 -10 -10 -10 -10 -10 -10
-10 -10 -11 -12 -13 -13 -13 -13 -13 -13 -13 -13 -13 -13 -13 -14 -14 -14 -14 -15 -15 -15 -15 -13 -11 -11 -12 -12 -12 -12 -13 -13 -13 -13 -12 -12 -12 -12 -11 -11 -11 -10 -10 -10 -10 -10 -9 -10 -10 -10 -11 -11 -10 -10

GFSWCAN_850_dewp_018.txt.gz
Dewpoint
-3 -4 -2 -2 -1 -2 -3 -3 -2 -1 -2 -4 -2 -2 -2 -2 -3 -4 -7 -6 -7 -1 -0 -1 0 2 3 3 2 2 3 3 3 4 4 5 5 4 5 3 5 5 6 7 6 6 5 -1 3 5 1 1 2 1
-1 -1 -1 -1 -1 -1 -2 -2 -3 -2 -1 -3 -3 -2 -3 -3 -2 -3 -3 -5 -5 -4 -7 -4 -1 0 2 3 4 4 3 3 3 3 3 4 5 4 4 4 2 5 2 4 4 3 -1 -1 1 1 2 1 1 1
-1 -1 -1 -1 -1 -1 -2 -3 -3 -3 -1 -2 -3 -2 -3 -4 -4 -4 -3 -3 -4 -4 -7 -6 -20 -7 -2 2 3 5 4 4 3 4 3 4 5 4 4 4 4 2 1 3 2 1 0 0 1 1 1 0 -0 0
-1 -1 -1 -1 -1 -1 -2 -3 -5 -4 -1 -1 -2 -3 -3 -3 -4 -3 -2 -4 -3 -6 -4 -6 -1 -1 -0 2 3 5 5 3 3 3 3 4 4 3 3 3 4 3 3 3 3 3 2 2 1 1 1 0 1 1
-1 -1 -1 -1 -1 -1 -1 -2 -6 -4 -2 -2 -3 -3 -3 -3 -5 -3 -3 -3 -3 -4 -4 -3 -7 -1 1 4 4 4 5 4 4 4 4 4 3 3 3 3 4 2 3 4 3 2 2 2 1 1 1 0 0 2
-1 -1 -1 -1 -1 -1 -1 -1 -3 -5 -2 -2 -3 -3 -3 -4 -3 -2 -3 -3 -3 -4 -4 -3 -1 2 4 5 4 3 4 4 4 4 4 4 3 3 5 5 2 1 1 1 1 1 2 2 1 1 1 -0 -0 0
-1 -1 -1 -1 -1 -1 -1 -1 -3 -5 -2 -4 -5 -4 -4 -4 -3 -3 -5 -4 -4 -3 -3 -2 -0 3 4 5 5 5 5 5 4 4 4 4 4 4 5 4 1 3 4 4 3 3 2 2 2 1 1 -0 -0 0
-1 -1 -1 -1 -1 -2 -1 -1 -6 -3 -3 -13 -9 -6 -4 -5 -5 -5 -5 -6 -4 -4 -3 -1 0 4 5 4 4 4 4 4 4 4 4 4 4 4 5 2 3 3 1 2 2 3 3 2 2 1 1 -0 -1 -1
-1 -1 -1 -1 -1 -2 -1 -2 -7 -2 -9 -14 -5 -3 -3 -4 -3 -3 -4 -3 -4 -2 -2 -1 2 4 4 4 4 4 5 5 4 4 4 4 4 5 2 -1 -2 -2 -1 -2 -2 2 2 2 1 1 1 -1 -1 -2
-1 -1 -1 -1 -2 -2 -1 -2 -4 -3 -15 -9 -3 -2 -3 -3 -3 -4 -2 -2 -2 -2 -2 -1 1 4 4 4 4 4 4 4 5 5 4 5 4 2 -1 -2 -2 -1 -0 0 0 1 2 2 2 1 1 -1 -1 -2
-1 -1 -1 -1 -2 -2 -2 -2 -2 -4 -15 -10 -4 -3 -4 -4 -2 -2 -2 -1 -1 0 -1 0 3 4 3 3 5 4 3 3 4 3 4 3 5 -1 -2 -3 -2 -1 0 0 0 1 1 2 2 2 0 -1 -1 -2
-0 -1 -1 -2 -1 -2 -1 -2 -2 -4 -12 -12 -6 -3 -2 -2 -2 -1 -1 -0 1 2 2 2 3 3 4 3 3 3 2 2 4 1 3 3 2 -2 -3 -3 -2 -1 -0 0 0 1 2 2 2 1 1 -1 -1 -0
-0 -1 -1 -1 -2 -2 -2 -2 -2 -6 -11 -4 -3 -3 -3 -2 -1 -0 1 1 2 -0 0 1 2 3 3 3 2 2 3 3 -0 3 2 2 -1 -2 -3 -3 -3 -1 -1 1 0 1 1 1 1 1 0 -1 -1 3
-0 -1 -1 -2 -2 -2 -2 -2 -3 -10 -9 -4 -4 -3 -2 -1 -1 -1 -0 -0 -0 -0 0 1 2 2 2 2 2 3 2 0 2 2 2 -0 -2 -3 -3 -3 -3 -2 -1 -1 1 1 0 0 1 1 1 2 -1 0
-0 -0 -1 -1 -2 -2 -2 -2 -6 -10 -9 -4 -4 -3 -3 -3 -2 -2 -2 -2 -0 -0 0 1 2 2 1 2 2 2 3 2 1 -0 -0 -2 -2 -2 -2 -2 -3 -3 -2 -1 -1 1 1 -0 1 1 2 2 1 -0
0 -1 -1 -2 -2 -2 -2 -3 -6 -10 -5 -5 -5 -4 -4 -3 -2 -3 -3 -3 -1 -1 -0 0 1 2 3 2 2 2 1 1 -1 -2 -2 -3 -2 -3 -5 -4 -2 -3 -3 -2 -2 -2 -1 -1 -1 1 1 2 1 1
0 -1 -1 -2 -2 -2 -2 -4 -7 -9 -5 -4 -4 -4 -4 -4 -2 -3 -3 -2 -2 -1 0 0 2 2 0 3 2 1 2 -0 -2 -2 -4 -4 -3 -3 -5 -8 -7 -3 -3 -3 -2 -2 -2 -2 -2 -1 -1 1 2 1
0 -0 -1 -1 -2 -2 -3 -4 -9 -6 -5 -5 -5 -5 -4 -4 -3 -3 -4 -4 -4 -2 -1 -0 -1 1 2 3 1 -1 -2 -2 -2 -4 -7 -8 -8 -5 -9 -11 -9 -6 -4 -3 -3 -3 -2 -2 -2 -2 -2 -2 -1 -0
0 0 -1 -2 -2 -3 -6 -9 -10 -6 -6 -6 -4 -4 -4 -4 -4 -4 -4 -4 -5 -4 -3 -2 -1 -0 -0 -1 -2 -2 -2 -2 -4 -6 -9 -14 -12 -14 -16 -16 -15 -12 -9 -4 -3 -3 -3 -3 -3 -3 -3 -3 -3 -3
-0 -1 -1 -2 -3 -4 -8 -10 -10 -8 -6 -6 -6 -5 -5 -5 -5 -5 -4 -5 -6 -5 -5 -5 -3 -2 -2 -1 -1 -2 -4 -5 -8 -13 -17 -18 -18 -17 -18 -18 -18 -18 -16 -12 -5 -3 -3 -3 -3 -3 -4 -4 -4 -5
-2 -2 -2 -2 -3 -4 -8 -10 -11 -10 -6 -7 -6 -6 -7 -6 -6 -6 -6 -7 -6 -5 -9 -10 -10 -7 -2 -2 -3 -5 -7 -11 -17 -18 -18 -19 -19 -20 -20 -18 -17 -18 -17 -15 -11 -6 -3 -3 -4 -4 -4 -4 -4 -5
-2 -2 -3 -3 -3 -5 -5 -7 -9 -7 -8 -7 -7 -7 -7 -8 -7 -8 -7 -7 -7 -11 -14 -16 -20 -14 -5 -4 -6 -7 -13 -16 -17 -20 -22 -22 -21 -20 -20 -17 -16 -16 -16 -15 -15 -13 -8 -4 -3 -4 -4 -4 -5 -5
-2 -3 -3 -3 -4 -5 -6 -6 -9 -9 -8 -8 -8 -9 -10 -8 -7 -8 -9 -8 -9 -15 -17 -14 -12 -10 -6 -5 -6 -11 -14 -15 -19 -22 -21 -20 -19 -19 -19 -18 -15 -14 -14 -15 -14 -14 -14 -8 -4 -4 -4 -5 -5 -6
-3 -3 -3 -3 -4 -7 -7 -9 -9 -7 -7 -8 -10 -9 -11 -9 -8 -9 -10 -10 -13 -15 -14 -13 -9 -6 -6 -7 -8 -11 -12 -12 -13 -19 -19 -19 -19 -18 -18 -18 -16 -14 -12 -13 -13 -13 -15 -13 -5 -4 -4 -5 -6 -6
-3 -4 -4 -7 -7 -10 -13 -11 -11 -10 -10 -8 -7 -8 -10 -9 -11 -12 -9 -10 -14 -12 -13 -12 -9 -9 -10 -13 -14 -16 -12 -12 -12 -15 -17 -17 -17 -17 -18 -17 -14 -13 -12 -12 -12 -12 -11 -9 -6 -5 -5 -5 -6 -6
-3 -5 -6 -9 -12 -12 -12 -11 -10 -10 -9 -8 -7 -10 -10 -10 -10 -11 -10 -15 -17 -17 -16 -18 -21 -19 -18 -20 -21 -20 -18 -15 -14 -15 -16 -16 -16 -15 -15 -13 -12 -12 -12 -12 -12 -12 -12 -12 -8 -6 -6 -6 -6 -7
-4 -6 -6 -8 -9 -11 -11 -11 -10 -10 -9 -9 -10 -11 -10 -10 -12 -12 -19 -20 -20 -22 -23 -22 -22 -21 -20 -18 -17 -16 -14 -12 -12 -14 -16 -16 -15 -13 -12 -11 -11 -12 -11 -11 -12 -12 -12 -12 -12 -8 -7 -7 -7 -7
-4 -7 -9 -9 -12 -12 -12 -11 -11 -11 -10 -11 -11 -10 -10 -12 -12 -20 -21 -22 -23 -23 -22 -21 -20 -20 -20 -19 -18 -16 -15 -15 -16 -16 -15 -13 -12 -12 -12 -13 -12 -12 -11 -12 -12 -12 -11 -11 -11 -9 -8 -8 -8 -8
-7 -8 -9 -13 -13 -13 -13 -13 -12 -15 -15 -14 -10 -11 -12 -17 -18 -20 -22 -23 -23 -22 -21 -21 -20 -19 -18 -17 -17 -16 -16 -15 -13 -12 -12 -12 -12 -13 -13 -13 -13 -12 -12 -12 -12 -11 -10 -10 -9 -9 -8 -8 -8 -8
-9 -9 -12 -12 -13 -12 -13 -16 -16 -17 -16 -15 -16 -16 -16 -18 -19 -19 -20 -21 -22 -21 -20 -19 -18 -18 -17 -16 -16 -16 -13 -11 -11 -12 -12 -13 -13 -13 -13 -13 -13 -12 -12 -12 -11 -11 -10 -10 -9 -9 -9 -9 -9 -9
-9 -10 -12 -12 -11 -11 -11 -12 -14 -15 -15 -15 -15 -15 -16 -17 -18 -18 -17 -17 -17 -17 -17 -16 -16 -16 -16 -16 -14 -12 -12 -12 -12 -12 -12 -13 -13 -13 -13 -13 -12 -12 -12 -12 -12 -11 -10 -9 -9 -8 -8 -9 -9 -9
-9 -11 -11 -12 -14 -12 -12 -13 -13 -14 -13 -14 -14 -14 -14 -14 -14 -13 -13 -13 -13 -14 -14 -15 -16 -16 -15 -12 -11 -12 -12 -12 -12 -13 -13 -13 -13 -13 -11 -12 -12 -12 -12 -12 -11 -10 -10 -10 -9 -9 -9 -9 -10 -10
-10 -10 -12 -12 -13 -13 -13 -13 -13 -13 -13 -13 -13 -13 -13 -13 -14 -13 -13 -14 -15 -16 -16 -16 -16 -13 -11 -11 -12 -12 -12 -12 -13 -14 -14 -14 -13 -12 -11 -12 -11 -11 -11 -11 -10 -10 -10 -10 -9 -9 -9 -10 -10 -10

GFSWCAN_850_dewp_021.txt.gz
Dewpoint
-3 -2 -2 -2 -1 -2 -1 -1 -3 -2 -2 -1 -2 -3 -2 -3 -3 -3 -5 -8 -8 -4 -4 -4 1 1 2 3 2 2 2 3 3 3 3 3 4 5 5 3 5 5 6 6 6 6 4 1 3 4 1 1 2 1
-2 -1 -2 -1 -1 -1 -1 -1 -3 -3 -3 -1 -1 -2 -3 -2 -3 -3 -3 -3 -3 -4 -10 -11 -9 -4 -2 -1 2 4 2 2 3 2 2 3 4 4 4 5 2 5 2 3 3 2 -1 0 1 -0 0 1 1 1
-2 -1 -1 -1 -1 -1 -1 -1 -1 -3 -3 -3 -0 -1 -4 -3 -3 -3 -3 -2 -3 -3 -4 -4 -11 -18 -14 -12 0 1 4 3 3 2 2 3 4 4 5 3 3 2 1 3 3 1 1 1 2 2 1 1 0 1
0 -0 -1 -1 -1 -1 -1 -1 -1 -1 -3 -3 -1 -1 -3 -4 -3 -3 -3 -4 -2 -3 -4 -7 -6 -8 -3 -2 -5 -2 3 4 4 3 3 3 3 2 2 2 3 2 2 3 3 2 2 2 2 1 1 1 1 0
-0 -1 -1 -1 -1 -1 -1 -1 -1 -1 -2 -4 -2 -2 -3 -4 -3 -4 -3 -3 -2 -3 -4 -6 -7 -13 -16 -4 1 2 1 4 4 3 3 3 2 3 2 3 3 1 2 3 3 1 2 2 2 2 1 1 1 -0
-0 -0 -1 -1 -1 -1 -1 -1 -1 -1 -2 -4 -2 -3 -4 -4 -3 -3 -3 -4 -4 -3 -3 -5 -8 -12 -5 -2 0 3 4 5 4 3 4 4 3 2 4 5 1 1 2 4 2 4 3 2 2 2 1 1 0 -0
0 -0 -0 -1 -1 -1 -1 -1 -1 -1 -3 -2 -4 -10 -4 -4 -3 -2 -5 -4 -4 -3 -5 -5 -3 -2 0 2 4 3 5 5 4 4 4 4 4 3 5 4 1 3 3 2 3 1 3 2 2 1 1 1 0 -0
0 -0 -0 -1 -1 -1 -1 -1 -1 -1 -5 -3 -13 -5 -4 -5 -5 -4 -4 -4 -4 -4 -3 -2 -1 0 2 4 4 4 5 4 4 4 4 4 4 4 4 2 -1 -2 -2 -1 1 -0 -1 2 2 2 1 1 0 -1
0 -1 -1 -1 -1 -1 -2 -1 -1 -2 -3 -8 -6 -3 -3 -3 -3 -4 -4 -3 -3 -3 -2 -1 -0 3 3 4 4 4 3 4 4 3 4 4 4 5 1 -2 -2 -2 -2 -1 -1 -1 -2 1 1 1 1 1 0 -1
-0 -1 -1 -1 -1 -1 -2 -1 -2 -2 -2 -13 -4 -2 -3 -3 -3 -3 -2 -2 -3 -2 -3 -2 -1 1 4 3 4 4 4 4 4 4 4 4 4 0 -2 -3 -3 -3 -1 -1 0 0 -0 1 2 1 1 1 -0 -1
-0 -1 -1 -1 -1 -1 -2 -1 -1 -2 -5 -13 -5 -3 -3 -3 -3 -2 -2 -1 -1 -2 -1 -1 -0 4 3 3 4 4 3 3 4 3 5 4 3 -1 -2 -3 -3 -2 -1 -0 0 -0 0 1 1 2 2 1 -0 -1
0 -0 -1 -1 -1 -1 -2 -1 -2 -2 -3 -11 -8 -4 -3 -3 -2 -1 -1 -1 0 1 1 1 2 3 4 3 3 3 2 2 4 2 3 2 1 -2 -3 -3 -3 -2 -1 -0 0 0 0 2 2 2 2 1 -0 -1
1 0 -0 -1 -1 -2 -2 -2 -2 -2 -6 -6 -4 -3 -3 -2 -1 -1 -1 -0 2 -0 0 0 2 3 3 3 2 2 3 2 -0 3 2 2 -2 -3 -3 -3 -3 -2 -2 -1 1 1 0 1 1 1 1 0 -0 -2
-1 1 -0 -1 -1 -2 -2 -2 -2 -3 -10 -5 -5 -4 -3 -3 -2 -1 -1 -3 -0 -0 -0 0 1 2 2 2 2 2 2 1 3 2 1 -1 -2 -2 -2 -2 -3 -3 -2 -2 -1 2 2 2 1 1 1 0 1 -1
-1 0 -0 -1 -1 -1 -2 -2 -2 -3 -9 -5 -4 -5 -5 -4 -3 -2 -2 -2 -1 -1 -0 1 1 2 1 2 1 2 3 2 1 0 -2 -2 -2 -3 -4 -5 -3 -3 -3 -3 -2 -2 -1 -0 0 1 2 2 2 1
-0 0 -0 -1 -2 -1 -2 -2 -2 -4 -8 -5 -4 -5 -4 -3 -4 -3 -3 -3 -2 -1 -0 -0 1 2 3 1 2 2 2 2 -1 -2 -2 -3 -2 -3 -5 -8 -7 -4 -3 -3 -3 -2 -2 -2 -1 -1 1 2 2 1
0 0 -1 -1 -1 -2 -2 -2 -3 -7 -6 -5 -5 -5 -4 -4 -4 -3 -3 -3 -2 -2 0 0 2 2 1 2 1 -0 1 -1 -1 -2 -4 -4 -4 -3 -4 -11 -11 -8 -6 -4 -3 -3 -2 -2 -2 -2 -1 -0 1 1
-0 -1 -0 -0 -2 -2 -2 -3 -3 -7 -5 -5 -6 -5 -4 -4 -3 -4 -4 -4 -3 -2 -2 -0 -1 1 2 2 -0 -2 -1 -1 -2 -4 -6 -7 -9 -7 -12 -16 -16 -16 -15 -11 -6 -4 -3 -3 -2 -2 -2 -2 -2 -0
-2 0 -0 -0 -1 -2 -3 -4 -6 -7 -7 -6 -5 -5 -4 -4 -4 -4 -4 -4 -4 -4 -3 -3 -3 -1 -0 -2 -2 -1 -1 -2 -2 -2 -5 -10 -13 -16 -17 -18 -18 -19 -19 -18 -15 -8 -4 -3 -3 -3 -3 -3 -3 -3
-1 -0 -0 -1 -2 -3 -5 -8 -10 -9 -8 -7 -6 -5 -5 -4 -5 -5 -5 -4 -4 -6 -5 -6 -4 -3 -2 -2 -1 -1 -1 -2 -3 -5 -10 -16 -18 -18 -19 -20 -22 -21 -20 -20 -19 -15 -8 -4 -3 -3 -3 -4 -4 -4
-1 -1 -2 -2 -3 -3 -5 -8 -10 -11 -9 -7 -7 -7 -7 -7 -6 -6 -6 -6 -5 -6 -7 -11 -13 -9 -4 -3 -2 -1 -2 -4 -5 -8 -15 -18 -20 -23 -23 -23 -22 -20 -18 -17 -17 -18 -17 -12 -6 -3 -3 -4 -4 -5
-2 -2 -2 -3 -3 -3 -4 -7 -9 -9 -8 -8 -8 -7 -7 -8 -8 -7 -7 -6 -6 -8 -8 -12 -15 -22 -19 -11 -5 -3 -5 -9 -14 -16 -18 -22 -24 -23 -22 -21 -22 -23 -21 -17 -15 -15 -16 -16 -16 -11 -5 -3 -4 -4
-3 -3 -3 -3 -3 -4 -5 -6 -7 -8 -9 -9 -8 -9 -9 -9 -8 -9 -8 -8 -9 -14 -18 -19 -20 -20 -17 -10 -5 -6 -9 -13 -15 -16 -21 -22 -21 -20 -19 -18 -18 -19 -20 -18 -14 -13 -13 -14 -15 -15 -9 -4 -4 -4
-3 -3 -3 -3 -3 -6 -7 -7 -8 -7 -7 -8 -10 -9 -10 -10 -8 -9 -10 -11 -15 -17 -18 -17 -16 -12 -9 -7 -5 -6 -9 -13 -14 -14 -15 -18 -19 -19 -18 -18 -18 -18 -17 -14 -13 -13 -13 -13 -13 -13 -12 -7 -4 -5
-3 -4 -4 -6 -6 -9 -14 -11 -12 -9 -9 -9 -9 -10 -11 -9 -12 -13 -11 -11 -14 -16 -16 -15 -13 -10 -9 -10 -9 -9 -10 -12 -12 -13 -14 -13 -15 -16 -17 -17 -18 -15 -13 -12 -12 -12 -13 -13 -13 -13 -11 -8 -5 -5
-4 -4 -6 -8 -11 -10 -12 -12 -12 -11 -10 -10 -9 -10 -10 -12 -12 -12 -11 -16 -19 -19 -18 -16 -18 -13 -12 -14 -13 -17 -18 -16 -15 -17 -18 -16 -14 -14 -16 -16 -14 -13 -12 -12 -12 -12 -12 -12 -12 -12 -12 -10 -7 -7
-6 -7 -6 -6 -8 -10 -12 -11 -11 -11 -11 -9 -10 -11 -10 -10 -13 -13 -20 -21 -20 -20 -19 -18 -20 -23 -23 -22 -20 -18 -17 -16 -16 -15 -14 -14 -15 -16 -15 -13 -12 -12 -13 -13 -13 -12 -12 -11 -12 -12 -12 -12 -9 -7
-5 -6 -9 -8 -11 -11 -13 -12 -13 -12 -11 -11 -11 -10 -10 -12 -13 -20 -21 -21 -22 -22 -23 -22 -21 -20 -20 -20 -20 -19 -18 -16 -16 -15 -16 -17 -17 -13 -12 -12 -12 -13 -13 -13 -13 -13 -12 -11 -12 -12 -11 -11 -11 -8
-5 -6 -7 -14 -12 -12 -13 -13 -13 -14 -13 -10 -10 -11 -12 -18 -20 -20 -21 -23 -23 -23 -22 -22 -21 -20 -20 -19 -19 -18 -17 -17 -16 -16 -16 -14 -12 -12 -13 -13 -13 -13 -13 -13 -13 -12 -12 -11 -12 -11 -11 -10 -10 -9
-7 -7 -10 -13 -14 -13 -13 -15 -16 -16 -15 -13 -15 -16 -17 -18 -19 -20 -20 -20 -20 -23 -23 -21 -20 -20 -19 -19 -18 -17 -16 -16 -15 -12 -12 -12 -13 -13 -12 -13 -13 -13 -13 -13 -13 -13 -12 -11 -11 -11 -10 -10 -10 -9
-8 -8 -11 -12 -13 -12 -12 -13 -15 -15 -14 -14 -14 -14 -15 -14 -12 -12 -13 -14 -15 -17 -19 -19 -20 -19 -18 -17 -16 -16 -15 -12 -12 -12 -12 -12 -12 -12 -13 -14 -13 -12 -12 -12 -12 -12 -12 -12 -12 -11 -10 -10 -10 -9
-9 -10 -12 -14 -14 -12 -12 -12 -13 -14 -14 -14 -14 -14 -14 -14 -14 -11 -11 -11 -11 -12 -13 -14 -14 -15 -15 -16 -16 -13 -12 -12 -12 -12 -12 -12 -13 -14 -14 -14 -12 -11 -11 -12 -12 -12 -12 -11 -11 -10 -10 -9 -9 -9
-9 -11 -12 -12 -14 -13 -13 -13 -13 -13 -13 -13 -13 -13 -13 -13 -13 -11 -12 -12 -13 -14 -15 -15 -16 -16 -16 -14 -12 -12 -12 -12 -11 -11 -11 -13 -13 -11 -11 -12 -11 -11 -11 -12 -11 -11 -11 -11 -10 -10 -9 -9 -9 -9

GFSWCAN_850_dewp_024.txt.gz
Dewpoint
-1 -3 -3 -2 -2 -1 -1 -2 -2 -1 -4 -3 -1 -0 -1 -4 -4 -3 -4 -6 -5 -7 -10 -10 -2 1 1 3 1 2 2 2 2 3 3 3 3 4 4 3 5 5 4 5 4 5 4 1 3 4 1 1 1 1
-2 -4 -2 -2 -2 -1 -1 -2 -2 -2 -1 -2 -2 -1 -1 -2 -5 -3 -2 -3 -3 -3 -7 -8 -8 -8 -7 -3 -1 2 2 1 2 2 2 2 3 3 4 5 2 5 2 3 3 2 -2 -0 1 0 -0 0 1 1
-3 -2 -1 -0 -0 -1 -2 -2 -2 -1 -2 -2 -4 -1 -1 -1 -2 -4 -2 -3 -3 -3 -3 -3 -7 -10 -10 -12 -11 0 3 3 3 2 1 2 3 2 4 3 3 2 1 2 3 1 1 1 1 2 2 1 1 1
-2 -1 0 0 -0 -1 -1 -1 -1 -1 -1 -2 -2 -2 -1 -1 -3 -3 -2 -3 -3 -3 -3 -6 -7 -8 -7 -8 -3 -11 -0 4 3 3 2 2 2 1 2 1 2 2 2 3 3 2 1 1 2 2 1 1 1 1
-2 -1 -1 0 -0 -1 -1 -2 -1 -1 -1 -1 -2 -2 -1 -3 -5 -4 -5 -5 -3 -3 -3 -4 -4 -7 -8 -7 -8 -6 -8 -4 -0 4 3 3 2 2 1 2 2 1 1 3 3 1 2 2 2 2 2 2 1 1
-2 -1 -0 -0 -0 -1 -1 -2 -2 -1 -1 -1 -2 -1 -3 -7 -4 -3 -3 -4 -4 -4 -4 -4 -6 -8 -10 -12 -10 -11 -3 -1 1 4 3 3 3 2 3 4 1 1 1 2 3 3 3 3 3 3 2 2 1 1
-0 0 0 -0 -0 -1 -1 -1 -1 -1 -1 -1 -2 -3 -8 -4 -4 -4 -4 -5 -5 -4 -3 -5 -5 -3 -1 -6 -2 -2 1 2 2 4 3 3 4 3 4 3 2 3 2 0 -1 0 3 2 0 2 2 1 1 1
1 0 0 0 -0 -1 -1 -1 -2 -1 -1 -1 -3 -9 -4 -4 -5 -5 -5 -4 -4 -4 -4 -3 -3 -1 1 0 1 2 3 3 4 4 4 3 4 4 4 2 0 -1 -1 -1 -0 -1 -1 -1 -1 0 2 1 1 1
1 0 0 -0 -0 -1 -1 -1 -2 -1 -2 -2 -8 -3 -3 -3 -4 -4 -4 -3 -2 -3 -3 -2 -1 0 1 1 3 2 2 3 4 4 4 3 3 4 2 0 -2 -2 -2 -2 -2 -2 -1 -0 -0 0 1 1 1 1
1 0 -0 -1 -1 -1 -1 -2 -1 -1 -2 -4 -10 -2 -3 -3 -3 -3 -2 -3 -3 -3 -3 -2 -2 -0 0 3 4 4 3 3 3 4 4 4 2 -0 -2 -2 -3 -3 -3 -2 -1 -1 0 -0 0 0 1 1 1 1
1 0 -0 -1 -1 -1 -1 -2 -1 -2 -3 -8 -10 -4 -3 -3 -3 -2 -2 -1 -2 -1 -2 -2 -1 0 4 3 4 3 3 2 3 4 4 4 3 -0 -2 -3 -3 -3 -2 -1 -1 -0 -0 -0 0 1 1 1 2 1
1 0 0 -1 -1 -1 -1 -2 -1 -2 -2 -3 -8 -7 -4 -3 -3 -1 -2 -1 -1 -0 1 0 1 2 3 3 2 2 2 2 3 2 4 2 -0 -2 -3 -3 -3 -2 -1 -1 -0 1 1 0 1 1 2 2 1 1
-0 0 0 -0 -1 -1 -1 -2 -2 -2 -2 -5 -4 -4 -3 -3 -1 -1 -2 -2 -0 -0 -0 -0 0 2 3 2 2 2 2 1 -0 3 3 1 -2 -3 -2 -3 -3 -3 -2 -1 -1 1 1 1 1 0 1 1 0 -0
0 0 1 0 -1 -1 -1 -2 -2 -2 -4 -7 -5 -4 -3 -3 -2 -5 -4 -4 -1 -2 -1 -0 0 2 2 2 2 2 1 0 3 3 1 -2 -2 -2 -3 -3 -3 -3 -3 -2 -2 -1 1 2 2 1 1 0 0 1
-0 -0 -0 0 -1 -1 -1 -2 -2 -2 -3 -8 -5 -5 -5 -4 -3 -3 -2 -2 -3 -2 -1 -0 1 1 1 2 1 2 3 3 2 0 -3 -2 -2 -4 -6 -7 -5 -4 -3 -3 -3 -2 -2 -1 1 1 1 2 2 2
-1 -0 0 -0 -1 -1 -1 -2 -2 -3 -6 -6 -5 -5 -5 -4 -5 -3 -3 -3 -2 -2 -1 -1 0 2 2 2 2 2 2 1 -0 -2 -2 -2 -3 -4 -4 -10 -10 -7 -7 -6 -4 -3 -3 -2 -2 -2 -1 0 2 2
-1 -1 -0 -0 -1 -1 -1 -2 -3 -4 -9 -5 -6 -5 -5 -5 -4 -4 -3 -3 -3 -2 -1 -0 2 2 1 2 1 -1 0 -1 -2 -2 -3 -2 -3 -3 -5 -13 -15 -16 -16 -16 -12 -6 -4 -3 -3 -3 -3 -2 -1 0
-1 -1 -0 -0 -1 -1 -2 -2 -3 -5 -6 -7 -6 -6 -5 -4 -4 -4 -3 -4 -3 -2 -2 -1 -2 0 2 2 -0 -3 -1 -1 -2 -3 -3 -5 -6 -7 -11 -16 -18 -19 -19 -20 -19 -15 -10 -6 -4 -3 -3 -3 -3 -2
-5 -1 -0 -0 -0 -2 -2 -3 -4 -5 -7 -8 -7 -7 -6 -5 -4 -3 -3 -4 -4 -3 -3 -3 -4 -1 -1 -3 -4 -1 -1 -2 -2 -3 -4 -4 -7 -10 -16 -18 -19 -21 -22 -24 -22 -21 -16 -8 -5 -4 -4 -3 -3 -3
-1 -1 -1 -1 -1 -2 -3 -5 -7 -9 -9 -9 -7 -6 -5 -5 -5 -5 -4 -4 -4 -4 -5 -5 -5 -3 -2 -2 -2 -1 -1 -1 -2 -2 -3 -7 -11 -16 -19 -21 -25 -26 -24 -21 -19 -19 -20 -18 -14 -11 -6 -3 -4 -4
-2 -1 -1 -1 -2 -2 -3 -5 -8 -11 -11 -8 -8 -7 -7 -6 -6 -6 -6 -5 -5 -5 -6 -7 -9 -7 -4 -3 -3 -2 -1 -1 -2 -3 -5 -7 -13 -19 -23 -24 -24 -23 -23 -23 -23 -21 -18 -17 -18 -19 -18 -11 -4 -4
-3 -3 -2 -2 -3 -3 -3 -4 -9 -9 -9 -9 -9 -7 -7 -7 -8 -7 -7 -7 -6 -6 -6 -7 -7 -8 -12 -15 -14 -9 -3 -2 -4 -5 -11 -17 -21 -24 -23 -22 -21 -20 -20 -20 -21 -20 -17 -16 -16 -15 -16 -18 -12 -5
-3 -3 -3 -3 -3 -4 -5 -5 -7 -7 -11 -10 -8 -10 -11 -9 -9 -9 -8 -8 -9 -10 -11 -11 -12 -9 -8 -13 -18 -9 -5 -5 -8 -14 -17 -19 -23 -22 -20 -19 -19 -19 -19 -19 -18 -15 -14 -13 -14 -14 -14 -15 -16 -10
-3 -3 -3 -4 -4 -6 -7 -7 -7 -8 -8 -10 -13 -13 -13 -11 -9 -9 -9 -10 -13 -13 -13 -14 -15 -15 -15 -15 -15 -13 -7 -7 -10 -15 -15 -17 -19 -19 -17 -17 -17 -17 -17 -16 -14 -13 -13 -12 -13 -13 -13 -13 -14 -13
-4 -4 -3 -6 -6 -9 -10 -12 -13 -10 -13 -14 -12 -13 -13 -9 -12 -13 -10 -10 -14 -16 -15 -15 -15 -15 -13 -14 -14 -12 -6 -7 -10 -13 -14 -13 -13 -14 -16 -16 -15 -16 -17 -14 -13 -13 -12 -12 -12 -12 -12 -12 -13 -13
-4 -5 -5 -7 -10 -10 -11 -11 -12 -12 -13 -13 -12 -10 -10 -14 -13 -12 -10 -17 -19 -20 -19 -17 -15 -14 -15 -15 -10 -9 -9 -9 -10 -13 -17 -16 -16 -16 -16 -15 -16 -18 -15 -13 -13 -13 -13 -13 -13 -12 -12 -12 -12 -12
-5 -7 -5 -6 -7 -9 -12 -12 -11 -12 -13 -12 -13 -13 -14 -14 -14 -13 -19 -21 -21 -20 -19 -18 -17 -18 -17 -16 -15 -15 -16 -18 -17 -18 -17 -17 -16 -14 -13 -14 -16 -15 -12 -12 -13 -13 -13 -13 -13 -13 -13 -12 -12 -12
-5 -6 -8 -8 -9 -10 -12 -12 -13 -12 -12 -11 -10 -12 -11 -11 -10 -19 -21 -20 -22 -23 -21 -20 -21 -21 -21 -21 -21 -20 -20 -19 -18 -18 -18 -17 -16 -16 -16 -14 -12 -12 -13 -13 -13 -13 -13 -13 -13 -13 -12 -12 -12 -12
-6 -6 -7 -13 -11 -11 -12 -13 -13 -13 -13 -11 -11 -12 -13 -13 -13 -15 -18 -20 -20 -23 -24 -23 -22 -21 -20 -19 -19 -19 -19 -19 -18 -17 -17 -17 -17 -16 -13 -13 -13 -12 -12 -13 -13 -13 -13 -13 -13 -12 -11 -11 -11 -11
-7 -6 -8 -12 -13 -12 -11 -11 -14 -15 -14 -12 -10 -12 -13 -13 -13 -12 -14 -14 -14 -14 -18 -20 -21 -22 -20 -20 -19 -19 -19 -18 -16 -16 -17 -16 -13 -13 -12 -12 -12 -12 -13 -13 -13 -13 -12 -13 -13 -13 -12 -12 -11 -11
-9 -7 -9 -10 -12 -10 -9 -10 -12 -13 -14 -14 -14 -13 -13 -13 -13 -13 -13 -12 -10 -9 -9 -11 -13 -18 -19 -18 -18 -18 -18 -16 -16 -15 -13 -12 -12 -12 -12 -12 -13 -13 -14 -13 -12 -12 -12 -12 -12 -12 -12 -12 -12 -11
-9 -8 -11 -14 -14 -11 -10 -11 -12 -13 -14 -14 -14 -15 -15 -15 -15 -14 -11 -10 -9 -10 -10 -11 -12 -14 -16 -17 -17 -16 -16 -15 -13 -12 -12 -12 -11 -11 -12 -12 -11 -12 -12 -11 -11 -12 -12 -12 -12 -12 -12 -11 -11 -10
-10 -11 -11 -12 -13 -12 -12 -12 -13 -13 -13 -13 -13 -13 -13 -13 -13 -10 -10 -10 -10 -10 -12 -13 -14 -14 -14 -15 -16 -15 -13 -12 -12 -12 -11 -11 -11 -12 -12 -12 -11 -11 -11 -11 -11 -11 -11 -11 -11 -11 -11 -10 -10 -10

GFSWCAN_850_dewp_027.txt.gz
Dewpoint
0 -0 -5 -5 -2 -2 -0 -2 -3 -2 -2 -2 -1 -1 -1 -1 -3 -5 -4 -4 -4 -5 -9 -9 -6 -3 -2 1 2 1 2 2 2 3 4 3 2 3 2 2 2 3 5 4 2 3 3 -1 1 3 1 0 0 1
0 -1 -5 -4 -2 -0 -0 -3 -3 -2 -1 -1 -1 -1 -1 -1 -1 -3 -4 -3 -4 -4 -7 -7 -7 -6 -7 -7 -3 -0 3 1 2 1 1 1 3 2 3 4 1 4 1 3 2 1 -2 0 1 0 0 1 1 1
-0 -1 -3 -2 0 0 -0 -1 -2 -1 -1 -1 -1 -2 -1 -1 -1 -3 -4 -3 -2 -2 -4 -4 -8 -7 -8 -8 -8 -2 0 4 3 2 1 1 3 2 4 3 2 2 1 2 2 1 0 -0 1 2 1 1 1 1
-1 -2 -2 -1 0 -0 -0 -1 -2 -2 -2 -1 -1 -1 -2 -1 -2 -3 -4 -2 -3 -4 -3 -5 -8 -9 -10 -5 -8 -8 -6 1 -0 2 3 3 2 1 1 1 2 1 1 2 2 1 1 1 2 2 2 1 2 2
-0 -1 -1 -2 -1 -0 -0 -1 -1 -2 -1 -1 -1 -2 -1 -1 -3 -5 -5 -3 -3 -3 -3 -3 -5 -7 -7 -6 -6 -4 -6 -7 -4 0 4 3 1 1 1 1 2 1 2 4 4 1 2 1 2 2 2 2 2 2
-1 -1 -1 -0 -0 -0 -0 -0 -1 -1 -1 -1 -1 -2 -2 -7 -3 -3 -3 -4 -4 -4 -4 -3 -6 -7 -9 -6 -7 -5 -6 -6 -3 -0 4 2 2 1 1 3 0 1 1 1 2 3 2 2 3 2 2 1 1 1
0 -0 0 0 0 0 -0 -1 -1 -1 -1 -1 -1 -2 -6 -3 -4 -3 -4 -4 -4 -4 -3 -5 -6 -8 -3 -3 -4 -3 -5 -4 -1 -1 3 3 3 2 2 3 1 1 1 2 1 0 0 2 2 2 1 1 2 1
2 2 1 1 0 0 -0 -1 -1 -1 -1 -1 -1 -3 -4 -4 -4 -5 -5 -5 -3 -4 -4 -4 -6 -3 -1 -1 -3 -3 -3 -3 1 2 3 2 4 3 3 1 1 0 0 -0 -1 -1 -1 -2 -2 -2 -2 1 2 1
1 1 1 0 -0 -0 -1 -1 -1 -2 -1 -2 -1 -10 -3 -2 -3 -4 -5 -4 -3 -3 -3 -3 -2 -2 -1 1 1 0 1 2 2 3 4 2 4 4 1 2 0 -0 -1 -1 -1 -2 -2 -0 -0 -0 -0 1 1 1
-1 1 1 -0 -1 -1 -1 -1 -2 -1 -2 -3 -6 -3 -3 -3 -4 -4 -2 -3 -3 -3 -3 -3 -2 -1 -0 0 2 1 1 3 3 4 4 4 3 0 -1 -1 -1 -2 -3 -3 -2 -2 -0 1 0 0 1 1 1 1
-1 0 0 -1 -1 -1 -1 -1 -2 -2 -2 -3 -5 -7 -4 -5 -5 -3 -2 -1 -2 -2 -2 -3 -2 -1 1 2 4 2 3 2 4 4 4 4 3 -1 -2 -2 -3 -3 -3 -2 -1 -0 0 0 0 1 1 1 1 2
-2 0 -0 -1 -2 -2 -1 -1 -2 -2 -2 -3 -4 -5 -4 -4 -3 -2 -2 -1 -1 -1 0 -0 0 -0 1 3 2 2 3 2 3 3 4 3 -0 -2 -3 -3 -3 -3 -2 -1 -1 0 1 1 1 1 1 1 2 2
-3 -1 1 -1 -1 -2 -2 -2 -2 -2 -2 -5 -4 -4 -3 -3 -2 -2 -2 -2 -0 -1 -1 -1 -1 1 2 2 2 2 2 2 -0 3 2 -1 -2 -3 -3 -3 -3 -3 -2 -2 -1 -0 1 2 1 1 0 -0 0 0
-5 -1 -0 0 0 -2 -2 -1 -2 -2 -3 -8 -5 -6 -4 -4 -2 -3 -3 -2 -2 -2 -2 -1 -0 1 1 2 2 2 1 0 2 2 -0 -2 -2 -3 -3 -3 -3 -3 -3 -3 -2 -2 -1 1 2 2 2 2 2 1
-2 -0 -0 -0 0 -1 -1 -1 -2 -2 -3 -7 -6 -8 -6 -5 -4 -4 -3 -2 -3 -2 -2 -2 -1 1 1 1 2 1 2 3 1 -0 -4 -2 -2 -4 -6 -7 -5 -5 -5 -4 -3 -3 -2 -2 -1 0 0 1 2 2
-3 -1 -1 -1 0 -1 -2 -2 -2 -3 -3 -7 -5 -6 -6 -5 -5 -4 -4 -3 -2 -2 -2 -2 -0 1 2 2 2 2 1 -0 -1 -5 -2 -2 -3 -5 -7 -10 -10 -11 -13 -13 -10 -7 -5 -4 -3 -2 -2 -1 0 1
-2 -3 -3 -0 -0 -1 -2 -2 -3 -3 -4 -7 -6 -6 -5 -5 -5 -6 -4 -3 -4 -3 -2 -1 1 2 0 2 1 -1 -0 -1 -3 -1 -2 -2 -4 -4 -5 -12 -15 -18 -19 -20 -19 -16 -12 -8 -5 -4 -3 -3 -2 -1
-8 -4 -1 -1 -1 -1 -2 -2 -3 -3 -6 -7 -7 -7 -6 -6 -5 -5 -4 -4 -3 -3 -3 -2 -4 -2 2 1 0 -1 -1 -1 -1 -2 -2 -2 -3 -5 -7 -13 -16 -19 -21 -23 -23 -22 -18 -13 -10 -7 -5 -4 -3 -3
-8 -3 -2 -1 -0 -1 -2 -2 -3 -4 -5 -6 -7 -8 -8 -8 -8 -7 -4 -3 -4 -4 -4 -3 -3 -3 -2 -2 -3 -1 -1 -1 -2 -3 -4 -5 -6 -7 -10 -15 -19 -22 -25 -25 -23 -21 -21 -20 -18 -16 -12 -7 -4 -4
-6 -2 -2 -2 -1 -1 -2 -3 -4 -7 -9 -10 -8 -7 -8 -7 -6 -5 -5 -4 -4 -4 -5 -6 -5 -4 -2 -2 -2 -1 -1 -1 -2 -3 -4 -4 -5 -8 -15 -19 -23 -25 -25 -25 -23 -22 -21 -19 -18 -18 -19 -18 -12 -5
-3 -2 -2 -1 -1 -2 -2 -4 -6 -8 -10 -10 -8 -8 -9 -7 -7 -6 -6 -6 -5 -5 -6 -6 -6 -6 -4 -3 -3 -3 -2 -1 -1 -2 -2 -2 -5 -10 -15 -22 -25 -24 -23 -23 -23 -23 -21 -19 -17 -17 -17 -17 -18 -15
-3 -5 -2 -2 -2 -3 -3 -4 -6 -9 -9 -9 -9 -8 -8 -7 -8 -7 -7 -7 -7 -7 -7 -7 -7 -8 -10 -8 -9 -11 -11 -7 -2 -2 -3 -5 -8 -14 -21 -25 -22 -20 -20 -20 -21 -20 -19 -16 -15 -14 -14 -14 -15 -15
-3 -3 -3 -2 -3 -4 -5 -5 -6 -6 -9 -10 -8 -11 -12 -9 -9 -9 -9 -8 -8 -8 -8 -8 -8 -8 -7 -8 -8 -10 -14 -12 -3 -3 -5 -11 -18 -22 -23 -21 -20 -19 -18 -18 -18 -16 -14 -13 -13 -13 -13 -14 -14 -14
-4 -4 -5 -3 -4 -6 -6 -7 -7 -8 -9 -10 -13 -13 -15 -11 -10 -10 -10 -10 -12 -12 -14 -14 -13 -12 -11 -12 -13 -12 -13 -11 -5 -5 -11 -16 -18 -21 -21 -19 -18 -17 -16 -16 -18 -16 -13 -13 -13 -13 -13 -12 -12 -12
-4 -4 -4 -5 -5 -8 -11 -12 -13 -10 -12 -12 -13 -13 -14 -10 -14 -15 -12 -11 -12 -18 -20 -19 -16 -14 -14 -15 -15 -15 -13 -8 -6 -6 -11 -14 -15 -14 -14 -15 -15 -15 -14 -14 -17 -16 -13 -13 -13 -13 -13 -13 -13 -12
-5 -6 -5 -6 -9 -10 -10 -11 -10 -10 -12 -12 -13 -11 -10 -16 -14 -13 -12 -16 -17 -21 -20 -18 -17 -15 -15 -15 -15 -12 -12 -9 -6 -7 -11 -14 -15 -15 -16 -16 -16 -16 -14 -16 -17 -14 -13 -13 -13 -13 -13 -13 -13 -13
-5 -7 -5 -5 -7 -8 -11 -11 -11 -12 -12 -11 -14 -14 -15 -14 -14 -14 -14 -17 -20 -21 -22 -19 -19 -19 -18 -18 -17 -12 -11 -12 -14 -16 -16 -18 -17 -17 -16 -16 -15 -15 -16 -17 -14 -13 -13 -13 -13 -13 -13 -13 -13 -13
-6 -7 -9 -8 -8 -8 -11 -11 -11 -11 -11 -12 -11 -12 -12 -12 -9 -11 -18 -18 -17 -17 -16 -22 -22 -20 -19 -19 -19 -20 -20 -20 -20 -19 -18 -18 -18 -17 -17 -16 -16 -16 -16 -13 -13 -13 -12 -12 -13 -13 -13 -13 -13 -13
-6 -7 -7 -11 -10 -10 -10 -11 -11 -12 -13 -12 -11 -12 -12 -11 -10 -10 -11 -12 -13 -14 -14 -15 -21 -23 -21 -20 -19 -19 -20 -19 -18 -19 -19 -19 -17 -16 -16 -16 -15 -13 -12 -12 -12 -12 -12 -13 -13 -13 -13 -12 -13 -12
-7 -7 -8 -10 -11 -10 -9 -9 -10 -11 -12 -13 -12 -12 -12 -12 -12 -12 -12 -12 -12 -12 -12 -12 -12 -12 -14 -19 -21 -20 -20 -19 -19 -19 -19 -18 -16 -16 -16 -13 -12 -12 -12 -12 -12 -13 -13 -13 -12 -12 -12 -12 -12 -13
-7 -7 -8 -9 -11 -10 -10 -10 -11 -11 -12 -13 -13 -13 -13 -13 -13 -13 -12 -11 -11 -11 -12 -12 -11 -11 -11 -12 -14 -17 -17 -16 -17 -18 -17 -15 -15 -13 -12 -12 -12 -12 -12 -12 -12 -13 -13 -12 -12 -12 -12 -12 -12 -12
-8 -8 -9 -13 -12 -11 -11 -10 -11 -11 -11 -12 -12 -12 -12 -13 -13 -12 -12 -12 -12 -12 -11 -10 -9 -10 -11 -12 -14 -16 -16 -17 -17 -16 -15 -13 -12 -12 -12 -11 -11 -11 -12 -11 -12 -12 -12 -11 -11 -12 -12 -12 -12 -12
-10 -10 -10 -10 -11 -11 -12 -11 -12 -13 -13 -13 -12 -12 -12 -13 -13 -12 -12 -11 -11 -11 -10 -10 -11 -12 -13 -13 -13 -14 -15 -15 -14 -13 -12 -12 -12 -11 -12 -12 -12 -12 -12 -11 -12 -12 -11 -11 -11 -12 -12 -11 -11 -11

GFSWCAN_850_dewp_030.txt.gz
Dewpoint
-0 -0 -2 -8 -5 -3 -1 -0 -2 -3 -2 -1 -1 -1 -1 -1 -1 -2 -4 -4 -5 -4 -7 -8 -6 -3 -5 -2 2 2 3 3 3 5 4 3 3 2 2 1 1 2 3 4 3 3 3 -1 1 1 1 0 0 1
0 0 -1 -5 -4 -1 0 0 -1 -2 -2 -2 -1 -2 -1 -1 -1 -2 -3 -4 -3 -2 -4 -5 -5 -6 -7 -8 -3 -1 2 2 2 4 3 3 3 3 3 4 1 3 1 1 0 0 -3 -0 1 1 1 1 1 1
0 -0 -1 -2 -2 -1 0 -0 -1 -1 -2 -2 -1 -1 -1 -1 -1 -1 -2 -3 -3 -2 -4 -4 -4 -7 -7 -7 -8 -6 -1 2 3 2 2 2 3 3 4 3 3 2 1 2 2 -0 -1 -1 1 1 1 1 1 1
-0 -0 -1 -2 -2 -2 -0 -1 -0 -1 -1 -2 -2 -1 -2 -1 -2 -2 -2 -3 -4 -3 -3 -4 -5 -7 -9 -8 -7 -7 -5 -1 -3 -1 3 3 3 2 3 1 2 1 1 1 2 1 1 1 1 2 2 2 1 1
-0 -1 -2 -2 -2 -1 -0 -0 -0 -1 -1 -1 -2 -2 -1 -2 -3 -6 -4 -3 -3 -2 -3 -4 -5 -7 -7 -7 -5 -6 -6 -4 -4 -2 1 4 2 2 1 1 2 1 2 2 2 1 1 1 2 2 2 2 2 2
-1 -1 -1 -1 -1 -1 0 0 -0 -1 -1 -2 -1 -1 -2 -2 -4 -3 -3 -4 -5 -3 -3 -3 -5 -7 -8 -5 -7 -5 -5 -4 -3 -3 -1 2 2 2 4 3 0 0 1 1 1 1 2 2 1 1 3 2 1 1
-0 1 1 1 1 1 0 0 -0 -1 -2 -1 -1 -2 -2 -4 -3 -4 -4 -5 -3 -4 -4 -4 -5 -8 -6 -2 -3 -4 -3 -3 -4 -3 -1 2 3 2 3 3 -0 0 1 1 2 2 1 1 2 2 1 -1 -1 1
1 -1 -1 -1 0 0 -0 -1 -1 -1 -2 -1 -2 -2 -2 -4 -4 -4 -5 -5 -4 -3 -4 -4 -4 -4 -2 -2 -4 -4 -4 -4 -3 -2 0 2 3 3 4 1 1 1 1 1 1 1 -0 -1 -2 -2 -1 -1 -1 1
-1 -1 -1 -1 -0 -1 -1 -1 -2 -2 -2 -3 -3 -3 -3 -2 -3 -4 -4 -3 -3 -3 -3 -4 -2 -1 -1 -0 -0 -2 -3 -3 -3 1 2 2 3 5 2 1 1 0 -0 -0 -0 -0 -2 -2 -1 0 -0 -0 -0 1
-3 -1 -1 -0 -2 -1 -1 -1 -2 -2 -3 -3 -5 -4 -3 -3 -4 -6 -2 -3 -3 -3 -3 -3 -3 -1 -1 0 1 1 0 2 2 2 3 3 4 1 0 1 0 -0 -1 -2 -2 -2 -1 1 1 1 1 0 1 0
-4 -3 -1 -1 -2 -2 -1 -2 -2 -2 -3 -3 -3 -7 -5 -4 -5 -3 -2 -2 -2 -2 -3 -2 -2 -1 -1 0 2 1 1 2 4 4 4 4 3 -0 -2 -2 -2 -2 -2 -2 -2 -1 0 1 2 1 1 1 1 1
-4 -1 0 -1 -2 -2 -2 -2 -2 -2 -2 -3 -4 -4 -4 -4 -3 -2 -2 -2 -1 -1 -1 -1 -0 -1 -0 2 3 3 3 3 4 3 4 4 1 -2 -2 -2 -2 -3 -3 -2 -1 -1 1 1 1 1 0 0 1 1
-6 -2 -0 -1 -1 -2 -2 -2 -2 -2 -3 -5 -6 -5 -4 -3 -2 -2 -1 -1 -0 -1 -1 -2 -1 -0 1 2 2 2 3 3 1 3 3 1 -2 -3 -3 -3 -3 -3 -2 -2 -2 -1 0 2 1 1 1 -0 -1 0
-19 -2 -1 -1 -1 -1 -2 -2 -2 -2 -2 -5 -8 -9 -4 -3 -2 -2 -3 -2 -2 -2 -2 -2 -2 -0 1 1 1 3 2 1 3 3 2 -0 -2 -3 -3 -3 -3 -3 -3 -3 -2 -2 -1 1 2 1 1 2 3 3
-16 -4 -1 -1 -1 -1 -1 -2 -2 -2 -3 -5 -7 -8 -5 -5 -5 -4 -4 -4 -3 -3 -3 -2 -2 -1 1 1 2 2 2 2 1 1 0 -1 -2 -3 -4 -4 -4 -5 -5 -4 -4 -4 -3 -2 -2 -2 -1 -0 1 2
-7 -3 -2 -1 -0 -0 -1 -2 -2 -2 -3 -5 -6 -5 -7 -5 -6 -5 -5 -5 -3 -3 -3 -3 -1 1 2 2 3 3 2 1 1 0 -2 -2 -2 -5 -8 -8 -8 -13 -16 -17 -14 -12 -10 -8 -6 -4 -3 -2 -2 -0
-4 -5 -4 -2 -1 -1 -2 -2 -2 -3 -3 -6 -7 -7 -7 -7 -7 -7 -6 -4 -4 -4 -2 -2 -0 2 -0 3 2 1 1 1 -2 -2 -1 -2 -3 -5 -9 -11 -14 -17 -19 -20 -21 -20 -17 -14 -10 -7 -6 -4 -3 -3
-6 -5 -4 -3 -2 -1 -2 -2 -3 -3 -4 -5 -6 -7 -7 -7 -7 -7 -7 -6 -5 -3 -3 -2 -4 -2 0 2 1 1 -1 -1 -2 -2 -2 -2 -4 -3 -5 -11 -14 -17 -20 -23 -24 -22 -21 -18 -16 -16 -14 -9 -5 -4
-11 -5 -3 -2 -1 -1 -1 -2 -3 -3 -5 -5 -6 -6 -7 -7 -8 -8 -8 -6 -4 -4 -4 -4 -3 -2 -2 -2 -1 -2 -1 -1 -2 -2 -2 -2 -3 -4 -6 -9 -14 -19 -24 -26 -24 -23 -22 -21 -20 -19 -20 -20 -15 -9
-7 -2 -2 -1 -1 -2 -2 -3 -4 -4 -7 -9 -9 -8 -8 -8 -8 -6 -6 -5 -5 -5 -4 -4 -4 -5 -4 -2 -1 -1 -1 -1 -2 -2 -3 -3 -4 -5 -6 -12 -16 -21 -26 -27 -26 -25 -24 -22 -20 -19 -18 -18 -18 -17
-4 -2 -2 -2 -1 -2 -2 -3 -4 -6 -8 -9 -10 -9 -10 -9 -8 -7 -7 -6 -5 -5 -5 -6 -7 -8 -7 -5 -4 -3 -2 -0 -1 -2 -2 -3 -4 -4 -7 -13 -18 -25 -24 -22 -22 -22 -22 -21 -19 -17 -16 -15 -15 -15
-2 -3 -2 -3 -3 -2 -3 -4 -4 -8 -8 -8 -9 -9 -9 -9 -8 -7 -7 -8 -6 -7 -7 -8 -8 -8 -7 -7 -7 -8 -8 -7 -8 -5 -2 -2 -3 -4 -6 -11 -22 -24 -21 -21 -21 -21 -19 -17 -16 -14 -14 -14 -14 -14
-3 -3 -3 -4 -3 -3 -5 -5 -5 -6 -8 -9 -9 -10 -10 -10 -9 -9 -9 -9 -8 -9 -9 -9 -10 -10 -9 -9 -8 -7 -8 -9 -10 -11 -4 -3 -4 -10 -17 -22 -24 -21 -20 -19 -18 -19 -19 -17 -14 -13 -13 -13 -13 -13
-3 -5 -4 -3 -4 -5 -6 -7 -7 -8 -9 -9 -9 -10 -11 -12 -11 -10 -9 -11 -11 -11 -12 -16 -18 -18 -16 -13 -12 -12 -11 -9 -10 -9 -4 -4 -7 -14 -20 -23 -22 -20 -18 -18 -17 -17 -18 -18 -14 -13 -13 -13 -13 -13
-4 -4 -4 -5 -6 -6 -7 -10 -11 -10 -8 -11 -11 -10 -11 -10 -10 -11 -10 -11 -12 -16 -20 -20 -18 -16 -15 -15 -13 -14 -14 -13 -12 -10 -5 -6 -12 -17 -19 -19 -17 -16 -15 -16 -16 -16 -17 -18 -14 -13 -13 -14 -14 -14
-5 -5 -5 -6 -7 -7 -8 -10 -11 -11 -11 -11 -11 -12 -11 -12 -12 -9 -11 -13 -14 -18 -20 -20 -18 -17 -17 -16 -15 -16 -14 -13 -11 -8 -7 -7 -11 -14 -15 -15 -15 -17 -16 -15 -15 -15 -17 -16 -13 -13 -13 -13 -13 -13
-5 -8 -5 -5 -6 -8 -9 -11 -11 -11 -11 -9 -10 -11 -11 -8 -10 -12 -13 -13 -17 -19 -14 -13 -13 -19 -19 -17 -17 -15 -12 -13 -11 -10 -9 -10 -13 -15 -16 -17 -17 -17 -16 -15 -15 -16 -15 -13 -13 -13 -13 -13 -13 -13
-6 -7 -8 -7 -7 -8 -9 -10 -10 -10 -10 -10 -10 -9 -9 -10 -9 -10 -16 -15 -13 -13 -12 -13 -16 -12 -11 -19 -18 -18 -18 -18 -18 -18 -18 -18 -18 -18 -17 -16 -16 -16 -16 -16 -16 -15 -13 -13 -13 -13 -12 -13 -13 -13
-6 -7 -7 -10 -9 -8 -8 -8 -8 -7 -8 -11 -9 -10 -10 -10 -11 -11 -11 -11 -11 -12 -13 -15 -14 -13 -13 -13 -16 -19 -19 -19 -17 -16 -17 -18 -19 -19 -18 -17 -16 -16 -16 -15 -13 -13 -12 -12 -12 -12 -13 -13 -13 -13
-7 -7 -8 -9 -9 -9 -8 -8 -8 -9 -10 -11 -12 -11 -11 -11 -12 -13 -13 -14 -14 -14 -15 -17 -16 -12 -12 -13 -13 -14 -15 -17 -18 -17 -17 -17 -17 -18 -18 -17 -16 -14 -13 -12 -12 -12 -12 -12 -13 -13 -13 -12 -12 -12
-8 -8 -8 -8 -10 -11 -10 -11 -11 -10 -11 -11 -12 -12 -12 -12 -13 -13 -13 -14 -15 -17 -17 -16 -14 -12 -12 -13 -12 -12 -12 -13 -14 -15 -14 -15 -16 -17 -16 -15 -13 -12 -12 -12 -12 -11 -11 -12 -12 -12 -12 -12 -12 -12
-8 -8 -9 -12 -11 -11 -11 -11 -11 -11 -11 -11 -11 -11 -12 -12 -12 -12 -13 -14 -14 -14 -14 -12 -12 -11 -12 -10 -10 -10 -11 -13 -14 -14 -15 -16 -16 -15 -13 -12 -12 -12 -11 -11 -11 -11 -11 -11 -12 -12 -12 -12 -12 -12
-10 -11 -10 -10 -11 -11 -12 -12 -12 -12 -12 -12 -12 -12 -12 -12 -12 -12 -13 -14 -14 -14 -13 -12 -11 -11 -11 -11 -11 -13 -14 -14 -15 -15 -15 -13 -13 -12 -12 -12 -12 -12 -13 -13 -12 -12 -12 -12 -12 -12 -12 -12 -12 -11

GFSWCAN_850_dewp_033.txt.gz
Dewpoint
-1 -1 -1 -7 -6 -3 -2 -0 -1 -1 -2 -2 -2 -2 -2 -1 -2 -2 -2 -4 -4 -3 -4 -4 -6 -6 -8 -5 -0 2 3 3 4 4 3 2 1 0 -0 -0 1 1 2 2 1 2 3 -2 2 3 1 1 1 1
-1 0 -0 -2 -4 -2 -1 -0 -1 -1 -2 -2 -1 -2 -2 -2 -2 -1 -1 -3 -3 -3 -3 -5 -5 -5 -5 -6 -4 -2 1 2 3 4 2 1 0 0 1 2 -1 2 -1 0 -0 0 -3 -2 -2 1 1 1 2 2
0 0 -1 -1 -2 -2 -1 -1 -1 -1 -2 -2 -1 -1 -2 -2 -1 -1 -1 -2 -2 -3 -3 -4 -3 -5 -8 -7 -5 -7 -5 1 1 0 3 3 3 0 2 1 1 -1 -2 1 -0 -2 -2 -2 1 1 1 2 2 2
-0 -0 -1 -1 -2 -2 -2 -1 -1 -1 -2 -2 -1 -1 -1 -2 -2 -1 -4 -2 -3 -3 -2 -5 -6 -6 -5 -8 -7 -5 -7 -3 -3 -2 1 4 3 -1 0 -0 0 -0 0 1 0 -1 1 -0 -1 -0 2 2 1 1
0 0 -1 -1 -1 -1 -1 -1 -0 0 -1 -2 -2 -2 -2 -1 -2 -4 -3 -3 -3 -2 -3 -3 -4 -6 -7 -5 -7 -7 -4 -4 -4 -3 -0 3 2 2 1 1 1 0 1 2 1 -2 -1 -1 1 2 2 2 1 1
-1 -1 -1 -0 -0 -0 -0 -0 1 0 -1 -2 -2 -1 -2 -1 -4 -4 -2 -6 -5 -5 -3 -4 -4 -4 -7 -7 -6 -4 -4 -4 -4 -4 -3 -2 0 3 3 1 -2 -2 -0 -0 -1 1 1 2 2 2 1 1 2 2
-1 -1 -0 -0 -0 -0 -0 -0 -1 -1 -2 -2 -2 -2 -2 -2 -3 -4 -3 -5 -4 -3 -4 -4 -4 -5 -6 -2 -2 -3 -3 -3 -4 -3 -5 -4 -1 -0 4 2 -2 -1 -0 1 2 2 2 1 1 1 1 0 -1 -2
-1 -1 -0 -1 -0 -0 -1 -1 -2 -2 -2 -2 -2 -2 -4 -3 -3 -3 -4 -5 -4 -3 -4 -4 -3 -4 -3 -1 -3 -3 -4 -3 -4 -6 -6 -4 -4 -0 4 2 -0 0 0 1 1 1 0 1 0 -1 -1 -2 -1 -1
-2 -1 -1 -1 -0 -0 -1 -3 -2 -3 -3 -3 -3 -4 -2 -2 -3 -4 -4 -4 -3 -3 -3 -3 -2 1 -1 -1 -0 -3 -4 -4 -6 -4 -5 -5 -1 3 3 1 1 1 0 0 0 0 0 -0 -1 -1 1 1 0 -0
-7 -3 -3 0 -1 -1 -2 -2 -3 -3 -4 -4 -4 -3 -2 -4 -4 -5 -2 -3 -3 -3 -3 -3 -2 -1 -1 -0 0 -0 -2 0 -2 -3 -2 1 2 2 2 1 1 -0 -0 -0 -1 -1 -2 -1 1 1 1 1 1 1
-8 -4 -2 -0 -1 -3 -2 -2 -2 -4 -3 -3 -3 -3 -5 -5 -5 -3 -2 -2 -1 -2 -2 -2 -2 -1 -1 0 2 0 1 2 4 3 3 4 4 1 0 -0 -1 -1 -1 -1 -2 -2 -2 0 1 2 1 0 0 0
-8 -2 0 -0 -2 -2 -2 -2 -2 -2 -2 -3 -5 -5 -5 -3 -2 -2 -1 -1 -0 1 -1 -1 -1 -1 -1 -0 0 1 2 2 4 1 3 5 1 -2 -2 -2 -2 -2 -2 -2 -2 -1 0 1 1 1 1 1 -1 -1
-7 -4 -0 -1 -1 -1 -1 -2 -2 -2 -3 -5 -8 -6 -3 -3 -1 -1 -2 -1 -1 -1 -1 -2 -2 -2 -0 1 2 2 3 4 1 4 3 2 -1 -2 -2 -2 -2 -3 -3 -2 -1 -1 0 1 1 1 1 1 1 -1
-15 -5 -0 -1 -1 -1 -1 -1 -2 -2 -3 -4 -6 -7 -2 -2 -2 -1 -2 -1 -1 -2 -2 -2 -3 -2 -0 1 2 3 2 2 3 3 2 1 -1 -2 -3 -3 -3 -3 -2 -2 -2 -1 -1 -1 1 1 1 1 2 2
-17 -4 -0 -1 -1 -1 -2 -2 -2 -2 -3 -4 -5 -4 -4 -4 -4 -4 -5 -5 -4 -5 -2 -2 -2 -2 -0 1 2 2 3 2 -0 1 2 0 -2 -3 -3 -3 -3 -4 -4 -4 -4 -4 -3 -3 -3 -3 -2 -2 -1 -0
-10 -1 -1 -1 -1 -1 -1 -2 -3 -3 -3 -4 -5 -3 -5 -4 -3 -4 -4 -3 -5 -3 -3 -2 -2 -0 1 2 3 4 3 3 2 3 -0 -2 -2 -4 -5 -5 -7 -11 -14 -14 -12 -13 -12 -10 -8 -7 -6 -4 -3 -3
-4 -3 -4 -2 -1 -0 -2 -3 -3 -3 -3 -4 -4 -5 -4 -4 -4 -5 -6 -5 -4 -3 -3 -2 -1 1 -1 2 2 1 3 2 0 -1 -1 -2 -2 -6 -8 -9 -12 -16 -18 -19 -21 -21 -20 -17 -15 -14 -14 -11 -8 -5
-9 -7 -5 -3 -3 -1 -2 -2 -3 -3 -4 -4 -4 -3 -6 -6 -5 -6 -5 -4 -4 -3 -3 -2 -3 -2 -0 2 1 2 1 1 1 -1 -2 -2 -2 -5 -7 -10 -13 -15 -17 -20 -24 -24 -24 -23 -23 -23 -22 -21 -17 -11
-15 -11 -7 -2 -1 -2 -1 -2 -2 -2 -3 -4 -5 -5 -6 -6 -6 -6 -6 -5 -5 -4 -4 -3 -3 -3 -2 -2 -0 -1 -1 -1 -1 -0 -2 -2 -3 -4 -3 -7 -10 -14 -17 -22 -25 -26 -25 -24 -24 -22 -21 -20 -19 -19
-10 -8 -4 -1 -1 -2 -2 -2 -3 -4 -4 -6 -8 -7 -8 -7 -7 -8 -6 -5 -5 -5 -4 -4 -4 -4 -4 -5 -3 -1 0 0 1 0 -0 -1 -2 -3 -4 -4 -8 -13 -17 -25 -26 -25 -24 -24 -23 -22 -20 -18 -17 -17
-5 -1 -2 -3 -1 -2 -2 -3 -4 -5 -6 -7 -9 -9 -7 -9 -9 -6 -7 -6 -5 -6 -5 -5 -6 -9 -8 -7 -8 -7 -7 -6 -4 -1 -1 -2 -3 -3 -4 -5 -8 -12 -18 -25 -23 -22 -22 -22 -20 -19 -17 -15 -15 -15
-6 -3 -2 -2 -2 -2 -2 -3 -4 -6 -7 -7 -8 -9 -7 -6 -6 -7 -8 -7 -6 -6 -6 -7 -8 -8 -8 -8 -8 -8 -7 -7 -7 -7 -7 -4 -3 -2 -3 -3 -5 -10 -19 -23 -21 -21 -20 -20 -18 -16 -15 -14 -14 -14
-6 -5 -3 -3 -3 -3 -4 -5 -5 -5 -5 -6 -8 -7 -7 -8 -9 -10 -8 -7 -8 -10 -10 -10 -10 -10 -11 -16 -18 -17 -12 -8 -7 -8 -9 -8 -7 -4 -3 -5 -7 -13 -23 -22 -20 -19 -18 -18 -19 -17 -14 -14 -14 -14
-5 -4 -4 -5 -5 -4 -6 -6 -7 -7 -8 -7 -7 -7 -7 -8 -11 -9 -8 -8 -11 -11 -12 -13 -15 -18 -18 -17 -16 -15 -13 -10 -9 -8 -9 -9 -7 -5 -5 -9 -17 -23 -23 -20 -19 -19 -18 -17 -17 -18 -16 -14 -13 -14
-4 -4 -5 -4 -4 -6 -6 -7 -8 -8 -7 -7 -8 -7 -8 -10 -8 -8 -8 -8 -11 -11 -17 -19 -17 -16 -15 -15 -15 -14 -12 -9 -13 -13 -12 -9 -6 -5 -8 -14 -20 -22 -22 -19 -18 -17 -16 -16 -16 -17 -16 -14 -13 -14
-4 -6 -4 -5 -6 -6 -6 -7 -8 -8 -8 -8 -9 -10 -11 -9 -8 -6 -7 -11 -11 -16 -17 -16 -15 -15 -13 -13 -12 -13 -14 -8 -9 -14 -13 -9 -6 -6 -9 -14 -17 -18 -17 -16 -16 -16 -16 -15 -15 -16 -16 -14 -13 -13
-4 -5 -5 -6 -7 -7 -8 -10 -10 -9 -8 -8 -8 -10 -9 -7 -6 -8 -11 -13 -16 -15 -11 -11 -13 -13 -14 -13 -10 -10 -15 -14 -14 -13 -11 -9 -8 -8 -10 -13 -15 -16 -16 -16 -16 -15 -15 -15 -16 -16 -14 -13 -13 -13
-6 -7 -6 -7 -7 -8 -8 -9 -9 -9 -8 -8 -7 -8 -7 -6 -6 -10 -11 -10 -10 -11 -12 -12 -14 -16 -15 -15 -15 -14 -12 -12 -13 -15 -14 -14 -16 -16 -17 -17 -17 -17 -16 -16 -15 -15 -15 -16 -16 -13 -13 -13 -13 -13
-6 -7 -8 -8 -8 -8 -8 -8 -8 -9 -9 -9 -7 -6 -8 -10 -12 -12 -12 -11 -11 -13 -15 -16 -17 -16 -16 -17 -16 -15 -13 -13 -14 -17 -17 -16 -17 -17 -16 -16 -17 -18 -18 -17 -16 -16 -16 -14 -13 -13 -12 -12 -12 -12
-7 -7 -8 -8 -8 -8 -8 -9 -9 -9 -8 -7 -7 -9 -10 -10 -11 -12 -13 -15 -16 -16 -17 -16 -15 -15 -15 -15 -16 -15 -13 -12 -13 -14 -14 -15 -16 -16 -15 -16 -17 -18 -17 -16 -15 -14 -13 -12 -12 -12 -12 -12 -12 -13
-7 -7 -8 -8 -8 -10 -9 -10 -10 -9 -10 -10 -11 -11 -11 -11 -13 -15 -16 -18 -19 -19 -16 -15 -15 -15 -14 -13 -13 -12 -12 -12 -12 -12 -13 -13 -14 -13 -11 -12 -15 -16 -16 -14 -13 -12 -12 -12 -11 -11 -11 -12 -12 -12
-8 -7 -8 -10 -10 -11 -11 -12 -12 -11 -11 -11 -11 -12 -12 -12 -12 -14 -16 -16 -15 -14 -14 -14 -14 -14 -14 -13 -12 -12 -12 -11 -11 -11 -12 -13 -13 -14 -15 -15 -15 -14 -13 -12 -12 -12 -11 -11 -11 -11 -12 -12 -12 -12
-10 -10 -10 -10 -10 -11 -12 -12 -12 -12 -12 -12 -12 -12 -12 -12 -12 -14 -16 -17 -15 -14 -14 -14 -13 -13 -12 -11 -11 -11 -11 -12 -13 -14 -14 -15 -15 -15 -13 -13 -12 -12 -12 -12 -12 -12 -12 -12 -12 -12 -12 -12 -12 -12

GFSWCAN_850_dewp_036.txt.gz
Dewpoint
-2 -1 -2 -4 -7 -4 -2 -0 0 -1 -1 -3 -2 -2 -2 -2 -2 -2 -2 -2 -4 -3 -4 -3 -5 -6 -7 -8 -3 -2 2 3 3 4 4 4 3 1 -0 -1 1 2 3 4 3 3 3 2 2 4 2 1 1 1
-2 -1 -1 -1 -3 -3 -2 -1 -0 -1 -1 -2 -2 -2 -2 -2 -2 -1 -1 -1 -2 -3 -5 -5 -5 -5 -5 -6 -5 -5 -2 -0 3 4 3 2 2 -1 0 2 -2 2 0 1 0 1 -2 -1 -0 1 1 1 1 2
-1 -1 -0 -0 -1 -2 -2 -1 -0 -0 -0 -2 -2 -2 -2 -2 -2 -1 -1 -3 -2 -3 -4 -4 -4 -5 -6 -7 -5 -6 -6 -0 -1 -1 1 4 4 1 1 1 0 -1 -2 1 -0 -1 -2 -2 0 1 2 2 2 2
-1 -1 -1 -2 -2 -2 -2 -1 -1 -0 0 -1 -2 -2 -2 -2 -1 -3 -3 -3 -3 -3 -3 -4 -5 -5 -4 -4 -6 -6 -5 -5 -5 -4 -0 3 4 -0 1 0 1 0 -1 0 1 -1 0 -1 -1 1 1 1 1 1
-1 -1 -1 -2 -2 -2 -2 -1 -0 -0 0 -0 -2 -2 -2 -2 -2 -4 -5 -5 -4 -4 -3 -3 -4 -5 -7 -5 -5 -5 -4 -4 -4 -4 -2 -0 1 3 1 1 2 0 1 2 2 -1 -1 -1 -1 -0 1 2 2 1
-3 -2 -2 -1 -1 -1 -1 -1 0 -0 -1 -1 -2 -2 -2 -2 -3 -4 -2 -5 -6 -4 -3 -3 -5 -4 -6 -7 -6 -4 -4 -4 -4 -4 -4 -4 -3 1 3 2 -1 -2 -1 -0 -0 0 1 1 1 2 2 2 1 1
-3 -2 -3 -3 -1 -1 -1 -1 -1 -1 -1 -2 -2 -2 -3 -4 -2 -3 -4 -5 -4 -4 -3 -3 -3 -4 -6 -3 -2 -3 -3 -3 -4 -4 -4 -4 -5 0 2 2 -0 -1 -2 -1 0 1 2 2 2 1 1 1 0 -1
-4 -3 -6 -4 -3 -2 -2 -1 -1 -2 -2 -2 -3 -3 -4 -3 -3 -3 -5 -4 -3 -4 -4 -3 -3 -3 -3 -1 -2 -3 -4 -3 -3 -4 -4 -5 -5 -4 -1 0 2 2 -0 0 1 2 1 1 1 0 -0 -1 -1 -1
-6 -7 -7 -4 -4 -4 -4 -1 -1 -2 -2 -3 -4 -4 -2 -3 -3 -4 -4 -4 -3 -3 -3 -3 -2 0 -0 -1 -1 -2 -4 -3 -6 -4 -5 -5 -4 -1 -2 -3 1 2 1 1 1 0 0 0 -0 -1 0 1 1 1
-17 -11 -5 -4 -4 -5 -4 -2 -2 -2 -3 -4 -4 -2 -2 -5 -6 -5 -2 -2 -3 -3 -3 -3 -2 -1 -1 -1 0 -0 -1 -1 -1 -3 -4 -2 -2 -5 -4 1 1 0 0 0 0 -0 -1 -2 0 1 1 1 1 1
-16 -8 -5 -4 -3 -5 -4 -2 -2 -3 -3 -3 -3 -3 -5 -5 -4 -3 -2 -1 -1 -1 -2 -2 -2 -1 -2 -0 1 0 1 1 2 1 -0 3 2 1 -0 0 -0 -0 -0 -1 -1 -1 -2 -0 1 1 1 1 1 1
-19 -10 -3 -2 -3 -4 -3 -1 -2 -2 -2 -3 -6 -8 -5 -2 -2 -2 -2 -1 -1 1 -1 -0 -2 -2 -2 -1 -1 0 1 1 3 0 2 4 2 -0 -0 -1 -0 0 -1 -2 -2 -2 -1 0 1 2 2 1 1 -0
-18 -11 -7 -3 -2 -3 -2 -2 -2 -2 -3 -6 -8 -7 -3 -3 -4 -4 -3 -3 -1 -0 -1 -2 -2 -3 -2 -0 -0 2 3 3 1 3 4 2 -1 -2 -2 -2 -2 -2 -2 -2 -2 -1 -0 0 1 1 1 1 1 1
-18 -12 -9 -5 -2 -2 -2 -2 -2 -3 -2 -4 -6 -9 -4 -3 -2 -2 -2 -2 -2 -3 -3 -3 -2 -3 -2 -0 1 2 3 2 3 3 3 -1 -1 -2 -2 -2 -3 -3 -2 -2 -2 -1 -1 -0 0 1 0 -1 -0 1
-20 -17 -7 -2 -2 -2 -2 -2 -2 -3 -3 -3 -5 -5 -5 -4 -4 -5 -6 -7 -6 -5 -3 -3 -3 -2 -1 0 0 2 2 2 3 2 2 -0 -1 -2 -3 -3 -3 -3 -3 -3 -3 -3 -3 -3 -3 -4 -4 -4 -3 -2
-23 -17 -8 -3 -2 -2 -2 -2 -3 -3 -3 -4 -5 -4 -5 -6 -3 -4 -4 -5 -4 -6 -5 -3 -2 -1 0 1 2 2 3 3 3 0 0 -1 -1 -3 -4 -4 -6 -10 -12 -11 -12 -13 -14 -14 -14 -13 -12 -10 -8 -6
-14 -9 -8 -5 -1 -2 -2 -2 -3 -3 -3 -3 -4 -5 -4 -4 -5 -5 -6 -5 -5 -8 -4 -4 -2 -2 -3 0 2 1 2 1 1 1 1 -0 -1 -1 -6 -6 -10 -16 -17 -19 -20 -21 -21 -21 -20 -21 -22 -21 -16 -11
-14 -10 -9 -8 -4 -1 -1 -3 -3 -3 -3 -3 -4 -3 -5 -6 -5 -5 -5 -5 -6 -4 -4 -4 -3 -3 -2 -1 -0 1 -0 -1 -1 -0 -1 -1 -0 -2 -4 -10 -12 -14 -12 -8 -11 -10 -22 -24 -23 -22 -22 -21 -21 -20
-14 -10 -7 -4 -2 -2 -3 -2 -3 -3 -3 -4 -4 -5 -5 -6 -5 -5 -5 -5 -5 -4 -4 -4 -4 -4 -3 -4 -3 -4 -3 -1 -0 -0 -0 0 -0 -1 -1 -1 -3 -6 -5 -9 -20 -26 -26 -26 -25 -24 -23 -22 -20 -19
-9 -6 -5 -1 -1 -3 -3 -3 -3 -3 -5 -4 -6 -7 -7 -7 -6 -7 -6 -5 -5 -5 -5 -5 -5 -4 -5 -7 -6 -5 -4 -3 -4 -3 -4 -3 -2 -0 -2 -3 -3 -2 -9 -14 -21 -26 -25 -24 -23 -23 -22 -20 -18 -16
-4 -2 -1 -1 -1 -3 -3 -3 -3 -4 -5 -6 -7 -8 -8 -7 -8 -8 -6 -6 -6 -6 -6 -6 -7 -10 -9 -8 -7 -7 -7 -7 -7 -7 -6 -6 -5 -2 -1 -3 -5 -5 -9 -11 -17 -24 -23 -22 -22 -20 -19 -17 -16 -15
-6 -2 -2 -2 -2 -3 -2 -3 -3 -5 -6 -6 -7 -8 -8 -6 -6 -6 -7 -7 -6 -7 -7 -9 -10 -8 -8 -8 -9 -10 -10 -12 -13 -9 -7 -6 -6 -7 -6 -3 -3 -4 -5 -9 -18 -23 -22 -21 -20 -20 -19 -16 -15 -14
-4 -4 -2 -2 -4 -3 -4 -5 -4 -5 -6 -5 -8 -8 -7 -7 -9 -9 -9 -9 -9 -11 -12 -10 -11 -11 -13 -17 -16 -16 -15 -15 -15 -16 -11 -7 -7 -7 -7 -8 -6 -4 -4 -7 -19 -22 -20 -19 -19 -18 -19 -19 -17 -15
-4 -4 -4 -4 -3 -4 -6 -6 -6 -6 -7 -7 -8 -10 -9 -7 -9 -9 -10 -9 -11 -12 -12 -11 -14 -18 -16 -13 -13 -13 -14 -13 -11 -10 -10 -9 -8 -8 -8 -7 -6 -5 -9 -14 -22 -22 -20 -19 -18 -17 -17 -17 -18 -15
-4 -4 -4 -4 -4 -6 -7 -7 -8 -7 -9 -10 -9 -11 -10 -10 -11 -11 -10 -11 -11 -11 -10 -15 -14 -13 -13 -12 -11 -10 -9 -11 -11 -7 -3 -7 -12 -9 -8 -7 -6 -8 -16 -22 -23 -22 -19 -17 -16 -16 -16 -15 -17 -17
-6 -6 -5 -5 -5 -7 -8 -9 -10 -10 -10 -10 -10 -9 -11 -11 -11 -10 -9 -10 -11 -13 -13 -11 -12 -14 -15 -16 -17 -16 -11 -8 -8 -11 -11 -12 -12 -9 -7 -5 -6 -10 -16 -20 -20 -18 -17 -16 -16 -16 -15 -15 -16 -16
-5 -6 -5 -5 -6 -7 -8 -9 -9 -9 -11 -11 -11 -12 -11 -9 -10 -10 -10 -12 -12 -16 -12 -10 -11 -12 -13 -16 -17 -17 -16 -16 -15 -8 -8 -12 -13 -10 -8 -7 -8 -11 -14 -15 -16 -16 -16 -16 -15 -15 -15 -16 -17 -15
-6 -7 -8 -6 -7 -8 -10 -9 -10 -9 -10 -9 -9 -11 -11 -10 -8 -9 -10 -10 -11 -11 -11 -11 -12 -14 -16 -16 -16 -15 -15 -15 -16 -16 -11 -8 -9 -13 -14 -14 -14 -14 -15 -16 -16 -16 -16 -16 -15 -15 -16 -16 -14 -13
-5 -6 -7 -7 -8 -7 -7 -8 -8 -8 -9 -8 -9 -10 -9 -9 -10 -11 -10 -10 -11 -11 -12 -15 -19 -19 -18 -17 -15 -14 -13 -13 -13 -14 -14 -13 -11 -11 -13 -15 -14 -15 -16 -16 -16 -17 -18 -17 -16 -16 -15 -13 -13 -12
-6 -7 -8 -9 -9 -8 -8 -8 -9 -10 -10 -10 -10 -10 -9 -10 -10 -10 -10 -12 -13 -15 -18 -19 -19 -17 -15 -14 -14 -14 -14 -13 -14 -14 -13 -13 -13 -13 -13 -13 -13 -14 -14 -16 -17 -17 -17 -16 -15 -14 -13 -12 -12 -12
-7 -7 -7 -8 -8 -9 -9 -9 -9 -9 -9 -9 -10 -9 -9 -10 -11 -13 -13 -15 -18 -19 -20 -19 -16 -15 -14 -14 -14 -13 -13 -13 -12 -12 -12 -12 -13 -13 -13 -13 -12 -11 -12 -12 -14 -16 -15 -14 -13 -12 -12 -12 -11 -11
-7 -7 -7 -10 -9 -9 -10 -10 -11 -11 -10 -10 -10 -10 -11 -11 -12 -13 -15 -17 -18 -20 -18 -15 -15 -13 -13 -13 -13 -13 -13 -12 -12 -12 -12 -12 -11 -12 -13 -12 -12 -12 -13 -15 -15 -13 -12 -12 -12 -12 -12 -12 -12 -12
-8 -9 -9 -9 -10 -10 -11 -12 -12 -12 -12 -12 -12 -12 -12 -12 -12 -14 -14 -16 -18 -17 -16 -15 -13 -12 -12 -11 -11 -11 -11 -12 -12 -13 -13 -14 -14 -14 -14 -15 -14 -14 -12 -12 -12 -12 -12 -12 -12 -13 -12 -12 -12 -12

GFSWCAN_850_dewp_039.txt.gz
Dewpoint
-1 -2 -3 -4 -6 -4 -2 -1 -1 -1 -1 -2 -2 -2 -2 -2 -2 -2 -1 -1 -2 -3 -4 -4 -4 -5 -7 -6 -4 -4 0 3 3 3 3 2 2 0 0 -1 2 2 2 3 3 3 3 1 1 4 2 1 -1 -1
-2 -2 -2 -2 -3 -3 -3 -1 -0 -1 -1 -1 -2 -2 -2 -2 -2 -2 -1 -4 -2 -3 -5 -5 -4 -5 -6 -4 -6 -7 -4 -1 1 4 3 3 2 -1 0 2 -1 2 0 1 1 1 -3 1 0 1 1 1 2 1
-3 -2 -2 -2 -2 -3 -2 -2 -1 -2 -2 -1 -2 -2 -2 -2 -2 -2 -4 -3 -2 -2 -4 -4 -4 -5 -7 -6 -5 -5 -4 -1 -2 -3 0 3 4 2 1 1 -0 -1 -2 -0 -0 -2 -2 -2 -1 1 1 1 1 2
-2 -2 -2 -2 -3 -3 -2 -1 -1 -2 -1 -0 -2 -2 -2 -2 -2 -3 -5 -4 -2 -2 -3 -5 -4 -4 -5 -5 -4 -6 -4 -4 -5 -5 -4 1 3 2 2 1 1 -0 -1 -0 -0 -1 -1 -1 0 1 1 1 2 2
-3 -2 -2 -3 -3 -2 -1 -1 -1 -1 -1 -1 -2 -2 -2 -2 -3 -4 -6 -6 -6 -5 -4 -5 -3 -4 -7 -6 -5 -5 -6 -5 -4 -4 -3 -2 -0 1 1 1 1 0 1 1 1 -1 -1 -2 -1 0 0 1 1 1
-4 -4 -4 -4 -3 -2 -1 -1 -1 -2 -2 -2 -2 -2 -2 -3 -3 -3 -2 -3 -5 -5 -3 -3 -5 -4 -6 -7 -5 -5 -4 -4 -4 -4 -4 -5 -4 -0 1 0 -4 -4 -2 -0 -1 -1 -0 -0 -1 -0 1 2 2 1
-5 -6 -6 -7 -5 -2 -1 -2 -3 -4 -4 -3 -2 -2 -3 -3 -3 -4 -5 -5 -4 -4 -4 -4 -4 -4 -4 -2 -2 -3 -3 -3 -4 -4 -4 -5 -5 -2 -1 -2 -4 -3 -1 0 0 1 2 2 2 2 2 1 1 1
-5 -7 -9 -9 -5 -3 -2 -3 -3 -3 -4 -4 -4 -4 -3 -3 -4 -4 -4 -5 -4 -4 -4 -4 -3 -3 -1 -1 -1 -3 -3 -3 -3 -4 -3 -4 -5 -5 -3 -5 -6 -7 -3 -0 2 1 1 2 1 1 1 0 -0 -1
-5 -8 -9 -6 -3 -3 -4 -5 -5 -5 -5 -5 -5 -3 -3 -4 -3 -4 -3 -3 -4 -4 -3 -3 -2 -2 -2 -1 -0 -2 -3 -3 -5 -3 -4 -5 -5 -3 -4 -5 -6 -4 0 0 1 1 1 1 0 -0 -0 0 1 1
-11 -15 -10 -4 -4 -5 -5 -5 -6 -6 -6 -6 -4 -3 -3 -6 -5 -4 -3 -3 -3 -3 -4 -4 -3 -2 -2 -1 -0 -0 -2 -2 -2 -4 -5 -4 -3 -6 -6 -6 1 -0 -1 0 0 0 -0 -0 -0 0 1 1 1 1
-19 -15 -8 -4 -4 -5 -5 -6 -6 -7 -7 -6 -5 -4 -6 -5 -3 -3 -2 -2 -2 -2 -2 -2 -2 -2 -3 -1 -0 0 -0 -1 1 -1 -1 0 2 1 0 -2 -0 -0 -0 1 1 -1 -1 -0 0 1 1 1 1 1
-15 -12 -6 -5 -5 -5 -6 -7 -7 -8 -8 -7 -10 -10 -6 -3 -2 -6 -7 -3 -3 -2 -1 -1 -2 -3 -3 -2 -1 -1 1 1 1 -0 1 3 2 -1 -0 -0 -0 -0 1 1 0 -1 -1 0 1 2 2 2 2 1
-15 -12 -5 -4 -5 -4 -5 -5 -5 -7 -8 -6 -9 -8 -4 -3 -8 -9 -7 -7 -6 -2 -2 -3 -4 -4 -3 -1 -0 1 2 3 1 2 4 2 -0 -2 -2 -1 -1 -1 -1 -1 -0 -0 -1 0 1 1 1 1 1 1
-13 -10 -5 -3 -5 -4 -5 -5 -6 -7 -7 -6 -6 -10 -8 -8 -8 -7 -7 -7 -3 -3 -5 -4 -3 -3 -3 -1 0 2 2 1 2 1 2 1 -0 -1 -2 -2 -3 -3 -2 -1 -1 -1 -1 -1 -0 -0 -1 -2 -2 -2
-9 -8 -4 -4 -5 -3 -3 -3 -5 -6 -7 -4 -5 -8 -9 -5 -4 -4 -5 -7 -7 -7 -5 -3 -3 -3 -2 -1 -0 1 2 2 2 2 1 -0 -1 -1 -3 -3 -3 -4 -3 -3 -3 -3 -3 -3 -4 -6 -8 -8 -7 -5
-12 -7 -3 -3 -2 -2 -3 -3 -6 -5 -4 -4 -5 -6 -5 -6 -6 -5 -5 -6 -5 -6 -4 -2 -3 -2 -1 -0 0 2 3 2 0 -0 0 0 -1 -1 -1 -3 -6 -10 -12 -10 -11 -5 -9 -12 -13 -15 -17 -19 -16 -11
-17 -9 -8 -2 -1 -2 -3 -3 -4 -4 -4 -4 -4 -4 -4 -3 -4 -5 -5 -6 -5 -7 -6 -4 -6 -5 -5 -2 -1 0 1 -1 -0 -1 -1 -1 -1 -1 -1 -2 -6 -14 -15 -16 -12 -14 -14 -16 -21 -22 -22 -22 -21 -21
-12 -11 -9 -4 -2 -4 -3 -4 -4 -3 -4 -4 -4 -4 -4 -6 -6 -5 -6 -5 -5 -5 -5 -8 -4 -4 -5 -3 -3 -3 -1 -2 -3 -3 -1 0 -0 -1 -1 -2 -4 -4 -6 -3 -1 -3 -10 -15 -15 -25 -24 -22 -21 -20
-10 -11 -8 -6 -4 -4 -3 -3 -4 -4 -4 -4 -4 -4 -4 -5 -6 -6 -5 -5 -5 -4 -5 -5 -5 -5 -5 -5 -4 -7 -4 -4 -4 -4 -6 -7 -5 -5 -1 -1 -2 -2 -2 -1 -2 -15 -23 -25 -25 -24 -24 -22 -20 -19
-5 -5 -4 -1 -2 -4 -3 -3 -3 -3 -4 -4 -5 -6 -7 -7 -7 -7 -6 -6 -5 -6 -5 -5 -6 -6 -7 -12 -10 -7 -6 -7 -6 -6 -6 -9 -8 -5 -4 -2 -1 -2 -2 -2 -11 -18 -23 -24 -23 -23 -22 -21 -19 -17
-4 -2 -2 -2 -2 -3 -3 -4 -4 -4 -5 -5 -6 -7 -8 -8 -8 -8 -8 -6 -6 -6 -6 -7 -8 -12 -12 -11 -9 -8 -7 -7 -8 -8 -8 -10 -13 -10 -7 -5 -2 -1 -2 -5 -7 -12 -18 -23 -22 -22 -21 -19 -18 -16
-3 -2 -2 -2 -2 -3 -3 -3 -4 -4 -5 -6 -6 -7 -8 -8 -7 -7 -6 -6 -6 -7 -8 -10 -12 -12 -11 -10 -11 -14 -14 -14 -14 -12 -11 -13 -13 -15 -13 -7 -5 -4 -3 -4 -4 -7 -15 -22 -21 -20 -20 -20 -19 -17
-3 -2 -3 -3 -3 -3 -4 -4 -4 -5 -7 -6 -7 -9 -9 -7 -8 -8 -8 -8 -9 -11 -11 -12 -11 -11 -11 -13 -14 -12 -11 -10 -10 -11 -9 -7 -9 -10 -8 -7 -7 -7 -6 -6 -4 -5 -15 -22 -20 -19 -19 -18 -18 -19
-4 -3 -6 -6 -5 -4 -5 -5 -5 -6 -6 -8 -11 -12 -12 -7 -8 -9 -11 -10 -12 -12 -11 -11 -11 -12 -14 -13 -12 -11 -10 -9 -7 -8 -9 -8 -5 -6 -9 -10 -8 -8 -7 -6 -5 -7 -17 -22 -20 -19 -18 -17 -17 -16
-6 -5 -5 -5 -5 -6 -10 -11 -8 -7 -10 -12 -11 -11 -11 -9 -14 -15 -12 -11 -12 -12 -11 -10 -12 -14 -14 -15 -16 -17 -18 -17 -16 -15 -12 -8 -8 -10 -12 -11 -10 -8 -7 -7 -9 -15 -22 -22 -20 -18 -17 -16 -16 -16
-5 -5 -5 -6 -6 -8 -9 -10 -10 -11 -12 -12 -12 -9 -10 -13 -13 -11 -12 -12 -11 -11 -13 -13 -11 -9 -9 -11 -12 -13 -14 -14 -14 -14 -16 -14 -9 -7 -10 -9 -7 -6 -6 -9 -15 -20 -21 -21 -18 -16 -16 -16 -15 -15
-9 -8 -5 -5 -6 -6 -8 -9 -9 -10 -13 -11 -14 -13 -15 -11 -11 -11 -11 -10 -9 -10 -10 -10 -11 -11 -11 -12 -14 -15 -15 -16 -15 -14 -14 -14 -15 -11 -8 -10 -12 -9 -7 -9 -13 -16 -17 -16 -16 -16 -16 -15 -15 -15
-7 -7 -7 -6 -7 -7 -10 -11 -12 -11 -11 -10 -10 -13 -12 -11 -10 -10 -10 -10 -10 -11 -11 -10 -10 -11 -13 -15 -16 -17 -16 -15 -14 -13 -13 -14 -14 -16 -11 -6 -8 -11 -13 -12 -11 -12 -14 -15 -15 -16 -16 -16 -16 -16
-5 -6 -7 -8 -7 -7 -8 -10 -10 -9 -9 -9 -10 -11 -10 -11 -11 -12 -12 -12 -12 -11 -12 -13 -18 -18 -18 -19 -19 -17 -14 -14 -13 -12 -12 -13 -14 -17 -16 -14 -10 -9 -11 -14 -14 -14 -14 -14 -14 -16 -17 -17 -16 -15
-6 -6 -7 -8 -11 -10 -8 -9 -9 -9 -9 -9 -10 -10 -10 -11 -11 -11 -11 -11 -12 -13 -15 -16 -17 -18 -19 -18 -17 -15 -14 -13 -13 -13 -12 -12 -13 -13 -13 -12 -12 -12 -12 -12 -13 -13 -13 -14 -16 -17 -16 -15 -14 -13
-7 -7 -7 -8 -9 -9 -9 -9 -9 -9 -9 -9 -9 -9 -9 -10 -10 -11 -13 -14 -16 -17 -17 -18 -19 -19 -17 -16 -14 -13 -13 -12 -13 -13 -13 -12 -12 -12 -12 -12 -13 -13 -12 -12 -13 -14 -15 -15 -15 -15 -14 -13 -12 -12
-7 -7 -7 -12 -9 -9 -9 -9 -9 -10 -10 -9 -9 -10 -10 -10 -11 -13 -14 -16 -16 -16 -17 -16 -16 -16 -16 -14 -13 -12 -12 -11 -11 -12 -12 -12 -12 -12 -12 -12 -12 -12 -12 -11 -10 -11 -13 -14 -13 -12 -12 -12 -12 -12
-8 -8 -9 -8 -9 -9 -10 -11 -12 -12 -12 -12 -12 -12 -12 -12 -12 -14 -15 -15 -16 -16 -17 -16 -16 -15 -15 -15 -13 -12 -11 -12 -12 -13 -13 -14 -14 -14 -14 -14 -14 -15 -14 -14 -13 -12 -12 -12 -12 -12 -12 -13 -13 -13

GFSWCAN_850_dewp_042.txt.gz
Dewpoint
0 -1 -4 -7 -6 -4 -3 -2 -1 -1 -1 -1 -2 -2 -2 -2 -2 -2 -3 -4 -4 -3 -5 -4 -5 -4 -6 -5 -4 -5 -0 1 2 3 2 2 2 0 -0 -1 1 1 2 3 3 4 2 -1 1 3 1 1 0 -1
-1 -2 -4 -5 -5 -4 -3 -2 -1 -2 -1 -1 -2 -2 -2 -2 -2 -3 -4 -3 -3 -3 -4 -4 -4 -5 -4 -5 -4 -6 -5 0 1 3 3 3 4 0 -0 2 -1 1 -0 1 1 1 -3 -1 0 -0 1 1 1 0
-1 -3 -3 -3 -4 -3 -3 -2 -2 -2 -1 -1 -2 -2 -2 -3 -2 -3 -5 -5 -4 -4 -5 -5 -5 -4 -5 -5 -5 -5 -4 -2 -2 -4 -0 2 3 2 2 0 -0 -2 -2 -0 -0 -2 -2 -3 0 0 1 1 1 1
-3 -3 -3 -3 -3 -3 -3 -3 -2 -2 -1 -2 -2 -2 -3 -2 -3 -4 -6 -6 -6 -3 -4 -4 -4 -4 -3 -3 -4 -5 -4 -4 -4 -5 -5 -1 2 1 2 1 1 -1 -1 -1 -0 -1 -1 -1 -2 -2 0 1 1 1
-3 -3 -3 -3 -3 -3 -3 -2 -2 -3 -2 -4 -4 -3 -2 -3 -4 -4 -6 -6 -5 -6 -5 -5 -3 -5 -6 -6 -5 -4 -6 -5 -4 -5 -3 -3 -2 -1 -2 0 -0 -1 0 1 1 -2 -2 -2 -2 -2 0 0 1 1
-3 -3 -3 -3 -3 -3 -3 -3 -3 -5 -5 -6 -5 -5 -4 -4 -3 -4 -2 -4 -5 -5 -4 -3 -6 -3 -4 -5 -5 -5 -4 -4 -4 -4 -4 -4 -5 -2 -1 -1 -3 -7 -6 0 1 -0 0 0 -1 -2 0 1 1 1
-3 -3 -4 -4 -4 -4 -4 -4 -5 -6 -6 -5 -5 -5 -4 -4 -6 -6 -5 -5 -5 -5 -5 -5 -3 -4 -3 -2 -2 -3 -4 -4 -4 -4 -3 -4 -5 -2 -2 -1 -8 -9 -10 -8 -7 -2 1 1 1 -0 1 1 2 1
-4 -5 -3 -5 -5 -6 -6 -7 -7 -7 -6 -5 -6 -5 -6 -6 -7 -5 -4 -3 -4 -4 -4 -7 -4 -3 -1 -1 -1 -3 -3 -3 -3 -4 -4 -3 -4 -5 -3 -6 -8 -8 -7 -6 -3 -2 1 1 2 2 2 2 1 0
-4 -4 -6 -7 -6 -6 -7 -7 -7 -7 -7 -6 -5 -4 -6 -6 -7 -5 -4 -3 -4 -4 -4 -5 -4 -3 -3 -2 -1 -1 -3 -2 -4 -3 -3 -5 -5 -4 -5 -6 -6 -5 -1 1 0 0 1 1 1 1 0 0 0 0
-5 -4 -7 -6 -5 -7 -7 -7 -8 -8 -7 -6 -5 -6 -6 -7 -5 -4 -3 -2 -2 -3 -4 -5 -3 -5 -3 -2 -1 -0 -2 -3 -2 -3 -5 -4 -4 -7 -2 -0 -1 -2 0 -0 -0 -1 0 0 1 0 0 1 1 1
-4 -5 -7 -6 -7 -8 -8 -8 -9 -10 -8 -7 -7 -9 -6 -4 -3 -3 -3 -3 -2 -3 -2 -2 -2 -3 -4 -2 -1 -1 0 -1 -0 -0 -2 -3 -0 1 -0 -1 -1 -1 -1 1 1 0 -0 0 0 1 1 1 1 1
-6 -9 -7 -6 -7 -8 -8 -9 -11 -11 -11 -10 -11 -8 -5 -3 -3 -6 -7 -4 -4 -4 -2 -2 -2 -3 -3 -2 -1 -1 -0 0 0 -1 -0 1 1 -0 -1 -2 -1 -1 -1 -0 -0 0 -0 0 1 1 1 1 1 1
-14 -10 -6 -6 -8 -5 -8 -10 -11 -13 -10 -9 -10 -8 -4 -4 -10 -12 -11 -9 -8 -3 -3 -3 -5 -4 -4 -2 -1 0 1 2 0 2 3 1 -0 -1 -1 -2 -2 -2 -2 -1 -1 -1 -1 -0 1 1 1 0 0 1
-9 -8 -6 -6 -9 -7 -8 -12 -15 -14 -10 -7 -7 -12 -9 -9 -9 -8 -9 -9 -4 -3 -6 -5 -4 -3 -3 -3 -1 1 -0 2 2 2 1 -2 -1 -0 -1 -2 -3 -3 -3 -2 -2 -1 -1 -1 -1 -1 -2 -3 -4 -4
-7 -6 -3 -4 -7 -8 -7 -10 -14 -13 -10 -7 -7 -8 -9 -6 -3 -3 -4 -7 -7 -7 -6 -4 -4 -3 -4 -3 -3 -0 2 2 -0 -1 -2 -2 -0 -1 -1 -2 -3 -7 -7 -4 -3 -3 -3 -2 -2 -5 -8 -10 -12 -11
-5 -2 -3 -5 -6 -3 -4 -5 -8 -9 -7 -6 -6 -7 -5 -6 -8 -4 -5 -5 -6 -6 -6 -3 -4 -4 -3 -2 -2 -2 0 -2 -2 -2 -2 -1 -1 -0 -1 -1 -2 -6 -13 -12 -10 -4 -4 -8 -13 -16 -19 -21 -19 -16
-6 -5 -5 -5 -4 -3 -4 -7 -7 -7 -6 -5 -5 -5 -5 -4 -4 -5 -5 -6 -5 -6 -7 -6 -7 -6 -5 -3 -2 -3 -2 -5 -2 -3 -4 -5 -5 -4 -2 -3 -2 -2 -9 -10 -7 -6 -5 -9 -8 -7 -16 -22 -21 -20
-6 -11 -11 -7 -4 -4 -4 -5 -7 -6 -4 -5 -6 -5 -5 -6 -6 -6 -6 -6 -5 -6 -6 -9 -5 -5 -7 -6 -6 -6 -4 -7 -5 -4 -5 -6 -7 -7 -6 -4 -2 -1 -2 -2 -2 -3 -3 -5 -15 -21 -21 -23 -22 -20
-13 -12 -7 -3 -2 -6 -4 -5 -5 -5 -4 -4 -5 -5 -6 -6 -7 -6 -6 -5 -5 -5 -6 -5 -5 -6 -6 -6 -6 -9 -10 -8 -6 -7 -8 -10 -10 -9 -10 -7 -2 -3 -1 -1 -2 -2 -9 -19 -22 -23 -23 -23 -21 -19
-6 -3 -1 -1 -3 -7 -5 -4 -4 -4 -5 -5 -5 -5 -6 -7 -8 -7 -6 -5 -4 -5 -6 -6 -6 -7 -8 -12 -12 -11 -10 -9 -8 -8 -12 -14 -13 -12 -12 -11 -8 -6 -3 -2 -2 -2 -5 -16 -22 -22 -22 -22 -20 -18
-1 -1 -1 -2 -2 -4 -4 -4 -4 -4 -5 -5 -6 -6 -7 -7 -7 -8 -7 -5 -6 -6 -6 -7 -10 -12 -12 -12 -11 -10 -10 -10 -12 -12 -13 -11 -9 -9 -8 -11 -13 -12 -5 -4 -2 -2 -5 -10 -17 -22 -22 -21 -20 -19
-1 -1 -2 -2 -3 -4 -4 -4 -4 -5 -5 -5 -6 -6 -8 -8 -8 -8 -6 -6 -6 -7 -9 -10 -12 -13 -12 -11 -11 -10 -12 -13 -11 -9 -10 -10 -10 -8 -6 -8 -11 -12 -8 -6 -4 -3 -3 -6 -13 -21 -21 -20 -20 -20
-3 -2 -3 -3 -4 -4 -4 -4 -4 -5 -7 -6 -7 -9 -9 -8 -8 -8 -8 -7 -8 -12 -12 -12 -12 -12 -12 -11 -11 -13 -13 -11 -12 -14 -14 -11 -10 -9 -8 -8 -9 -9 -8 -7 -7 -6 -5 -4 -9 -20 -20 -19 -19 -18
-3 -3 -5 -4 -3 -6 -5 -5 -6 -6 -6 -8 -12 -12 -13 -9 -9 -10 -11 -10 -11 -12 -12 -12 -11 -11 -11 -11 -12 -15 -16 -13 -14 -14 -15 -16 -15 -14 -9 -8 -9 -11 -11 -9 -8 -7 -6 -5 -8 -19 -20 -19 -18 -17
-8 -5 -5 -5 -4 -7 -10 -10 -8 -7 -8 -14 -11 -11 -11 -9 -14 -17 -12 -11 -13 -13 -11 -10 -10 -11 -12 -8 -6 -6 -7 -10 -12 -12 -16 -16 -16 -15 -15 -10 -8 -9 -9 -10 -9 -7 -6 -7 -10 -20 -20 -19 -17 -16
-5 -5 -5 -6 -6 -8 -9 -9 -8 -10 -13 -14 -11 -10 -10 -14 -12 -10 -12 -13 -13 -12 -13 -11 -10 -9 -9 -10 -11 -11 -12 -13 -12 -12 -17 -16 -16 -14 -14 -14 -11 -8 -9 -7 -6 -7 -11 -16 -20 -21 -21 -19 -17 -16
-7 -7 -5 -5 -6 -6 -8 -9 -9 -11 -15 -12 -14 -13 -15 -11 -12 -12 -12 -12 -11 -10 -10 -11 -11 -11 -11 -12 -11 -12 -13 -14 -14 -14 -15 -14 -14 -14 -14 -13 -14 -11 -8 -9 -8 -8 -13 -18 -20 -20 -19 -17 -16 -15
-7 -7 -6 -5 -6 -7 -10 -11 -13 -11 -12 -10 -10 -13 -12 -12 -11 -12 -12 -12 -12 -12 -12 -12 -12 -12 -12 -13 -15 -15 -16 -17 -17 -16 -16 -14 -14 -14 -13 -13 -13 -14 -11 -6 -8 -10 -10 -11 -14 -15 -15 -15 -15 -15
-6 -7 -7 -7 -7 -7 -8 -10 -11 -9 -10 -10 -11 -12 -11 -12 -12 -12 -12 -12 -11 -11 -11 -12 -16 -16 -16 -17 -16 -16 -17 -17 -15 -14 -14 -13 -13 -14 -12 -13 -14 -14 -13 -9 -6 -8 -10 -10 -11 -11 -12 -14 -14 -15
-7 -6 -7 -8 -10 -10 -8 -8 -9 -10 -10 -10 -10 -10 -10 -11 -11 -11 -10 -11 -11 -13 -17 -16 -16 -16 -16 -16 -16 -17 -17 -16 -15 -13 -12 -12 -12 -13 -13 -12 -12 -11 -11 -12 -12 -11 -11 -12 -12 -12 -13 -13 -15 -16
-7 -6 -7 -8 -9 -9 -9 -9 -10 -9 -9 -9 -9 -9 -9 -9 -10 -11 -13 -15 -16 -17 -17 -17 -17 -16 -16 -16 -15 -16 -16 -16 -14 -12 -12 -12 -12 -12 -12 -12 -12 -12 -12 -12 -12 -12 -13 -13 -13 -14 -15 -15 -15 -14
-7 -7 -7 -11 -9 -9 -9 -9 -9 -9 -9 -9 -9 -9 -9 -9 -9 -12 -17 -17 -17 -16 -17 -17 -16 -16 -16 -16 -16 -15 -15 -14 -12 -11 -11 -11 -12 -12 -12 -12 -12 -12 -13 -12 -12 -11 -10 -10 -11 -12 -13 -14 -13 -12
-8 -8 -8 -8 -8 -9 -10 -10 -11 -12 -12 -11 -11 -12 -11 -11 -12 -15 -16 -18 -19 -18 -17 -16 -15 -15 -15 -15 -15 -15 -15 -15 -16 -15 -15 -15 -14 -14 -14 -14 -14 -14 -14 -14 -14 -13 -13 -13 -12 -12 -12 -12 -12 -12

GFSWCAN_850_dewp_045.txt.gz
Dewpoint
3 1 -1 -5 -6 -6 -4 -3 -1 -2 -2 -2 -3 -3 -3 -2 -3 -4 -5 -6 -5 -4 -4 -4 -4 -4 -5 -6 -4 -6 -1 -1 1 2 2 1 2 0 0 -0 1 2 2 3 3 4 3 -3 0 2 -0 1 1 1
2 1 -3 -6 -6 -5 -4 -3 -2 -3 -2 -2 -2 -3 -2 -3 -4 -6 -5 -6 -4 -5 -4 -4 -5 -5 -4 -5 -5 -6 -5 0 -0 1 1 3 3 1 -1 1 -2 1 -1 0 1 1 -2 -3 0 -0 0 1 1 1
3 -1 -4 -6 -6 -5 -4 -2 -2 -2 -2 -2 -3 -3 -2 -3 -4 -6 -7 -7 -6 -6 -5 -5 -4 -4 -5 -5 -5 -5 -4 -2 -2 -4 -1 0 2 1 2 1 -1 -2 -2 -1 -1 -2 -2 -3 -3 -3 -0 1 1 1
1 -2 -5 -5 -5 -4 -3 -3 -2 -2 -2 -3 -4 -4 -3 -4 -4 -6 -7 -6 -6 -5 -5 -5 -3 -4 -6 -5 -4 -5 -4 -4 -4 -5 -5 -3 1 0 1 1 1 -0 -1 -1 -1 -2 -2 -2 -1 -1 -2 -1 1 1
-0 -3 -4 -5 -5 -4 -3 -3 -2 -3 -4 -5 -5 -5 -5 -5 -4 -6 -6 -5 -6 -5 -6 -5 -4 -3 -3 -5 -5 -4 -5 -5 -5 -5 -4 -4 -4 -2 -3 -1 1 -3 -3 0 -1 -0 0 0 -1 -0 -1 -1 0 1
-2 -3 -4 -5 -4 -3 -3 -3 -2 -6 -6 -7 -6 -6 -5 -5 -6 -6 -4 -4 -6 -5 -5 -5 -4 -4 -4 -4 -4 -4 -4 -4 -4 -5 -4 -4 -5 -3 -3 -1 -4 -5 -8 -10 -6 -8 -7 -6 -3 -1 1 -1 1 1
-3 -3 -5 -5 -3 -3 -3 -3 -6 -8 -8 -7 -7 -6 -7 -7 -6 -6 -5 -5 -5 -6 -5 -5 -4 -4 -3 -2 -2 -3 -4 -4 -4 -4 -4 -4 -5 -2 -2 -2 -7 -9 -8 -5 -5 -4 -4 -7 -2 -0 1 1 1 1
-3 -4 -4 -4 -3 -3 -4 -6 -8 -8 -8 -7 -7 -10 -8 -7 -6 -5 -5 -5 -5 -5 -4 -9 -7 -3 -2 -2 -1 -3 -3 -3 -3 -4 -4 -3 -4 -5 -4 -6 -7 -5 -3 -2 -1 0 -1 -1 -2 0 1 2 2 1
-3 -3 -5 -3 -3 -3 -5 -7 -8 -8 -10 -7 -7 -10 -8 -7 -6 -4 -4 -4 -5 -4 -5 -5 -6 -5 -3 -2 -1 -2 -3 -2 -4 -3 -3 -5 -4 -3 -3 -2 -2 -1 -2 -2 -0 -0 0 1 1 0 1 1 1 1
-2 -4 -3 -4 -3 -4 -8 -9 -8 -9 -10 -8 -7 -8 -8 -6 -5 -4 -3 -3 -3 -3 -3 -4 -3 -5 -3 -3 -3 -0 -2 -2 -2 -3 -5 -4 -4 -5 0 -1 -1 -2 -1 -1 -0 -0 0 0 -0 0 1 1 1 1
-3 -4 -5 -5 -4 -7 -10 -10 -11 -10 -8 -7 -9 -9 -5 -5 -4 -3 -3 -3 -3 -5 -2 -3 -3 -3 -4 -3 -2 -2 -0 -1 -1 -1 -3 -2 -0 -2 0 -1 -2 -2 -2 -1 -1 -1 -0 -1 -1 0 1 2 1 1
-4 -4 -6 -3 -6 -9 -9 -11 -13 -11 -10 -10 -11 -7 -5 -4 -3 -8 -8 -6 -5 -5 -3 -2 -3 -4 -4 -4 -1 -1 -1 -0 0 -2 -1 1 -2 -3 -0 -1 -2 -2 -2 -2 -2 -2 -1 -1 -0 -0 0 1 1 1
-5 -6 -5 -5 -8 -9 -11 -12 -11 -10 -11 -11 -11 -7 -5 -6 -11 -14 -12 -11 -9 -4 -3 -5 -5 -4 -4 -3 -1 0 1 1 -1 0 1 -2 -4 -1 -1 -1 -1 -3 -6 -3 -2 -2 -2 -1 -1 -0 -0 -0 -0 -0
-4 -4 -4 -6 -9 -10 -11 -13 -11 -10 -11 -9 -10 -11 -9 -10 -10 -10 -9 -9 -6 -5 -6 -5 -4 -4 -3 -4 -2 0 -1 1 1 -1 -1 -3 -4 -1 -1 -2 -1 -2 -6 -10 -4 -3 -3 -2 -2 -1 -1 -3 -5 -5
-3 -2 -3 -4 -5 -8 -13 -12 -8 -9 -10 -9 -9 -9 -10 -5 -3 -3 -3 -6 -7 -7 -6 -5 -5 -4 -4 -3 -3 -1 -1 -1 -5 -4 -5 -5 -3 -5 -6 -3 -3 -3 -3 -10 -9 -6 -3 -3 -3 -3 -4 -12 -14 -11
-1 -1 -3 -3 -6 -9 -11 -12 -9 -10 -10 -8 -7 -8 -6 -7 -8 -5 -5 -5 -6 -5 -6 -4 -5 -5 -4 -3 -3 -3 -2 -1 -6 -6 -5 -4 -4 -7 -8 -7 -6 -3 -2 -4 -7 -12 -5 -4 -5 -9 -19 -19 -20 -17
-1 -2 -3 -4 -5 -7 -13 -11 -10 -10 -10 -8 -6 -7 -6 -6 -6 -5 -5 -6 -6 -6 -9 -6 -9 -8 -5 -4 -3 -3 -2 -6 -5 -6 -5 -5 -8 -9 -9 -8 -8 -7 -4 -2 -2 -3 -3 -4 -4 -4 -3 -5 -19 -20
-3 -4 -3 -6 -6 -6 -10 -9 -10 -9 -7 -7 -7 -8 -7 -8 -7 -6 -6 -6 -6 -6 -7 -10 -5 -5 -8 -9 -7 -7 -2 -6 -8 -10 -10 -11 -10 -13 -12 -12 -11 -11 -7 -3 -2 -2 -3 -3 -5 -5 -7 -18 -21 -20
-7 -6 -4 -4 -6 -11 -9 -9 -8 -7 -5 -6 -5 -6 -6 -6 -6 -6 -6 -6 -6 -5 -6 -5 -6 -6 -7 -7 -8 -11 -12 -10 -9 -10 -11 -12 -13 -11 -9 -9 -8 -10 -11 -7 -5 -2 -2 -3 -4 -17 -21 -19 -21 -19
-6 -3 -2 -3 -8 -12 -9 -6 -7 -7 -6 -6 -7 -5 -5 -6 -7 -7 -6 -5 -5 -4 -5 -6 -7 -7 -9 -13 -13 -11 -10 -10 -9 -10 -11 -12 -10 -10 -10 -9 -6 -7 -10 -12 -10 -4 -3 -2 -2 -7 -19 -21 -21 -19
-1 -1 -1 -2 -7 -7 -6 -5 -6 -6 -5 -7 -6 -6 -7 -7 -7 -7 -7 -5 -4 -5 -6 -8 -10 -12 -12 -11 -11 -11 -11 -10 -10 -9 -11 -11 -10 -11 -11 -10 -8 -8 -9 -11 -12 -9 -4 -3 -2 -7 -14 -21 -21 -20
-1 -1 -2 -4 -4 -5 -5 -5 -5 -5 -6 -6 -6 -6 -7 -8 -8 -7 -6 -6 -6 -7 -8 -10 -12 -12 -11 -11 -12 -11 -12 -11 -11 -12 -11 -13 -16 -17 -17 -16 -12 -9 -9 -10 -9 -9 -6 -4 -3 -3 -8 -19 -20 -20
-2 -2 -3 -4 -4 -4 -4 -4 -5 -5 -7 -6 -7 -8 -8 -8 -8 -8 -8 -7 -7 -11 -12 -11 -12 -12 -12 -12 -12 -11 -11 -11 -13 -14 -12 -12 -13 -14 -16 -16 -15 -14 -10 -8 -10 -10 -8 -7 -6 -3 -3 -9 -20 -19
-3 -4 -4 -3 -5 -6 -5 -5 -5 -6 -6 -7 -8 -10 -12 -10 -10 -10 -11 -9 -11 -11 -12 -13 -12 -11 -10 -10 -10 -8 -7 -7 -8 -7 -10 -11 -12 -14 -15 -17 -17 -16 -14 -11 -9 -11 -10 -8 -7 -6 -5 -7 -20 -19
-9 -5 -7 -6 -6 -7 -7 -9 -8 -7 -7 -9 -10 -11 -12 -10 -14 -15 -12 -10 -11 -12 -13 -12 -11 -10 -10 -10 -10 -10 -10 -11 -10 -11 -11 -12 -13 -14 -17 -17 -15 -16 -16 -13 -9 -7 -8 -8 -7 -6 -5 -9 -20 -19
-9 -5 -8 -6 -7 -8 -9 -8 -8 -8 -12 -15 -11 -11 -11 -14 -12 -10 -12 -13 -13 -14 -13 -12 -11 -11 -11 -11 -12 -12 -12 -12 -11 -11 -14 -14 -15 -16 -16 -14 -14 -15 -15 -14 -11 -9 -7 -7 -8 -9 -9 -13 -20 -20
-8 -7 -5 -6 -6 -7 -9 -9 -10 -11 -15 -11 -14 -13 -15 -12 -13 -12 -13 -14 -13 -12 -12 -11 -11 -11 -11 -11 -11 -12 -12 -12 -13 -13 -15 -16 -16 -15 -14 -13 -13 -13 -13 -12 -12 -12 -9 -8 -10 -16 -19 -21 -21 -21
-7 -6 -6 -6 -6 -7 -10 -11 -12 -12 -12 -10 -11 -13 -12 -12 -11 -13 -13 -13 -13 -13 -12 -12 -11 -11 -11 -11 -12 -14 -15 -15 -15 -15 -17 -16 -15 -15 -13 -12 -13 -13 -12 -12 -13 -13 -10 -9 -9 -10 -15 -16 -17 -17
-7 -8 -7 -7 -7 -7 -7 -10 -10 -9 -10 -10 -11 -12 -11 -13 -14 -14 -13 -13 -12 -11 -11 -12 -14 -15 -16 -16 -15 -15 -15 -15 -15 -16 -16 -16 -16 -14 -12 -12 -12 -12 -11 -12 -12 -13 -12 -6 -6 -9 -9 -9 -10 -11
-6 -7 -7 -8 -10 -9 -8 -8 -8 -10 -10 -11 -11 -11 -12 -12 -12 -11 -11 -11 -12 -13 -16 -17 -18 -17 -16 -16 -15 -15 -16 -16 -15 -15 -15 -15 -13 -12 -12 -12 -12 -12 -12 -12 -11 -11 -11 -11 -10 -10 -10 -10 -10 -11
-7 -6 -7 -8 -9 -9 -9 -9 -10 -9 -9 -9 -9 -9 -10 -10 -11 -11 -13 -16 -20 -20 -19 -20 -19 -17 -17 -16 -16 -15 -15 -15 -15 -15 -14 -13 -12 -11 -11 -12 -12 -12 -12 -12 -12 -12 -12 -12 -12 -11 -11 -11 -12 -13
-7 -7 -8 -10 -9 -8 -8 -9 -9 -9 -9 -9 -9 -9 -9 -9 -9 -11 -15 -18 -21 -22 -21 -20 -19 -18 -16 -16 -15 -15 -15 -15 -15 -15 -16 -16 -16 -15 -15 -14 -14 -14 -13 -13 -13 -12 -11 -10 -10 -11 -12 -13 -13 -13
-9 -8 -8 -8 -8 -8 -9 -9 -10 -11 -11 -11 -10 -10 -10 -10 -11 -15 -19 -21 -21 -19 -18 -17 -16 -16 -15 -15 -14 -14 -14 -15 -15 -16 -15 -15 -14 -14 -13 -13 -13 -13 -13 -13 -13 -13 -12 -12 -12 -12 -12 -12 -12 -12

GFSWCAN_850_dewp_048.txt.gz
Dewpoint
7 6 4 -1 -3 -6 -6 -6 -6 -4 -5 -5 -5 -4 -5 -7 -7 -8 -7 -8 -7 -4 -4 -4 -5 -5 -6 -6 -5 -6 -1 -1 0 2 2 1 2 -0 -0 -0 1 2 2 2 3 3 2 -3 -0 1 -1 0 0 1
6 5 3 0 -5 -6 -6 -6 -6 -5 -5 -4 -4 -4 -5 -7 -7 -7 -7 -7 -6 -5 -4 -5 -5 -4 -5 -5 -6 -6 -4 -1 -1 1 1 0 2 1 -1 1 -2 1 -1 0 0 0 -3 -3 -1 -2 -1 -1 1 1
6 5 1 -1 -6 -6 -6 -6 -4 -5 -4 -5 -4 -4 -4 -6 -7 -7 -8 -6 -6 -5 -5 -5 -4 -5 -5 -5 -5 -5 -5 -3 -3 -3 -1 0 1 1 1 0 -1 -2 -2 -0 -1 -2 -2 -1 -2 -1 -1 -1 -0 1
6 3 1 -3 -6 -6 -6 -5 -4 -3 -3 -4 -4 -4 -5 -5 -7 -6 -7 -8 -7 -6 -5 -4 -5 -5 -5 -5 -4 -4 -5 -4 -4 -5 -5 -3 -0 -1 0 -0 0 -0 -1 -0 -1 -2 -2 -2 -2 -3 -3 -3 1 1
5 3 0 -4 -5 -5 -5 -4 -3 -2 -4 -4 -4 -5 -5 -5 -7 -6 -7 -6 -6 -5 -5 -4 -4 -4 -4 -5 -5 -4 -4 -5 -5 -5 -4 -4 -4 -3 -3 -3 -2 -4 -3 -1 -1 -3 -5 -6 -8 -8 -7 -4 -1 1
3 2 -1 -5 -5 -5 -4 -3 -2 -3 -5 -4 -4 -5 -6 -7 -6 -6 -5 -6 -6 -6 -6 -5 -4 -4 -3 -3 -3 -4 -4 -4 -4 -4 -4 -4 -5 -4 -3 -3 -5 -5 -6 -6 -5 -5 -3 -3 -5 -6 -2 -3 -4 1
2 2 -2 -6 -5 -4 -4 -2 -2 -5 -5 -4 -5 -6 -7 -6 -5 -5 -6 -6 -7 -6 -5 -5 -4 -4 -2 -2 -2 -3 -4 -4 -4 -4 -4 -5 -5 -3 -2 -2 -7 -6 -3 -1 -1 -1 -1 -1 -0 -2 -1 -1 -2 0
3 1 -4 -4 -4 -3 -3 -2 -4 -6 -5 -5 -6 -7 -6 -5 -5 -6 -6 -6 -6 -6 -6 -10 -8 -3 -4 -2 -1 -2 -3 -3 -3 -3 -4 -3 -4 -5 -4 -5 -1 -1 -1 -1 -2 -1 -1 -0 0 0 0 1 1 1
3 -1 -4 -4 -3 -3 -3 -5 -6 -6 -6 -7 -7 -7 -6 -6 -5 -4 -4 -5 -6 -6 -5 -5 -5 -7 -4 -3 -2 -1 -2 -3 -4 -3 -4 -4 -4 -2 -1 -1 -1 -2 -2 -2 -2 -2 -1 -1 -1 -0 -0 0 1 1
1 -2 -3 -3 -3 -3 -4 -4 -7 -7 -6 -9 -8 -8 -7 -5 -5 -5 -5 -5 -4 -5 -4 -4 -4 -5 -4 -4 -3 -1 -2 -2 -4 -3 -4 -3 -3 -4 -3 -0 -0 -1 -2 -2 -2 -2 -2 -1 -1 -1 -1 -0 1 1
-1 -2 -3 -2 -3 -3 -4 -6 -8 -6 -5 -8 -9 -7 -5 -4 -5 -4 -4 -5 -4 -5 -3 -3 -3 -6 -4 -5 -4 -2 -1 -1 -3 -1 -2 -1 -1 -4 -2 -1 -1 -2 -2 -4 -2 -2 -3 -2 -2 -2 -1 -1 -0 0
-1 -2 -2 -2 -3 -5 -6 -7 -8 -7 -8 -9 -8 -5 -5 -4 -5 -9 -10 -7 -7 -8 -3 -3 -3 -5 -4 -3 -1 -1 -2 -1 -1 -2 -1 -1 -4 -6 -2 -1 -3 -2 -3 -6 -6 -2 -2 -2 -2 -2 -2 -1 -1 -0
-2 -2 -2 -2 -5 -6 -6 -8 -8 -8 -10 -8 -9 -6 -7 -8 -11 -16 -12 -10 -10 -5 -4 -6 -7 -5 -4 -3 -2 -1 1 1 -1 -0 -1 -4 -5 -6 -4 -6 -7 -5 -3 -3 -8 -8 -3 -3 -3 -2 -2 -2 -2 -2
-2 -2 -2 -3 -5 -6 -9 -10 -7 -10 -10 -10 -11 -10 -9 -10 -10 -10 -10 -9 -7 -5 -6 -5 -5 -4 -3 -4 -3 -1 -2 -1 -0 -2 -4 -6 -7 -5 -5 -7 -7 -7 -6 -3 -4 -7 -9 -4 -3 -3 -3 -3 -7 -8
-2 -2 -2 -3 -5 -7 -10 -7 -9 -10 -9 -10 -11 -10 -9 -6 -4 -6 -4 -6 -6 -6 -6 -5 -5 -5 -5 -4 -3 -4 -3 -1 -4 -6 -7 -6 -6 -9 -8 -9 -9 -9 -8 -7 -3 -3 -4 -7 -4 -3 -3 -4 -16 -15
-1 -1 -2 -4 -6 -8 -8 -10 -9 -10 -10 -10 -8 -8 -7 -7 -6 -5 -6 -7 -7 -5 -5 -5 -6 -7 -5 -4 -4 -5 -3 -3 -6 -8 -7 -9 -9 -8 -10 -12 -13 -12 -11 -9 -6 -3 -2 -3 -4 -4 -4 -5 -8 -8
-2 -2 -3 -4 -4 -5 -8 -8 -10 -10 -11 -10 -9 -10 -8 -8 -9 -7 -7 -6 -6 -5 -8 -7 -10 -9 -7 -4 -4 -4 -3 -6 -5 -9 -10 -10 -11 -11 -12 -12 -10 -9 -8 -8 -10 -7 -3 -3 -4 -4 -4 -4 -4 -7
-2 -3 -3 -4 -7 -8 -9 -11 -13 -10 -8 -8 -9 -10 -8 -8 -7 -7 -6 -7 -6 -6 -7 -11 -7 -7 -7 -9 -8 -8 -5 -3 -8 -10 -10 -12 -12 -12 -12 -10 -10 -9 -7 -7 -7 -9 -6 -4 -3 -4 -5 -5 -4 -7
-5 -4 -4 -6 -10 -13 -14 -12 -10 -7 -5 -5 -5 -7 -7 -7 -8 -8 -7 -6 -6 -6 -6 -6 -9 -10 -7 -8 -9 -13 -12 -10 -9 -10 -11 -11 -12 -12 -10 -10 -11 -10 -10 -8 -8 -9 -10 -10 -4 -3 -4 -8 -12 -12
-3 -3 -4 -6 -12 -15 -12 -9 -8 -10 -6 -7 -6 -7 -6 -6 -7 -7 -6 -6 -5 -5 -5 -6 -8 -8 -9 -12 -12 -11 -10 -9 -9 -9 -11 -12 -12 -11 -14 -16 -17 -17 -18 -15 -9 -8 -9 -12 -10 -3 -3 -4 -6 -16
-3 -2 -3 -8 -12 -12 -9 -7 -7 -6 -7 -7 -6 -6 -7 -7 -7 -7 -6 -5 -4 -5 -6 -7 -9 -11 -11 -11 -10 -10 -10 -9 -10 -9 -10 -11 -12 -14 -13 -10 -7 -9 -16 -17 -16 -12 -9 -10 -10 -7 -4 -4 -4 -18
-1 -2 -4 -9 -8 -7 -6 -5 -7 -7 -6 -7 -6 -6 -7 -8 -8 -7 -7 -6 -6 -6 -7 -9 -11 -11 -11 -11 -11 -11 -11 -11 -11 -11 -11 -12 -12 -10 -11 -12 -9 -7 -15 -17 -17 -15 -10 -9 -10 -7 -4 -4 -4 -12
-2 -3 -7 -5 -6 -6 -5 -5 -6 -6 -8 -7 -7 -9 -9 -8 -8 -8 -8 -7 -6 -10 -11 -11 -11 -11 -12 -11 -10 -10 -9 -9 -10 -11 -12 -9 -8 -10 -10 -11 -13 -15 -17 -17 -15 -15 -15 -11 -9 -9 -7 -4 -4 -5
-5 -6 -5 -5 -6 -6 -5 -5 -5 -6 -7 -8 -9 -10 -12 -10 -10 -10 -9 -9 -11 -11 -11 -11 -12 -13 -11 -10 -11 -12 -12 -12 -12 -11 -11 -11 -12 -12 -12 -14 -15 -17 -17 -15 -14 -14 -15 -10 -8 -9 -8 -6 -5 -4
-10 -6 -7 -6 -6 -7 -7 -7 -7 -8 -7 -8 -9 -11 -12 -11 -14 -14 -11 -11 -13 -14 -14 -14 -13 -12 -11 -11 -11 -11 -11 -11 -11 -11 -11 -12 -13 -13 -15 -16 -18 -19 -17 -15 -13 -13 -13 -9 -6 -7 -5 -5 -6 -6
-7 -6 -10 -7 -7 -9 -9 -9 -10 -9 -10 -14 -12 -12 -12 -14 -12 -10 -12 -12 -15 -14 -13 -13 -13 -12 -11 -11 -11 -11 -11 -11 -11 -11 -13 -14 -14 -12 -12 -13 -16 -16 -14 -13 -12 -12 -13 -12 -9 -7 -7 -6 -6 -7
-8 -6 -6 -7 -7 -8 -9 -9 -9 -12 -15 -12 -14 -13 -15 -12 -11 -12 -12 -14 -14 -13 -13 -13 -13 -12 -12 -11 -12 -12 -11 -11 -12 -13 -14 -14 -15 -14 -14 -14 -14 -14 -12 -12 -12 -11 -12 -12 -12 -9 -8 -12 -16 -14
-7 -6 -7 -6 -7 -8 -11 -12 -12 -12 -12 -10 -11 -12 -12 -11 -11 -13 -15 -14 -14 -14 -13 -12 -12 -12 -12 -13 -14 -14 -15 -15 -15 -15 -15 -16 -16 -16 -15 -14 -13 -12 -11 -11 -11 -11 -11 -11 -12 -11 -9 -9 -13 -17
-8 -7 -6 -8 -7 -7 -8 -10 -10 -9 -10 -10 -11 -12 -11 -12 -14 -14 -14 -13 -12 -12 -13 -14 -17 -19 -19 -18 -17 -16 -15 -15 -15 -15 -15 -16 -16 -15 -14 -12 -12 -12 -12 -12 -12 -12 -10 -11 -11 -11 -9 -6 -8 -9
-6 -7 -8 -7 -9 -8 -8 -8 -8 -9 -10 -10 -11 -12 -12 -12 -12 -12 -11 -11 -12 -14 -15 -17 -23 -22 -20 -18 -17 -17 -16 -15 -15 -15 -15 -15 -15 -15 -15 -14 -12 -12 -12 -12 -12 -12 -12 -11 -11 -11 -10 -9 -8 -7
-7 -7 -8 -8 -9 -9 -9 -9 -9 -9 -9 -9 -10 -10 -10 -10 -11 -12 -13 -15 -16 -17 -18 -22 -22 -20 -19 -19 -17 -17 -16 -15 -15 -14 -14 -15 -15 -17 -16 -16 -15 -15 -14 -13 -12 -12 -12 -11 -12 -12 -11 -11 -11 -11
-7 -7 -8 -10 -8 -9 -9 -9 -9 -9 -9 -9 -9 -9 -9 -9 -10 -11 -14 -19 -21 -21 -21 -19 -18 -17 -17 -17 -16 -15 -15 -15 -14 -14 -14 -15 -15 -15 -14 -13 -13 -13 -13 -13 -14 -14 -13 -12 -11 -10 -11 -12 -12 -13
-9 -8 -8 -8 -8 -8 -9 -9 -10 -11 -11 -10 -10 -10 -10 -10 -10 -14 -21 -23 -21 -19 -18 -17 -16 -15 -14 -14 -14 -14 -14 -14 -14 -14 -14 -15 -15 -14 -14 -14 -14 -14 -14 -14 -13 -12 -12 -12 -12 -12 -12 -12 -12 -12

GFSWCAN_850_dewp_054.txt.gz
Dewpoint
0 3 7 8 7 7 4 -4 -7 -8 -8 -9 -8 -8 -8 -8 -7 -8 -7 -7 -7 -4 -3 -5 -5 -5 -6 -6 -1 -5 -1 -1 1 3 2 2 1 0 0 -0 1 1 2 2 2 2 1 -4 -1 1 -1 -5 -6 -6
1 3 7 7 7 6 2 -6 -8 -9 -9 -9 -7 -8 -7 -7 -9 -9 -8 -7 -7 -7 -4 -4 -5 -6 -7 -6 -6 -2 -1 -1 -0 1 0 0 2 1 0 1 -2 2 -0 1 0 0 -2 -5 -2 -4 -4 -4 -4 -5
1 4 7 6 6 3 1 -5 -8 -9 -10 -9 -8 -8 -7 -8 -9 -9 -8 -8 -8 -5 -4 -4 -5 -5 -5 -5 -6 -6 -4 -2 -2 -2 -0 -1 1 -0 1 1 1 -1 -3 -1 -2 -2 -4 -4 -2 -4 -4 -3 -3 -2
2 5 7 6 5 2 -4 -7 -9 -10 -10 -8 -8 -6 -7 -8 -9 -9 -8 -6 -5 -5 -3 -4 -4 -4 -4 -4 -4 -6 -5 -3 -5 -6 -4 -1 -0 -2 -0 -1 -2 -3 -6 -5 -5 -6 -4 -4 -3 -3 -2 -2 -2 -1
1 3 7 5 4 1 -5 -7 -10 -10 -10 -7 -7 -7 -7 -7 -7 -7 -6 -6 -6 -6 -3 -3 -4 -4 -3 -4 -4 -5 -6 -6 -6 -4 -3 -3 -4 -4 -5 -4 -4 -6 -3 -2 -2 -4 -3 -3 -2 -1 -1 -2 -1 -1
3 3 6 5 4 -2 -5 -8 -8 -10 -8 -6 -7 -6 -6 -7 -7 -7 -6 -6 -6 -6 -4 -2 -4 -3 -3 -4 -5 -5 -6 -6 -6 -4 -4 -4 -4 -3 -5 -6 -6 -5 -3 -2 -2 -2 -1 -1 -2 -1 -2 -2 -2 -1
3 4 5 4 -0 -4 -6 -8 -8 -8 -8 -7 -6 -6 -6 -5 -5 -6 -6 -6 -5 -5 -5 -3 -3 -4 -2 -2 -3 -4 -4 -4 -4 -3 -3 -4 -5 -3 -3 -4 -5 -3 -1 -0 -1 -1 -2 -2 -2 -2 -2 -1 -2 -2
3 4 5 2 -3 -4 -6 -6 -7 -7 -7 -6 -6 -6 -6 -6 -6 -6 -7 -7 -6 -9 -12 -3 -5 -4 -4 -2 -2 -2 -3 -4 -4 -3 -3 -3 -3 -3 -2 -4 -4 -2 -1 -1 -1 -2 -3 -3 -3 -3 -3 -2 -2 -2
3 5 4 -0 -2 -4 -6 -5 -6 -7 -6 -6 -6 -6 -6 -6 -6 -6 -7 -8 -9 -11 -10 -7 -4 -4 -5 -4 -3 -2 -3 -3 -4 -4 -4 -4 -3 -1 -4 -4 -3 -2 -2 -2 -2 -3 -4 -4 -3 -3 -2 -3 -2 -2
3 5 3 -0 -3 -4 -3 -3 -7 -7 -6 -6 -7 -6 -5 -5 -7 -7 -7 -6 -8 -10 -10 -5 -5 -4 -5 -4 -3 -2 -2 -2 -1 -4 -3 -3 -2 -4 -5 -5 -3 -2 -4 -4 -2 -3 -5 -6 -4 -4 -3 -3 -3 -3
4 4 0 -2 -2 -4 -2 -6 -7 -6 -5 -8 -8 -5 -4 -5 -7 -8 -8 -7 -8 -5 -5 -5 -5 -4 -4 -3 -3 -3 -3 -3 -1 -2 -2 -2 -2 -4 -7 -8 -8 -8 -8 -7 -6 -5 -4 -4 -5 -5 -5 -4 -3 -3
5 2 -0 -2 -3 -4 -3 -8 -7 -6 -7 -9 -6 -5 -6 -7 -10 -7 -7 -7 -6 -5 -3 -4 -3 -5 -4 -3 -3 -2 -2 -2 -1 -3 -2 -1 -2 -7 -11 -10 -8 -7 -9 -10 -11 -11 -10 -8 -5 -5 -4 -5 -4 -4
4 0 -1 -2 -3 -3 -5 -9 -7 -8 -8 -7 -8 -9 -11 -12 -8 -10 -9 -6 -4 -4 -4 -5 -5 -4 -4 -3 -3 -3 -1 -2 -2 -1 -2 -3 -6 -11 -12 -13 -13 -13 -13 -13 -13 -10 -10 -9 -9 -6 -4 -4 -3 -4
1 1 -1 -2 -3 -3 -7 -9 -8 -9 -10 -10 -10 -7 -6 -7 -9 -8 -7 -5 -7 -5 -7 -7 -5 -4 -4 -4 -3 -3 -4 -1 -1 -0 -1 -4 -8 -11 -12 -12 -12 -13 -12 -12 -10 -9 -8 -8 -8 -8 -8 -5 -4 -3
0 -1 -1 -2 -4 -6 -9 -8 -9 -9 -11 -13 -13 -7 -6 -7 -7 -7 -6 -6 -6 -7 -7 -5 -5 -5 -4 -5 -5 -5 -4 -3 -3 -1 -4 -9 -12 -12 -12 -12 -12 -12 -12 -12 -10 -11 -12 -13 -10 -9 -9 -9 -6 -4
0 -1 -1 -1 -5 -7 -8 -8 -9 -10 -11 -11 -10 -6 -6 -7 -6 -5 -6 -6 -7 -7 -7 -7 -6 -5 -5 -5 -5 -4 -4 -3 -3 -4 -10 -11 -11 -12 -12 -12 -12 -12 -12 -10 -10 -15 -17 -17 -16 -13 -10 -9 -9 -5
0 -0 -0 -2 -4 -5 -7 -11 -9 -10 -13 -12 -8 -10 -9 -10 -9 -8 -8 -8 -7 -7 -5 -7 -7 -7 -6 -5 -5 -5 -4 -4 -5 -7 -7 -8 -12 -11 -11 -11 -12 -11 -11 -11 -16 -11 -7 -8 -14 -17 -16 -10 -10 -7
-0 -0 -1 -3 -3 -6 -9 -8 -11 -11 -8 -9 -7 -9 -10 -11 -9 -8 -8 -8 -7 -8 -8 -7 -8 -6 -6 -6 -6 -6 -7 -10 -10 -11 -11 -12 -12 -12 -11 -11 -11 -11 -12 -13 -9 -8 -8 -7 -7 -14 -16 -12 -9 -10
-1 -1 -2 -4 -9 -10 -11 -12 -12 -7 -6 -7 -7 -8 -8 -9 -9 -8 -8 -7 -7 -8 -8 -8 -7 -6 -7 -8 -9 -11 -10 -9 -10 -11 -13 -13 -12 -11 -11 -11 -11 -12 -12 -11 -10 -10 -11 -13 -14 -16 -15 -14 -10 -9
-2 -2 -2 -8 -11 -12 -12 -12 -11 -11 -7 -7 -7 -7 -8 -8 -7 -7 -6 -6 -6 -7 -6 -6 -7 -9 -10 -11 -10 -10 -11 -12 -12 -11 -11 -11 -12 -12 -12 -12 -10 -9 -11 -11 -12 -12 -12 -13 -15 -16 -16 -14 -13 -10
-1 -2 -6 -10 -12 -14 -10 -8 -9 -8 -7 -8 -7 -8 -8 -7 -6 -6 -5 -5 -5 -5 -5 -7 -10 -12 -10 -10 -10 -11 -13 -12 -11 -11 -11 -11 -12 -11 -11 -11 -11 -11 -11 -12 -11 -12 -13 -15 -16 -15 -14 -14 -13 -11
-2 -5 -10 -10 -10 -10 -8 -8 -8 -8 -8 -8 -8 -8 -7 -8 -8 -7 -6 -5 -5 -7 -7 -10 -11 -10 -10 -11 -12 -13 -12 -12 -12 -12 -11 -11 -11 -11 -12 -12 -12 -12 -13 -13 -13 -13 -13 -14 -14 -14 -13 -13 -12 -8
-6 -11 -11 -11 -10 -8 -6 -6 -7 -8 -8 -8 -8 -9 -10 -9 -9 -9 -8 -7 -8 -10 -11 -11 -12 -11 -11 -12 -14 -13 -11 -11 -12 -11 -11 -11 -11 -11 -12 -13 -14 -14 -15 -14 -14 -14 -14 -14 -13 -13 -12 -11 -11 -7
-12 -11 -10 -9 -8 -6 -5 -6 -7 -7 -8 -9 -9 -8 -11 -10 -10 -10 -8 -10 -11 -12 -13 -14 -13 -12 -13 -14 -14 -14 -13 -12 -11 -11 -11 -11 -11 -12 -14 -15 -15 -15 -14 -15 -15 -15 -14 -13 -13 -12 -11 -11 -11 -10
-12 -8 -10 -7 -7 -7 -7 -8 -9 -9 -8 -9 -10 -9 -12 -11 -10 -9 -9 -10 -12 -14 -15 -15 -15 -14 -14 -14 -14 -13 -13 -12 -12 -12 -12 -12 -13 -16 -17 -16 -16 -16 -15 -15 -15 -14 -13 -12 -11 -11 -11 -11 -11 -11
-7 -7 -9 -8 -8 -9 -8 -8 -9 -8 -9 -10 -11 -14 -12 -11 -8 -8 -10 -12 -15 -17 -16 -16 -15 -14 -14 -14 -13 -13 -12 -12 -12 -14 -18 -16 -16 -16 -16 -15 -16 -15 -15 -14 -13 -13 -13 -12 -11 -11 -11 -11 -10 -10
-8 -7 -7 -8 -9 -9 -9 -10 -10 -11 -11 -10 -13 -13 -12 -10 -9 -11 -13 -16 -17 -17 -16 -15 -14 -14 -13 -13 -13 -12 -13 -15 -16 -18 -18 -17 -17 -16 -15 -15 -15 -14 -14 -15 -16 -15 -15 -14 -12 -12 -11 -12 -11 -10
-7 -7 -7 -8 -9 -9 -10 -10 -11 -11 -11 -11 -11 -10 -10 -10 -10 -15 -18 -18 -17 -15 -14 -14 -13 -13 -12 -12 -13 -13 -18 -18 -19 -19 -18 -18 -17 -16 -15 -15 -14 -14 -14 -15 -16 -15 -14 -14 -13 -12 -12 -12 -12 -10
-7 -8 -8 -9 -9 -9 -10 -10 -10 -10 -10 -10 -10 -11 -11 -12 -14 -16 -16 -15 -14 -14 -13 -14 -14 -13 -13 -14 -15 -17 -18 -18 -18 -18 -17 -17 -16 -15 -14 -14 -14 -14 -14 -15 -14 -14 -14 -14 -14 -13 -12 -11 -10 -9
-7 -8 -8 -9 -9 -9 -8 -9 -10 -10 -10 -11 -11 -11 -12 -13 -14 -13 -13 -13 -13 -14 -14 -13 -14 -16 -17 -18 -18 -18 -17 -15 -15 -14 -14 -14 -14 -14 -14 -14 -14 -14 -14 -14 -14 -14 -14 -14 -14 -13 -12 -10 -10 -9
-7 -8 -9 -9 -10 -9 -8 -8 -9 -9 -10 -10 -10 -10 -10 -10 -13 -15 -16 -15 -14 -14 -14 -18 -18 -18 -18 -17 -17 -16 -15 -14 -13 -13 -13 -13 -14 -14 -14 -14 -14 -14 -13 -14 -14 -14 -14 -14 -14 -13 -12 -11 -11 -11
-8 -8 -9 -9 -9 -9 -9 -9 -9 -9 -9 -9 -10 -10 -10 -10 -10 -13 -14 -14 -16 -19 -19 -19 -18 -18 -17 -16 -14 -14 -13 -12 -12 -12 -13 -13 -13 -13 -14 -13 -13 -13 -13 -13 -14 -14 -14 -13 -13 -13 -13 -12 -12 -12
-8 -8 -8 -9 -9 -9 -9 -9 -9 -10 -10 -10 -10 -10 -10 -10 -10 -13 -16 -19 -19 -18 -18 -17 -17 -15 -14 -12 -11 -11 -11 -12 -13 -13 -13 -14 -14 -13 -13 -14 -14 -14 -13 -13 -13 -13 -13 -13 -13 -12 -13 -13 -13 -13

GFSWCAN_850_dewp_057.txt.gz
Dewpoint
-1 -2 -0 1 3 5 7 6 5 -2 -8 -8 -9 -8 -8 -9 -9 -8 -9 -7 -4 -4 -3 -3 -4 -4 -4 -4 -0 -3 -1 -0 1 3 3 2 1 -0 0 -0 0 1 2 1 0 2 2 -5 -1 0 -2 -3 -3 -3
-1 -2 -0 1 4 4 7 6 -0 -7 -8 -8 -9 -9 -8 -8 -8 -8 -8 -8 -7 -4 -3 -5 -6 -7 -5 -5 -4 -2 -0 -0 0 1 0 1 1 0 -1 1 -2 1 -1 0 -0 1 -3 -4 -4 -3 -3 -3 -3 -3
-2 -3 -0 1 3 3 6 4 -2 -7 -7 -9 -8 -8 -7 -9 -8 -8 -7 -7 -8 -4 -4 -4 -4 -6 -5 -6 -6 -3 -2 -2 -1 -0 -0 -1 1 -0 -0 -1 -0 -1 -3 -0 -2 -2 -3 -5 -4 -3 -3 -2 -2 -2
-3 -1 0 1 2 4 5 1 -4 -7 -9 -8 -8 -7 -8 -9 -9 -8 -8 -8 -5 -3 -4 -3 -4 -4 -4 -4 -6 -7 -4 -3 -3 -2 -2 -0 -0 -1 -1 -1 -1 -3 -6 -5 -6 -8 -4 -4 -3 -3 -1 -2 -2 -2
-2 0 1 2 3 4 4 -1 -4 -6 -8 -7 -7 -7 -9 -9 -8 -8 -6 -5 -6 -2 -4 -3 -3 -3 -4 -4 -4 -6 -4 -4 -4 -3 -3 -3 -4 -4 -5 -6 -6 -7 -5 -4 -4 -2 -3 -3 -2 -1 -2 -2 -2 -2
-1 -0 1 3 3 4 1 -1 -4 -6 -7 -6 -6 -8 -10 -9 -8 -6 -6 -6 -7 -9 -4 -2 -3 -2 -4 -3 -4 -5 -6 -4 -3 -4 -4 -4 -4 -2 -4 -6 -6 -5 -4 -2 -2 -1 -1 -1 -1 -2 -2 -2 -2 -1
-1 1 1 1 3 2 1 -3 -3 -7 -7 -6 -7 -8 -9 -7 -6 -6 -4 -6 -5 -5 -4 -2 -3 -4 -3 -2 -2 -2 -3 -3 -3 -3 -3 -4 -4 -3 -3 -4 -7 -4 -2 -2 -1 -1 -2 -2 -2 -3 -2 -2 -2 -2
-2 1 2 2 2 1 -0 -2 -3 -6 -6 -7 -7 -7 -7 -7 -6 -5 -6 -5 -6 -11 -10 -0 -2 -4 -3 -2 -2 -2 -3 -3 -2 -3 -3 -3 -3 -3 -1 -4 -4 -4 -3 -3 -2 -3 -3 -3 -4 -4 -3 -3 -3 -3
-0 1 3 2 1 1 -1 -1 -3 -4 -6 -7 -6 -6 -6 -6 -7 -6 -6 -6 -11 -14 -5 -2 -1 -2 -4 -2 -2 -2 -2 -2 -3 -3 -4 -3 -3 -1 -3 -5 -6 -4 -3 -3 -3 -3 -3 -4 -4 -4 -5 -3 -4 -4
0 2 2 2 1 -0 -1 -2 -3 -5 -6 -6 -6 -7 -7 -7 -7 -8 -10 -8 -11 -11 -11 -4 -3 -3 -3 -3 -3 -3 -2 -3 -1 -3 -3 -3 -2 -4 -5 -5 -5 -4 -4 -4 -4 -4 -4 -5 -4 -5 -5 -5 -4 -4
1 2 2 1 0 -0 -1 -2 -5 -5 -6 -7 -9 -5 -6 -7 -8 -9 -7 -3 -6 -3 -4 -4 -4 -4 -4 -2 -3 -3 -3 -3 -0 -1 -2 -1 -2 -5 -5 -6 -5 -5 -6 -6 -6 -5 -5 -5 -5 -5 -5 -6 -6 -5
2 2 2 0 -0 -1 -2 -4 -5 -6 -8 -10 -9 -6 -5 -7 -10 -4 -4 -4 -3 -3 -3 -4 -4 -4 -3 -2 -4 -2 -2 -2 -1 -3 -2 -1 -2 -6 -8 -11 -11 -9 -8 -10 -10 -11 -9 -7 -6 -6 -7 -8 -8 -7
2 2 1 0 0 -1 -2 -5 -6 -9 -9 -10 -13 -10 -10 -11 -4 -3 -5 -4 -3 -3 -4 -5 -4 -4 -3 -3 -3 -3 -2 -2 -2 -1 -2 -2 -7 -9 -9 -14 -14 -14 -14 -14 -14 -14 -11 -10 -10 -11 -11 -10 -9 -9
2 1 1 0 -0 -2 -4 -5 -8 -9 -12 -12 -10 -6 -1 -4 -5 -4 -3 -1 -3 -3 -4 -4 -4 -4 -4 -3 -4 -2 -4 -2 -2 -2 -2 -5 -8 -11 -13 -12 -11 -10 -12 -13 -13 -13 -10 -10 -15 -19 -19 -19 -17 -12
2 1 1 -0 -1 -2 -4 -6 -10 -12 -15 -13 -9 -4 -4 -6 -5 -5 -5 -4 -4 -4 -6 -4 -4 -4 -4 -4 -5 -4 -4 -3 -3 -3 -2 -5 -11 -11 -11 -11 -11 -11 -12 -12 -12 -11 -10 -16 -15 -9 -8 -10 -16 -18
1 0 0 -1 -1 -2 -5 -7 -11 -14 -12 -11 -8 -5 -6 -5 -4 -4 -3 -4 -7 -6 -7 -5 -4 -4 -4 -4 -4 -4 -4 -3 -3 -2 -4 -10 -9 -8 -10 -12 -13 -12 -12 -12 -11 -10 -13 -13 -7 -8 -9 -8 -10 -16
0 0 0 -1 -2 -3 -6 -7 -10 -13 -12 -9 -5 -8 -6 -7 -4 -5 -5 -6 -8 -5 -3 -4 -5 -5 -5 -4 -4 -6 -4 -4 -4 -6 -9 -10 -11 -11 -12 -12 -12 -12 -12 -11 -11 -13 -11 -10 -10 -11 -12 -14 -15 -16
1 0 -1 -1 -2 -5 -7 -11 -12 -11 -6 -6 -3 -7 -8 -9 -8 -8 -8 -8 -7 -8 -8 -4 -7 -5 -5 -5 -5 -5 -4 -7 -11 -11 -12 -12 -12 -12 -12 -11 -11 -11 -11 -12 -11 -10 -10 -11 -11 -12 -12 -14 -16 -17
0 -1 -1 -2 -5 -8 -13 -12 -11 -5 -5 -6 -6 -7 -8 -8 -8 -8 -8 -8 -8 -9 -10 -7 -5 -4 -5 -7 -5 -6 -8 -11 -10 -10 -12 -12 -12 -12 -12 -12 -12 -12 -10 -10 -11 -11 -12 -12 -13 -14 -14 -15 -15 -14
-1 -1 -1 -5 -9 -15 -12 -10 -9 -9 -4 -6 -8 -8 -7 -7 -6 -6 -7 -7 -8 -8 -6 -4 -6 -7 -9 -10 -11 -10 -11 -11 -12 -10 -10 -12 -13 -13 -12 -12 -12 -12 -13 -14 -14 -14 -13 -13 -12 -11 -12 -13 -13 -13
-0 -1 -3 -9 -13 -12 -9 -8 -8 -7 -7 -8 -8 -8 -7 -6 -5 -5 -5 -6 -6 -6 -4 -8 -10 -12 -11 -11 -10 -10 -11 -13 -13 -12 -13 -13 -12 -11 -11 -11 -11 -11 -12 -14 -14 -15 -14 -14 -13 -13 -13 -13 -13 -13
-2 -4 -10 -12 -11 -10 -8 -8 -8 -8 -8 -8 -9 -8 -6 -6 -6 -6 -6 -5 -4 -7 -9 -11 -12 -11 -10 -10 -10 -11 -12 -13 -13 -13 -12 -12 -11 -11 -11 -10 -11 -13 -15 -15 -15 -15 -15 -15 -14 -13 -12 -12 -12 -12
-4 -11 -13 -11 -10 -7 -6 -6 -7 -8 -6 -8 -8 -7 -8 -8 -9 -9 -7 -7 -8 -10 -11 -11 -11 -11 -11 -10 -11 -13 -14 -13 -12 -12 -11 -11 -11 -10 -11 -13 -14 -17 -17 -16 -15 -15 -15 -14 -14 -13 -12 -11 -11 -11
-12 -8 -8 -7 -6 -5 -6 -7 -8 -7 -8 -7 -7 -8 -8 -9 -10 -8 -7 -8 -11 -12 -13 -13 -13 -13 -13 -12 -14 -15 -14 -14 -13 -13 -13 -12 -13 -13 -13 -15 -18 -17 -16 -15 -15 -15 -15 -15 -15 -14 -12 -11 -10 -10
-7 -7 -8 -6 -6 -6 -6 -6 -7 -8 -7 -8 -8 -9 -10 -11 -8 -7 -7 -9 -11 -12 -13 -14 -15 -15 -14 -14 -14 -14 -14 -13 -13 -12 -13 -13 -14 -16 -19 -20 -19 -17 -16 -15 -15 -14 -14 -15 -16 -15 -14 -12 -11 -11
-6 -7 -7 -7 -8 -7 -7 -6 -7 -7 -8 -8 -10 -12 -11 -9 -7 -7 -7 -12 -14 -16 -17 -18 -17 -16 -15 -15 -15 -14 -13 -12 -12 -13 -15 -16 -17 -17 -18 -18 -17 -17 -15 -14 -14 -14 -14 -15 -15 -15 -14 -12 -12 -12
-6 -6 -8 -9 -9 -10 -9 -10 -10 -9 -8 -9 -11 -11 -9 -7 -7 -8 -14 -16 -17 -19 -17 -16 -15 -15 -14 -14 -13 -13 -12 -12 -12 -14 -17 -19 -19 -18 -17 -16 -16 -15 -14 -14 -14 -14 -14 -14 -14 -14 -13 -13 -12 -11
-7 -7 -7 -8 -9 -9 -8 -9 -8 -8 -9 -11 -10 -9 -8 -8 -8 -16 -18 -18 -17 -16 -16 -15 -15 -14 -13 -12 -12 -12 -14 -14 -16 -18 -18 -19 -17 -16 -15 -15 -14 -14 -14 -14 -14 -14 -14 -13 -13 -14 -14 -13 -13 -10
-7 -8 -9 -8 -9 -9 -9 -8 -9 -11 -11 -11 -8 -9 -10 -13 -15 -17 -17 -16 -16 -16 -15 -15 -14 -13 -13 -13 -15 -16 -17 -17 -17 -17 -16 -15 -14 -14 -14 -13 -13 -13 -14 -14 -14 -13 -13 -13 -14 -14 -14 -13 -12 -11
-8 -8 -8 -9 -8 -7 -9 -10 -10 -11 -11 -11 -12 -12 -13 -14 -15 -14 -14 -14 -14 -14 -14 -13 -13 -13 -14 -17 -18 -18 -17 -16 -15 -14 -13 -13 -13 -13 -13 -13 -13 -13 -13 -13 -13 -13 -14 -14 -14 -14 -14 -13 -12 -11
-8 -9 -9 -9 -9 -9 -9 -10 -10 -10 -11 -11 -11 -11 -11 -12 -15 -16 -17 -16 -15 -14 -14 -15 -17 -18 -18 -17 -17 -16 -15 -14 -12 -11 -11 -12 -12 -13 -13 -13 -13 -13 -13 -13 -13 -13 -14 -14 -13 -13 -13 -13 -13 -12
-9 -9 -9 -8 -10 -9 -9 -9 -9 -9 -9 -10 -10 -10 -11 -11 -12 -14 -15 -14 -15 -16 -18 -19 -18 -18 -17 -15 -14 -13 -12 -11 -10 -10 -11 -12 -13 -14 -13 -13 -13 -13 -13 -13 -13 -13 -13 -13 -13 -13 -13 -13 -13 -13
-8 -9 -9 -10 -10 -10 -10 -10 -10 -10 -10 -10 -11 -11 -11 -11 -11 -13 -15 -18 -19 -19 -18 -17 -17 -16 -14 -14 -12 -12 -11 -11 -10 -11 -13 -14 -14 -13 -13 -14 -14 -14 -13 -13 -13 -13 -13 -13 -13 -13 -13 -13 -13 -13

GFSWCAN_850_dewp_063.txt.gz
Dewpoint
-1 -1 -1 -2 -2 -2 -1 -0 -0 3 2 2 1 -2 -6 -7 -6 -5 -6 -3 -3 -3 -3 -3 -2 -1 -2 -1 -0 -2 -0 0 1 2 2 2 1 -0 1 1 1 1 1 2 2 4 3 -5 -3 0 -2 -2 -2 -2
-0 -1 -1 -2 -2 -2 -2 -0 0 0 2 2 -0 -3 -5 -6 -6 -4 -6 -3 -4 -3 -3 -3 -2 -2 -2 -2 -2 -1 -1 0 1 1 1 0 1 0 -0 2 -2 1 -0 1 0 0 -4 -4 -2 -2 -2 -2 -2 -2
-2 -1 -1 -2 -2 -1 -1 0 1 1 2 2 -0 -4 -7 -7 -6 -6 -4 -4 -4 -4 -4 -5 -5 -5 -4 -3 -2 -1 -1 -1 -0 -0 -0 -0 1 -0 0 0 -0 -1 -4 -0 -1 -3 -4 -2 -2 -2 -2 -2 -2 -2
-3 -1 -2 -2 -4 -2 -0 1 2 2 2 1 -0 -5 -7 -6 -6 -5 -4 -4 -5 -5 -4 -4 -4 -5 -6 -6 -3 -2 -2 -2 -1 -1 -1 -1 0 -1 -1 -1 -1 -2 -5 -4 -4 -3 -3 -2 -2 -3 -3 -4 -4 -3
-3 -1 -2 -2 -3 -1 1 2 2 2 1 0 -0 -2 -7 -6 -7 -6 -5 -6 -6 -6 -3 -3 -3 -3 -4 -6 -4 -3 -3 -3 -3 -3 -3 -2 -3 -4 -5 -6 -4 -5 -5 -4 -5 -2 -3 -2 -2 -3 -5 -5 -6 -4
-2 -2 -2 -4 -2 -1 0 0 1 1 0 -0 -1 -2 -6 -7 -6 -6 -5 -5 -5 -7 -4 -3 -3 -3 -3 -5 -4 -4 -4 -4 -3 -3 -3 -4 -4 -3 -4 -4 -6 -4 -4 -4 -2 -2 -2 -2 -5 -4 -5 -5 -7 -7
-2 -2 -4 -3 -3 -1 1 1 1 0 0 -0 -2 -4 -6 -5 -5 -7 -7 -6 -7 -10 -6 -3 -3 -3 -2 -3 -3 -5 -6 -4 -5 -3 -3 -4 -4 -3 -3 -3 -5 -4 -2 -2 -2 -4 -4 -3 -5 -5 -6 -7 -8 -8
-1 -2 -6 -2 -2 -1 1 1 1 0 -1 -2 -2 -5 -4 -5 -5 -5 -5 -7 -10 -11 -9 -7 -6 -4 -2 -3 -3 -2 -3 -3 -3 -3 -3 -4 -4 -3 -2 -4 -4 -3 -3 -4 -4 -5 -6 -7 -8 -10 -11 -11 -10 -10
-2 -5 -3 -0 2 2 1 1 0 -0 -2 -3 -4 -5 -6 -6 -6 -7 -13 -16 -18 -16 -3 -5 -5 -6 -3 -3 -3 -3 -2 -3 -4 -3 -3 -3 -3 -3 -4 -3 -4 -4 -5 -4 -7 -11 -11 -12 -12 -13 -12 -11 -9 -11
-4 -4 -3 0 2 2 1 1 -1 -1 -2 -4 -5 -5 -6 -6 -6 -9 -9 -15 -16 -13 -10 -5 -4 -6 -3 -3 -4 -3 -3 -1 -4 -3 -4 -3 -2 -3 -5 -4 -4 -6 -11 -12 -14 -14 -14 -15 -15 -15 -14 -12 -10 -13
-5 -6 -1 1 1 1 1 0 -2 -4 -3 -5 -5 -6 -6 -7 -9 -11 -9 -8 -6 -5 -5 -3 -4 -4 -2 -4 -4 -4 -3 -3 -2 -2 -2 -2 -2 -4 -5 -7 -8 -10 -11 -13 -14 -14 -14 -14 -14 -13 -13 -12 -11 -17
-8 -5 -1 0 1 1 0 -1 -4 -4 -6 -6 -7 -6 -8 -11 -11 -8 -5 -5 -5 -5 -3 -5 -3 -3 -3 -3 -4 -4 -4 -4 -2 -3 -3 -2 -2 -6 -6 -8 -10 -13 -14 -14 -14 -14 -14 -14 -13 -13 -11 -10 -15 -8
-6 -2 0 1 0 0 -0 -2 -3 -8 -5 -6 -8 -10 -8 -10 -8 -14 -7 -6 -5 -3 -4 -4 -5 -4 -4 -4 -4 -5 -5 -4 -3 -1 -3 -4 -5 -8 -11 -13 -13 -13 -14 -14 -14 -13 -13 -13 -13 -12 -11 -14 -13 -10
-3 0 1 1 0 -0 -3 -4 -6 -5 -8 -13 -13 -10 -10 -10 -6 -3 -5 -6 -3 -5 -5 -5 -3 -4 -4 -4 -5 -7 -3 -4 -5 -5 -5 -7 -7 -10 -12 -11 -11 -12 -14 -14 -13 -12 -12 -12 -12 -13 -14 -13 -11 -11
-1 1 1 1 0 -1 -3 -5 -4 -7 -12 -11 -11 -13 -6 -4 -3 -3 -3 -3 -4 -6 -8 -5 -4 -5 -6 -6 -5 -6 -6 -7 -6 -5 -6 -5 -9 -11 -10 -8 -11 -13 -14 -14 -13 -12 -12 -13 -12 -12 -11 -11 -11 -12
1 1 1 -0 -0 -1 -4 -4 -6 -12 -12 -11 -8 -6 -4 -4 -3 -4 -4 -4 -5 -7 -8 -9 -6 -7 -5 -6 -7 -7 -7 -7 -7 -7 -3 -7 -11 -11 -8 -11 -14 -13 -13 -13 -12 -12 -12 -13 -13 -14 -16 -16 -16 -15
1 0 -0 -1 -1 -4 -5 -8 -10 -12 -9 -7 -5 -6 -4 -5 -4 -5 -5 -6 -7 -9 -6 -7 -9 -8 -6 -7 -6 -7 -7 -8 -4 -4 -5 -6 -9 -10 -13 -14 -13 -14 -14 -14 -14 -14 -15 -17 -17 -17 -17 -18 -16 -16
1 -0 -0 -1 -2 -4 -5 -8 -12 -9 -5 -5 -5 -5 -5 -6 -6 -7 -8 -8 -9 -11 -7 -9 -6 -9 -9 -10 -7 -7 -7 -6 -7 -11 -12 -12 -13 -14 -14 -14 -14 -13 -13 -12 -13 -14 -16 -17 -18 -17 -16 -16 -16 -15
0 -0 -1 -1 -3 -6 -10 -11 -10 -5 -5 -5 -5 -5 -6 -6 -7 -9 -9 -9 -12 -13 -12 -9 -10 -10 -7 -8 -8 -8 -9 -9 -7 -10 -12 -12 -14 -14 -14 -13 -12 -12 -11 -11 -12 -13 -16 -16 -16 -15 -16 -15 -14 -14
-0 -1 -1 -4 -8 -12 -12 -9 -8 -8 -6 -6 -5 -5 -6 -5 -6 -7 -9 -11 -12 -13 -12 -11 -10 -12 -12 -14 -14 -14 -14 -10 -9 -11 -12 -14 -15 -15 -14 -13 -12 -12 -11 -11 -13 -13 -16 -17 -16 -16 -15 -14 -13 -14
-1 -2 -5 -7 -12 -12 -9 -8 -7 -7 -7 -6 -6 -6 -5 -5 -6 -7 -9 -10 -12 -11 -10 -13 -14 -13 -13 -13 -13 -13 -12 -11 -11 -11 -13 -15 -14 -13 -13 -13 -12 -11 -11 -13 -13 -15 -14 -15 -15 -15 -15 -14 -14 -14
-2 -3 -6 -12 -12 -10 -9 -8 -8 -8 -7 -6 -6 -7 -7 -6 -6 -7 -8 -9 -10 -14 -14 -15 -16 -13 -13 -13 -12 -11 -11 -10 -11 -13 -14 -14 -14 -14 -14 -14 -13 -13 -13 -13 -14 -15 -16 -15 -14 -14 -14 -14 -14 -14
-3 -6 -10 -10 -9 -9 -7 -6 -7 -6 -7 -8 -7 -8 -9 -8 -8 -8 -8 -9 -11 -13 -13 -14 -14 -13 -12 -12 -11 -12 -11 -12 -14 -15 -15 -14 -14 -13 -13 -13 -13 -12 -14 -18 -16 -16 -15 -13 -13 -13 -14 -14 -14 -14
-6 -8 -7 -6 -8 -6 -7 -7 -7 -6 -6 -6 -7 -8 -9 -10 -9 -9 -11 -10 -14 -14 -14 -14 -14 -12 -12 -12 -13 -14 -13 -14 -15 -15 -14 -13 -13 -13 -12 -13 -13 -15 -15 -16 -16 -15 -14 -13 -13 -13 -13 -13 -14 -13
-3 -5 -7 -7 -6 -8 -8 -9 -8 -7 -6 -7 -8 -9 -11 -10 -12 -12 -11 -12 -13 -14 -14 -14 -13 -14 -16 -18 -17 -16 -15 -15 -14 -14 -14 -13 -12 -12 -14 -17 -18 -17 -16 -15 -14 -13 -13 -13 -13 -13 -13 -13 -13 -13
-5 -6 -7 -8 -9 -9 -8 -7 -6 -6 -7 -8 -10 -11 -10 -12 -11 -13 -11 -13 -13 -14 -15 -16 -17 -19 -19 -17 -16 -15 -14 -14 -13 -13 -13 -13 -15 -16 -17 -17 -16 -15 -13 -13 -13 -13 -13 -13 -13 -13 -13 -13 -13 -13
-5 -8 -9 -8 -9 -9 -8 -8 -7 -7 -7 -8 -10 -11 -10 -11 -13 -13 -12 -15 -18 -20 -21 -21 -19 -17 -16 -15 -15 -14 -13 -13 -13 -14 -17 -18 -17 -15 -14 -13 -13 -12 -12 -12 -12 -12 -13 -13 -13 -13 -12 -13 -13 -14
-7 -8 -9 -8 -8 -8 -7 -7 -6 -6 -7 -11 -11 -10 -10 -12 -11 -14 -17 -18 -19 -20 -20 -18 -17 -16 -15 -14 -14 -13 -13 -16 -18 -18 -16 -15 -14 -12 -12 -11 -11 -11 -12 -13 -13 -13 -13 -12 -12 -12 -12 -13 -13 -13
-7 -8 -8 -7 -8 -8 -8 -7 -7 -9 -11 -12 -10 -11 -11 -13 -16 -18 -18 -19 -19 -18 -17 -16 -15 -15 -14 -14 -14 -17 -18 -17 -15 -14 -14 -14 -13 -12 -11 -11 -11 -13 -13 -13 -13 -12 -12 -12 -13 -13 -13 -13 -13 -13
-7 -7 -7 -8 -7 -8 -10 -9 -9 -10 -10 -10 -12 -13 -14 -15 -16 -17 -17 -16 -16 -15 -14 -15 -15 -16 -18 -19 -18 -17 -15 -14 -13 -12 -13 -13 -12 -11 -11 -13 -13 -14 -14 -14 -14 -14 -13 -13 -13 -13 -13 -13 -13 -13
-8 -8 -9 -10 -10 -11 -10 -10 -10 -11 -11 -11 -12 -12 -13 -13 -14 -14 -14 -16 -16 -16 -17 -18 -19 -19 -18 -17 -16 -15 -14 -13 -13 -13 -13 -11 -11 -12 -13 -14 -14 -14 -14 -14 -14 -14 -14 -14 -14 -14 -14 -13 -13 -13
-8 -8 -9 -8 -10 -10 -10 -10 -10 -10 -10 -11 -11 -12 -13 -14 -15 -15 -14 -14 -16 -19 -19 -19 -18 -17 -16 -15 -14 -13 -12 -12 -12 -13 -12 -11 -12 -14 -14 -14 -14 -14 -14 -14 -14 -14 -14 -14 -14 -14 -14 -13 -13 -13
-9 -9 -9 -9 -9 -10 -10 -10 -10 -11 -11 -11 -11 -12 -13 -14 -15 -13 -15 -17 -19 -19 -18 -17 -17 -16 -15 -14 -12 -12 -11 -11 -12 -12 -11 -12 -14 -14 -14 -14 -13 -13 -14 -14 -14 -14 -14 -14 -14 -14 -14 -13 -13 -13

GFSWCAN_850_dewp_066.txt.gz
Dewpoint
-1 -1 -1 -1 -1 -2 -2 -2 -1 0 2 2 1 2 1 -0 -1 2 -2 -2 -3 -3 -3 -2 -1 -1 -1 -1 0 -1 0 0 1 1 2 1 1 -0 1 0 0 1 1 1 1 3 3 -4 -3 0 -2 -2 -2 -2
-2 -1 -2 -0 -1 -1 -2 -3 -1 1 1 2 2 2 0 -2 -1 -1 -5 -3 -3 -2 -3 -2 -2 -2 -2 -2 -2 -1 -1 0 1 1 0 -0 1 -1 -0 2 -2 1 -1 0 -0 0 -3 -3 -3 -3 -3 -3 -3 -3
-2 -1 -1 -3 -1 -1 -2 -3 -2 1 1 2 1 1 -1 -1 -2 -3 -5 -3 -3 -3 -4 -4 -4 -4 -3 -2 -1 -1 -1 -0 -0 -0 -1 -0 1 -1 0 -0 -0 -1 -3 -1 -1 -3 -2 -2 -2 -3 -3 -3 -3 -3
-2 -1 -1 -3 -2 -2 -3 -6 -1 1 1 1 0 -1 -2 -0 -2 -3 -5 -4 -4 -4 -4 -3 -4 -4 -5 -3 -2 -2 -2 -1 -1 -1 -1 -1 -0 -1 -1 -1 -1 -1 -3 -3 -2 -2 -2 -2 -2 -3 -4 -4 -5 -5
-2 -1 -4 -2 -2 -3 -7 0 1 2 1 1 0 -1 -1 -1 -2 -4 -4 -4 -5 -6 -3 -3 -4 -4 -6 -4 -3 -3 -2 -1 -3 -3 -3 -2 -3 -4 -5 -5 -4 -5 -4 -4 -3 -3 -3 -2 -2 -3 -5 -6 -7 -8
-2 -2 -2 -2 -2 -7 -0 2 2 2 1 0 -0 -1 -1 -3 -5 -4 -4 -5 -5 -6 -5 -3 -3 -3 -5 -4 -4 -3 -3 -4 -4 -4 -4 -4 -4 -4 -5 -5 -7 -4 -4 -4 -2 -2 -2 -2 -4 -4 -7 -9 -9 -9
-1 -3 -2 -2 -3 -2 -0 2 2 1 0 -0 -1 -2 -2 -5 -4 -5 -7 -6 -6 -7 -6 -3 -3 -3 -3 -5 -5 -6 -5 -5 -6 -3 -4 -4 -5 -3 -3 -3 -5 -4 -3 -2 -3 -4 -3 -4 -5 -8 -11 -11 -10 -10
-2 -2 -2 -2 -5 -2 0 1 1 1 0 -0 -1 -2 -2 -3 -4 -4 -5 -6 -8 -12 -10 -6 -3 -3 -3 -3 -3 -3 -4 -4 -3 -3 -3 -4 -4 -3 -3 -4 -3 -2 -2 -4 -6 -9 -10 -9 -10 -12 -13 -13 -12 -11
-3 -2 -2 -4 -4 -3 -0 1 1 0 -0 -1 -2 -2 -2 -5 -5 -4 -5 -7 -14 -14 -6 -7 -5 -4 -3 -3 -3 -3 -3 -3 -3 -3 -3 -3 -3 -3 -5 -4 -3 -3 -4 -5 -8 -11 -12 -13 -14 -15 -15 -14 -12 -11
-3 -2 -3 -6 -2 -1 0 1 0 -0 -1 -3 -4 -5 -6 -6 -7 -10 -14 -15 -14 -13 -6 -5 -4 -4 -3 -3 -3 -4 -3 -3 -6 -3 -4 -3 -3 -3 -4 -4 -4 -4 -9 -12 -13 -13 -13 -15 -15 -15 -15 -13 -11 -10
-2 -3 -4 -2 -0 1 1 1 0 -1 -3 -4 -4 -5 -6 -10 -9 -9 -10 -9 -7 -6 -4 -4 -4 -3 -3 -5 -3 -4 -2 -3 -3 -4 -3 -4 -2 -4 -4 -4 -6 -11 -12 -13 -14 -14 -14 -14 -14 -14 -15 -14 -14 -12
-2 -3 -2 2 2 1 1 1 -2 -3 -4 -5 -5 -6 -7 -9 -10 -8 -7 -6 -6 -5 -4 -4 -4 -3 -3 -4 -4 -4 -5 -3 -4 -3 -3 -3 -4 -5 -6 -8 -9 -11 -13 -13 -13 -14 -15 -14 -13 -13 -13 -13 -12 -13
-2 -5 -1 1 1 1 1 -1 -4 -5 -5 -5 -6 -7 -9 -10 -10 -13 -10 -5 -3 -4 -4 -4 -5 -5 -5 -5 -4 -5 -5 -5 -3 -3 -5 -5 -5 -5 -6 -10 -13 -13 -13 -14 -15 -15 -14 -13 -13 -12 -13 -13 -13 -12
-4 -4 -1 0 1 0 -0 -5 -5 -4 -5 -10 -12 -8 -8 -9 -8 -6 -5 -6 -5 -5 -5 -5 -4 -4 -4 -5 -5 -6 -3 -4 -5 -6 -5 -7 -5 -6 -9 -13 -12 -11 -12 -14 -14 -13 -12 -12 -13 -13 -12 -11 -12 -14
-4 -7 -1 0 0 0 -2 -4 -4 -4 -10 -11 -14 -13 -8 -6 -4 -3 -3 -4 -5 -6 -9 -5 -5 -5 -6 -5 -5 -4 -3 -6 -6 -6 -7 -5 -5 -7 -11 -12 -9 -9 -13 -14 -13 -13 -13 -13 -15 -17 -18 -18 -17 -17
-3 -6 0 0 0 -1 -4 -4 -4 -9 -12 -11 -8 -6 -4 -4 -4 -4 -4 -4 -6 -9 -10 -11 -7 -7 -5 -6 -7 -8 -8 -8 -8 -8 -4 -5 -7 -10 -12 -10 -9 -13 -14 -14 -14 -14 -15 -15 -18 -19 -19 -18 -17 -17
-2 1 0 -0 -0 -3 -3 -4 -8 -11 -9 -7 -4 -6 -5 -5 -5 -5 -5 -7 -9 -12 -8 -9 -12 -10 -7 -8 -6 -7 -8 -8 -9 -5 -5 -7 -9 -11 -11 -10 -14 -14 -14 -15 -13 -13 -13 -14 -17 -18 -18 -20 -18 -18
-0 0 -0 -1 -1 -3 -3 -6 -11 -8 -5 -5 -5 -5 -5 -5 -5 -6 -8 -8 -9 -12 -11 -11 -7 -10 -10 -11 -9 -8 -7 -8 -5 -5 -5 -7 -10 -12 -13 -15 -14 -14 -14 -12 -11 -11 -12 -13 -15 -18 -17 -17 -17 -17
0 0 -0 -1 -3 -5 -9 -11 -10 -5 -5 -5 -5 -5 -6 -6 -6 -6 -7 -9 -12 -13 -13 -12 -12 -10 -8 -10 -12 -12 -11 -10 -8 -9 -11 -12 -12 -13 -14 -14 -15 -14 -12 -11 -11 -11 -12 -12 -14 -16 -15 -15 -15 -15
0 -0 -1 -2 -5 -11 -11 -8 -8 -7 -7 -6 -6 -6 -6 -6 -6 -6 -9 -12 -12 -12 -13 -12 -12 -14 -15 -16 -15 -15 -14 -13 -9 -8 -11 -12 -14 -16 -15 -14 -14 -13 -12 -12 -12 -12 -12 -13 -15 -14 -14 -14 -13 -14
-0 -1 -2 -4 -9 -12 -9 -8 -7 -7 -6 -6 -6 -6 -6 -7 -7 -8 -9 -10 -12 -14 -13 -15 -15 -15 -15 -15 -15 -14 -14 -13 -11 -11 -11 -14 -15 -15 -15 -13 -12 -13 -13 -13 -13 -13 -13 -14 -14 -13 -13 -13 -12 -13
-2 -2 -4 -8 -11 -10 -8 -8 -8 -7 -6 -6 -6 -7 -7 -7 -7 -9 -9 -9 -12 -14 -15 -15 -15 -16 -15 -14 -14 -13 -12 -11 -10 -11 -14 -15 -16 -15 -14 -13 -13 -12 -13 -13 -13 -14 -16 -15 -13 -12 -11 -12 -12 -13
-2 -4 -9 -10 -10 -9 -6 -7 -7 -8 -7 -7 -7 -8 -10 -8 -8 -9 -9 -10 -13 -13 -14 -16 -16 -15 -13 -13 -12 -12 -12 -11 -12 -14 -15 -15 -14 -13 -13 -13 -12 -12 -14 -16 -15 -15 -14 -13 -12 -11 -12 -13 -13 -13
-5 -8 -6 -6 -9 -7 -7 -7 -7 -6 -6 -7 -8 -8 -9 -9 -9 -10 -12 -13 -14 -14 -14 -15 -14 -13 -12 -12 -12 -15 -16 -14 -14 -15 -14 -14 -14 -13 -13 -14 -16 -16 -15 -15 -14 -14 -13 -13 -13 -13 -13 -13 -13 -13
-2 -4 -7 -7 -7 -8 -8 -10 -9 -8 -7 -7 -8 -9 -10 -10 -10 -12 -12 -14 -14 -15 -15 -15 -15 -13 -13 -19 -19 -18 -17 -16 -15 -15 -14 -13 -13 -14 -18 -19 -18 -15 -14 -13 -12 -12 -12 -12 -12 -13 -13 -13 -12 -13
-4 -6 -8 -10 -9 -9 -9 -7 -8 -7 -7 -8 -10 -11 -10 -9 -10 -12 -11 -15 -15 -16 -17 -16 -14 -16 -19 -18 -17 -16 -15 -14 -14 -14 -14 -16 -18 -17 -16 -15 -14 -13 -11 -11 -11 -11 -12 -13 -13 -13 -13 -13 -13 -13
-5 -9 -9 -8 -8 -8 -8 -8 -8 -7 -6 -6 -9 -10 -8 -9 -11 -13 -13 -15 -15 -16 -18 -18 -18 -19 -19 -17 -16 -15 -14 -14 -14 -16 -18 -17 -15 -14 -13 -12 -12 -11 -11 -11 -12 -13 -13 -13 -13 -12 -13 -13 -13 -13
-7 -9 -9 -8 -8 -8 -7 -7 -7 -6 -7 -10 -10 -9 -8 -10 -11 -13 -14 -17 -20 -21 -21 -20 -18 -17 -16 -16 -15 -14 -14 -17 -18 -17 -16 -14 -13 -13 -12 -11 -11 -11 -13 -13 -13 -14 -13 -13 -13 -13 -14 -13 -13 -13
-7 -8 -8 -8 -8 -9 -8 -7 -7 -8 -9 -11 -9 -10 -12 -13 -15 -16 -17 -18 -19 -19 -18 -18 -17 -16 -15 -14 -15 -18 -18 -18 -17 -15 -15 -15 -14 -13 -11 -11 -12 -13 -14 -14 -14 -14 -13 -13 -14 -13 -13 -14 -14 -13
-7 -7 -8 -9 -8 -8 -10 -9 -9 -9 -10 -12 -13 -13 -14 -15 -15 -18 -18 -19 -18 -18 -17 -16 -15 -15 -17 -19 -19 -18 -17 -15 -14 -13 -13 -13 -13 -11 -11 -13 -14 -14 -14 -14 -14 -14 -14 -14 -14 -14 -14 -14 -14 -13
-8 -8 -9 -10 -11 -11 -9 -8 -8 -10 -12 -12 -13 -13 -13 -15 -15 -16 -16 -16 -16 -15 -16 -16 -18 -20 -19 -18 -17 -16 -15 -14 -13 -12 -13 -13 -11 -11 -13 -14 -14 -14 -14 -14 -14 -14 -14 -14 -14 -14 -14 -14 -14 -13
-8 -7 -8 -9 -10 -10 -9 -9 -9 -10 -11 -11 -12 -13 -14 -13 -13 -14 -15 -15 -16 -17 -19 -20 -20 -19 -18 -17 -16 -15 -14 -12 -12 -11 -12 -12 -12 -14 -14 -14 -13 -13 -14 -14 -14 -14 -14 -14 -14 -14 -14 -14 -14 -14
-8 -8 -8 -8 -9 -9 -8 -10 -11 -11 -11 -11 -12 -13 -14 -16 -15 -15 -15 -15 -18 -19 -19 -19 -19 -18 -17 -16 -15 -14 -12 -11 -11 -11 -12 -12 -13 -14 -14 -13 -13 -13 -14 -14 -14 -14 -14 -14 -14 -13 -13 -13 -13 -13

GFSWCAN_850_dewp_069.txt.gz
Dewpoint
-2 -2 -2 -2 -1 -1 -1 -1 -2 -2 1 3 2 1 1 1 2 2 0 -2 -2 -2 -2 -2 -1 -1 -1 -1 0 -0 0 0 1 1 1 1 0 0 0 -0 -0 1 1 1 1 2 1 -4 -3 -0 -2 -2 -2 -2
-2 -2 -2 -2 -1 -2 -1 -1 -2 -2 2 2 2 2 1 1 1 2 1 -2 -2 -1 -3 -2 -2 -2 -1 -2 -1 -1 -1 0 0 0 0 -0 1 -1 -0 2 -2 1 -1 0 -0 -0 -3 -3 -3 -3 -3 -3 -2 -3
-2 -2 -2 -1 -1 -4 -1 -1 -4 -2 1 2 2 2 1 1 1 1 -1 -3 -2 -3 -3 -3 -4 -3 -2 -1 -1 -1 -0 -0 -0 -1 -1 -1 0 -1 0 -0 -1 -1 -3 -1 -1 -2 -2 -2 -2 -3 -3 -3 -3 -4
-2 -2 -2 -1 -2 -2 -1 -1 -7 -1 1 2 1 1 1 0 -1 -3 -5 -3 -3 -3 -3 -3 -4 -4 -3 -2 -2 -2 -1 -1 -0 -1 -1 -1 -0 -2 -1 -2 -1 -2 -3 -3 -2 -2 -2 -2 -2 -3 -4 -5 -6 -8
-2 -2 -2 -2 -3 -2 -2 -4 -6 -1 1 2 1 1 -1 -0 -1 -3 -4 -4 -4 -5 -3 -4 -4 -4 -4 -3 -2 -2 -1 -1 -2 -3 -3 -2 -3 -4 -6 -5 -3 -4 -3 -2 -2 -4 -3 -3 -3 -3 -6 -8 -9 -11
-2 -2 -2 -3 -2 -2 -1 2 1 0 1 2 1 -1 -0 -0 -1 -3 -4 -4 -5 -4 -4 -3 -3 -4 -4 -4 -3 -3 -2 -3 -4 -4 -4 -4 -3 -4 -5 -5 -7 -5 -4 -5 -4 -3 -3 -3 -2 -3 -7 -9 -10 -11
-2 -3 -2 -2 -2 -4 0 1 1 2 2 1 1 -0 -2 -2 -3 -4 -5 -5 -5 -6 -6 -3 -4 -3 -4 -5 -5 -5 -5 -5 -5 -4 -4 -5 -5 -3 -4 -4 -6 -3 -3 -3 -2 -3 -3 -3 -5 -5 -9 -11 -11 -11
-2 -3 -2 -2 -3 -1 0 1 2 1 1 0 -0 -1 -3 -3 -3 -4 -5 -5 -6 -9 -7 -5 -3 -3 -4 -4 -4 -5 -5 -5 -4 -4 -4 -4 -4 -4 -3 -5 -4 -2 -2 -4 -5 -7 -9 -6 -8 -11 -12 -13 -13 -13
-2 -3 -3 -2 -4 -2 0 1 1 1 -0 -1 -1 -3 -2 -3 -4 -4 -4 -6 -8 -13 -7 -6 -4 -3 -3 -3 -3 -3 -3 -4 -3 -3 -3 -3 -3 -3 -6 -5 -3 -2 -4 -5 -8 -11 -12 -12 -13 -14 -15 -15 -15 -16
-3 -3 -2 -2 -4 -4 -0 1 1 1 -0 -2 -3 -4 -4 -5 -5 -4 -7 -12 -14 -12 -6 -5 -4 -3 -3 -3 -3 -4 -3 -4 -7 -3 -4 -3 -3 -4 -4 -4 -4 -3 -4 -7 -11 -11 -13 -14 -14 -15 -15 -15 -14 -14
-3 -3 -2 -2 -4 -4 -0 1 1 0 -3 -3 -4 -4 -5 -5 -7 -8 -9 -10 -8 -6 -5 -4 -4 -3 -4 -5 -4 -4 -6 -5 -6 -5 -4 -5 -3 -4 -4 -4 -4 -4 -9 -11 -13 -14 -14 -14 -15 -15 -15 -14 -13 -13
-2 -3 -2 -3 -3 -4 -0 0 0 -3 -4 -4 -4 -5 -8 -9 -9 -10 -9 -6 -7 -5 -4 -4 -3 -3 -4 -4 -4 -4 -5 -6 -5 -3 -3 -4 -5 -4 -4 -4 -5 -9 -10 -12 -14 -14 -14 -15 -14 -14 -13 -12 -13 -13
-2 -4 -3 -3 -3 -2 -0 0 -1 -5 -4 -5 -6 -8 -8 -9 -13 -13 -11 -8 -6 -4 -4 -3 -5 -4 -4 -5 -4 -5 -4 -5 -4 -3 -5 -5 -5 -5 -5 -7 -8 -9 -12 -13 -13 -14 -15 -15 -14 -12 -12 -12 -12 -13
-3 -3 -3 -3 -1 -0 0 1 -3 -4 -4 -6 -9 -9 -10 -12 -9 -9 -7 -4 -5 -5 -4 -5 -4 -4 -5 -5 -5 -7 -3 -5 -4 -5 -5 -8 -6 -5 -5 -7 -10 -13 -12 -11 -12 -15 -14 -13 -13 -13 -15 -17 -17 -17
-3 -3 -0 0 2 1 1 -1 -3 -4 -7 -9 -12 -9 -9 -8 -4 -4 -4 -4 -5 -5 -7 -5 -5 -6 -6 -5 -5 -4 -4 -7 -7 -7 -7 -6 -5 -5 -6 -8 -12 -12 -10 -10 -14 -15 -14 -14 -15 -17 -18 -19 -18 -17
-3 -2 -0 1 1 1 -0 -3 -3 -4 -11 -10 -9 -6 -4 -4 -4 -4 -4 -5 -6 -8 -10 -11 -7 -7 -5 -6 -7 -8 -8 -9 -9 -9 -7 -5 -5 -5 -6 -10 -12 -10 -10 -14 -15 -15 -15 -14 -14 -14 -16 -17 -17 -17
-2 -1 -0 0 0 -0 -1 -3 -3 -8 -9 -7 -5 -5 -5 -5 -5 -5 -6 -7 -8 -12 -8 -9 -11 -9 -7 -8 -7 -8 -8 -9 -11 -9 -5 -5 -6 -7 -10 -11 -10 -10 -14 -14 -15 -14 -12 -12 -11 -12 -13 -15 -16 -17
-2 -3 -0 0 -1 -1 -3 -2 -6 -8 -5 -5 -5 -5 -5 -5 -5 -6 -8 -8 -9 -13 -12 -10 -7 -9 -10 -11 -9 -8 -8 -9 -8 -6 -6 -7 -8 -10 -10 -11 -13 -14 -14 -15 -13 -12 -11 -11 -11 -12 -12 -13 -16 -16
-3 -3 -0 -0 -1 -3 -1 -3 -9 -5 -5 -4 -5 -5 -5 -5 -6 -7 -7 -9 -11 -12 -13 -14 -11 -10 -9 -11 -13 -13 -11 -11 -9 -7 -6 -7 -11 -12 -12 -14 -14 -14 -14 -13 -12 -12 -12 -12 -12 -12 -12 -12 -13 -13
-1 -2 -0 -1 -3 -4 -5 -8 -8 -6 -6 -5 -6 -5 -6 -6 -6 -6 -9 -11 -12 -13 -14 -12 -12 -15 -16 -16 -16 -16 -15 -13 -11 -10 -10 -11 -11 -14 -16 -15 -14 -13 -13 -13 -13 -13 -12 -13 -13 -12 -12 -12 -12 -12
-0 -0 -1 -2 -5 -9 -9 -7 -6 -6 -6 -6 -6 -6 -6 -6 -7 -9 -10 -11 -12 -14 -13 -16 -16 -16 -16 -16 -16 -15 -15 -14 -13 -11 -12 -12 -15 -16 -15 -14 -14 -13 -13 -12 -12 -13 -14 -14 -14 -14 -13 -12 -11 -11
-1 -2 -2 -3 -5 -9 -8 -8 -7 -6 -6 -6 -7 -7 -8 -8 -9 -10 -10 -10 -12 -15 -14 -16 -16 -16 -16 -16 -15 -14 -13 -12 -12 -12 -12 -15 -16 -15 -14 -13 -12 -12 -13 -15 -16 -16 -16 -14 -13 -13 -12 -12 -12 -12
-2 -2 -3 -6 -9 -8 -7 -7 -6 -6 -6 -7 -8 -10 -10 -8 -8 -10 -11 -11 -13 -15 -15 -15 -15 -15 -15 -15 -14 -13 -12 -11 -12 -13 -15 -16 -15 -14 -14 -12 -13 -15 -17 -17 -15 -14 -13 -12 -12 -12 -12 -12 -13 -13
-2 -3 -4 -7 -8 -7 -7 -7 -7 -7 -7 -8 -11 -10 -10 -9 -9 -10 -12 -14 -14 -15 -16 -17 -15 -15 -14 -14 -13 -13 -16 -16 -14 -15 -15 -15 -14 -13 -13 -15 -17 -17 -15 -14 -13 -12 -11 -11 -11 -12 -13 -13 -13 -13
-2 -3 -5 -7 -7 -9 -9 -9 -10 -9 -8 -10 -10 -9 -10 -10 -11 -11 -12 -16 -15 -16 -15 -15 -15 -14 -14 -15 -19 -21 -19 -17 -16 -15 -14 -13 -13 -15 -18 -18 -16 -14 -13 -12 -11 -11 -11 -13 -13 -13 -13 -13 -13 -13
-4 -6 -8 -9 -9 -10 -9 -8 -9 -8 -8 -8 -9 -10 -10 -9 -10 -12 -10 -17 -18 -18 -18 -18 -17 -15 -17 -21 -20 -18 -17 -16 -15 -14 -14 -15 -18 -17 -16 -15 -15 -13 -11 -11 -11 -13 -13 -14 -14 -14 -14 -14 -14 -14
-5 -7 -8 -8 -8 -8 -8 -8 -8 -6 -5 -6 -9 -9 -9 -10 -12 -12 -15 -15 -16 -18 -18 -16 -15 -20 -21 -19 -17 -16 -16 -15 -15 -16 -18 -18 -16 -14 -14 -14 -12 -11 -11 -13 -13 -14 -14 -14 -14 -14 -14 -14 -14 -14
-7 -9 -8 -8 -8 -8 -7 -7 -6 -7 -7 -8 -7 -5 -4 -5 -6 -13 -15 -15 -15 -16 -16 -16 -20 -19 -18 -17 -16 -16 -15 -16 -18 -18 -16 -14 -14 -14 -13 -12 -11 -12 -13 -14 -14 -14 -14 -14 -14 -14 -14 -14 -14 -14
-8 -8 -8 -8 -8 -8 -8 -7 -7 -7 -10 -9 -8 -9 -10 -13 -13 -15 -16 -17 -19 -19 -21 -21 -19 -17 -16 -16 -15 -15 -19 -19 -17 -16 -15 -15 -14 -13 -13 -11 -11 -14 -14 -14 -14 -14 -14 -14 -14 -14 -14 -14 -14 -13
-7 -7 -9 -9 -8 -8 -10 -9 -9 -8 -10 -12 -12 -13 -14 -15 -15 -16 -18 -20 -20 -20 -19 -18 -17 -16 -15 -16 -19 -20 -19 -18 -16 -15 -14 -13 -13 -13 -12 -12 -14 -14 -14 -14 -14 -14 -14 -14 -14 -14 -14 -14 -14 -14
-8 -8 -10 -10 -10 -10 -9 -8 -8 -9 -11 -12 -13 -15 -14 -15 -16 -16 -18 -18 -18 -17 -17 -16 -15 -16 -19 -20 -20 -19 -17 -16 -15 -13 -12 -12 -13 -12 -12 -14 -14 -13 -14 -14 -14 -14 -14 -14 -14 -14 -14 -14 -14 -14
-8 -8 -9 -9 -10 -9 -8 -7 -8 -9 -11 -12 -13 -14 -14 -14 -15 -16 -17 -17 -17 -16 -15 -15 -18 -21 -20 -21 -19 -18 -17 -15 -13 -12 -12 -12 -12 -12 -14 -14 -13 -13 -14 -14 -14 -14 -14 -13 -13 -13 -14 -14 -13 -13
-7 -8 -8 -9 -9 -9 -8 -7 -8 -10 -11 -12 -12 -13 -14 -15 -14 -14 -16 -16 -15 -16 -17 -20 -20 -21 -20 -19 -18 -17 -15 -13 -13 -12 -13 -12 -12 -13 -14 -13 -13 -14 -14 -14 -14 -13 -13 -13 -13 -13 -13 -13 -13 -13

GFSWCAN_850_dewp_072.txt.gz
Dewpoint
-3 -2 -2 -2 -1 -1 -0 -2 -1 -2 -5 2 2 2 1 2 2 1 -1 -2 -2 -1 -2 -2 -1 -1 -1 -1 0 -0 0 0 0 1 1 1 0 -0 0 -1 -0 1 0 1 0 1 0 -4 -2 -1 -3 -2 -2 -2
-2 -2 -2 -2 -1 -1 -1 -3 -2 -5 1 2 2 1 2 2 2 1 -1 -2 -1 -1 -3 -2 -2 -2 -1 -1 -0 -0 -1 -0 0 0 -0 -1 0 -1 -1 1 -2 0 -2 -0 -1 -1 -3 -3 -2 -3 -2 -2 -2 -3
-3 -2 -2 -2 -2 -1 -3 -2 -2 -8 1 2 2 2 2 2 2 1 0 -2 -1 -2 -3 -3 -3 -2 -2 -1 -1 -1 -0 -0 -0 -1 -1 -1 0 -2 0 -0 -1 -2 -2 -1 -2 -2 -3 -2 -2 -3 -3 -3 -3 -3
-3 -2 -2 -3 -2 -2 -3 -2 -3 -10 1 2 1 1 1 1 1 1 0 -2 -2 -2 -2 -3 -3 -3 -2 -2 -1 -1 -1 -1 -1 -1 -2 -1 -1 -2 -2 -2 -2 -2 -3 -3 -2 -3 -2 -2 -2 -3 -3 -5 -6 -8
-3 -2 -2 -3 -3 -3 -2 -4 -9 -6 1 2 2 1 1 1 0 -0 -1 -4 -4 -4 -3 -4 -4 -3 -3 -2 -2 -1 -1 -1 -2 -3 -3 -2 -3 -4 -6 -4 -3 -4 -3 -2 -1 -4 -3 -4 -3 -3 -4 -6 -9 -10
-3 -2 -2 -3 -3 -2 -4 0 1 -7 1 2 1 1 1 -1 -3 -2 -5 -4 -5 -3 -3 -2 -4 -4 -3 -3 -2 -2 -2 -2 -4 -4 -4 -4 -3 -4 -4 -3 -7 -5 -4 -5 -5 -4 -3 -3 -3 -3 -4 -8 -9 -11
-3 -2 -3 -3 -2 -2 0 1 1 -2 1 1 1 -0 0 -1 -3 -5 -5 -4 -5 -6 -5 -4 -4 -4 -4 -4 -4 -4 -5 -5 -5 -4 -5 -5 -4 -4 -5 -5 -8 -4 -4 -4 -4 -3 -2 -2 -3 -3 -6 -10 -13 -13
-2 -2 -3 -3 -2 -0 0 2 -0 1 1 1 0 -0 -1 -2 -4 -4 -5 -4 -5 -7 -6 -5 -3 -4 -5 -5 -5 -6 -6 -6 -5 -4 -4 -5 -5 -4 -3 -5 -5 -3 -3 -3 -2 -3 -6 -7 -6 -6 -9 -13 -14 -15
-2 -2 -3 -3 -3 -0 0 1 2 1 1 0 -1 -3 -3 -4 -4 -4 -4 -5 -8 -12 -5 -5 -4 -4 -4 -3 -4 -4 -4 -4 -4 -4 -3 -4 -4 -4 -7 -7 -5 -3 -3 -4 -6 -8 -10 -9 -10 -13 -14 -15 -15 -16
-2 -2 -3 -3 -3 -0 1 1 1 0 0 -1 -3 -5 -4 -4 -4 -4 -6 -8 -13 -13 -7 -7 -4 -3 -4 -3 -3 -4 -4 -4 -6 -3 -4 -3 -3 -5 -5 -5 -5 -4 -4 -5 -7 -9 -11 -13 -14 -14 -15 -15 -16 -15
-2 -2 -3 -3 -3 -1 1 1 0 -1 -2 -4 -5 -5 -4 -5 -4 -8 -10 -10 -9 -6 -5 -4 -4 -3 -4 -5 -4 -4 -7 -6 -5 -6 -4 -5 -3 -4 -4 -4 -4 -3 -3 -6 -10 -14 -14 -14 -14 -14 -15 -16 -15 -13
-2 -2 -3 -2 -3 -2 0 0 0 -3 -4 -5 -5 -5 -4 -6 -8 -11 -11 -7 -7 -7 -5 -4 -4 -4 -4 -4 -4 -4 -5 -7 -5 -5 -4 -4 -6 -5 -4 -4 -4 -4 -5 -10 -13 -14 -14 -14 -14 -15 -15 -14 -12 -12
-1 -2 -3 -2 -3 -3 0 0 1 -4 -5 -6 -7 -9 -8 -8 -12 -13 -14 -10 -7 -5 -4 -3 -4 -4 -5 -5 -4 -6 -6 -6 -5 -3 -5 -6 -6 -5 -4 -4 -4 -7 -10 -10 -13 -13 -13 -14 -15 -14 -13 -12 -13 -15
-1 -2 -3 -2 -3 -4 -0 0 0 -3 -5 -5 -7 -8 -8 -10 -9 -9 -9 -7 -6 -5 -4 -5 -4 -5 -5 -5 -5 -7 -4 -5 -5 -4 -6 -8 -7 -5 -5 -5 -7 -9 -10 -13 -12 -11 -13 -15 -15 -14 -14 -13 -14 -16
-1 -2 -3 -3 -2 -3 -1 -0 -0 -3 -4 -7 -10 -8 -8 -9 -5 -5 -5 -4 -4 -4 -5 -5 -6 -6 -6 -5 -5 -4 -4 -5 -7 -8 -8 -8 -7 -6 -5 -5 -6 -9 -12 -12 -10 -11 -14 -15 -15 -14 -13 -12 -12 -13
-1 -1 -2 -3 -2 -3 -1 -0 -1 -2 -8 -10 -9 -9 -5 -5 -5 -4 -4 -5 -5 -6 -8 -10 -7 -7 -5 -5 -6 -8 -9 -9 -9 -9 -9 -6 -6 -6 -5 -5 -7 -10 -11 -10 -11 -14 -15 -14 -12 -11 -11 -11 -11 -11
-1 -1 -3 -3 -3 -2 -1 -1 -1 -2 -8 -7 -6 -6 -6 -5 -5 -4 -5 -5 -6 -8 -9 -9 -12 -10 -7 -8 -8 -8 -8 -8 -13 -10 -6 -5 -6 -5 -6 -7 -10 -11 -10 -13 -14 -15 -13 -12 -11 -11 -11 -12 -12 -12
-1 -3 -3 -1 1 0 -1 -1 -2 -6 -6 -5 -6 -5 -5 -5 -5 -6 -6 -6 -8 -11 -12 -11 -8 -9 -9 -11 -9 -8 -9 -11 -9 -7 -6 -7 -7 -8 -10 -10 -11 -13 -15 -15 -14 -13 -12 -12 -12 -13 -12 -12 -13 -13
-1 -3 0 1 0 -1 -2 -1 -4 -6 -5 -5 -5 -5 -5 -5 -6 -6 -7 -8 -10 -11 -12 -14 -12 -10 -10 -11 -12 -11 -11 -12 -10 -7 -7 -7 -8 -11 -12 -13 -15 -15 -15 -14 -13 -13 -13 -13 -13 -13 -14 -14 -13 -13
-1 -2 -0 0 -0 -2 -1 -3 -4 -6 -6 -5 -5 -5 -6 -6 -5 -6 -8 -10 -11 -11 -15 -14 -13 -15 -16 -17 -17 -17 -16 -14 -14 -9 -8 -9 -11 -12 -16 -16 -16 -15 -14 -13 -13 -14 -16 -18 -16 -15 -14 -13 -12 -12
-2 -1 -1 -0 -1 -2 -3 -5 -6 -6 -6 -6 -6 -6 -6 -6 -7 -9 -10 -11 -11 -15 -13 -16 -16 -16 -16 -17 -17 -16 -16 -15 -14 -13 -12 -11 -14 -16 -16 -15 -14 -14 -13 -14 -17 -18 -16 -14 -14 -13 -12 -11 -11 -12
-1 -1 -2 -2 -2 -3 -6 -7 -6 -6 -6 -6 -7 -7 -8 -9 -9 -11 -12 -11 -13 -16 -16 -16 -15 -16 -17 -17 -17 -15 -15 -14 -13 -13 -13 -15 -16 -15 -15 -14 -14 -13 -16 -18 -17 -15 -14 -12 -11 -11 -11 -12 -13 -13
-2 -2 -2 -3 -5 -6 -6 -6 -6 -6 -6 -7 -8 -9 -10 -9 -9 -11 -12 -13 -14 -16 -15 -15 -16 -17 -17 -17 -16 -14 -13 -13 -14 -14 -15 -16 -16 -15 -14 -13 -14 -17 -18 -16 -14 -12 -11 -11 -11 -12 -13 -13 -14 -14
-2 -2 -3 -5 -6 -6 -6 -6 -7 -7 -7 -8 -9 -10 -11 -9 -10 -11 -11 -13 -15 -16 -15 -15 -16 -16 -15 -15 -14 -13 -14 -16 -17 -16 -16 -16 -15 -14 -14 -17 -17 -16 -15 -14 -12 -11 -11 -13 -13 -14 -14 -14 -14 -14
-2 -3 -4 -7 -7 -7 -7 -7 -8 -7 -7 -9 -10 -10 -11 -10 -12 -12 -11 -16 -16 -16 -16 -14 -14 -15 -16 -16 -15 -17 -20 -18 -16 -16 -15 -15 -14 -15 -18 -17 -16 -15 -13 -12 -11 -12 -14 -14 -14 -14 -14 -14 -14 -13
-4 -6 -5 -6 -8 -8 -7 -7 -8 -8 -7 -8 -9 -10 -10 -10 -12 -13 -11 -19 -19 -19 -18 -18 -17 -16 -16 -16 -22 -22 -19 -17 -16 -15 -14 -15 -18 -18 -17 -16 -15 -14 -12 -12 -13 -14 -15 -14 -14 -14 -14 -14 -14 -14
-5 -7 -8 -9 -10 -9 -8 -8 -8 -6 -6 -8 -10 -10 -9 -11 -12 -10 -17 -20 -21 -22 -20 -19 -18 -18 -18 -22 -21 -18 -17 -16 -15 -15 -18 -19 -18 -15 -15 -15 -14 -13 -12 -13 -14 -14 -14 -14 -14 -14 -14 -14 -14 -14
-7 -8 -9 -8 -9 -8 -7 -6 -5 -4 -5 -9 -9 -8 -6 -6 -6 -15 -15 -18 -20 -21 -18 -14 -13 -16 -20 -19 -18 -17 -16 -15 -17 -19 -19 -17 -15 -15 -14 -14 -12 -12 -13 -14 -14 -14 -14 -14 -14 -14 -14 -14 -14 -14
-8 -8 -8 -7 -8 -8 -8 -6 -6 -8 -9 -8 -6 -6 -8 -13 -12 -14 -15 -16 -18 -17 -17 -15 -18 -19 -18 -17 -16 -15 -16 -20 -20 -19 -17 -16 -14 -13 -13 -12 -12 -13 -14 -13 -14 -14 -14 -14 -14 -14 -14 -14 -14 -14
-7 -7 -8 -8 -7 -8 -10 -9 -8 -9 -8 -10 -11 -10 -12 -13 -13 -15 -15 -15 -15 -16 -17 -20 -20 -19 -18 -16 -16 -18 -21 -20 -19 -17 -16 -14 -13 -13 -13 -12 -13 -14 -13 -14 -14 -15 -15 -15 -14 -14 -15 -14 -14 -14
-8 -9 -9 -10 -10 -10 -9 -8 -8 -8 -10 -13 -13 -13 -13 -14 -14 -16 -16 -15 -15 -19 -20 -18 -17 -16 -16 -17 -21 -22 -21 -18 -17 -16 -14 -13 -13 -13 -12 -13 -14 -13 -13 -14 -14 -14 -14 -14 -14 -14 -14 -14 -14 -13
-8 -9 -9 -9 -10 -9 -8 -8 -8 -8 -9 -11 -12 -14 -15 -14 -14 -15 -16 -16 -17 -18 -18 -17 -17 -17 -19 -21 -22 -21 -19 -17 -16 -15 -14 -13 -13 -12 -13 -14 -13 -13 -14 -14 -14 -14 -14 -14 -14 -14 -13 -13 -13 -13
-8 -9 -9 -9 -9 -9 -8 -7 -7 -8 -8 -9 -13 -13 -14 -15 -15 -15 -16 -16 -17 -18 -17 -16 -17 -20 -22 -22 -20 -19 -17 -16 -15 -14 -13 -13 -12 -13 -14 -13 -13 -13 -14 -14 -14 -14 -13 -13 -13 -13 -13 -13 -13 -13

GFSWCAN_850_dewp_075.txt.gz
Dewpoint
-28 -9 -3 -3 -2 -2 -2 -1 -4 -3 -2 2 3 2 2 2 1 -2 -2 -2 -1 -1 -2 -2 -1 -1 -1 -0 0 0 -0 0 -0 1 1 1 0 -1 -0 -1 0 1 0 1 0 1 -1 -4 -2 -2 -3 -3 -2 -2
-21 -9 -2 -2 -2 -2 -2 -4 -3 -4 -0 2 3 2 2 2 1 -1 -2 -1 -1 -1 -2 -2 -2 -2 -1 -1 0 -1 -1 -0 -0 -0 -1 -1 -0 -2 -2 -0 -2 0 -2 -1 -1 -1 -4 -4 -2 -2 -3 -3 -2 -3
-16 -7 -3 -2 -2 -3 -3 -4 -3 -7 2 2 2 2 2 2 1 -1 -2 -2 -1 -2 -3 -3 -3 -2 -1 -1 -1 -1 -0 -0 -1 -1 -2 -2 0 -2 -0 -1 -1 -2 -3 -1 -2 -3 -3 -3 -3 -3 -3 -3 -3 -4
-15 -4 -2 -2 -2 -4 -3 -3 -5 -8 1 2 2 2 2 2 1 -1 -1 -3 -2 -1 -2 -3 -3 -3 -2 -1 -1 -1 -1 -1 -1 -2 -2 -2 -1 -2 -2 -3 -2 -2 -3 -3 -2 -4 -3 -3 -3 -3 -3 -3 -4 -5
-15 -4 -2 -2 -3 -3 -3 -4 -9 -10 1 1 0 1 1 1 1 0 -1 -4 -5 -4 -3 -3 -3 -3 -2 -2 -1 -1 -1 -1 -2 -2 -3 -2 -3 -3 -5 -4 -3 -3 -3 -1 -1 -3 -3 -4 -4 -3 -3 -4 -5 -7
-14 -4 -2 -2 -3 -3 -4 -4 -3 -11 1 2 1 1 1 0 1 -0 -2 -4 -4 -3 -2 -1 -3 -3 -3 -2 -2 -1 -1 -2 -3 -4 -4 -4 -3 -4 -3 -3 -5 -3 -3 -4 -5 -4 -4 -3 -3 -3 -3 -4 -7 -8
-13 -4 -3 -3 -3 -3 1 1 -0 -5 1 1 1 1 0 -2 -2 -2 -6 -5 -5 -5 -4 -4 -5 -4 -4 -3 -3 -4 -4 -4 -5 -5 -5 -5 -3 -3 -5 -5 -9 -7 -5 -4 -4 -4 -3 -3 -3 -3 -3 -5 -9 -12
-11 -4 -3 -3 -4 -1 1 -0 0 -4 -0 1 1 1 -1 -3 -4 -5 -6 -5 -5 -6 -6 -5 -4 -4 -4 -5 -5 -5 -6 -5 -5 -5 -5 -5 -5 -4 -3 -5 -6 -5 -4 -3 -4 -3 -4 -6 -4 -5 -5 -7 -13 -15
-8 -4 -3 -4 -3 -0 1 1 1 0 1 1 -0 0 -0 -2 -4 -5 -5 -5 -8 -10 -6 -6 -4 -5 -5 -4 -4 -5 -5 -5 -4 -4 -4 -4 -5 -5 -7 -8 -6 -4 -4 -4 -3 -3 -7 -9 -7 -10 -13 -15 -15 -15
-6 -3 -2 -4 -3 -1 1 1 2 1 0 -0 -2 -3 -4 -4 -5 -5 -5 -6 -7 -11 -8 -6 -4 -5 -4 -4 -4 -4 -4 -4 -6 -4 -4 -3 -3 -5 -6 -7 -8 -6 -4 -5 -5 -7 -10 -12 -14 -14 -14 -14 -14 -14
-5 -2 -2 -4 -3 -1 1 1 0 1 0 -3 -4 -5 -4 -4 -5 -7 -9 -10 -11 -9 -7 -4 -4 -3 -4 -5 -4 -4 -7 -7 -6 -6 -4 -5 -3 -5 -5 -4 -5 -5 -3 -4 -6 -11 -15 -14 -14 -14 -13 -14 -14 -13
-4 -2 -2 -3 -3 -2 1 1 0 -0 -2 -4 -4 -4 -4 -5 -8 -11 -11 -8 -6 -9 -5 -4 -4 -4 -4 -4 -4 -4 -6 -7 -6 -6 -4 -5 -6 -6 -5 -4 -4 -4 -3 -4 -8 -13 -14 -14 -13 -13 -14 -14 -13 -13
-4 -3 -2 -3 -3 -2 1 1 -0 -1 -4 -4 -6 -5 -8 -9 -11 -11 -12 -10 -7 -5 -4 -3 -4 -4 -5 -5 -5 -6 -6 -6 -5 -5 -6 -7 -8 -5 -4 -4 -4 -4 -4 -7 -11 -13 -14 -12 -12 -14 -15 -14 -14 -14
-4 -3 -2 -3 -2 -3 0 0 -1 -4 -4 -4 -7 -9 -7 -9 -8 -8 -9 -8 -9 -6 -4 -4 -4 -5 -5 -5 -5 -7 -5 -5 -5 -6 -7 -9 -9 -7 -5 -4 -4 -5 -8 -10 -12 -13 -10 -10 -14 -15 -15 -13 -12 -11
-4 -2 -2 -3 -2 -3 -1 0 0 -3 -3 -5 -8 -7 -7 -8 -8 -7 -8 -6 -6 -6 -4 -6 -6 -6 -5 -5 -5 -4 -4 -5 -8 -9 -8 -9 -8 -6 -5 -5 -6 -7 -8 -11 -12 -11 -10 -14 -15 -15 -13 -12 -11 -11
-4 -2 -2 -2 -2 -3 -3 0 -1 -1 -2 -8 -8 -10 -8 -7 -7 -6 -5 -5 -5 -4 -7 -9 -6 -7 -6 -6 -6 -7 -9 -10 -10 -9 -10 -7 -7 -6 -5 -5 -6 -6 -9 -11 -10 -11 -14 -15 -13 -12 -12 -12 -12 -12
-3 -1 -2 -2 -2 -3 -2 -0 -1 -1 -2 -6 -7 -8 -8 -6 -8 -7 -6 -6 -5 -7 -8 -9 -11 -11 -8 -10 -9 -9 -9 -9 -13 -10 -7 -6 -6 -6 -5 -5 -6 -10 -11 -11 -14 -15 -15 -13 -12 -12 -13 -14 -15 -15
-2 -1 -2 -2 -2 -1 -1 -1 -1 -1 -3 -5 -7 -6 -6 -6 -5 -5 -6 -6 -5 -9 -13 -11 -9 -9 -9 -11 -9 -9 -10 -10 -10 -6 -7 -7 -7 -7 -8 -10 -11 -12 -15 -15 -15 -14 -13 -13 -14 -16 -17 -16 -15 -14
-2 -1 -1 -2 -1 -1 -2 -1 -2 -3 -4 -6 -6 -5 -5 -6 -6 -6 -7 -6 -7 -11 -12 -10 -13 -11 -10 -11 -12 -11 -12 -11 -8 -7 -8 -8 -9 -10 -12 -12 -16 -16 -16 -15 -14 -13 -14 -17 -17 -16 -14 -13 -12 -11
-1 -1 -0 -1 -2 -1 -1 -2 -3 -6 -6 -6 -5 -5 -6 -5 -5 -6 -5 -6 -8 -11 -13 -12 -13 -15 -17 -18 -17 -18 -17 -14 -13 -9 -8 -8 -10 -11 -14 -17 -16 -16 -14 -14 -14 -17 -18 -17 -15 -13 -12 -11 -11 -12
-1 -1 -1 -1 -1 -1 -1 -3 -3 -6 -6 -6 -5 -6 -6 -6 -6 -6 -7 -8 -11 -12 -11 -18 -17 -18 -18 -18 -18 -17 -16 -16 -15 -15 -12 -10 -12 -15 -17 -16 -15 -14 -14 -16 -19 -18 -16 -14 -12 -11 -12 -13 -13 -13
-1 -1 -1 -2 -2 -3 -4 -4 -6 -6 -6 -6 -6 -7 -7 -8 -8 -9 -9 -11 -10 -16 -18 -17 -17 -17 -17 -17 -17 -16 -16 -15 -14 -15 -15 -15 -17 -16 -16 -15 -14 -14 -17 -18 -17 -15 -13 -12 -12 -13 -14 -14 -14 -14
-2 -2 -2 -2 -4 -5 -6 -5 -6 -6 -6 -7 -8 -8 -8 -9 -9 -10 -11 -14 -14 -18 -17 -17 -16 -16 -16 -17 -16 -15 -14 -14 -15 -16 -16 -17 -16 -16 -15 -14 -15 -18 -18 -16 -14 -12 -12 -12 -13 -14 -14 -14 -14 -14
-2 -2 -2 -4 -5 -6 -6 -6 -6 -7 -7 -7 -7 -7 -9 -9 -10 -11 -9 -12 -15 -18 -16 -16 -16 -15 -15 -16 -15 -15 -15 -14 -16 -17 -17 -17 -16 -15 -14 -15 -18 -18 -16 -14 -12 -12 -13 -14 -14 -14 -14 -14 -14 -14
-2 -4 -4 -6 -6 -7 -7 -7 -7 -6 -6 -7 -7 -8 -9 -10 -10 -11 -9 -13 -15 -16 -15 -15 -15 -16 -17 -16 -14 -14 -17 -18 -19 -19 -17 -16 -15 -15 -17 -18 -17 -16 -15 -13 -12 -13 -15 -14 -14 -14 -14 -14 -14 -14
-3 -6 -4 -6 -7 -8 -9 -8 -8 -7 -7 -8 -8 -10 -10 -9 -11 -10 -10 -18 -18 -18 -17 -17 -17 -16 -16 -17 -16 -18 -20 -19 -18 -18 -16 -15 -17 -19 -19 -17 -16 -15 -14 -12 -13 -14 -14 -15 -15 -15 -15 -14 -14 -14
-5 -6 -6 -5 -8 -9 -8 -9 -8 -7 -7 -7 -8 -9 -8 -8 -9 -11 -17 -19 -19 -20 -19 -18 -19 -19 -18 -16 -17 -20 -18 -18 -17 -17 -17 -20 -21 -19 -17 -17 -16 -15 -13 -13 -14 -14 -15 -15 -15 -15 -15 -14 -14 -14
-5 -7 -9 -8 -8 -8 -9 -7 -5 -3 -5 -8 -9 -8 -6 -8 -7 -15 -16 -19 -18 -20 -19 -16 -16 -16 -17 -18 -20 -19 -18 -17 -16 -19 -22 -21 -18 -17 -16 -15 -15 -13 -13 -14 -14 -14 -15 -15 -15 -15 -15 -14 -14 -14
-8 -8 -9 -11 -9 -8 -9 -5 -5 -6 -6 -11 -5 -4 -5 -10 -12 -14 -15 -16 -18 -18 -17 -15 -14 -14 -18 -19 -18 -18 -17 -18 -21 -24 -21 -19 -18 -16 -15 -15 -13 -13 -14 -13 -14 -14 -15 -14 -14 -14 -14 -14 -14 -14
-8 -7 -9 -10 -10 -9 -9 -8 -8 -8 -9 -8 -8 -9 -12 -12 -13 -13 -14 -15 -17 -16 -15 -16 -16 -18 -20 -19 -18 -16 -17 -20 -23 -21 -21 -20 -18 -16 -15 -13 -13 -14 -13 -14 -14 -14 -14 -14 -14 -14 -14 -14 -15 -15
-8 -9 -10 -10 -12 -10 -9 -8 -8 -8 -8 -8 -5 -7 -11 -12 -10 -11 -13 -14 -14 -14 -13 -14 -18 -19 -19 -18 -18 -19 -21 -23 -22 -21 -20 -19 -16 -15 -13 -12 -14 -13 -13 -14 -14 -14 -14 -14 -14 -14 -14 -14 -14 -14
-8 -9 -11 -10 -10 -9 -8 -7 -7 -8 -9 -10 -13 -13 -14 -13 -14 -14 -14 -13 -12 -12 -15 -19 -20 -18 -17 -17 -20 -23 -25 -24 -21 -20 -18 -16 -15 -13 -12 -14 -13 -13 -14 -14 -14 -14 -14 -13 -13 -13 -13 -13 -13 -13
-9 -9 -9 -9 -9 -9 -7 -7 -7 -8 -7 -8 -10 -11 -14 -14 -13 -14 -13 -12 -13 -17 -19 -18 -17 -16 -18 -21 -23 -24 -22 -20 -19 -18 -16 -15 -13 -13 -14 -13 -13 -13 -14 -14 -13 -13 -13 -13 -13 -13 -13 -13 -13 -13

GFSWCAN_850_dewp_078.txt.gz
Dewpoint
-2 -23 -10 -4 -3 -1 -4 -3 -4 -4 2 2 2 1 1 1 -2 -1 -1 -1 -1 -1 -2 -2 -1 -1 -0 -0 1 1 1 0 0 1 1 1 0 -0 -0 -1 0 1 1 1 1 2 -1 -3 -2 -1 -3 -3 -2 -2
-1 -21 -6 -4 -2 -2 -4 -4 -5 -3 1 3 1 2 1 -1 -2 -2 -1 -0 -1 -1 -2 -2 -2 -1 -1 -1 -0 -1 -0 0 -0 0 -0 -1 -0 -1 -1 -1 -2 0 -1 -1 -1 -2 -4 -3 -2 -2 -3 -2 -2 -2
-2 -19 -5 -3 -1 -3 -4 -5 -6 -1 2 2 2 1 1 0 -1 -2 -1 -1 -1 -2 -2 -2 -2 -2 -1 -1 -1 -0 -0 -0 -1 -1 -1 -1 0 -2 -0 -0 -1 -2 -3 -1 -1 -3 -3 -3 -3 -3 -3 -3 -3 -3
-3 -18 -6 -3 -2 -4 -4 -5 -8 -0 1 2 2 1 1 1 -0 -2 -3 -2 -1 -1 -1 -2 -2 -2 -2 -1 -1 -1 -1 -1 -1 -2 -1 -0 -1 -2 -1 -2 -1 -2 -2 -1 -1 -3 -3 -3 -3 -3 -3 -3 -3 -3
-6 -18 -5 -3 -3 -4 -4 -8 -11 -2 1 1 1 2 1 0 1 -0 -3 -4 -4 -3 -2 -3 -3 -2 -2 -1 -1 -1 -1 -1 -2 -1 -0 -1 -2 -2 -4 -3 -1 -3 -2 -1 -3 -3 -3 -3 -4 -3 -3 -3 -3 -5
-8 -18 -5 -3 -5 -4 -4 -7 -9 -9 1 1 0 0 1 1 1 -1 -2 -4 -4 -2 -2 -1 -3 -3 -3 -2 -1 -1 -1 -2 -3 -2 -2 -3 -3 -3 -1 -2 -4 -3 -3 -3 -4 -4 -4 -4 -4 -3 -3 -3 -4 -6
-10 -17 -5 -3 -5 -4 -0 -0 -1 -12 -0 2 -0 0 -0 -0 0 -2 -5 -5 -5 -5 -3 -1 -2 -4 -4 -3 -3 -3 -3 -4 -4 -4 -4 -4 -3 -2 -3 -2 -7 -7 -4 -4 -4 -4 -4 -4 -3 -3 -3 -3 -5 -8
-14 -17 -5 -4 -6 -1 0 -2 -3 -6 -1 1 0 0 -1 -2 -2 -3 -6 -5 -5 -6 -6 -1 -2 -4 -4 -4 -3 -5 -5 -5 -5 -4 -5 -5 -4 -4 -2 -5 -6 -7 -6 -5 -4 -4 -5 -5 -5 -4 -4 -4 -9 -13
-16 -17 -4 -4 -5 -0 1 -1 -3 -3 1 1 0 -0 -2 -2 -4 -5 -6 -5 -7 -9 -7 -3 0 0 -4 -4 -5 -5 -5 -3 -4 -4 -4 -4 -5 -3 -5 -7 -7 -6 -5 -4 -4 -3 -4 -7 -8 -8 -11 -13 -14 -14
-18 -15 -4 -3 -5 -0 0 1 1 1 0 0 -0 -2 -3 -3 -4 -5 -6 -6 -6 -9 -9 -3 -5 -2 -4 -4 -3 -3 -4 -4 -1 -4 -3 -3 -3 -5 -7 -8 -9 -8 -5 -5 -4 -6 -7 -10 -13 -14 -14 -13 -13 -14
-19 -17 -5 -3 -4 -1 0 1 1 -0 -1 -2 -4 -4 -4 -4 -5 -6 -7 -7 -9 -8 -8 -5 -4 -3 -4 -2 -3 -4 -3 -4 -1 -3 -2 -2 -3 -5 -5 -5 -6 -7 -4 -5 -5 -8 -14 -14 -14 -14 -13 -13 -14 -15
-20 -14 -5 -3 -4 -1 1 1 1 1 -1 -4 -5 -4 -4 -4 -6 -7 -6 -9 -6 -6 -6 -4 -4 -4 -5 -5 -4 -4 -3 -4 -2 -4 -2 -2 -3 -6 -5 -4 -5 -5 -4 -4 -5 -10 -13 -14 -13 -12 -12 -14 -15 -16
-20 -12 -6 -2 -4 -3 0 1 0 1 -3 -5 -5 -4 -5 -7 -7 -6 -6 -6 -5 -6 -5 -4 -3 -5 -5 -5 -4 -5 -3 -3 -5 -3 -3 -4 -7 -7 -5 -4 -4 -4 -3 -4 -7 -11 -13 -13 -11 -12 -15 -16 -14 -13
-19 -13 -5 -2 -3 -3 -0 1 0 -1 -4 -5 -5 -7 -5 -5 -5 -5 -5 -4 -10 -7 -5 -4 -4 -4 -5 -4 -5 -3 -5 -5 -3 -4 -4 -4 -9 -7 -5 -4 -4 -4 -4 -7 -10 -12 -13 -10 -11 -15 -15 -13 -12 -12
-19 -12 -4 -2 -3 -3 1 0 -0 -1 -4 -4 -6 -5 -5 -7 -8 -8 -10 -7 -7 -7 -4 -6 -6 -6 -4 -4 -5 -4 -4 -3 -5 -4 -4 -11 -9 -7 -5 -4 -5 -6 -7 -8 -11 -12 -10 -11 -15 -16 -14 -13 -12 -13
-19 -9 -3 -2 -3 -2 -0 0 -0 -2 -3 -4 -7 -7 -9 -7 -7 -6 -8 -6 -6 -5 -7 -8 -5 -5 -4 -4 -3 -3 -5 -5 -3 -5 -11 -9 -9 -7 -6 -5 -6 -6 -7 -10 -11 -11 -13 -15 -15 -14 -13 -13 -16 -17
-18 -7 -7 -2 -2 -2 -1 -0 -1 -1 -1 -2 -6 -9 -9 -9 -8 -8 -7 -8 -6 -6 -4 -7 -7 -6 -6 -5 -5 -6 -4 -4 -10 -11 -9 -9 -9 -7 -6 -6 -6 -6 -10 -11 -12 -15 -16 -14 -13 -13 -17 -18 -16 -15
-17 -13 -7 -2 -2 -1 -1 -1 -1 -1 -3 -3 -5 -7 -7 -9 -9 -7 -7 -6 -5 -6 -11 -8 -10 -5 -5 -6 -6 -6 -10 -13 -11 -10 -8 -8 -7 -6 -6 -6 -8 -11 -13 -16 -16 -15 -14 -14 -17 -18 -17 -15 -14 -13
-17 -16 -4 -2 -1 -1 -1 -2 -1 -3 -3 -4 -4 -6 -6 -7 -7 -9 -7 -6 -5 -6 -12 -10 -8 -6 -7 -9 -8 -12 -13 -12 -8 -7 -8 -7 -7 -8 -10 -12 -13 -16 -17 -16 -15 -14 -16 -19 -17 -15 -13 -13 -13 -13
-16 -11 -3 -1 -1 -1 -2 -2 -3 -3 -6 -5 -6 -6 -6 -7 -7 -7 -7 -6 -5 -9 -10 -8 -10 -13 -17 -19 -19 -17 -17 -14 -11 -9 -8 -9 -10 -11 -12 -15 -17 -17 -15 -15 -15 -18 -19 -17 -14 -13 -12 -13 -14 -14
-4 -5 -2 -1 -1 -1 -2 -3 -3 -3 -5 -6 -6 -6 -6 -6 -6 -6 -5 -5 -6 -10 -7 -15 -18 -19 -19 -19 -17 -18 -17 -16 -15 -15 -13 -9 -11 -12 -15 -17 -16 -15 -15 -15 -19 -18 -16 -14 -13 -13 -14 -15 -14 -14
-2 -2 -1 -1 -1 -2 -2 -3 -4 -4 -6 -6 -6 -7 -6 -7 -7 -7 -6 -6 -8 -8 -12 -17 -19 -18 -18 -18 -18 -17 -17 -14 -14 -15 -13 -12 -13 -16 -17 -16 -15 -14 -16 -19 -18 -16 -14 -13 -14 -14 -15 -14 -14 -14
-2 -2 -1 -1 -2 -4 -5 -4 -5 -6 -6 -6 -7 -8 -8 -8 -8 -8 -8 -8 -7 -10 -12 -16 -18 -17 -17 -17 -16 -16 -15 -15 -17 -18 -16 -17 -18 -18 -16 -15 -14 -16 -19 -18 -16 -14 -13 -13 -15 -14 -15 -15 -14 -14
-2 -1 -1 -2 -4 -5 -7 -7 -6 -6 -7 -7 -7 -7 -8 -8 -9 -9 -6 -11 -12 -11 -14 -17 -16 -15 -15 -15 -16 -16 -15 -15 -18 -18 -19 -20 -19 -16 -15 -15 -17 -20 -18 -16 -15 -13 -13 -15 -14 -15 -15 -15 -15 -14
-2 -3 -3 -5 -6 -6 -6 -6 -6 -6 -7 -7 -7 -8 -9 -9 -6 -6 -7 -10 -14 -15 -15 -16 -15 -16 -17 -17 -15 -14 -15 -16 -19 -21 -19 -17 -17 -16 -15 -18 -20 -19 -17 -15 -14 -13 -14 -14 -15 -15 -15 -15 -15 -14
-2 -4 -5 -6 -6 -5 -6 -6 -6 -7 -8 -8 -8 -9 -9 -7 -6 -6 -8 -12 -16 -16 -17 -18 -16 -15 -17 -17 -17 -16 -16 -17 -18 -20 -19 -18 -16 -16 -21 -21 -19 -18 -16 -15 -13 -14 -14 -15 -15 -15 -15 -15 -15 -14
-5 -6 -5 -5 -6 -6 -7 -8 -9 -9 -9 -9 -9 -9 -7 -6 -6 -8 -13 -15 -16 -16 -16 -18 -18 -17 -16 -17 -17 -16 -17 -19 -19 -19 -18 -16 -18 -21 -20 -19 -18 -17 -16 -14 -14 -14 -15 -15 -15 -15 -15 -15 -15 -14
-5 -6 -6 -7 -9 -9 -9 -9 -8 -8 -7 -8 -8 -7 -5 -5 -6 -14 -18 -17 -16 -14 -16 -18 -16 -15 -16 -17 -16 -16 -18 -18 -17 -16 -16 -19 -22 -21 -19 -17 -17 -16 -14 -14 -14 -14 -15 -15 -15 -15 -15 -15 -14 -14
-7 -7 -7 -10 -10 -9 -8 -7 -7 -6 -8 -9 -5 -6 -7 -9 -9 -14 -16 -16 -14 -14 -15 -14 -14 -16 -16 -16 -15 -18 -19 -19 -19 -17 -20 -24 -22 -21 -18 -16 -16 -14 -14 -14 -14 -15 -15 -15 -15 -15 -14 -14 -14 -14
-8 -8 -10 -11 -9 -7 -8 -7 -6 -5 -9 -9 -7 -8 -9 -9 -9 -8 -9 -14 -13 -12 -14 -13 -15 -15 -16 -15 -16 -18 -18 -18 -17 -21 -27 -26 -24 -20 -17 -17 -14 -13 -14 -14 -14 -15 -14 -14 -14 -14 -14 -14 -14 -14
-8 -8 -11 -11 -12 -10 -9 -8 -8 -8 -8 -8 -8 -8 -9 -8 -8 -8 -9 -13 -13 -12 -11 -11 -13 -14 -15 -16 -19 -18 -16 -17 -20 -25 -25 -23 -20 -18 -17 -15 -13 -14 -14 -14 -14 -14 -14 -14 -13 -13 -13 -13 -13 -13
-8 -10 -11 -12 -12 -10 -8 -7 -7 -8 -9 -10 -9 -9 -10 -10 -10 -8 -9 -13 -13 -11 -11 -11 -13 -14 -16 -19 -19 -19 -20 -22 -26 -25 -23 -20 -18 -17 -15 -14 -14 -14 -14 -14 -14 -14 -13 -13 -13 -13 -13 -13 -13 -13
-9 -9 -10 -10 -10 -10 -8 -7 -8 -8 -8 -9 -10 -10 -10 -11 -9 -12 -10 -11 -12 -12 -12 -12 -14 -17 -18 -18 -17 -19 -23 -24 -23 -22 -20 -17 -16 -15 -14 -14 -14 -14 -14 -14 -14 -13 -13 -13 -13 -13 -13 -13 -13 -13

GFSWCAN_850_dewp_084.txt.gz
Dewpoint
1 2 1 -3 -15 -4 -5 -10 0 0 1 1 1 -1 -2 -1 -1 -2 -0 1 0 -0 -1 -1 -1 0 0 1 1 1 1 1 1 0 0 -0 -0 -1 -1 -2 -1 0 1 1 0 1 1 -3 -2 -1 -2 -3 -2 -2
1 2 1 -2 -16 -4 -6 -9 0 1 -1 1 -1 -2 -2 -1 -1 -1 -1 -0 -0 -0 -1 -1 -1 -1 -1 -0 0 -0 0 0 1 1 -0 -1 -1 -2 -2 -1 -2 -0 -1 0 -1 0 -3 -3 -2 -2 -3 -2 -2 -2
1 2 2 -1 -16 -5 -6 -9 -1 1 -1 -1 -1 -1 -2 -2 -1 -1 -1 -1 -1 -1 -1 -1 -1 -1 -1 -0 -1 1 0 -0 0 -1 0 -0 1 -2 -1 -2 -2 -2 -3 -1 -2 -3 -3 -4 -3 -3 -3 -2 -2 -2
1 2 2 -1 -17 -5 -6 -12 -3 0 1 -1 -1 -1 -1 -1 -2 -3 -2 -2 -1 -0 0 -1 -2 -1 -1 -1 -1 -1 -1 -1 -1 -1 0 -0 -0 -2 -1 -2 -2 -2 -2 -2 -2 -3 -3 -3 -3 -3 -3 -3 -3 -2
2 2 2 -0 -16 -5 -7 -9 -7 1 1 -0 -1 -1 -1 -0 -1 -3 -3 -3 -3 1 0 -1 -2 -2 -2 -1 -1 -1 -1 -1 0 1 1 1 -2 -1 -2 -2 -1 -2 -2 -1 -2 -3 -3 -3 -3 -3 -2 -2 -2 -2
1 2 2 -0 -16 -6 -9 -8 -13 0 1 0 -1 -1 -1 -1 -1 -2 -1 -4 -2 -2 1 1 -1 -2 -2 -2 -1 -1 -1 -2 -1 -0 -0 -1 -2 -2 0 -1 -4 -4 -4 -3 -3 -4 -3 -3 -4 -4 -3 -2 -3 -3
2 2 2 -1 -15 -7 -10 -9 -13 -5 0 -0 -1 -1 -2 -1 -1 -1 -4 -5 -5 -4 -0 1 1 -2 -3 -2 -2 -2 -2 -2 -2 -1 -1 -2 -2 -2 -0 0 -4 -4 -3 -3 -3 -4 -3 -4 -3 -4 -4 -3 -3 -4
2 1 2 -2 -16 -7 -9 -2 -1 -8 -3 1 -0 -1 -1 -1 -1 -1 -4 -7 -5 -6 -5 -0 1 -2 -3 -2 -2 -3 -3 -3 -2 -2 -3 -3 -3 -3 -1 -2 -6 -7 -5 -4 -4 -3 -3 -4 -4 -4 -4 -4 -5 -9
3 2 2 -3 -16 -7 -3 -2 -3 -3 -8 1 1 0 -1 -1 -1 -2 -3 -5 -5 -6 -3 -0 0 1 -3 -2 -2 -3 -3 -1 -2 -2 -3 -3 -2 -2 -3 -4 -4 -5 -6 -6 -4 -4 -4 -5 -5 -6 -6 -9 -14 -13
2 2 2 -4 -13 -3 -1 -2 -1 -3 -3 1 1 -1 -1 -2 -2 -2 -4 -6 -6 -6 -8 -1 -1 -1 -2 -2 -2 -1 -3 -1 -2 -2 -3 -2 -2 -4 -4 -5 -5 -6 -6 -5 -4 -4 -4 -5 -7 -9 -12 -13 -14 -13
2 2 2 -3 -13 -1 -0 -2 -1 1 1 0 -1 -3 -5 -3 -3 -5 -6 -4 -3 -3 -4 -3 -1 -3 -2 -1 -0 -2 -1 -2 -2 -2 -2 -1 -1 -3 -5 -4 -8 -8 -7 -6 -5 -6 -6 -6 -9 -11 -13 -13 -12 -13
2 2 2 -1 -12 -1 1 1 1 1 0 -1 -4 -5 -4 -4 -5 -5 -3 -3 -4 -2 -4 -3 -4 -3 -4 -3 -2 -3 -1 -3 -2 -3 -2 -1 -2 -4 -5 -5 -6 -7 -7 -5 -5 -6 -9 -11 -13 -14 -13 -12 -13 -15
3 3 2 -1 -13 -2 1 1 1 0 -1 -4 -5 -5 -4 -4 -3 -4 -5 -3 -3 -4 -4 -4 -3 -4 -5 -4 -3 -3 -2 -2 -4 -4 -2 -2 -3 -4 -6 -6 -5 -5 -6 -5 -6 -7 -9 -11 -13 -13 -12 -12 -15 -16
3 3 2 -0 -12 -4 -0 0 0 -0 -4 -5 -6 -6 -4 -4 -3 -2 -2 -1 -4 -4 -4 -2 -3 -3 -4 -3 -3 -3 -3 -5 -5 -4 -3 -3 -5 -7 -6 -5 -6 -5 -5 -5 -5 -6 -8 -11 -13 -12 -12 -16 -16 -15
3 3 2 -3 -12 -5 -0 -0 1 0 -2 -5 -5 -4 -3 -4 -4 -4 -6 -9 -10 -6 -2 -3 -4 -4 -3 -3 -4 -4 -5 -5 -4 -3 -3 -3 -6 -8 -6 -6 -5 -5 -5 -4 -4 -6 -9 -12 -12 -12 -16 -16 -15 -17
3 2 2 -3 -9 -4 -1 1 0 0 -1 -4 -4 -4 -4 -4 -3 -6 -8 -6 -7 -3 -4 -5 -4 -4 -4 -4 -4 -5 -4 -4 -3 -3 -6 -8 -7 -8 -7 -7 -6 -5 -4 -4 -5 -8 -10 -11 -12 -17 -16 -16 -19 -20
3 2 2 -4 -4 -3 -1 0 -0 -0 -0 -2 -3 -4 -4 -5 -3 -6 -7 -7 -8 -4 -3 -3 -5 -6 -6 -5 -4 -4 -4 -3 -3 -10 -10 -10 -9 -8 -8 -7 -6 -5 -5 -7 -8 -9 -11 -14 -17 -16 -17 -20 -20 -16
2 2 2 -2 -2 -1 -1 -0 -0 -0 -2 -2 -2 -3 -4 -6 -7 -7 -8 -8 -6 -5 -4 -5 -6 -7 -5 -5 -5 -4 -7 -10 -11 -13 -12 -11 -10 -9 -8 -7 -6 -7 -7 -7 -9 -11 -16 -18 -16 -17 -21 -19 -17 -17
2 2 2 -1 -2 -1 -1 -1 -1 -1 -1 -2 -2 -2 -3 -5 -6 -6 -8 -9 -7 -5 -7 -9 -6 -6 -5 -5 -5 -9 -15 -15 -13 -13 -11 -10 -10 -9 -8 -7 -7 -7 -7 -10 -13 -18 -18 -16 -18 -20 -18 -16 -17 -16
2 2 1 -1 -2 -1 -1 -1 -1 -1 -2 -3 -3 -3 -3 -5 -5 -6 -7 -7 -7 -5 -7 -6 -6 -7 -10 -15 -16 -18 -16 -17 -16 -12 -10 -9 -10 -8 -7 -7 -7 -8 -11 -15 -18 -17 -16 -18 -20 -18 -15 -16 -16 -15
-1 -1 -0 -2 -1 -1 -2 -2 -2 -2 -2 -3 -4 -3 -4 -4 -5 -5 -5 -5 -5 -5 -5 -7 -10 -13 -14 -14 -15 -15 -15 -14 -15 -16 -13 -11 -10 -8 -7 -7 -9 -12 -15 -18 -18 -17 -17 -20 -19 -15 -16 -16 -15 -16
-2 -2 -2 -1 -1 -1 -1 -2 -3 -3 -4 -4 -4 -4 -4 -5 -5 -5 -4 -5 -5 -6 -7 -7 -8 -9 -10 -11 -11 -11 -12 -12 -14 -14 -11 -11 -11 -9 -8 -10 -12 -15 -18 -18 -17 -17 -20 -20 -17 -15 -16 -16 -16 -16
-2 -2 -2 -2 -1 -2 -2 -2 -3 -4 -5 -5 -5 -5 -5 -4 -5 -5 -5 -5 -5 -6 -6 -6 -7 -7 -8 -8 -9 -9 -10 -11 -14 -14 -12 -12 -13 -12 -12 -13 -13 -17 -18 -18 -17 -19 -20 -18 -16 -16 -16 -15 -16 -16
-2 -2 -1 -1 -1 -3 -4 -4 -3 -4 -5 -6 -5 -6 -5 -5 -6 -6 -5 -5 -7 -7 -7 -8 -7 -6 -7 -7 -8 -8 -10 -11 -12 -14 -12 -12 -13 -12 -13 -14 -15 -18 -17 -16 -18 -21 -19 -17 -16 -16 -15 -16 -16 -16
-3 -3 -2 -3 -3 -6 -6 -6 -6 -5 -6 -6 -6 -6 -7 -7 -7 -6 -7 -7 -9 -9 -9 -9 -9 -8 -8 -8 -9 -9 -9 -10 -12 -15 -13 -13 -13 -13 -14 -15 -17 -17 -16 -17 -21 -20 -18 -16 -16 -15 -16 -16 -16 -16
-2 -3 -3 -3 -6 -7 -7 -7 -5 -6 -7 -7 -7 -6 -8 -7 -6 -7 -7 -9 -9 -9 -9 -9 -10 -9 -8 -9 -8 -9 -9 -9 -11 -13 -13 -15 -16 -16 -19 -21 -20 -18 -18 -20 -21 -19 -17 -16 -15 -15 -16 -16 -16 -16
-1 -2 -3 -4 -6 -6 -7 -7 -6 -7 -7 -6 -7 -7 -7 -5 -7 -8 -10 -10 -10 -10 -10 -10 -9 -9 -9 -9 -9 -9 -9 -10 -12 -13 -14 -15 -16 -17 -20 -23 -22 -20 -23 -23 -20 -18 -17 -16 -15 -15 -16 -16 -16 -16
-2 -4 -6 -5 -6 -6 -8 -8 -8 -7 -7 -7 -7 -6 -6 -7 -7 -10 -10 -11 -10 -11 -10 -9 -9 -8 -8 -8 -8 -9 -9 -11 -11 -12 -13 -15 -17 -19 -19 -18 -18 -22 -24 -21 -18 -17 -15 -15 -15 -15 -15 -15 -15 -15
-5 -6 -6 -6 -7 -7 -8 -8 -7 -7 -8 -8 -7 -6 -8 -10 -10 -11 -10 -10 -10 -10 -10 -10 -10 -9 -9 -8 -8 -9 -10 -11 -12 -12 -15 -17 -18 -18 -18 -18 -19 -24 -23 -20 -17 -15 -15 -15 -15 -15 -15 -14 -14 -14
-5 -6 -6 -8 -8 -7 -8 -8 -7 -8 -8 -8 -8 -9 -9 -9 -9 -9 -9 -9 -9 -9 -9 -9 -10 -12 -11 -10 -6 -2 -5 -10 -12 -14 -16 -18 -19 -18 -19 -18 -22 -25 -21 -18 -15 -15 -15 -15 -15 -15 -14 -14 -14 -14
-5 -6 -7 -7 -8 -6 -7 -8 -8 -7 -7 -8 -8 -8 -8 -8 -8 -8 -8 -8 -8 -8 -8 -8 -10 -13 -12 -9 -3 -2 -6 -10 -12 -13 -14 -17 -18 -19 -19 -22 -26 -23 -19 -16 -15 -15 -15 -15 -14 -14 -14 -14 -13 -13
-6 -7 -8 -7 -9 -9 -9 -8 -8 -8 -8 -7 -7 -8 -8 -8 -8 -8 -9 -9 -8 -8 -8 -8 -10 -10 -9 -3 -1 -7 -10 -12 -12 -12 -15 -18 -19 -19 -25 -27 -25 -20 -17 -15 -15 -14 -15 -14 -14 -14 -14 -13 -14 -14
-9 -9 -9 -10 -11 -10 -9 -8 -8 -9 -8 -8 -9 -9 -8 -8 -9 -8 -9 -9 -9 -9 -8 -8 -9 -9 -3 0 -1 -8 -10 -11 -12 -13 -16 -17 -21 -26 -28 -25 -20 -16 -15 -15 -14 -15 -14 -14 -14 -14 -14 -14 -14 -14

GFSWCAN_850_dewp_087.txt.gz
Dewpoint
-2 1 2 2 -0 -13 -7 -9 0 1 1 1 -0 -2 -1 -1 -1 -1 -1 -0 -0 -1 -1 -1 -1 -0 0 1 1 0 1 0 1 0 0 -1 -0 -1 -1 -2 -2 -0 0 1 -0 0 -2 -3 -2 -1 -3 -2 -2 -2
-3 2 1 2 1 -15 -10 -11 -0 1 0 -0 -2 -2 -1 -1 -1 -2 -1 -1 -0 -1 -1 -1 -1 -1 -1 -0 0 -0 0 1 0 1 -1 -1 -1 -2 -2 -2 -2 -3 -2 -1 -2 -1 -4 -3 -2 -2 -3 -3 -2 -2
-2 1 2 2 1 -17 -10 -11 -1 1 0 -1 -2 -2 -1 -1 -2 -2 -1 -1 -1 -1 -1 -1 -1 -1 -1 -1 -0 0 0 -1 1 -1 0 -0 -0 -2 -1 -2 -2 -3 -3 -2 -3 -4 -3 -4 -3 -2 -3 -2 -2 -2
-0 1 2 2 1 -16 -9 -10 -4 0 1 -0 -1 -2 -2 -1 -3 -2 -2 -1 -1 -0 -0 -1 -1 -1 -1 -1 -1 -1 -1 -1 -1 -1 0 -1 -0 -2 -2 -2 -2 -3 -3 -2 -2 -3 -3 -3 -3 -3 -3 -3 -2 -2
1 2 2 1 1 -16 -8 -11 -9 -1 1 0 -1 -1 -2 -2 -2 -3 -3 -3 -3 0 -0 -1 -2 -2 -2 -1 -1 -1 -1 -1 -0 0 -0 -0 -1 -2 -2 -3 -2 -3 -2 -1 -2 -4 -4 -3 -3 -3 -3 -3 -3 -3
1 2 2 1 1 -14 -8 -13 -11 -3 1 0 -0 -1 -1 -1 -1 -2 -2 -4 -3 -2 0 -1 -1 -2 -2 -2 -1 -1 -1 -1 -1 -0 -0 -1 -2 -2 -1 -1 -3 -4 -4 -4 -4 -3 -3 -3 -3 -4 -3 -3 -3 -3
0 2 2 2 1 -14 -9 -12 -13 -10 0 0 -1 -1 -2 -1 -1 -2 -4 -6 -5 -5 -2 0 -0 -2 -3 -2 -2 -2 -2 -2 -2 -1 -2 -1 -2 -2 -2 -0 -4 -5 -4 -4 -4 -4 -4 -4 -4 -4 -3 -3 -3 -4
0 1 2 2 1 -13 -10 -12 -12 -11 -3 -0 -0 -1 -1 -1 -1 -1 -2 -7 -7 -5 -6 -1 -2 -2 -3 -2 -2 -3 -3 -3 -2 -2 -2 -4 -3 -3 -1 -3 -3 -4 -3 -3 -4 -4 -4 -4 -3 -4 -4 -4 -5 -6
0 1 2 2 1 -12 -10 -9 -5 -2 -5 -2 1 -0 -1 -1 -2 -1 -2 -4 -5 -5 -6 -2 -5 -4 -3 -2 -2 -3 -3 -3 -2 -3 -3 -3 -3 -2 -3 -4 -4 -6 -5 -5 -4 -4 -4 -4 -5 -5 -5 -5 -9 -14
0 1 3 2 2 -13 -10 -3 -3 -2 -2 -0 1 -0 -1 -2 -2 -2 -2 -4 -6 -6 -7 -3 -2 -4 -2 -3 -2 -2 -2 -2 -4 -3 -3 -3 -2 -4 -5 -5 -6 -5 -5 -6 -4 -4 -5 -5 -5 -6 -7 -11 -14 -14
1 1 2 2 1 -14 -6 -2 -1 -2 -0 1 -0 -2 -2 -4 -2 -4 -5 -5 -3 -5 -5 -5 -1 -4 -3 -3 -2 -2 -2 -5 -5 -4 -3 -2 -0 -3 -5 -6 -5 -5 -5 -7 -7 -8 -7 -6 -6 -7 -11 -13 -13 -12
1 1 2 2 1 -12 -3 -2 -1 -1 1 -0 -2 -4 -4 -4 -5 -7 -8 -5 -5 -4 -4 -5 -4 -3 -4 -2 -2 -3 -4 -5 -5 -3 -3 -2 -3 -4 -5 -5 -6 -7 -7 -7 -7 -7 -6 -6 -8 -11 -13 -13 -12 -13
2 2 2 2 1 -11 -2 0 0 0 -0 -2 -5 -5 -4 -4 -6 -7 -7 -7 -6 -4 -4 -3 -5 -4 -5 -4 -3 -4 -4 -3 -5 -6 -4 -4 -5 -5 -5 -6 -7 -7 -7 -6 -6 -7 -8 -10 -11 -13 -13 -12 -13 -17
2 2 3 2 2 -9 -0 1 0 1 -1 -5 -5 -7 -6 -7 -6 -6 -6 -6 -5 -6 -6 -4 -4 -4 -3 -4 -4 -6 -4 -5 -7 -6 -5 -5 -6 -5 -6 -6 -6 -5 -5 -5 -6 -7 -8 -9 -11 -13 -12 -13 -17 -17
2 3 3 2 2 -8 0 0 1 -1 -3 -4 -5 -6 -6 -6 -3 -3 -3 -8 -8 -7 -5 -4 -4 -4 -5 -4 -5 -5 -6 -7 -6 -7 -6 -5 -8 -7 -6 -6 -6 -5 -5 -5 -6 -6 -7 -10 -12 -12 -13 -17 -17 -18
3 3 3 2 2 -5 -0 1 0 -0 -0 -3 -4 -4 -3 -5 -5 -6 -6 -9 -9 -6 -4 -4 -6 -6 -5 -5 -5 -6 -7 -7 -8 -7 -9 -10 -10 -8 -7 -6 -6 -6 -6 -5 -5 -5 -7 -10 -11 -13 -17 -17 -19 -21
3 2 2 2 1 -2 0 1 -0 -0 0 -1 -2 -4 -5 -6 -5 -5 -7 -9 -8 -3 -6 -5 -7 -7 -7 -7 -5 -6 -6 -6 -7 -9 -12 -13 -13 -10 -8 -7 -6 -5 -5 -4 -4 -6 -9 -11 -13 -18 -17 -19 -21 -18
2 2 2 2 -0 -2 -0 -0 0 -0 -1 -1 -2 -3 -4 -4 -7 -5 -6 -7 -6 -4 -3 -7 -7 -8 -7 -8 -7 -6 -7 -12 -13 -17 -17 -16 -13 -10 -8 -7 -7 -6 -5 -5 -7 -8 -10 -13 -18 -17 -19 -22 -19 -17
2 2 2 2 -1 -1 -1 -1 -0 -1 -1 -2 -2 -2 -3 -4 -5 -7 -9 -9 -8 -6 -6 -6 -9 -7 -8 -7 -8 -13 -10 -12 -17 -16 -16 -16 -16 -12 -10 -8 -6 -6 -6 -7 -8 -9 -13 -18 -17 -19 -22 -20 -17 -18
2 2 2 1 -1 -1 -1 -1 -1 -1 -2 -2 -2 -2 -3 -4 -5 -5 -6 -7 -7 -5 -7 -7 -7 -9 -11 -14 -15 -15 -15 -16 -17 -16 -15 -14 -15 -13 -12 -10 -8 -6 -7 -7 -9 -13 -18 -18 -18 -21 -20 -17 -18 -17
1 0 1 -1 -2 -1 -1 -2 -2 -2 -1 -2 -3 -3 -3 -3 -4 -5 -5 -6 -5 -5 -7 -8 -9 -9 -10 -10 -11 -13 -14 -15 -14 -14 -14 -13 -13 -13 -10 -9 -7 -6 -7 -8 -11 -17 -18 -17 -20 -21 -18 -17 -17 -16
-0 -2 -2 -2 -1 -1 -1 -2 -3 -3 -3 -4 -4 -3 -4 -5 -4 -4 -4 -5 -5 -6 -7 -7 -8 -8 -8 -8 -9 -10 -10 -12 -12 -11 -11 -11 -11 -13 -10 -9 -7 -7 -7 -10 -15 -19 -18 -18 -21 -19 -17 -17 -16 -16
-2 -2 -2 -2 -2 -2 -2 -2 -4 -4 -5 -5 -5 -5 -6 -5 -5 -5 -4 -4 -4 -5 -5 -5 -6 -6 -6 -7 -7 -7 -7 -7 -8 -8 -9 -9 -10 -12 -11 -10 -8 -8 -9 -13 -17 -18 -17 -19 -21 -18 -17 -17 -16 -16
-2 -2 -2 -2 -2 -3 -3 -3 -3 -5 -6 -5 -5 -7 -7 -5 -5 -5 -5 -6 -7 -8 -8 -9 -6 -5 -5 -6 -6 -7 -7 -7 -7 -7 -8 -9 -11 -12 -11 -11 -9 -9 -12 -15 -18 -17 -18 -21 -19 -17 -17 -16 -16 -17
-2 -2 -2 -2 -2 -6 -6 -6 -6 -6 -6 -7 -7 -8 -7 -7 -8 -10 -8 -8 -9 -9 -9 -10 -8 -8 -7 -8 -8 -9 -9 -8 -8 -8 -8 -8 -10 -11 -10 -10 -9 -11 -13 -16 -17 -18 -20 -21 -18 -17 -16 -16 -16 -17
-2 -3 -2 -3 -5 -6 -7 -7 -6 -6 -7 -7 -7 -8 -7 -9 -9 -8 -9 -9 -9 -9 -10 -10 -10 -9 -9 -10 -9 -9 -10 -9 -8 -8 -9 -9 -10 -10 -11 -11 -11 -12 -14 -17 -18 -18 -23 -21 -18 -17 -16 -16 -16 -16
-2 -3 -3 -3 -6 -7 -7 -7 -6 -7 -6 -6 -7 -9 -8 -7 -7 -9 -9 -9 -9 -10 -11 -11 -11 -10 -10 -10 -9 -9 -9 -8 -8 -8 -9 -9 -9 -10 -11 -12 -14 -16 -19 -19 -20 -22 -23 -19 -17 -16 -16 -16 -16 -16
-1 -3 -3 -5 -6 -7 -7 -7 -7 -7 -7 -7 -8 -9 -7 -7 -7 -9 -10 -11 -11 -11 -11 -11 -10 -10 -10 -9 -8 -7 -7 -8 -8 -8 -9 -9 -10 -10 -11 -12 -13 -17 -19 -20 -24 -24 -20 -18 -16 -16 -16 -16 -16 -15
-4 -5 -5 -6 -7 -7 -8 -8 -8 -8 -7 -7 -6 -7 -8 -9 -9 -10 -10 -10 -10 -10 -10 -11 -10 -10 -10 -10 -10 -9 -8 -8 -8 -9 -8 -8 -9 -10 -11 -12 -15 -19 -19 -24 -23 -21 -18 -16 -16 -15 -15 -15 -15 -15
-5 -5 -7 -6 -6 -6 -7 -8 -8 -8 -8 -8 -8 -8 -9 -9 -9 -9 -9 -9 -10 -10 -10 -9 -9 -9 -9 -9 -9 -9 -9 -9 -8 -9 -9 -7 -10 -12 -13 -14 -17 -19 -20 -22 -20 -19 -16 -16 -15 -15 -15 -15 -15 -14
-6 -6 -8 -8 -8 -7 -7 -7 -7 -7 -7 -8 -8 -8 -8 -9 -9 -8 -8 -8 -9 -8 -8 -9 -9 -9 -8 -8 -8 -9 -11 -10 -5 -3 -3 -7 -11 -12 -15 -17 -18 -19 -22 -17 -21 -17 -16 -15 -15 -15 -15 -15 -14 -14
-6 -7 -8 -8 -10 -8 -7 -8 -7 -7 -6 -6 -7 -7 -8 -8 -8 -8 -8 -9 -9 -9 -9 -9 -9 -9 -9 -9 -9 -10 -11 -6 -1 -2 -4 -9 -12 -14 -14 -17 -18 -20 -14 -20 -18 -16 -15 -15 -15 -15 -15 -15 -14 -14
-8 -9 -10 -10 -11 -10 -8 -7 -7 -8 -8 -9 -8 -8 -8 -8 -9 -8 -9 -9 -9 -9 -9 -9 -9 -9 -9 -9 -9 -8 -3 -1 -4 -8 -7 -10 -13 -15 -17 -18 -20 -12 -20 -19 -16 -16 -15 -15 -15 -15 -15 -15 -14 -14

GFSWCAN_850_dewp_090.txt.gz
Dewpoint
-0 1 1 2 1 -5 -10 -13 -1 1 1 0 -2 -1 -2 -2 -3 -4 -1 -1 -0 -2 -1 -1 -1 -1 0 1 -0 0 0 -0 0 -0 -0 -1 -0 -2 -2 -3 -2 -3 -1 0 -0 0 -3 -3 -2 -3 -6 -2 -3 -2
-4 1 1 2 1 -2 -11 -14 -3 0 1 -1 -2 -1 -1 -2 -2 -2 -2 -1 -1 -1 -2 -1 -1 -1 -1 -0 -0 -0 0 0 0 0 -1 -1 -1 -2 -3 -3 -3 -1 -3 -2 -2 -3 -6 -3 -4 -4 -4 -4 -3 -2
-2 1 0 2 1 -0 -15 -13 -8 -0 0 -0 -1 -1 -1 -2 -2 -3 -3 -1 -1 -1 -1 -1 -1 -1 -1 -1 -1 0 0 -1 1 -1 -0 -1 -1 -2 -1 -2 -3 -4 -3 -2 -3 -7 -4 -4 -3 -3 -3 -3 -3 -3
3 2 0 2 2 0 -15 -11 -11 -2 0 -0 -1 -1 -1 -1 -2 -2 -2 -2 -1 -1 -0 -1 -2 -1 -1 -1 -1 -1 -2 -1 -1 -1 -0 -1 -0 -2 -2 -3 -2 -4 -3 -2 -2 -4 -4 -3 -4 -3 -3 -3 -3 -2
3 2 1 2 2 1 -14 -10 -13 -7 -1 1 -0 -1 -1 -1 -1 -3 -3 -2 -2 -2 -1 -2 -3 -2 -2 -1 -1 -1 -1 -1 -0 -0 -1 -1 -1 -2 -3 -3 -2 -3 -2 -2 -3 -5 -5 -4 -3 -3 -3 -3 -3 -3
2 2 1 2 2 1 -9 -10 -14 -11 -2 0 0 -0 -0 -1 -1 -2 -2 -4 -4 -3 -2 -2 -1 -2 -2 -2 -2 -1 -1 -1 -2 -1 -1 -1 -1 -2 -2 -2 -3 -4 -4 -4 -5 -5 -4 -3 -3 -3 -3 -3 -3 -3
4 0 -0 2 2 2 -3 -12 -13 -12 -8 -0 1 0 -1 -1 -1 -1 -3 -6 -7 -5 -3 -2 -2 -1 -3 -3 -2 -2 -2 -2 -2 -1 -1 -2 -2 -2 -3 -1 -5 -6 -5 -4 -4 -4 -3 -3 -4 -4 -4 -3 -3 -3
4 2 -1 2 2 2 0 -14 -11 -14 -12 -1 -0 -1 -1 -1 -1 -1 -1 -3 -8 -5 -6 -4 -3 -3 -3 -3 -2 -2 -3 -2 -2 -2 -2 -3 -3 -3 -1 -3 -3 -4 -4 -4 -4 -4 -4 -4 -4 -4 -3 -3 -4 -5
4 2 -1 1 2 2 1 -16 -10 -11 -10 -4 -0 -1 -1 -1 -2 -1 -1 -2 -5 -6 -6 -3 -5 -5 -3 -2 -2 -2 -3 -3 -2 -3 -3 -3 -3 -2 -3 -4 -5 -5 -5 -4 -3 -4 -4 -4 -4 -4 -5 -5 -5 -7
4 3 -1 -0 2 2 1 -13 -8 -5 -2 -4 -1 0 -1 -2 -2 -2 -2 -3 -5 -6 -6 -4 -5 -3 -3 -3 -2 -2 -2 -3 -4 -3 -3 -2 -2 -4 -4 -4 -4 -5 -5 -5 -4 -4 -4 -3 -4 -5 -5 -6 -9 -14
5 4 0 0 1 2 0 -9 -3 1 0 -1 0 -1 -2 -3 -2 -3 -4 -5 -5 -5 -5 -6 -3 -4 -3 -3 -3 -2 -5 -5 -4 -5 -3 -3 -2 -3 -5 -5 -6 -6 -5 -5 -5 -7 -7 -7 -6 -6 -6 -10 -13 -13
5 4 0 1 2 2 -2 -3 1 1 -1 -2 -1 -3 -5 -3 -4 -7 -8 -6 -5 -4 -4 -4 -3 -3 -3 -2 -2 -3 -4 -6 -4 -5 -4 -3 -5 -7 -7 -6 -5 -5 -4 -5 -5 -7 -8 -7 -6 -7 -9 -12 -13 -12
5 4 2 1 2 2 -3 -1 1 -0 -1 -1 -4 -5 -4 -4 -6 -7 -7 -7 -7 -5 -4 -4 -4 -4 -4 -3 -3 -4 -4 -3 -5 -7 -4 -5 -8 -9 -7 -6 -6 -5 -5 -5 -6 -7 -7 -7 -7 -9 -12 -13 -12 -13
4 4 3 2 2 2 -2 0 0 1 -1 -4 -5 -6 -6 -7 -6 -6 -7 -7 -7 -6 -5 -5 -4 -4 -4 -4 -5 -6 -5 -5 -7 -6 -6 -7 -11 -9 -9 -5 -6 -6 -6 -5 -6 -7 -8 -9 -10 -12 -12 -12 -13 -18
4 4 3 2 2 2 -1 -0 0 0 -2 -5 -5 -5 -6 -6 -6 -5 -6 -4 -4 -6 -5 -5 -4 -5 -5 -5 -5 -6 -6 -6 -6 -7 -7 -13 -10 -12 -10 -6 -7 -6 -6 -5 -6 -7 -8 -9 -10 -12 -12 -13 -18 -17
3 3 3 3 2 2 -1 -0 1 0 -1 -3 -4 -5 -5 -5 -6 -4 -3 -9 -7 -6 -5 -5 -6 -6 -5 -5 -5 -5 -7 -7 -8 -8 -13 -13 -14 -14 -12 -9 -8 -7 -6 -6 -6 -7 -7 -8 -10 -12 -12 -17 -17 -20
3 2 2 3 2 2 -0 0 -0 -1 -0 -0 -2 -3 -5 -5 -5 -5 -5 -6 -7 -5 -6 -6 -7 -7 -6 -6 -5 -6 -7 -7 -12 -14 -16 -16 -17 -17 -14 -10 -8 -7 -6 -6 -6 -6 -6 -8 -10 -11 -16 -18 -19 -21
2 2 2 2 2 -0 -1 -1 -0 -0 -1 -1 -2 -2 -3 -4 -6 -6 -6 -7 -6 -4 -6 -7 -8 -7 -4 -5 -5 -6 -8 -11 -12 -15 -18 -16 -15 -15 -15 -12 -8 -7 -7 -6 -5 -5 -5 -8 -10 -13 -17 -18 -21 -19
2 1 1 2 1 -1 -1 -1 -1 -1 -1 -1 -2 -3 -3 -3 -3 -5 -7 -7 -8 -6 -6 -7 -8 -5 -5 -7 -8 -12 -13 -13 -14 -15 -15 -16 -14 -13 -12 -14 -10 -7 -7 -5 -4 -4 -7 -9 -11 -17 -17 -20 -20 -18
1 1 1 1 1 -1 -1 -1 -1 -1 -2 -1 -2 -2 -3 -4 -4 -4 -5 -7 -6 -5 -7 -7 -6 -8 -10 -12 -13 -13 -14 -14 -13 -13 -15 -17 -15 -13 -12 -11 -13 -10 -6 -5 -5 -7 -8 -10 -15 -18 -18 -21 -19 -18
1 2 1 -1 -1 -1 -1 -1 -1 -1 -1 -2 -2 -2 -3 -3 -4 -5 -5 -6 -5 -5 -7 -9 -11 -11 -10 -9 -9 -8 -9 -9 -10 -11 -12 -14 -14 -13 -11 -10 -11 -10 -7 -6 -6 -7 -8 -11 -17 -18 -20 -20 -19 -18
1 0 -1 -2 -2 -1 -1 -1 -1 -2 -2 -3 -3 -3 -4 -5 -4 -4 -5 -5 -5 -6 -6 -7 -7 -8 -8 -7 -7 -7 -7 -7 -8 -9 -10 -10 -11 -10 -10 -9 -10 -10 -9 -7 -6 -7 -8 -15 -17 -18 -21 -18 -18 -18
-0 -1 -2 -2 -2 -2 -2 -2 -3 -3 -5 -5 -4 -5 -6 -6 -4 -4 -4 -4 -5 -5 -5 -5 -6 -6 -6 -6 -6 -6 -6 -6 -6 -6 -6 -7 -7 -7 -8 -8 -9 -10 -10 -8 -6 -7 -10 -17 -17 -19 -20 -17 -18 -17
-1 -2 -2 -2 -2 -2 -3 -3 -4 -5 -5 -5 -5 -5 -7 -6 -5 -5 -4 -6 -5 -6 -6 -5 -5 -5 -5 -5 -6 -7 -8 -7 -7 -7 -7 -7 -6 -7 -7 -7 -8 -10 -11 -9 -7 -7 -13 -17 -17 -19 -19 -17 -18 -16
-2 -3 -2 -2 -3 -5 -4 -5 -6 -6 -6 -6 -7 -8 -7 -6 -5 -5 -6 -7 -7 -8 -7 -7 -7 -8 -7 -8 -8 -9 -10 -9 -8 -8 -9 -8 -8 -7 -7 -7 -9 -10 -10 -9 -7 -9 -15 -17 -17 -20 -18 -17 -17 -16
-2 -3 -3 -2 -5 -6 -6 -6 -7 -7 -7 -7 -7 -8 -7 -7 -7 -6 -8 -9 -8 -8 -8 -8 -9 -9 -9 -9 -10 -10 -11 -10 -8 -8 -9 -9 -8 -8 -9 -8 -9 -9 -10 -9 -7 -10 -16 -18 -18 -20 -17 -18 -17 -16
-2 -3 -2 -3 -5 -7 -7 -7 -7 -7 -6 -6 -8 -8 -7 -5 -6 -8 -8 -8 -8 -8 -9 -10 -10 -10 -11 -11 -11 -10 -9 -8 -8 -8 -8 -8 -8 -9 -9 -9 -9 -9 -10 -10 -9 -12 -18 -18 -19 -18 -18 -17 -16 -16
-2 -3 -3 -5 -7 -8 -7 -7 -7 -6 -6 -7 -7 -7 -5 -5 -6 -8 -9 -10 -9 -9 -10 -10 -11 -11 -11 -11 -11 -10 -10 -9 -8 -7 -7 -8 -8 -9 -9 -9 -9 -9 -10 -11 -12 -15 -18 -18 -10 -17 -18 -17 -16 -16
-3 -4 -5 -8 -7 -7 -7 -6 -6 -6 -6 -6 -5 -6 -8 -8 -8 -9 -9 -10 -11 -10 -10 -11 -11 -10 -10 -10 -10 -10 -10 -9 -9 -8 -8 -8 -8 -7 -7 -10 -10 -10 -11 -13 -15 -17 -19 -10 -14 -18 -17 -16 -16 -15
-5 -4 -8 -7 -7 -6 -7 -7 -7 -7 -7 -7 -7 -7 -8 -8 -8 -8 -9 -10 -10 -10 -9 -9 -9 -10 -9 -9 -9 -9 -9 -9 -9 -9 -9 -7 -6 -7 -8 -9 -10 -11 -14 -17 -21 -17 -6 -11 -17 -17 -16 -16 -15 -15
-5 -5 -9 -8 -8 -7 -7 -7 -8 -7 -7 -7 -7 -7 -8 -8 -8 -9 -9 -9 -9 -9 -9 -8 -8 -9 -9 -9 -9 -9 -9 -9 -9 -9 -9 -6 -6 -7 -7 -9 -10 -13 -18 -20 -14 -4 -10 -18 -17 -16 -16 -15 -15 -15
-6 -7 -8 -8 -10 -7 -7 -7 -7 -7 -7 -7 -7 -7 -8 -8 -8 -8 -8 -9 -9 -8 -8 -8 -9 -10 -10 -9 -9 -9 -9 -8 -9 -10 -6 -4 -4 -4 -7 -10 -11 -16 -18 -19 -11 -14 -19 -18 -17 -16 -15 -15 -15 -15
-8 -8 -9 -10 -9 -9 -8 -8 -7 -8 -8 -9 -8 -8 -8 -8 -8 -8 -8 -7 -7 -8 -9 -10 -10 -9 -9 -9 -9 -9 -9 -9 -10 -7 -2 -2 -3 -7 -12 -11 -13 -16 -19 -13 -15 -19 -18 -17 -16 -15 -15 -15 -15 -15

GFSWCAN_850_dewp_093.txt.gz
Dewpoint
4 2 2 1 2 1 -8 -11 -12 -1 -1 -0 -1 -1 -2 -1 -2 -3 -3 -2 -2 -2 -2 -1 -1 -1 0 0 0 -0 -0 -0 -1 -0 -0 -1 -1 -2 -1 -4 -3 -4 -2 -0 -1 0 -4 -3 -2 -4 -7 -3 -3 -2
4 2 1 1 2 2 -1 -13 -13 -2 -0 -1 -1 -1 -2 -2 -1 -1 -3 -3 -2 -2 -2 -2 -1 -1 -1 -1 -0 -0 0 0 0 -0 -1 -1 -1 -2 -3 -2 -5 -1 -3 -4 -2 -3 -7 -3 -5 -4 -4 -4 -3 -3
4 3 1 0 0 2 1 -12 -10 -9 -1 -1 -2 -1 -1 -2 -2 -2 -2 -3 -2 -2 -2 -2 -2 -2 -1 -1 -1 -1 -0 -1 0 -1 -1 -1 0 -2 -1 -2 -3 -4 -4 -2 -3 -8 -5 -4 -4 -4 -3 -4 -4 -4
4 4 3 2 0 2 2 -5 -11 -12 -2 -0 -1 -2 -1 -1 -2 -2 -2 -1 -1 -1 -1 -2 -2 -2 -1 -1 -1 -1 -1 -1 -1 -1 -1 -1 -0 -2 -2 -3 -3 -4 -3 -2 -3 -4 -4 -5 -4 -4 -3 -3 -3 -3
4 4 3 2 2 2 2 -1 -12 -11 -8 -1 -0 -1 -1 -1 -1 -3 -3 -2 -2 -2 -1 -3 -3 -3 -2 -1 -1 -1 -1 -1 -1 -0 -1 -1 -2 -2 -3 -3 -2 -3 -3 -2 -3 -6 -6 -7 -5 -4 -3 -3 -3 -3
5 4 3 2 1 2 2 0 -12 -10 -11 -5 -0 0 -0 -1 -1 -1 -2 -3 -5 -3 -2 -2 -2 -2 -2 -2 -2 -1 -1 -1 -1 -1 -1 -1 -1 -2 -2 -2 -4 -4 -4 -5 -5 -6 -6 -5 -4 -4 -3 -3 -3 -3
6 5 4 3 1 1 2 2 -9 -9 -11 -9 -0 1 1 -0 -1 -1 -2 -4 -7 -5 -3 -2 -2 -2 -2 -2 -2 -2 -2 -2 -2 -2 -1 -2 -2 -2 -2 -1 -5 -6 -6 -5 -5 -4 -4 -4 -4 -3 -3 -3 -3 -3
6 5 5 4 2 -0 2 2 -3 -9 -11 -10 -1 1 -0 -1 -1 -1 -1 -3 -5 -6 -5 -5 -5 -3 -2 -3 -2 -2 -2 -2 -2 -2 -2 -3 -3 -2 -1 -3 -3 -3 -4 -5 -5 -4 -4 -4 -4 -4 -4 -3 -3 -3
5 5 5 4 3 1 1 2 -1 -10 -10 -10 -3 1 0 -0 -1 -2 -1 -1 -2 -5 -5 -4 -6 -5 -3 -2 -2 -2 -3 -3 -2 -3 -3 -3 -3 -2 -3 -4 -4 -5 -5 -5 -4 -3 -3 -4 -4 -4 -4 -3 -4 -5
5 5 5 5 4 2 1 2 -0 -9 -5 -2 -3 0 -0 -1 -2 -2 -2 -2 -2 -3 -5 -4 -5 -3 -3 -3 -3 -2 -2 -3 -4 -3 -3 -2 -2 -3 -4 -4 -5 -5 -5 -5 -3 -3 -3 -4 -4 -4 -4 -5 -5 -6
5 5 5 5 4 2 2 2 -1 -7 -1 0 -1 0 -1 -2 -2 -3 -4 -4 -5 -5 -5 -6 -5 -4 -4 -4 -3 -2 -5 -5 -4 -5 -3 -3 -3 -5 -6 -8 -8 -7 -6 -5 -5 -5 -6 -6 -5 -4 -5 -5 -6 -12
4 4 4 4 4 2 2 2 -2 -3 0 -0 -1 -1 -2 -4 -3 -6 -7 -6 -5 -4 -4 -4 -3 -3 -3 -2 -2 -3 -4 -6 -4 -5 -4 -3 -5 -9 -9 -9 -7 -6 -5 -5 -4 -5 -7 -8 -8 -6 -5 -7 -10 -13
4 4 4 4 4 2 2 2 -2 -1 1 -0 -2 -5 -4 -4 -6 -6 -4 -7 -7 -5 -4 -3 -4 -4 -3 -3 -3 -5 -4 -3 -5 -6 -4 -5 -8 -11 -10 -10 -7 -6 -5 -4 -5 -5 -7 -8 -7 -6 -7 -10 -12 -13
3 3 4 3 3 2 2 2 -0 1 0 -2 -3 -6 -5 -7 -5 -5 -6 -7 -7 -5 -4 -4 -4 -5 -4 -4 -5 -6 -5 -5 -6 -5 -5 -7 -13 -13 -12 -10 -7 -6 -6 -5 -5 -6 -7 -7 -7 -7 -10 -12 -13 -13
2 3 3 3 3 3 2 1 0 1 -0 -3 -5 -4 -6 -6 -6 -6 -7 -5 -5 -5 -5 -5 -5 -5 -5 -5 -4 -6 -6 -6 -5 -5 -6 -14 -14 -14 -14 -11 -7 -7 -6 -6 -6 -7 -7 -8 -9 -10 -11 -12 -12 -15
1 2 2 3 3 3 2 -0 0 -0 -1 -3 -4 -5 -6 -5 -5 -4 -6 -5 -5 -5 -6 -6 -6 -6 -6 -5 -5 -5 -6 -6 -6 -7 -12 -15 -16 -17 -17 -15 -10 -8 -7 -6 -6 -6 -8 -9 -9 -9 -11 -12 -13 -18
1 2 2 2 2 3 1 -0 -0 -1 -0 -0 -2 -3 -5 -4 -3 -4 -5 -6 -6 -5 -6 -7 -8 -6 -6 -6 -4 -6 -6 -6 -9 -14 -15 -16 -17 -15 -14 -15 -14 -10 -8 -7 -6 -6 -7 -8 -9 -9 -11 -12 -16 -18
1 1 1 1 2 2 -0 -1 -0 -0 -1 -1 -1 -2 -3 -4 -4 -4 -5 -6 -6 -5 -6 -8 -8 -8 -6 -4 -4 -6 -7 -9 -12 -15 -18 -17 -16 -14 -12 -11 -13 -13 -10 -7 -6 -6 -6 -7 -6 -7 -10 -12 -17 -19
0 1 1 1 2 -0 -1 -1 -1 -1 -1 -1 -1 -3 -3 -4 -4 -4 -5 -6 -7 -8 -8 -7 -10 -7 -5 -5 -5 -10 -11 -11 -12 -13 -14 -14 -15 -15 -14 -12 -11 -10 -11 -11 -8 -6 -5 -6 -5 -7 -10 -14 -18 -21
-0 0 1 1 1 -0 -1 -1 -1 -1 -1 -1 -1 -1 -3 -4 -4 -3 -2 -5 -5 -5 -6 -8 -7 -8 -9 -10 -11 -12 -12 -13 -13 -13 -13 -12 -11 -11 -14 -14 -13 -11 -10 -10 -9 -7 -5 -5 -5 -8 -10 -17 -18 -22
-1 -0 1 1 -1 -1 -1 -2 -1 -1 -1 -2 -1 -2 -2 -3 -4 -3 -3 -3 -4 -5 -7 -8 -9 -9 -9 -8 -8 -10 -11 -12 -11 -9 -8 -8 -8 -8 -11 -12 -12 -11 -10 -10 -9 -8 -6 -5 -6 -8 -11 -18 -19 -20
0 0 0 -1 -1 -1 -1 -1 -1 -1 -1 -3 -2 -2 -3 -5 -4 -4 -3 -3 -4 -4 -5 -6 -7 -8 -8 -8 -8 -9 -10 -10 -9 -8 -7 -7 -7 -7 -7 -8 -9 -9 -9 -9 -9 -9 -8 -6 -7 -8 -14 -17 -20 -19
0 1 -1 -2 -2 -3 -2 -2 -2 -3 -4 -4 -3 -4 -6 -5 -4 -4 -4 -4 -3 -3 -3 -4 -4 -5 -5 -5 -6 -6 -6 -6 -6 -6 -6 -6 -6 -6 -6 -6 -6 -7 -7 -7 -9 -9 -8 -7 -7 -9 -15 -17 -20 -19
-0 -1 -2 -2 -2 -3 -3 -3 -4 -5 -5 -5 -4 -3 -6 -7 -5 -5 -4 -5 -4 -4 -4 -4 -4 -4 -4 -4 -4 -5 -5 -5 -6 -6 -7 -7 -7 -8 -8 -8 -7 -7 -7 -7 -8 -9 -9 -6 -7 -11 -16 -17 -19 -19
-2 -3 -2 -3 -3 -4 -4 -5 -5 -5 -6 -7 -6 -5 -6 -6 -5 -5 -5 -7 -5 -5 -5 -5 -5 -5 -4 -4 -4 -5 -6 -7 -7 -8 -9 -8 -8 -8 -9 -9 -8 -8 -7 -7 -8 -9 -8 -7 -7 -12 -17 -18 -20 -19
-2 -2 -3 -3 -4 -5 -6 -7 -7 -7 -8 -7 -6 -8 -7 -7 -6 -6 -8 -7 -6 -6 -7 -7 -6 -5 -5 -5 -5 -7 -9 -10 -9 -9 -10 -9 -9 -9 -9 -8 -8 -8 -8 -8 -8 -9 -8 -7 -7 -14 -17 -18 -19 -18
-2 -3 -3 -2 -5 -6 -7 -7 -8 -8 -6 -5 -8 -9 -7 -4 -6 -8 -8 -8 -8 -8 -8 -8 -7 -7 -7 -8 -9 -10 -11 -10 -9 -9 -9 -9 -8 -8 -8 -8 -9 -9 -8 -9 -9 -9 -9 -7 -9 -15 -17 -18 -19 -18
-3 -2 -3 -5 -7 -7 -9 -9 -8 -7 -6 -7 -7 -7 -6 -6 -6 -8 -8 -8 -7 -7 -8 -8 -8 -8 -10 -10 -11 -11 -10 -10 -10 -10 -9 -9 -9 -9 -8 -8 -9 -9 -9 -9 -9 -9 -8 -7 -12 -18 -16 -12 -16 -17
-3 -3 -4 -5 -7 -7 -8 -8 -7 -7 -7 -7 -6 -7 -8 -7 -8 -8 -8 -5 -6 -10 -9 -9 -10 -10 -11 -11 -11 -11 -11 -10 -10 -9 -9 -9 -9 -9 -8 -8 -8 -8 -9 -9 -9 -9 -8 -11 -16 -17 -8 -11 -17 -16
-4 -4 -5 -6 -6 -6 -7 -7 -7 -7 -7 -7 -7 -7 -7 -7 -7 -8 -8 -8 -6 -8 -10 -10 -10 -10 -10 -10 -10 -10 -10 -10 -10 -9 -9 -9 -9 -9 -7 -6 -7 -8 -9 -10 -10 -9 -10 -14 -16 -12 -12 -16 -16 -16
-4 -4 -6 -7 -7 -7 -6 -6 -7 -7 -7 -7 -7 -7 -7 -7 -7 -7 -8 -8 -7 -6 -10 -10 -10 -9 -9 -9 -8 -8 -9 -10 -10 -9 -9 -9 -9 -9 -6 -6 -8 -8 -10 -11 -11 -11 -15 -17 -12 -10 -15 -16 -16 -16
-5 -6 -7 -8 -10 -7 -7 -7 -7 -7 -7 -7 -7 -7 -7 -7 -7 -7 -7 -8 -8 -8 -8 -9 -9 -9 -9 -9 -8 -8 -9 -9 -9 -9 -9 -9 -9 -9 -7 -5 -6 -9 -10 -12 -14 -17 -18 -9 -7 -14 -17 -16 -16 -15
-7 -7 -9 -9 -9 -9 -8 -7 -7 -8 -7 -8 -7 -7 -8 -7 -7 -7 -7 -7 -7 -8 -8 -8 -8 -8 -8 -8 -9 -9 -9 -9 -9 -9 -8 -9 -9 -9 -4 -3 -5 -8 -12 -15 -19 -17 -8 -10 -17 -17 -16 -15 -15 -15

GFSWCAN_850_dewp_096.txt.gz
Dewpoint
5 4 4 2 -5 -1 0 -4 -11 -9 0 -0 -1 -1 -2 -2 -2 -2 -2 -1 -2 -2 -3 -3 -2 -1 -0 0 -0 -1 -2 -1 -1 -1 -1 -1 -1 -2 -1 -4 -3 -4 -3 -1 -1 -0 -3 -3 -3 -5 -8 -4 -3 -2
5 4 4 2 -2 -1 -0 0 -11 -12 -1 0 -1 -1 -2 -2 -2 -2 -2 -2 -2 -1 -2 -3 -2 -2 -1 -1 -0 -0 -1 -0 -1 -1 -1 -2 -1 -3 -3 -2 -6 -2 -4 -6 -3 -3 -7 -3 -5 -5 -4 -4 -4 -3
5 5 4 3 2 1 -0 1 -4 -12 -10 -0 -1 -2 -1 -2 -2 -2 -2 -2 -1 -1 -2 -2 -3 -3 -2 -1 -1 -1 -0 -0 -0 -1 -1 -1 0 -2 -1 -2 -3 -5 -4 -3 -3 -7 -5 -5 -4 -4 -4 -4 -5 -5
5 5 4 4 3 3 1 1 -0 -11 -12 -4 -0 -1 -2 -1 -2 -3 -2 -2 -1 -1 -1 -3 -3 -2 -2 -1 -1 -1 -1 -1 -1 -1 -1 -1 -0 -3 -2 -4 -4 -5 -4 -3 -3 -4 -5 -5 -6 -5 -4 -4 -4 -3
6 5 5 4 4 3 2 1 1 -9 -11 -12 -2 0 -1 -1 -1 -2 -3 -3 -2 -1 -1 -3 -3 -3 -2 -2 -1 -1 -1 -1 -1 -0 -2 -1 -2 -2 -3 -3 -2 -4 -4 -3 -4 -7 -7 -8 -6 -6 -5 -4 -3 -3
6 5 5 5 4 3 2 1 1 -2 -12 -11 -10 -1 0 -0 -1 -1 -1 -2 -4 -4 -3 -2 -3 -2 -3 -2 -2 -1 -1 -1 -1 -1 -1 -1 -1 -2 -2 -2 -4 -4 -4 -5 -5 -5 -6 -6 -6 -5 -4 -3 -3 -3
5 6 5 5 4 4 1 1 2 1 -11 -10 -11 -2 1 1 -0 -0 -2 -3 -6 -6 -4 -3 -3 -2 -2 -2 -2 -2 -2 -1 -2 -2 -2 -2 -2 -1 -2 -1 -4 -5 -6 -5 -5 -4 -4 -5 -5 -4 -4 -3 -3 -3
3 5 5 5 5 4 3 1 1 2 -7 -10 -11 -3 1 0 -1 -1 -1 -1 -2 -5 -5 -6 -5 -3 -2 -3 -3 -2 -2 -2 -2 -2 -2 -2 -3 -2 -1 -3 -3 -3 -4 -4 -4 -5 -4 -4 -4 -4 -3 -3 -3 -3
1 4 5 5 5 4 3 2 1 1 -4 -10 -10 -3 1 0 -1 -1 -2 -1 -1 -2 -5 -5 -6 -5 -3 -3 -2 -2 -3 -3 -3 -3 -3 -3 -3 -2 -2 -3 -3 -4 -5 -5 -5 -5 -4 -3 -4 -3 -4 -3 -3 -4
-0 2 4 5 5 4 3 2 2 2 -5 -7 -7 -1 0 -1 -1 -2 -2 -2 -2 -2 -4 -5 -5 -5 -3 -2 -3 -2 -3 -3 -4 -3 -3 -2 -2 -3 -4 -5 -4 -4 -5 -5 -4 -4 -3 -3 -3 -4 -4 -4 -4 -4
0 1 3 4 5 4 3 2 2 1 -4 -1 -4 -3 -1 -1 -2 -2 -3 -3 -4 -5 -5 -5 -5 -4 -4 -4 -3 -3 -5 -5 -4 -4 -3 -3 -2 -4 -6 -9 -8 -9 -8 -7 -6 -5 -4 -4 -4 -4 -4 -4 -4 -5
-0 1 2 3 4 4 3 3 2 1 -3 -1 -3 -2 -1 -2 -3 -5 -6 -6 -5 -4 -5 -5 -5 -4 -4 -3 -2 -3 -4 -6 -3 -5 -4 -2 -4 -7 -8 -10 -10 -10 -7 -5 -5 -5 -4 -5 -7 -7 -5 -4 -5 -6
-1 0 1 3 3 4 3 3 1 1 -0 -1 -1 -3 -4 -4 -5 -3 -2 -5 -7 -5 -5 -3 -4 -4 -3 -3 -3 -5 -4 -2 -5 -6 -4 -5 -7 -10 -11 -12 -12 -8 -5 -5 -6 -4 -4 -6 -7 -8 -6 -5 -6 -9
-0 -0 2 2 3 3 3 3 1 0 -0 -0 -2 -3 -4 -6 -4 -4 -4 -4 -6 -6 -4 -4 -4 -5 -4 -4 -5 -6 -5 -5 -6 -3 -4 -6 -9 -14 -14 -14 -10 -8 -6 -5 -5 -5 -5 -6 -7 -8 -6 -6 -8 -11
-6 -2 -0 2 2 3 2 2 1 -0 -0 -0 -2 -3 -4 -5 -6 -6 -6 -7 -7 -5 -4 -5 -5 -5 -6 -5 -5 -6 -6 -5 -5 -5 -5 -10 -14 -15 -16 -16 -12 -9 -8 -7 -6 -5 -6 -7 -7 -7 -7 -9 -11 -12
-8 -1 0 1 2 2 2 2 0 -1 -1 -1 -2 -5 -6 -6 -6 -6 -6 -5 -5 -4 -5 -6 -6 -7 -6 -6 -5 -5 -6 -5 -6 -7 -9 -15 -16 -16 -15 -15 -15 -11 -9 -8 -7 -7 -7 -7 -8 -8 -9 -10 -11 -12
-5 0 0 1 1 2 2 1 -1 -1 -1 -1 -1 -2 -5 -5 -4 -6 -6 -6 -5 -5 -5 -6 -6 -6 -7 -8 -5 -5 -4 -6 -9 -10 -12 -16 -17 -15 -13 -12 -12 -13 -12 -10 -9 -7 -7 -7 -9 -9 -10 -9 -11 -12
-3 -3 -2 1 1 2 0 -1 -1 -1 -2 -1 -1 -2 -3 -4 -4 -3 -4 -6 -5 -5 -7 -7 -8 -8 -7 -6 -4 -4 -7 -9 -10 -14 -15 -17 -16 -16 -14 -13 -13 -13 -12 -11 -11 -9 -6 -6 -7 -8 -8 -9 -11 -11
-6 -3 -1 -0 1 1 -0 -1 -1 -2 -1 -1 -1 -1 -2 -3 -4 -4 -3 -5 -6 -6 -8 -8 -10 -8 -7 -6 -4 -8 -10 -11 -12 -12 -15 -15 -15 -15 -14 -14 -13 -13 -13 -12 -11 -10 -9 -7 -7 -7 -7 -8 -9 -11
-2 -1 -1 0 0 0 -1 -2 -2 -1 -1 -1 -1 -1 -2 -3 -4 -4 -3 -3 -5 -5 -5 -7 -8 -9 -9 -11 -11 -9 -9 -11 -12 -13 -14 -13 -13 -12 -9 -8 -8 -9 -12 -12 -11 -10 -9 -8 -6 -6 -6 -7 -8 -10
-3 -3 -3 -1 0 0 -1 -2 -2 -1 -1 -1 -1 -1 -2 -3 -4 -3 -3 -2 -3 -3 -5 -5 -6 -7 -9 -10 -10 -10 -9 -9 -8 -9 -10 -10 -10 -10 -10 -10 -8 -7 -9 -10 -11 -11 -10 -9 -8 -7 -6 -6 -7 -10
-2 -3 -2 -1 -0 -1 -2 -2 -1 -1 -1 -2 -2 -1 -3 -5 -4 -4 -3 -3 -3 -2 -3 -3 -4 -4 -5 -6 -6 -7 -8 -8 -8 -8 -8 -8 -9 -9 -8 -7 -6 -6 -6 -6 -7 -8 -8 -9 -8 -7 -5 -5 -7 -12
-1 -1 -1 -1 -1 -3 -3 -2 -2 -2 -3 -3 -3 -2 -5 -6 -4 -4 -3 -3 -3 -3 -3 -2 -3 -3 -3 -3 -4 -4 -5 -5 -6 -6 -6 -6 -5 -5 -5 -6 -7 -7 -7 -7 -7 -6 -7 -8 -8 -8 -5 -5 -8 -13
-1 -1 -2 -2 -2 -3 -3 -3 -3 -4 -5 -4 -3 -3 -6 -6 -5 -5 -4 -5 -4 -4 -3 -3 -3 -3 -3 -3 -3 -3 -3 -4 -4 -5 -4 -4 -5 -6 -7 -8 -8 -9 -8 -8 -7 -7 -7 -7 -8 -8 -6 -6 -8 -13
-2 -3 -3 -3 -3 -6 -5 -5 -7 -5 -5 -7 -5 -4 -7 -6 -5 -4 -4 -6 -4 -4 -4 -4 -4 -4 -3 -3 -3 -3 -4 -4 -4 -4 -4 -5 -6 -8 -9 -10 -10 -10 -9 -8 -8 -8 -7 -7 -8 -8 -7 -7 -8 -14
-2 -2 -3 -4 -5 -5 -6 -7 -7 -8 -8 -8 -6 -7 -6 -5 -5 -5 -8 -6 -5 -5 -6 -6 -5 -4 -4 -4 -4 -5 -5 -5 -4 -4 -6 -8 -10 -10 -10 -10 -10 -10 -9 -8 -8 -8 -8 -7 -8 -8 -7 -7 -9 -15
-2 -2 -3 -3 -4 -5 -8 -8 -8 -9 -9 -7 -9 -8 -6 -4 -4 -7 -6 -7 -7 -7 -7 -7 -7 -6 -6 -7 -7 -7 -6 -6 -6 -8 -10 -10 -10 -9 -9 -9 -9 -9 -8 -8 -9 -9 -8 -8 -8 -8 -7 -7 -10 -16
-4 -3 -4 -4 -5 -7 -10 -10 -10 -8 -8 -8 -8 -8 -6 -5 -5 -7 -8 -8 -8 -8 -8 -8 -8 -8 -8 -8 -8 -8 -8 -9 -10 -10 -10 -10 -10 -10 -10 -9 -9 -9 -8 -8 -9 -9 -9 -8 -8 -8 -7 -7 -12 -17
-4 -3 -4 -5 -7 -7 -7 -8 -9 -8 -7 -7 -7 -8 -8 -7 -7 -7 -8 -8 -7 -7 -6 -7 -8 -8 -8 -8 -8 -9 -10 -10 -11 -10 -11 -11 -11 -10 -9 -9 -9 -8 -8 -8 -8 -9 -9 -8 -8 -8 -7 -9 -15 -16
-5 -4 -5 -9 -6 -6 -6 -5 -7 -6 -7 -7 -7 -7 -7 -7 -7 -7 -7 -8 -8 -8 -7 -7 -7 -7 -8 -9 -9 -11 -11 -11 -10 -10 -10 -11 -11 -10 -9 -9 -9 -7 -6 -6 -8 -9 -9 -8 -8 -7 -8 -14 -15 -8
-5 -4 -7 -7 -8 -6 -6 -6 -6 -6 -7 -7 -7 -7 -7 -7 -7 -7 -7 -7 -7 -8 -8 -8 -8 -7 -8 -10 -10 -11 -11 -9 -9 -9 -9 -10 -10 -9 -9 -9 -8 -5 -5 -7 -9 -9 -9 -8 -8 -10 -14 -15 -6 -7
-5 -5 -8 -10 -11 -7 -6 -6 -6 -7 -6 -7 -7 -7 -7 -7 -7 -7 -7 -7 -7 -7 -7 -7 -8 -8 -7 -8 -10 -9 -9 -9 -9 -8 -8 -9 -9 -9 -9 -8 -8 -5 -5 -7 -10 -10 -9 -9 -12 -16 -15 -5 -8 -16
-6 -6 -7 -9 -9 -10 -8 -7 -7 -7 -8 -8 -7 -7 -7 -7 -6 -7 -7 -7 -7 -7 -7 -7 -7 -7 -7 -8 -9 -10 -9 -9 -8 -8 -8 -9 -9 -9 -9 -9 -8 -4 -4 -7 -10 -10 -10 -12 -16 -11 -7 -11 -16 -16

GFSWCAN_850_dewp_099.txt.gz
Dewpoint
5 5 5 4 3 -0 -4 -1 -1 -11 -11 -1 -1 -2 -2 -2 -2 -2 -2 -1 -1 -2 -3 -3 -3 -1 -1 -0 -2 -3 -3 -2 -2 -2 -1 -2 -1 -3 -2 -4 -5 -5 -3 -1 -1 -0 -4 -4 -3 -5 -8 -6 -4 -2
5 5 5 4 4 3 1 -1 -0 -6 -12 -4 -0 -1 -2 -2 -2 -2 -2 -2 -2 -2 -2 -3 -3 -3 -1 -1 -1 -0 -2 -1 -1 -2 -2 -2 -0 -3 -4 -3 -6 -3 -5 -7 -4 -5 -8 -4 -5 -5 -6 -5 -5 -5
4 5 5 5 4 4 3 3 0 0 -11 -12 -1 -1 -2 -2 -1 -2 -2 -2 -1 -1 -2 -2 -3 -3 -3 -2 -1 -1 -0 -0 -0 -1 -2 -2 -0 -2 -1 -2 -4 -5 -5 -3 -4 -7 -5 -6 -6 -5 -4 -5 -5 -5
3 4 5 5 5 4 4 3 2 1 -5 -12 -10 -1 -1 -2 -2 -2 -2 -3 -2 -1 -1 -3 -3 -3 -3 -2 -1 -1 -1 -1 -1 -0 -1 -2 -1 -3 -3 -4 -4 -6 -4 -4 -3 -5 -6 -7 -7 -7 -7 -5 -4 -4
3 4 4 5 5 5 4 3 2 0 1 -11 -12 -6 -1 -1 -2 -2 -2 -2 -2 -2 -1 -2 -3 -3 -3 -2 -2 -1 -1 -1 -1 -1 -2 -1 -2 -3 -4 -4 -3 -4 -4 -4 -4 -7 -7 -8 -7 -6 -6 -6 -5 -4
2 3 4 5 5 5 5 4 2 1 1 -8 -10 -12 -3 -1 -1 -1 -1 -2 -2 -5 -3 -2 -3 -2 -3 -2 -2 -2 -1 -1 -1 -1 -1 -1 -1 -2 -2 -2 -4 -4 -4 -5 -6 -6 -6 -6 -6 -6 -6 -6 -5 -3
-4 2 4 4 5 5 5 4 4 1 1 -1 -10 -11 -6 -0 -0 -1 -2 -3 -4 -7 -5 -3 -3 -2 -2 -2 -2 -2 -2 -1 -1 -1 -2 -2 -2 -1 -2 -1 -4 -5 -6 -5 -5 -5 -4 -5 -5 -5 -5 -4 -4 -3
-5 -4 1 4 4 5 5 4 4 2 1 1 -8 -10 -6 0 0 -0 -1 -1 -1 -1 -5 -6 -5 -5 -2 -2 -2 -2 -2 -2 -2 -2 -2 -2 -2 -2 -1 -2 -3 -3 -4 -4 -4 -4 -4 -4 -4 -4 -4 -4 -3 -3
-2 -3 -3 -1 4 4 4 4 4 3 2 1 -7 -8 -5 0 0 -1 -1 -1 -1 -1 -6 -5 -5 -5 -3 -3 -2 -2 -2 -3 -2 -3 -3 -3 -3 -1 -2 -2 -3 -4 -4 -5 -5 -5 -5 -5 -4 -4 -4 -3 -3 -3
-3 -2 -1 -1 0 3 4 3 4 3 2 1 -7 -6 -1 -0 -1 -1 -2 -2 -2 -2 -2 -5 -5 -6 -3 -3 -2 -3 -3 -3 -5 -3 -3 -2 -2 -3 -4 -4 -4 -4 -4 -4 -4 -6 -7 -5 -4 -4 -4 -3 -3 -3
-2 -2 -1 -0 -0 1 3 3 3 2 1 -1 -4 -5 -2 -1 -1 -2 -3 -3 -3 -4 -4 -4 -5 -4 -4 -4 -3 -2 -5 -5 -4 -4 -3 -3 -2 -4 -5 -6 -6 -5 -6 -7 -9 -8 -7 -5 -4 -4 -4 -4 -4 -4
-7 -3 -2 -1 -0 1 2 3 3 2 1 0 -2 -2 -1 -2 -3 -5 -6 -6 -5 -3 -5 -5 -5 -4 -4 -3 -3 -3 -4 -5 -3 -5 -3 -2 -4 -6 -7 -8 -9 -10 -11 -9 -6 -5 -5 -5 -4 -5 -6 -4 -4 -4
-7 -7 -4 -1 -1 0 2 3 3 2 1 -0 -1 -0 -3 -3 -5 -3 -2 -5 -5 -5 -5 -4 -4 -4 -3 -3 -3 -4 -3 -1 -5 -7 -4 -5 -7 -9 -10 -13 -14 -10 -8 -5 -6 -7 -6 -5 -5 -6 -8 -7 -5 -5
-7 -8 -7 -2 -0 1 2 3 2 2 -0 -1 -1 -2 -3 -6 -5 -4 -4 -4 -5 -6 -5 -4 -4 -4 -4 -3 -4 -4 -4 -5 -5 -3 -4 -6 -8 -11 -16 -16 -14 -11 -11 -8 -5 -5 -5 -5 -5 -7 -8 -7 -6 -6
-8 -7 -8 -7 -6 -2 2 2 2 1 -1 -1 -1 -1 -3 -5 -5 -6 -5 -7 -7 -6 -4 -5 -5 -5 -5 -4 -4 -6 -5 -4 -5 -5 -6 -9 -13 -16 -17 -17 -16 -14 -12 -10 -9 -6 -5 -5 -6 -7 -8 -7 -6 -7
-8 -7 -7 -8 -8 -2 -0 2 1 -0 -0 -1 -2 -4 -5 -6 -6 -6 -6 -6 -6 -5 -5 -6 -6 -6 -5 -5 -5 -4 -5 -5 -5 -6 -8 -12 -16 -16 -15 -15 -15 -14 -14 -13 -12 -11 -9 -8 -8 -7 -7 -7 -7 -9
-8 -4 -6 -7 -6 -0 1 1 -0 -1 -1 -2 -2 -1 -4 -5 -5 -6 -6 -6 -4 -4 -3 -4 -4 -4 -6 -7 -6 -5 -4 -4 -8 -10 -10 -13 -17 -15 -14 -12 -12 -13 -12 -11 -11 -11 -11 -11 -9 -8 -8 -8 -8 -9
-5 -5 -6 -5 -2 -1 1 0 -1 -1 -2 -1 -1 -2 -2 -3 -5 -4 -5 -5 -3 -4 -5 -4 -8 -5 -5 -6 -6 -5 -7 -9 -9 -10 -12 -16 -17 -16 -15 -14 -13 -13 -11 -11 -11 -11 -10 -10 -10 -9 -8 -9 -9 -10
-7 -6 -6 -6 -1 -0 -0 -1 -1 -2 -2 -1 -1 -1 -1 -2 -3 -4 -4 -3 -3 -4 -6 -7 -5 -7 -7 -7 -5 -10 -9 -7 -12 -12 -14 -17 -18 -17 -17 -15 -14 -12 -10 -9 -11 -11 -10 -10 -10 -9 -8 -8 -8 -9
-7 -6 -5 -3 -1 -0 -1 -1 -2 -2 -2 -1 -1 -1 -1 -2 -3 -3 -3 -2 -2 -2 -3 -3 -5 -8 -11 -12 -12 -11 -8 -8 -10 -10 -10 -11 -14 -14 -13 -13 -13 -11 -9 -9 -9 -9 -10 -11 -11 -10 -9 -7 -7 -8
-6 -5 -5 -2 -1 -1 -1 -2 -2 -2 -2 -2 -1 -1 -2 -2 -3 -3 -3 -2 -3 -3 -4 -3 -3 -4 -5 -7 -9 -10 -9 -10 -9 -9 -9 -10 -10 -10 -9 -8 -9 -10 -9 -9 -9 -7 -7 -9 -10 -11 -10 -8 -7 -6
-5 -4 -4 -3 -2 -2 -1 -1 -2 -2 -2 -2 -3 -1 -3 -5 -4 -3 -3 -3 -3 -2 -3 -3 -3 -3 -3 -4 -4 -4 -4 -5 -5 -7 -8 -8 -8 -7 -6 -6 -7 -8 -7 -6 -5 -5 -6 -6 -7 -9 -9 -9 -7 -6
-4 -3 -3 -2 -2 -2 -3 -3 -2 -2 -3 -3 -2 -2 -3 -5 -4 -3 -3 -3 -3 -3 -3 -3 -3 -3 -3 -3 -3 -3 -3 -4 -4 -4 -4 -4 -4 -4 -4 -4 -5 -5 -5 -5 -7 -7 -8 -7 -7 -7 -7 -8 -8 -6
-3 -2 -2 -2 -2 -4 -3 -4 -3 -3 -3 -4 -3 -4 -6 -7 -4 -4 -3 -4 -4 -4 -4 -3 -3 -3 -3 -3 -3 -3 -3 -3 -3 -3 -3 -4 -4 -4 -4 -4 -4 -5 -7 -8 -9 -9 -8 -7 -7 -7 -7 -7 -8 -6
-3 -3 -2 -3 -3 -5 -5 -6 -8 -6 -6 -9 -5 -6 -7 -6 -5 -4 -6 -6 -5 -4 -4 -4 -4 -4 -3 -3 -3 -3 -3 -3 -3 -3 -4 -4 -4 -4 -4 -4 -6 -8 -8 -9 -10 -9 -9 -8 -7 -7 -7 -7 -8 -7
-3 -3 -3 -5 -6 -5 -6 -7 -6 -8 -9 -9 -6 -8 -6 -5 -4 -4 -7 -6 -5 -6 -5 -5 -5 -4 -4 -4 -3 -4 -5 -4 -4 -3 -4 -4 -4 -4 -5 -6 -9 -11 -9 -9 -9 -9 -8 -8 -8 -8 -7 -8 -8 -7
-2 -3 -3 -3 -4 -5 -7 -8 -8 -10 -9 -6 -9 -7 -6 -4 -5 -7 -6 -7 -7 -7 -7 -6 -6 -5 -6 -6 -6 -6 -6 -5 -4 -5 -5 -5 -5 -6 -9 -10 -10 -10 -9 -9 -8 -8 -9 -9 -8 -8 -7 -8 -8 -7
-4 -4 -5 -4 -5 -6 -10 -10 -9 -8 -9 -9 -8 -8 -6 -6 -5 -7 -8 -8 -8 -8 -8 -8 -7 -4 -5 -6 -6 -6 -6 -6 -6 -6 -5 -7 -10 -11 -10 -10 -10 -9 -9 -9 -8 -8 -8 -9 -9 -8 -8 -8 -8 -7
-4 -4 -4 -5 -7 -7 -7 -9 -9 -8 -7 -8 -8 -8 -8 -7 -7 -7 -7 -7 -7 -8 -8 -8 -8 -7 -7 -8 -8 -8 -7 -7 -8 -8 -8 -11 -12 -11 -11 -11 -10 -9 -9 -9 -8 -8 -8 -8 -9 -8 -8 -8 -7 -7
-5 -4 -6 -8 -6 -5 -6 -5 -6 -6 -7 -7 -7 -7 -7 -7 -7 -7 -7 -7 -7 -7 -7 -7 -8 -8 -7 -7 -7 -7 -8 -8 -9 -10 -11 -11 -10 -10 -10 -10 -10 -9 -9 -8 -7 -7 -8 -8 -8 -8 -8 -7 -7 -9
-6 -4 -5 -7 -9 -6 -6 -6 -6 -6 -6 -6 -6 -7 -6 -6 -7 -8 -7 -8 -7 -7 -7 -7 -7 -7 -7 -7 -8 -7 -8 -9 -9 -11 -11 -10 -9 -9 -9 -9 -9 -9 -9 -7 -6 -6 -7 -8 -9 -9 -8 -7 -8 -13
-5 -5 -8 -9 -10 -7 -6 -6 -6 -6 -6 -6 -6 -6 -6 -6 -7 -7 -9 -7 -7 -7 -7 -7 -7 -7 -7 -7 -7 -7 -7 -8 -10 -10 -10 -9 -9 -8 -9 -9 -9 -9 -8 -6 -5 -6 -7 -9 -9 -8 -7 -10 -14 -14
-5 -6 -8 -8 -10 -10 -8 -7 -8 -9 -8 -9 -7 -7 -7 -7 -7 -7 -8 -7 -7 -7 -7 -7 -7 -7 -7 -7 -7 -7 -7 -7 -8 -10 -9 -9 -9 -8 -8 -9 -9 -9 -8 -6 -5 -6 -9 -9 -8 -9 -12 -15 -10 -6

GFSWCAN_850_dewp_102.txt.gz
Dewpoint
4 4 4 5 4 4 3 2 1 -1 -8 -12 -3 -1 -2 -2 -2 -3 -4 -3 -1 -1 -3 -3 -3 -2 -1 -1 -1 -3 -1 -2 -1 -2 -2 -3 -2 -4 -2 -4 -5 -5 -3 -2 -1 0 -1 -5 -2 -5 -8 -9 -4 -2
3 3 4 5 5 4 4 3 3 2 -1 -11 -9 -1 -1 -2 -2 -3 -3 -3 -2 -2 -2 -3 -3 -3 -3 -2 -1 -1 -2 -1 -1 -3 -2 -2 -1 -2 -4 -6 -6 -4 -7 -7 -4 -6 -7 -4 -4 -5 -7 -5 -5 -4
0 2 4 4 4 5 4 4 3 3 0 -6 -11 -5 -1 -2 -2 -2 -2 -2 -2 -2 -2 -2 -3 -3 -3 -2 -2 -0 -1 -1 -1 -1 -2 -1 -1 -3 -2 -3 -3 -5 -6 -5 -5 -8 -6 -7 -7 -7 -6 -5 -5 -5
0 1 4 4 4 4 5 5 4 3 1 -0 -10 -11 -4 -1 -2 -2 -1 -2 -3 -2 -0 -2 -4 -3 -3 -3 -2 -1 -1 -1 -1 -1 -0 -1 -1 -3 -3 -4 -5 -7 -5 -5 -5 -6 -7 -6 -6 -7 -6 -7 -6 -4
-3 -1 1 3 4 4 5 5 4 4 1 -0 -4 -10 -11 -3 -1 -1 -2 -2 -2 -3 -1 -2 -3 -3 -3 -3 -2 -2 -1 -1 -1 -0 -0 0 -1 -2 -3 -3 -2 -5 -5 -5 -6 -8 -8 -8 -8 -7 -6 -6 -6 -5
-6 -5 -3 1 3 4 5 5 5 4 4 -0 -0 -9 -10 -8 -0 0 -1 -2 -2 -3 -4 -1 -3 -3 -3 -3 -2 -2 -1 -1 -1 -0 -0 -1 -1 -2 0 -0 -3 -4 -5 -6 -7 -7 -7 -7 -6 -6 -6 -6 -6 -5
-8 -7 -7 -5 -1 3 4 4 4 4 4 2 1 -5 -10 -10 -1 0 -1 -3 -5 -6 -6 -2 -2 -2 -2 -2 -2 -2 -2 -1 -1 -1 -1 -1 -1 -1 0 -1 -4 -4 -5 -5 -5 -5 -4 -5 -5 -5 -5 -5 -5 -4
-8 -7 -6 -4 -4 -1 4 4 4 4 4 2 1 0 -9 -10 -4 -0 -0 -0 -0 -1 -3 -0 -1 -5 -2 -2 -2 -2 -2 -1 -1 -1 -2 -2 -2 -1 1 -2 -2 -3 -3 -4 -4 -5 -5 -5 -4 -4 -4 -4 -4 -3
-5 -4 -3 -3 -3 -2 -1 3 4 4 3 2 2 1 -9 -8 -3 -1 -1 -1 -1 -1 -4 -3 -1 0 -3 -3 -2 -2 -2 -1 -2 -2 -2 -2 -1 -0 -1 -2 -2 -3 -4 -3 -4 -4 -5 -5 -6 -5 -5 -4 -4 -3
-7 -4 -4 -3 -3 -2 -1 0 3 3 3 1 1 -3 -7 -1 -1 -1 -2 -2 -1 -1 -2 -3 -5 -2 -3 -2 -2 -2 -2 -1 0 -2 -3 -2 -1 -3 -3 -4 -4 -4 -4 -4 -4 -4 -4 -6 -9 -6 -5 -4 -4 -3
-7 -7 -4 -2 -2 -1 -0 0 2 3 2 1 0 -2 -3 -1 -1 -2 -2 -2 -2 -2 -2 -3 -4 -3 -4 -1 -1 -2 -1 -2 0 -1 -1 -0 -1 -3 -4 -5 -7 -7 -5 -5 -5 -6 -8 -9 -8 -4 -4 -4 -4 -4
-8 -7 -7 -6 -3 -2 -1 -0 1 3 2 1 0 -1 -1 -2 -2 -2 -2 -4 -3 -1 -4 -4 -4 -4 -4 -4 -2 -3 -1 -3 -0 -4 -2 -1 -2 -5 -6 -7 -9 -11 -11 -12 -12 -9 -7 -6 -7 -5 -5 -5 -4 -4
-9 -9 -7 -7 -6 -5 -2 -1 1 2 2 0 -0 -1 -1 -2 -2 -1 -1 -1 -2 -4 -5 -4 -3 -4 -4 -3 -3 -3 -1 -1 -5 -2 -2 -2 -5 -9 -10 -10 -12 -13 -11 -8 -6 -8 -7 -6 -6 -5 -5 -7 -7 -5
-10 -9 -9 -8 -7 -7 -4 -2 1 1 1 0 -1 -1 -1 -1 -3 -2 -2 -1 -4 -5 -5 -4 -4 -3 -4 -3 -3 -1 -3 -4 -1 -1 -1 -2 -7 -9 -10 -13 -14 -11 -10 -8 -6 -7 -7 -6 -5 -5 -6 -7 -8 -7
-10 -11 -10 -9 -8 -8 -7 -3 1 1 0 -0 -1 0 -1 -3 -5 -5 -5 -5 -6 -6 -5 -4 -5 -5 -3 -2 -4 -4 -3 -2 -2 -1 -2 -7 -8 -13 -17 -17 -15 -13 -13 -13 -13 -11 -9 -8 -6 -6 -6 -7 -8 -7
-9 -11 -11 -10 -10 -8 -8 -5 0 0 -0 -0 -1 -1 -3 -4 -4 -5 -6 -5 -6 -5 -5 -6 -4 -3 -2 -3 -3 -2 -3 -2 -2 -2 -8 -9 -14 -17 -16 -15 -15 -14 -13 -12 -12 -12 -11 -12 -12 -11 -9 -9 -8 -7
-8 -6 -9 -10 -8 -5 -3 0 1 -1 -1 -2 -2 -1 -2 -4 -4 -5 -5 -6 -5 -4 -2 -3 -2 -2 -5 -3 -3 -4 -3 -2 -7 -9 -10 -11 -15 -17 -15 -14 -13 -13 -12 -11 -11 -10 -10 -10 -10 -10 -10 -10 -9 -7
-7 -7 -9 -10 -6 -2 -1 -1 -1 -2 -3 -2 -2 -2 -2 -2 -3 -5 -6 -6 -4 -4 -4 -2 -5 -4 -3 -3 -3 -4 -7 -8 -8 -7 -7 -9 -12 -16 -16 -15 -13 -13 -12 -11 -11 -11 -11 -11 -10 -10 -9 -9 -8 -8
-8 -8 -9 -10 -5 -3 -3 -1 -1 -2 -2 -2 -2 -2 -2 -2 -2 -3 -4 -5 -5 -4 -3 -4 -3 -2 -5 -6 -5 -9 -10 -6 -5 -7 -9 -10 -13 -15 -16 -16 -16 -15 -15 -14 -12 -10 -9 -10 -10 -10 -10 -10 -9 -8
-9 -9 -10 -9 -4 -3 -3 -2 -2 -2 -2 -3 -2 -1 -1 -2 -2 -2 -3 -4 -4 -3 -3 -3 -3 -4 -7 -7 -8 -10 -10 -10 -7 -6 -5 -3 -1 -3 -10 -10 -12 -15 -10 -6 -7 -11 -10 -9 -9 -9 -8 -9 -10 -9
-7 -8 -10 -9 -5 -2 -2 -2 -3 -2 -2 -2 -2 -1 -1 -2 -2 -2 -3 -3 -3 -3 -2 -3 -3 -4 -4 -5 -6 -7 -9 -10 -10 -9 -7 -5 -3 -3 -3 -5 -6 -10 -8 -5 -7 -8 -9 -9 -8 -6 -6 -6 -9 -10
-6 -8 -8 -9 -4 -2 -3 -4 -2 -2 -3 -3 -2 -2 -2 -4 -4 -3 -3 -3 -3 -2 -3 -3 -3 -3 -3 -3 -4 -4 -4 -4 -4 -4 -4 -4 -5 -5 -6 -7 -8 -8 -7 -6 -6 -6 -5 -6 -6 -5 -6 -6 -8 -9
-6 -6 -4 -4 -3 -3 -3 -3 -3 -3 -3 -3 -3 -2 -2 -4 -4 -3 -3 -4 -3 -4 -4 -3 -4 -4 -3 -3 -3 -3 -3 -3 -3 -3 -4 -4 -4 -4 -4 -4 -4 -4 -4 -4 -4 -4 -4 -5 -6 -7 -8 -7 -7 -8
-5 -4 -5 -5 -3 -3 -3 -4 -4 -3 -3 -3 -3 -3 -4 -4 -4 -4 -3 -4 -4 -5 -4 -4 -4 -3 -3 -3 -3 -3 -3 -3 -3 -3 -3 -3 -3 -3 -3 -3 -3 -4 -4 -4 -4 -4 -5 -7 -8 -8 -8 -7 -7 -7
-4 -5 -4 -3 -3 -4 -5 -4 -4 -4 -4 -6 -5 -5 -6 -5 -4 -4 -5 -5 -5 -5 -5 -5 -4 -4 -3 -3 -3 -3 -3 -3 -3 -3 -3 -3 -3 -3 -3 -3 -4 -4 -4 -4 -4 -6 -9 -9 -9 -8 -8 -7 -7 -7
-4 -6 -4 -4 -5 -6 -6 -4 -5 -7 -8 -6 -6 -8 -6 -5 -4 -4 -6 -6 -6 -6 -7 -7 -6 -5 -4 -4 -4 -4 -5 -4 -3 -3 -3 -4 -3 -3 -3 -3 -4 -4 -5 -6 -8 -9 -9 -9 -8 -8 -8 -8 -7 -7
-5 -6 -4 -5 -5 -5 -7 -8 -8 -9 -8 -7 -8 -6 -5 -4 -5 -6 -8 -8 -8 -8 -8 -7 -7 -7 -7 -6 -2 -2 -3 -4 -4 -4 -4 -4 -4 -4 -4 -4 -5 -5 -7 -9 -9 -9 -9 -8 -8 -9 -8 -8 -7 -7
-5 -6 -4 -4 -4 -5 -8 -8 -8 -8 -8 -8 -8 -6 -4 -4 -5 -7 -8 -9 -8 -8 -8 -8 -8 -7 -7 -7 -5 -6 -4 -3 -5 -6 -5 -5 -5 -6 -5 -7 -9 -10 -9 -9 -9 -9 -9 -8 -8 -9 -9 -8 -8 -8
-5 -8 -5 -5 -6 -7 -6 -8 -8 -7 -7 -8 -6 -6 -7 -6 -7 -7 -8 -8 -8 -8 -8 -10 -12 -11 -9 -8 -7 -7 -7 -6 -7 -7 -7 -7 -8 -9 -11 -11 -11 -10 -10 -9 -9 -9 -8 -8 -8 -8 -8 -8 -8 -8
-6 -7 -6 -7 -5 -5 -6 -6 -6 -7 -7 -7 -7 -7 -8 -8 -8 -7 -7 -8 -9 -11 -14 -14 -15 -14 -12 -8 -8 -7 -7 -7 -6 -6 -7 -8 -8 -11 -11 -11 -11 -11 -10 -9 -9 -9 -8 -8 -7 -8 -8 -8 -8 -8
-8 -5 -5 -6 -7 -7 -7 -7 -7 -7 -6 -7 -7 -7 -7 -7 -8 -9 -9 -11 -13 -13 -12 -13 -12 -13 -11 -11 -10 -9 -8 -7 -7 -7 -6 -6 -8 -9 -10 -10 -10 -10 -10 -9 -9 -8 -7 -6 -7 -8 -8 -8 -8 -7
-6 -5 -7 -6 -7 -7 -7 -7 -7 -6 -6 -6 -6 -7 -7 -7 -7 -7 -9 -10 -11 -11 -12 -12 -11 -13 -12 -10 -9 -8 -9 -7 -7 -7 -6 -5 -5 -8 -10 -10 -9 -9 -9 -9 -8 -7 -6 -6 -7 -8 -8 -8 -8 -8
-6 -6 -7 -8 -10 -10 -9 -7 -9 -9 -9 -9 -7 -6 -6 -7 -7 -8 -9 -10 -11 -13 -14 -13 -11 -10 -9 -8 -8 -7 -7 -7 -7 -7 -7 -7 -6 -7 -9 -6 -4 -8 -9 -9 -8 -7 -6 -6 -8 -9 -8 -8 -8 -11

GFSWCAN_850_dewp_105.txt.gz
Dewpoint
4 4 3 3 4 4 4 4 3 3 -0 -2 -12 -5 -1 -2 -2 -3 -3 -3 -2 0 -1 -4 -5 -2 -1 -1 -4 -2 -1 -1 -1 -2 -4 -5 -3 -5 -4 -6 -6 -5 -3 -1 -2 -1 1 -4 -3 -5 -7 -7 -4 -3
2 1 0 2 3 4 4 5 4 4 2 -0 -6 -13 -4 -1 -2 -1 -3 -3 -2 -2 -0 -3 -4 -4 -4 -3 -2 -1 -1 -2 -2 -3 -4 -4 -4 -4 -6 -8 -7 -4 -8 -8 -6 -5 -7 -4 -7 -5 -6 -5 -4 -4
-0 -1 -1 0 2 4 3 4 4 4 4 0 -0 -10 -13 -5 -2 -2 -1 -2 -2 -1 -1 -1 -2 -4 -4 -3 -3 -2 -1 -1 -0 -0 -2 -3 -2 -4 -4 -5 -6 -7 -8 -5 -7 -9 -8 -8 -7 -6 -4 -4 -5 -4
-2 -3 -3 -1 2 4 3 4 4 4 4 3 -1 -2 -11 -13 -5 -1 -1 -1 -1 -2 0 -1 -4 -4 -4 -3 -2 -2 -1 -1 -1 -1 -1 -1 -2 -4 -4 -6 -4 -7 -6 -6 -7 -8 -8 -8 -7 -7 -7 -7 -6 -6
-3 -3 -4 -4 -2 1 4 3 4 4 4 4 2 -0 -5 -11 -12 -4 -1 -1 -1 -1 0 -1 -2 -3 -3 -3 -3 -2 -1 -0 -0 0 1 0 -2 -1 -3 -3 -2 -6 -6 -5 -6 -8 -8 -9 -7 -7 -6 -6 -6 -6
-5 -4 -4 -6 -6 -4 2 3 4 4 4 4 4 1 -0 -8 -12 -5 0 -2 -2 -1 -2 -0 -2 -3 -3 -3 -2 -2 -1 -0 -0 0 -0 -1 -0 -2 -1 -2 -5 -5 -5 -7 -7 -7 -7 -7 -7 -7 -6 -6 -5 -6
-8 -9 -9 -8 -6 -6 -5 2 3 4 4 4 4 2 1 -4 -10 -6 0 -3 -5 -4 -4 -0 -0 -3 -2 -2 -1 -1 -1 -0 -0 -0 -0 -1 -1 -1 0 -1 -7 -4 -4 -4 -5 -5 -5 -5 -5 -5 -5 -5 -5 -5
-10 -9 -7 -6 -5 -4 -3 -4 2 4 4 3 3 3 2 -0 -7 -8 -7 -1 -1 -1 -1 2 2 -4 -3 -2 -2 -2 -1 -1 -1 -1 -1 -1 -1 -1 1 -2 -4 -4 -4 -4 -4 -4 -5 -5 -5 -5 -5 -5 -4 -4
-8 -7 -5 -3 -2 -2 -2 -3 -1 2 3 3 3 2 2 -2 -5 -3 -3 -2 -0 -1 1 -0 1 3 -3 -2 -2 -2 -1 -1 -1 -1 -1 -1 -1 2 -0 -2 -2 -2 -2 -3 -4 -3 -4 -4 -4 -5 -6 -6 -4 -4
-7 -7 -7 -5 -3 -3 -2 -2 -1 2 3 3 2 2 -3 -3 -2 -1 -1 -1 -1 -1 -1 -1 -2 -0 -3 -2 -2 -1 -2 -1 0 -1 -2 -1 -1 -3 -2 -2 -2 -2 -3 -3 -3 -4 -5 -5 -5 -5 -7 -8 -5 -4
-10 -7 -7 -7 -6 -4 -3 -1 -0 1 2 2 1 1 -0 -2 -1 -1 -1 -1 -1 -1 -1 -1 -1 -1 -4 -1 -1 -2 1 -1 1 0 -1 0 0 -2 -4 -4 -3 -3 -4 -4 -3 -3 -4 -4 -4 -6 -7 -5 -4 -4
-12 -11 -9 -7 -7 -6 -4 -2 0 0 2 1 2 1 -0 -0 -1 -1 -0 -2 -2 -0 -1 -2 -3 -3 -3 -4 -2 -2 -0 -2 1 -3 -1 -0 -1 -4 -5 -6 -7 -9 -12 -11 -7 -6 -7 -9 -8 -8 -7 -4 -4 -4
-14 -12 -11 -10 -8 -7 -6 -3 -0 1 1 1 1 0 -1 -1 -0 0 -0 -0 -0 -2 -2 -3 -2 -3 -4 -3 -2 -2 -0 -0 -4 -2 -1 -1 -3 -6 -9 -8 -10 -12 -13 -12 -10 -8 -9 -9 -7 -7 -6 -5 -6 -7
-12 -11 -11 -10 -10 -9 -7 -6 1 1 1 0 -1 -0 -0 1 -1 -0 -1 1 -1 -3 -3 -2 -2 -3 -3 -2 -3 -0 -2 -4 -0 -0 -0 -0 -4 -7 -8 -10 -13 -13 -12 -10 -9 -10 -9 -8 -8 -6 -5 -6 -6 -7
-9 -8 -9 -11 -11 -10 -8 -7 -2 0 0 -0 -1 1 -0 -1 -2 -3 -3 -4 -5 -4 -4 -4 -3 -4 -2 -1 -3 -2 -2 -1 -1 -0 1 -3 -9 -9 -10 -15 -16 -13 -13 -12 -12 -12 -11 -10 -9 -8 -8 -7 -6 -7
-10 -9 -8 -9 -11 -11 -9 -6 -4 -0 -0 -0 -1 -1 -1 -1 -1 -3 -4 -4 -5 -5 -4 -4 -2 -2 -1 -2 -2 -1 -1 -0 1 1 -7 -9 -10 -13 -16 -16 -15 -15 -13 -13 -12 -11 -10 -10 -10 -10 -10 -9 -9 -9
-9 -4 -6 -8 -9 -8 -5 -2 -1 -1 -1 -1 -2 -2 -1 -1 -2 -2 -2 -3 -5 -4 -1 -1 -0 -1 -4 -2 -2 -3 -1 1 -5 -7 -8 -8 -7 -10 -14 -15 -14 -14 -13 -12 -11 -10 -10 -10 -10 -9 -9 -9 -7 -9
-5 -6 -7 -8 -8 -6 -4 -2 -2 -1 -3 -2 -2 -2 -2 -1 -2 -2 -4 -4 -5 -3 -3 0 -1 -2 -1 -1 -1 -2 -5 -9 -9 -8 -5 -7 -10 -11 -13 -16 -15 -15 -13 -12 -11 -11 -11 -10 -10 -10 -10 -8 -9 -9
-6 -7 -8 -8 -8 -6 -5 -3 -3 -2 -2 -3 -3 -2 -1 -2 -2 -2 -3 -3 -4 -4 -3 -2 -0 -1 -1 -3 -3 -4 -5 -8 -8 -7 -7 -8 -5 -6 -7 -5 -2 -1 -2 -14 -15 -13 -13 -12 -10 -6 -6 -6 -9 -9
-6 -6 -7 -9 -6 -5 -3 -4 -2 -2 -2 -5 -4 -3 -2 -3 -3 -3 -2 -3 -3 -3 -2 -2 -2 -3 -3 -4 -4 -5 -5 -6 -6 -5 -7 -9 -9 -8 -7 -4 -4 -5 -4 -3 -2 -1 -2 -11 -8 -3 -2 -2 -7 -9
-5 -5 -5 -6 -6 -5 -4 -3 -3 -3 -3 -4 -4 -2 -2 -2 -2 -2 -2 -3 -3 -3 -2 -3 -3 -4 -4 -4 -4 -4 -4 -5 -6 -6 -7 -7 -7 -7 -7 -7 -6 -6 -5 -4 -3 -2 -4 -6 -6 -5 -5 -1 -1 -8
-4 -5 -4 -5 -4 -5 -5 -6 -3 -3 -4 -3 -3 -3 -2 -2 -2 -3 -2 -3 -3 -3 -4 -4 -4 -4 -4 -4 -4 -4 -3 -3 -3 -3 -3 -4 -4 -4 -4 -4 -4 -4 -4 -4 -4 -4 -6 -6 -5 -4 -3 -4 -3 -6
-4 -4 -4 -4 -4 -4 -5 -6 -3 -4 -3 -4 -3 -2 -2 -2 -3 -3 -2 -3 -3 -4 -5 -6 -7 -8 -4 -4 -4 -4 -4 -3 -3 -3 -3 -3 -3 -3 -3 -3 -4 -4 -4 -4 -4 -4 -4 -4 -4 -4 -5 -5 -6 -7
-4 -4 -4 -4 -5 -5 -4 -4 -3 -4 -3 -3 -3 -4 -4 -3 -4 -4 -2 -4 -5 -6 -6 -7 -6 -4 -4 -3 -3 -4 -5 -3 -2 -3 -3 -3 -3 -3 -3 -3 -3 -3 -3 -3 -4 -4 -4 -4 -4 -4 -5 -6 -7 -8
-4 -4 -4 -4 -4 -4 -4 -4 -3 -3 -3 -3 -4 -3 -4 -5 -4 -3 -3 -6 -6 -5 -6 -6 -4 -3 -3 -4 -4 -4 -3 -3 -3 -3 -3 -2 -2 -2 -2 -3 -3 -3 -3 -3 -3 -4 -4 -4 -4 -4 -5 -7 -8 -8
-4 -6 -4 -5 -5 -4 -5 -5 -4 -4 -5 -5 -4 -5 -5 -4 -3 -3 -5 -8 -7 -7 -6 -5 -6 -5 -5 -6 -5 -6 -6 -3 -2 -3 -2 -3 -3 -3 -3 -3 -3 -3 -3 -3 -4 -4 -4 -4 -5 -6 -8 -8 -8 -7
-6 -5 -5 -7 -7 -5 -5 -7 -7 -6 -5 -5 -4 -5 -5 -4 -3 -4 -8 -8 -8 -8 -9 -9 -8 -7 -7 -7 -8 -8 -8 -7 -4 -3 -3 -1 -3 -4 -4 -3 -4 -4 -4 -4 -5 -6 -8 -8 -8 -8 -8 -8 -8 -8
-6 -6 -5 -6 -5 -5 -6 -6 -6 -6 -5 -6 -6 -5 -3 -3 -5 -9 -10 -10 -9 -8 -8 -8 -8 -8 -8 -10 -9 -10 -11 -10 -8 -7 -5 -4 -4 -5 -6 -6 -5 -5 -5 -4 -7 -8 -8 -8 -8 -8 -8 -8 -8 -8
-5 -7 -7 -7 -6 -6 -6 -5 -5 -6 -8 -8 -6 -5 -5 -8 -9 -9 -9 -10 -13 -10 -9 -9 -9 -10 -12 -11 -11 -12 -14 -12 -11 -8 -7 -7 -5 -4 -3 -6 -9 -9 -7 -8 -9 -9 -8 -8 -8 -8 -8 -8 -8 -8
-6 -7 -7 -7 -7 -6 -8 -8 -8 -10 -8 -7 -7 -7 -7 -7 -9 -9 -10 -10 -9 -8 -8 -8 -9 -10 -10 -10 -11 -14 -17 -16 -13 -9 -9 -8 -7 -5 -2 -3 -9 -10 -10 -10 -10 -9 -8 -8 -8 -8 -8 -8 -8 -8
-9 -8 -7 -8 -7 -8 -9 -9 -8 -8 -8 -7 -7 -7 -7 -7 -8 -8 -8 -9 -8 -7 -8 -8 -10 -13 -11 -12 -13 -12 -15 -13 -11 -10 -9 -9 -8 -6 -3 -3 -8 -10 -10 -10 -10 -9 -9 -8 -8 -8 -7 -8 -8 -8
-8 -7 -7 -7 -7 -8 -8 -9 -8 -8 -7 -7 -7 -7 -7 -7 -7 -7 -8 -8 -8 -9 -10 -10 -10 -14 -17 -16 -16 -14 -11 -10 -8 -8 -7 -8 -7 -7 -7 -5 -6 -9 -8 -7 -8 -9 -9 -9 -8 -7 -7 -8 -8 -8
-6 -6 -7 -7 -7 -8 -9 -9 -8 -8 -8 -8 -7 -7 -6 -6 -6 -7 -8 -8 -9 -9 -10 -12 -13 -13 -12 -12 -11 -10 -9 -9 -8 -8 -7 -7 -7 -7 -7 -6 -3 -6 -8 -2 -1 -5 -9 -8 -7 -6 -7 -8 -8 -8

GFSWCAN_850_dewp_108.txt.gz
Dewpoint
4 4 3 2 0 1 4 4 4 4 3 0 -2 -11 -9 -2 -3 -4 -3 -3 -2 1 -1 -2 -4 -4 -3 -3 -3 -2 -1 -0 -0 -0 -3 -3 -2 -4 -4 -6 -3 -1 0 1 0 1 1 -5 -3 -5 -7 -6 -5 -5
4 4 2 -1 -1 -0 2 3 4 4 4 3 -0 -3 -12 -10 -2 -3 -3 -3 -3 -2 -3 -3 -4 -4 -3 -3 -2 -2 -1 -2 -2 -1 -2 -3 -2 -4 -5 -5 -7 -5 -7 -5 -3 -1 -6 -5 -7 -6 -7 -6 -5 -5
5 4 0 -1 -1 0 2 3 4 4 4 4 3 -1 -4 -11 -12 -3 -2 -2 -2 -1 -1 -0 -2 -3 -4 -4 -4 -3 -1 -1 -1 -1 -0 -1 -0 -3 -2 -4 -6 -7 -8 -5 -6 -9 -10 -9 -8 -9 -5 -4 -6 -5
4 3 -1 -2 -3 -2 1 3 3 3 4 4 4 3 -0 -4 -11 -12 -5 -2 -1 -1 1 -1 -2 -3 -4 -4 -4 -2 -2 -1 -0 -1 0 0 -0 -4 -3 -4 -5 -6 -6 -5 -5 -7 -8 -9 -9 -9 -8 -7 -6 -6
3 1 -1 -3 -4 -5 -4 0 3 3 3 3 3 4 3 -0 -6 -12 -7 -2 -0 -1 1 -0 -2 -2 -2 -3 -3 -2 -2 -1 -1 0 0 1 -1 -2 -2 -2 -2 -5 -6 -5 -7 -8 -8 -8 -8 -9 -8 -8 -8 -7
1 -1 -2 -4 -5 -5 -6 -6 -2 3 4 4 4 4 4 2 -1 -9 -0 -2 -2 -1 -2 1 -1 -2 -3 -3 -3 -2 -2 -1 -0 0 0 -0 -0 -2 -0 -1 -4 -5 -6 -7 -7 -8 -8 -7 -7 -7 -8 -7 -6 -5
-1 -2 -4 -5 -7 -8 -7 -6 -5 1 3 3 3 4 4 3 2 -6 -2 -2 -4 -2 -2 -0 1 -1 -3 -2 -2 -1 -1 -0 -0 -0 -0 -0 -0 -1 0 -1 -5 -6 -6 -6 -6 -7 -5 -5 -6 -6 -6 -5 -5 -5
-8 -9 -10 -11 -10 -9 -6 -5 -4 -3 2 3 3 3 3 3 2 0 -3 -6 -1 -0 -1 -0 0 -3 -3 -1 -1 -1 -1 -1 -1 -0 -0 -1 -1 -0 1 -1 -2 -3 -4 -5 -4 -4 -5 -5 -5 -5 -4 -5 -5 -6
-9 -9 -9 -8 -6 -4 -4 -4 -5 -3 1 2 3 3 2 2 -1 -2 -2 -2 -2 -1 1 1 0 2 -3 -1 -1 -2 -1 -1 -1 -1 -1 -1 -1 1 -1 -1 -2 -2 -2 -3 -3 -4 -4 -4 -4 -4 -4 -4 -5 -7
-8 -7 -7 -7 -7 -5 -4 -3 -3 -3 1 2 3 2 2 -3 -3 -2 -1 -1 -1 -1 -1 -1 -1 -0 -3 -2 -1 -1 -1 -1 -1 -1 -2 -1 -1 -2 -3 -3 -3 -3 -2 -2 -2 -2 -4 -4 -5 -5 -5 -5 -5 -8
-12 -10 -8 -7 -7 -7 -5 -2 -2 -1 -0 1 2 2 1 -1 -0 -1 -1 -1 -1 -0 -1 -1 -1 -1 -3 -1 -0 -2 -1 -1 0 -1 -1 -1 0 -2 -3 -4 -6 -6 -3 -3 -3 -3 -3 -3 -4 -4 -4 -6 -7 -5
-14 -12 -11 -9 -8 -7 -6 -3 -0 1 0 1 1 0 1 -0 -0 -1 -0 -1 -1 -1 -1 -1 -2 -2 -2 -3 -2 -1 -1 -2 -1 -2 -2 -1 -2 -4 -5 -7 -7 -8 -10 -10 -10 -6 -5 -4 -5 -6 -8 -9 -5 -4
-17 -15 -13 -11 -11 -10 -7 -6 -0 0 1 0 1 1 -0 -1 -0 0 -0 -1 -1 -2 -2 -3 -3 -3 -4 -4 -2 -2 -1 -1 -4 -4 -2 -2 -3 -5 -8 -7 -11 -12 -13 -13 -11 -8 -8 -8 -8 -7 -7 -7 -5 -6
-13 -14 -14 -12 -11 -10 -9 -7 -6 -0 -0 0 0 0 -1 -0 -1 -1 -2 -1 -1 -1 -2 -3 -2 -2 -3 -2 -2 -0 -2 -4 -3 -1 -2 -2 -3 -9 -9 -9 -9 -13 -12 -11 -9 -8 -8 -8 -7 -7 -6 -6 -6 -6
-15 -15 -11 -9 -10 -12 -10 -8 -4 -3 -1 -0 -1 -1 -1 -2 -1 -2 -1 -2 -4 -3 -3 -3 -3 -3 -2 -1 -2 -2 -2 -2 -3 -2 -2 -3 -9 -9 -12 -16 -16 -15 -14 -12 -12 -11 -10 -10 -10 -9 -9 -8 -9 -7
-14 -11 -10 -11 -10 -10 -11 -9 -6 -2 -1 -1 -1 -2 -1 -1 -1 -1 -3 -4 -4 -5 -4 -3 -3 -2 -2 -2 -1 -3 -2 -3 -3 -2 -7 -8 -7 -9 -11 -12 -16 -15 -14 -14 -13 -12 -11 -10 -9 -9 -9 -9 -9 -7
-11 -5 -8 -10 -7 -9 -10 -6 -2 -2 -2 -1 -2 -1 -1 -2 -2 -1 -2 -2 -3 -4 -3 -1 -1 -1 -2 -1 -2 -4 -3 -3 -4 -7 -9 -10 -8 -8 -8 -6 -8 -15 -15 -14 -13 -13 -12 -10 -10 -10 -10 -8 -5 -2
-7 -7 -10 -9 -7 -7 -7 -5 -4 -3 -2 -2 -2 -3 -2 -2 -2 -2 -2 -2 -3 -4 -2 -1 -0 -1 -1 -1 -3 -3 -6 -8 -8 -9 -9 -9 -7 -6 -6 -7 -8 -8 -11 -6 -3 -3 -4 -9 -13 -12 -11 -10 -5 -1
-7 -8 -8 -7 -6 -5 -7 -4 -4 -3 -2 -2 -4 -3 -3 -3 -3 -3 -3 -2 -3 -3 -1 -1 -1 -1 -2 -3 -3 -3 -3 -3 -4 -4 -4 -4 -5 -6 -6 -6 -7 -8 -8 -8 -4 -3 -4 -4 -4 -5 -3 -1 -8 -7
-7 -8 -7 -6 -5 -4 -4 -4 -3 -4 -3 -6 -7 -5 -4 -3 -3 -3 -3 -2 -3 -3 -2 -2 -2 -3 -3 -4 -5 -5 -4 -4 -3 -4 -4 -4 -5 -5 -5 -6 -6 -6 -6 -6 -6 -6 -6 -5 -5 -4 -4 -3 -1 -2
-8 -9 -7 -6 -3 -4 -4 -4 -3 -3 -3 -4 -6 -5 -4 -4 -2 -2 -2 -2 -2 -3 -3 -4 -4 -4 -5 -5 -6 -4 -4 -4 -4 -3 -4 -4 -4 -4 -4 -4 -4 -4 -5 -5 -5 -4 -4 -4 -4 -4 -4 -3 -4 -6
-6 -7 -5 -4 -3 -4 -4 -6 -4 -4 -5 -4 -3 -4 -2 -2 -3 -3 -2 -2 -3 -3 -3 -4 -4 -4 -4 -4 -6 -5 -4 -4 -4 -3 -3 -3 -3 -3 -3 -3 -3 -3 -3 -3 -3 -3 -3 -4 -4 -4 -4 -5 -6 -5
-6 -4 -4 -4 -4 -4 -5 -5 -5 -6 -6 -6 -5 -4 -4 -3 -3 -3 -3 -3 -4 -4 -4 -3 -4 -4 -4 -5 -5 -5 -6 -6 -5 -5 -5 -4 -3 -3 -3 -3 -3 -3 -3 -3 -3 -3 -3 -3 -3 -3 -4 -4 -4 -5
-6 -4 -4 -4 -4 -4 -4 -4 -4 -5 -6 -6 -8 -7 -8 -7 -7 -5 -4 -5 -6 -7 -6 -5 -4 -4 -5 -5 -5 -6 -8 -6 -4 -4 -3 -3 -2 -2 -2 -2 -2 -3 -3 -3 -3 -3 -3 -3 -3 -3 -4 -4 -4 -5
-5 -5 -4 -4 -4 -4 -4 -5 -6 -6 -7 -8 -8 -7 -7 -5 -4 -4 -4 -7 -8 -7 -7 -7 -8 -6 -4 -5 -5 -6 -7 -4 -3 -3 -4 -2 -2 -2 -2 -2 -1 -2 -4 -3 -2 -2 -3 -3 -3 -3 -4 -4 -4 -2
-5 -8 -5 -5 -4 -5 -7 -8 -8 -8 -7 -9 -7 -6 -5 -5 -4 -4 -7 -8 -8 -8 -9 -9 -8 -7 -6 -6 -6 -6 -6 -5 -7 -8 -10 -8 -7 -4 -3 -1 -1 -4 -4 -4 -3 -3 -3 -4 -3 -4 -4 -4 -4 -4
-5 -8 -7 -9 -7 -7 -7 -7 -8 -8 -9 -8 -8 -8 -7 -4 -5 -7 -10 -10 -9 -9 -9 -10 -8 -7 -6 -6 -6 -7 -8 -8 -8 -10 -11 -11 -12 -11 -6 -4 -2 -3 -4 -5 -4 -3 -3 -4 -4 -6 -5 -6 -6 -6
-7 -8 -8 -7 -5 -7 -8 -9 -9 -8 -8 -7 -6 -7 -5 -4 -4 -7 -10 -10 -7 -8 -8 -10 -10 -8 -8 -9 -10 -8 -8 -8 -9 -9 -9 -10 -12 -14 -16 -13 -9 -5 -3 -8 -6 -5 -4 -5 -7 -8 -8 -8 -8 -7
-7 -9 -8 -8 -7 -6 -7 -8 -8 -9 -9 -9 -7 -8 -9 -11 -12 -10 -11 -11 -11 -10 -9 -9 -9 -9 -10 -10 -10 -9 -8 -7 -7 -9 -9 -8 -11 -18 -15 -12 -11 -7 -3 -7 -9 -8 -8 -7 -8 -8 -8 -8 -8 -8
-6 -8 -9 -8 -8 -8 -9 -9 -10 -11 -10 -9 -9 -9 -9 -9 -9 -10 -11 -10 -9 -8 -8 -8 -8 -9 -10 -9 -9 -9 -10 -11 -11 -10 -10 -11 -12 -10 -9 -8 -8 -6 -3 -4 -8 -9 -9 -9 -9 -8 -8 -8 -8 -8
-9 -8 -7 -8 -8 -8 -9 -10 -9 -9 -9 -9 -9 -8 -8 -9 -9 -8 -7 -8 -9 -7 -6 -7 -9 -11 -10 -10 -10 -10 -14 -14 -12 -12 -11 -11 -10 -9 -8 -8 -8 -6 -4 -5 -8 -7 -9 -9 -9 -8 -8 -8 -7 -7
-9 -8 -8 -8 -8 -9 -9 -8 -9 -8 -8 -8 -8 -8 -7 -8 -8 -8 -9 -9 -8 -8 -10 -10 -10 -12 -14 -12 -11 -11 -11 -10 -10 -10 -10 -10 -9 -8 -7 -7 -7 -7 -6 -5 -8 -6 -3 -3 -6 -8 -8 -7 -7 -7
-7 -7 -8 -8 -8 -8 -8 -8 -8 -8 -8 -8 -8 -8 -8 -8 -7 -8 -9 -10 -10 -9 -10 -10 -12 -14 -14 -13 -12 -11 -11 -10 -10 -10 -9 -9 -9 -8 -8 -7 -7 -7 -7 -6 -8 -8 -2 -1 -1 -7 -8 -7 -7 -8

GFSWCAN_850_dewp_111.txt.gz
Dewpoint
3 3 4 4 1 -0 -0 3 4 3 4 3 -1 -3 -10 -12 -6 -4 -4 -4 -4 -3 -5 -2 -3 -4 -3 -2 -4 -3 -4 -1 -0 -1 -2 -3 -3 -4 -4 -5 -1 -0 0 1 1 2 1 -5 -4 -8 -11 -6 -8 -8
3 4 4 4 1 -1 -1 2 4 4 3 4 3 -0 -2 -9 -12 -8 -4 -3 -3 -3 -5 -4 -2 -3 -4 -3 -2 -2 -3 -2 -2 -1 -3 -3 -3 -4 -5 -6 -8 -4 -3 -1 -1 -0 -5 -5 -7 -8 -8 -8 -8 -7
5 4 4 4 0 -2 -3 0 4 4 3 3 4 4 1 -2 -7 -12 -8 -4 -3 -2 -2 -1 -1 -2 -2 -3 -3 -2 -3 -4 -1 -2 -1 -1 -0 -3 -2 -4 -6 -8 -8 -6 -7 -9 -8 -7 -7 -7 -7 -6 -6 -6
5 4 4 3 -1 -3 -4 -4 0 3 3 3 3 3 3 2 -1 -6 -10 -7 -2 -1 0 -2 -1 -2 -3 -3 -3 -3 -3 -1 -0 -0 -1 -1 -1 -3 -3 -5 -5 -6 -7 -6 -6 -8 -8 -9 -9 -9 -9 -9 -9 -7
4 4 4 2 -2 -2 -4 -4 -5 -1 3 2 3 2 3 3 2 -2 -4 -3 -2 -1 -1 -2 -2 -2 -2 -3 -3 -3 -2 -1 -1 -1 -1 -0 -1 -1 -2 -2 -2 -5 -6 -5 -5 -9 -9 -9 -8 -8 -9 -9 -8 -7
5 4 3 1 -1 -2 -3 -5 -6 -5 -3 2 2 2 3 3 3 2 -0 -3 -5 -4 -3 -1 -2 -1 -3 -3 -3 -2 -2 -1 -1 -0 -0 -0 -1 -1 -1 -1 -3 -6 -5 -6 -7 -8 -8 -8 -7 -7 -7 -7 -8 -7
4 2 -1 -1 -2 -3 -4 -8 -8 -6 -4 0 3 3 3 3 2 2 -2 -2 -3 -2 -1 -1 -2 -1 -3 -2 -2 -2 -1 -0 -0 -0 -0 -0 -0 -0 -1 -0 -5 -5 -5 -5 -5 -5 -5 -6 -6 -6 -6 -6 -6 -5
0 -1 -2 -4 -6 -9 -10 -11 -7 -5 -4 -1 2 2 3 3 2 2 1 -0 -4 -3 -1 -2 -1 -2 -3 -1 -1 -1 -1 -1 -1 -1 -0 -1 -1 -1 0 -2 -2 -3 -3 -4 -5 -3 -4 -4 -4 -4 -4 -4 -4 -4
-4 -7 -8 -9 -10 -9 -9 -7 -6 -7 -6 -3 1 2 3 2 0 -1 -2 -2 -2 -2 0 -0 -1 -1 -3 -1 -1 -2 -1 -1 -2 -1 -1 -1 -2 0 -1 -2 -2 -2 -2 -2 -3 -3 -2 -3 -4 -4 -4 -4 -4 -5
-7 -8 -9 -9 -8 -7 -6 -5 -6 -5 -2 2 2 2 2 -1 -2 -1 -1 -1 -1 -0 -1 -2 -1 -1 -3 -2 -1 -1 -2 -2 0 -1 -2 -1 -1 -2 -4 -4 -4 -6 -5 -6 -3 -2 -2 -2 -3 -3 -4 -4 -5 -4
-10 -9 -8 -8 -7 -7 -6 -4 -2 -1 -1 1 -0 -0 0 0 0 -1 -1 -2 -1 -0 -1 -1 -1 -3 -3 -2 -2 -2 -3 -1 -1 -1 -1 -1 -1 -2 -4 -6 -7 -7 -6 -8 -5 -3 -3 -3 -3 -3 -3 -4 -4 -8
-14 -13 -12 -12 -9 -7 -7 -5 -1 -0 -1 1 0 1 -1 -0 -0 -1 -1 -1 -1 -1 -2 -1 -2 -2 -2 -3 -2 -2 -3 -2 -1 -3 -2 -1 -3 -6 -5 -9 -8 -10 -11 -12 -12 -12 -10 -7 -6 -6 -7 -7 -8 -6
-16 -16 -15 -13 -11 -10 -8 -6 -1 -1 -1 -0 -1 -0 0 -1 -1 -0 -1 -1 -2 -2 -2 -2 -4 -3 -3 -4 -2 -3 -1 -2 -4 -6 -3 -4 -6 -7 -10 -10 -13 -14 -14 -12 -11 -9 -9 -8 -8 -7 -7 -7 -6 -5
-14 -14 -15 -15 -13 -11 -10 -8 -6 -2 -2 -0 -1 -1 -1 -2 -1 -2 -4 -4 -2 -1 -2 -3 -3 -3 -3 -3 -3 -3 -3 -4 -5 -2 -3 -4 -7 -8 -8 -12 -15 -16 -15 -15 -14 -13 -11 -9 -7 -7 -7 -7 -7 -7
-15 -15 -13 -14 -13 -11 -10 -9 -7 -2 -0 -2 -1 -1 -2 -2 -2 -1 -2 -2 -4 -3 -3 -2 -3 -3 -4 -3 -2 -3 -3 -3 -4 -4 -3 -7 -8 -8 -8 -8 -8 -9 -13 -15 -14 -14 -13 -11 -10 -9 -8 -8 -8 -7
-13 -10 -12 -16 -11 -8 -9 -9 -6 -2 -2 -1 -1 -2 -2 -2 -2 -1 -2 -3 -3 -4 -4 -3 -3 -4 -3 -3 -1 -3 -5 -4 -5 -5 -7 -8 -8 -9 -8 -6 -6 -6 -7 -7 -13 -13 -13 -13 -11 -10 -9 -9 -9 -8
-8 -6 -14 -11 -9 -9 -8 -9 -6 -3 -4 -2 -2 -2 -2 -2 -3 -2 -2 -2 -3 -4 -5 -3 -1 -3 -3 -2 -2 -4 -5 -4 -6 -7 -7 -5 -5 -5 -6 -5 -6 -6 -6 -6 -7 -9 -11 -7 -6 -7 -9 -8 -10 -10
-6 -9 -13 -8 -6 -6 -5 -4 -3 -3 -3 -3 -3 -3 -3 -2 -2 -3 -3 -3 -3 -3 -3 -4 -2 -2 -4 -4 -4 -5 -5 -6 -6 -7 -7 -5 -5 -5 -4 -5 -6 -6 -5 -6 -6 -7 -7 -9 -9 -5 -4 -5 -7 -9
-11 -10 -12 -8 -5 -5 -5 -4 -5 -4 -4 -3 -3 -3 -3 -4 -4 -4 -4 -3 -3 -3 -3 -1 -1 -2 -3 -4 -4 -4 -5 -5 -5 -5 -5 -5 -4 -4 -4 -5 -6 -6 -5 -5 -5 -5 -5 -5 -5 -6 -5 -5 -5 -5
-8 -7 -7 -7 -5 -4 -4 -5 -4 -4 -5 -6 -6 -5 -6 -8 -8 -7 -6 -4 -3 -2 -2 -2 -3 -4 -3 -3 -4 -5 -7 -6 -5 -4 -4 -5 -4 -5 -6 -5 -5 -5 -4 -4 -4 -4 -4 -4 -4 -5 -5 -5 -5 -5
-6 -9 -7 -6 -5 -4 -4 -4 -4 -5 -4 -5 -7 -7 -6 -7 -6 -5 -4 -4 -3 -3 -3 -4 -4 -5 -5 -6 -6 -6 -6 -5 -4 -4 -4 -4 -5 -7 -4 -4 -3 -4 -4 -3 -3 -4 -4 -3 -4 -4 -3 -3 -4 -4
-6 -7 -8 -8 -6 -5 -4 -4 -5 -4 -4 -4 -4 -4 -3 -3 -4 -5 -6 -3 -3 -4 -4 -4 -5 -4 -4 -4 -4 -5 -5 -5 -4 -4 -4 -3 -3 -4 -4 -4 -4 -3 -3 -3 -3 -3 -3 -3 -4 -3 -3 -3 -3 -3
-6 -6 -5 -5 -5 -4 -4 -4 -4 -5 -5 -6 -5 -5 -7 -5 -7 -8 -4 -5 -5 -6 -6 -5 -6 -5 -4 -5 -6 -6 -6 -5 -4 -4 -4 -6 -6 -4 -4 -3 -2 -2 -2 -3 -2 -2 -2 -3 -3 -3 -3 -3 -3 -3
-6 -5 -5 -4 -4 -4 -4 -4 -5 -4 -5 -10 -12 -11 -12 -8 -10 -6 -8 -8 -9 -8 -7 -7 -6 -6 -6 -6 -4 -6 -8 -6 -4 -5 -6 -5 -4 -3 -3 -4 -5 -4 -3 -3 -1 -1 -2 -3 -3 -3 -2 -2 -3 -3
-4 -4 -5 -5 -4 -4 -4 -5 -6 -6 -6 -9 -11 -11 -10 -8 -10 -11 -9 -9 -9 -8 -8 -7 -7 -7 -6 -6 -6 -6 -9 -6 -5 -5 -5 -3 -4 -5 -7 -9 -10 -12 -11 -6 -4 -2 -2 -4 -4 -3 -3 -3 -3 -3
-5 -7 -6 -7 -9 -7 -7 -8 -8 -7 -10 -12 -10 -9 -8 -10 -9 -7 -8 -11 -10 -10 -8 -8 -7 -7 -7 -8 -8 -9 -8 -6 -4 -2 -4 -5 -5 -5 -6 -8 -9 -14 -12 -11 -9 -8 -6 -4 -4 -3 -3 -3 -3 -3
-6 -7 -7 -8 -7 -6 -7 -7 -8 -9 -8 -7 -11 -12 -10 -7 -8 -9 -11 -12 -11 -12 -12 -11 -9 -8 -8 -8 -8 -8 -9 -6 -6 -8 -8 -6 -6 -7 -7 -7 -9 -18 -14 -11 -10 -9 -8 -6 -5 -4 -3 -3 -5 -5
-6 -7 -9 -8 -6 -7 -10 -11 -10 -10 -10 -11 -9 -9 -9 -9 -10 -12 -13 -14 -13 -12 -10 -11 -14 -12 -11 -9 -9 -10 -9 -9 -8 -10 -10 -8 -8 -8 -10 -13 -17 -16 -11 -10 -10 -8 -5 -5 -6 -5 -4 -7 -8 -8
-7 -9 -10 -11 -8 -7 -7 -9 -9 -10 -11 -11 -10 -10 -10 -11 -12 -11 -12 -13 -12 -11 -10 -12 -13 -11 -10 -11 -11 -14 -12 -9 -9 -10 -11 -10 -11 -13 -16 -17 -16 -12 -9 -8 -9 -6 -3 -5 -5 -7 -7 -8 -8 -8
-9 -9 -9 -10 -10 -9 -10 -11 -11 -12 -11 -10 -10 -10 -10 -10 -10 -10 -10 -10 -10 -10 -10 -10 -9 -9 -9 -9 -9 -16 -17 -12 -10 -9 -8 -9 -12 -13 -12 -14 -12 -10 -9 -8 -8 -6 -4 -5 -6 -6 -8 -7 -7 -8
-10 -9 -8 -9 -9 -10 -10 -10 -10 -10 -10 -9 -9 -9 -9 -10 -10 -10 -9 -9 -8 -8 -8 -8 -9 -10 -9 -10 -9 -8 -11 -19 -15 -13 -12 -11 -10 -9 -10 -10 -10 -9 -8 -7 -7 -7 -5 -6 -7 -7 -5 -3 -4 -6
-8 -9 -9 -9 -8 -9 -8 -9 -8 -8 -8 -8 -8 -8 -8 -8 -8 -8 -10 -9 -8 -8 -9 -8 -8 -8 -15 -16 -16 -15 -14 -13 -11 -11 -11 -10 -9 -10 -10 -10 -9 -9 -8 -7 -7 -7 -6 -6 -7 -5 -2 -2 -4 -6
-8 -8 -9 -9 -9 -9 -9 -9 -9 -10 -9 -9 -9 -9 -9 -9 -8 -9 -10 -10 -10 -10 -10 -10 -11 -12 -12 -11 -11 -11 -10 -11 -12 -11 -11 -11 -10 -9 -9 -8 -8 -8 -7 -6 -6 -6 -6 -5 -7 -3 -1 -2 -6 -4

GFSWCAN_850_dewp_114.txt.gz
Dewpoint
3 3 4 4 3 2 -0 -1 -1 1 2 3 3 0 -3 -9 -11 -6 -4 -4 -4 -6 -6 -2 -3 -3 -2 -2 -5 -4 -4 -2 -1 -1 -2 -3 -3 -5 -4 -5 -1 -0 0 1 0 2 1 -4 -5 -8 -10 -9 -8 -9
4 4 4 4 4 2 -1 -2 -1 -0 1 2 3 3 1 -2 -6 -9 -8 -7 -5 -4 -4 -3 -2 -2 -3 -2 -2 -2 -5 -2 -3 -2 -2 -3 -3 -4 -4 -6 -5 -3 -4 -1 -1 -1 -5 -5 -7 -8 -7 -7 -7 -8
4 4 4 4 4 2 -1 -3 -2 0 0 1 2 2 3 3 0 -3 -6 -7 -6 -4 -3 -3 -1 -1 -2 -3 -3 -2 -2 -2 -1 -1 -2 -2 -1 -4 -3 -4 -6 -8 -7 -5 -6 -8 -6 -6 -7 -7 -8 -8 -8 -7
4 4 4 4 4 2 -1 -2 -3 -3 -2 0 1 1 2 3 3 1 -1 -3 -4 -3 -1 -3 -1 -1 -3 -3 -3 -3 -2 -2 -1 -0 -1 -2 -1 -4 -4 -5 -5 -7 -7 -7 -6 -8 -9 -9 -9 -9 -9 -9 -9 -9
4 4 4 4 4 2 -1 -2 -2 -4 -5 -3 -1 1 1 2 3 2 -1 -3 -3 -2 -3 -3 -3 -2 -2 -3 -3 -2 -3 -2 -1 -1 -1 -0 -1 -1 -2 -2 -2 -4 -5 -4 -5 -8 -9 -8 -8 -8 -8 -8 -8 -7
4 4 4 4 4 2 0 -1 -2 -4 -5 -6 -2 1 2 3 3 2 -1 -3 -4 -3 -4 -2 -3 -2 -3 -3 -3 -2 -2 -1 -1 -1 -1 -1 -1 -1 -1 -1 -3 -4 -5 -5 -6 -6 -5 -5 -5 -5 -6 -7 -7 -6
5 4 4 4 3 0 -1 -2 -3 -6 -8 -8 -5 2 2 3 3 2 1 -0 -0 -2 -2 -2 -2 -1 -2 -3 -2 -2 -1 -1 -1 -1 -0 -0 -0 -0 -1 0 -3 -5 -4 -4 -4 -4 -4 -4 -3 -3 -5 -5 -5 -5
5 4 3 1 -1 -1 -5 -6 -8 -9 -8 -6 -4 1 2 2 2 2 1 1 0 -2 -2 -2 -1 -1 -3 -2 -2 -2 -1 -1 -1 -1 -1 -0 -1 -1 0 -1 -2 -3 -4 -5 -5 -4 -4 -4 -4 -3 -4 -4 -4 -4
2 0 -2 -3 -4 -7 -8 -9 -9 -7 -7 -6 -2 1 2 1 2 0 -1 -2 -2 -2 -0 -1 -0 -1 -3 -2 -2 -2 -2 -1 -2 -1 -1 -1 -2 0 -1 -2 -3 -4 -3 -4 -6 -7 -3 -2 -2 -2 -3 -3 -4 -4
-1 -1 -3 -6 -8 -9 -10 -9 -7 -5 -6 -1 1 1 1 -0 -0 -1 -1 -1 -1 -1 -1 -1 -1 -1 -3 -2 -2 -1 -2 -2 -1 -1 -2 -1 -1 -2 -4 -5 -4 -6 -7 -6 -6 -9 -11 -10 -6 -4 -3 -3 -3 -4
-2 -3 -4 -5 -8 -9 -9 -7 -4 -2 -2 0 -1 -0 1 0 -0 -1 -1 -2 -1 -1 -1 -1 -1 -3 -3 -3 -2 -2 -3 -2 -0 -2 -1 -1 -1 -3 -5 -5 -9 -8 -10 -10 -11 -11 -11 -9 -7 -6 -6 -5 -4 -5
-9 -9 -9 -9 -8 -8 -8 -7 -2 -2 -1 -1 -1 -0 -0 -1 -1 -1 -1 -1 -1 -1 -2 -1 -2 -2 -2 -3 -2 -2 -4 -2 -1 -3 -1 -2 -4 -8 -7 -11 -16 -16 -15 -14 -12 -11 -9 -9 -8 -8 -8 -8 -8 -7
-13 -14 -13 -12 -12 -11 -9 -6 -2 -1 -1 -2 -0 -1 -1 -1 -0 -0 -3 -2 -2 -3 -2 -2 -3 -3 -3 -3 -3 -3 -1 -2 -5 -6 -3 -4 -6 -8 -7 -8 -8 -8 -7 -8 -10 -13 -13 -10 -9 -9 -8 -8 -8 -8
-15 -16 -16 -15 -14 -13 -11 -8 -6 -2 -2 -1 -0 -1 -1 -2 -3 -3 -5 -6 -3 -1 -2 -2 -3 -3 -3 -3 -4 -2 -3 -4 -5 -2 -4 -5 -8 -7 -8 -7 -6 -6 -6 -6 -6 -6 -7 -12 -12 -10 -9 -8 -8 -7
-14 -13 -15 -15 -15 -14 -12 -10 -8 -5 -2 -1 -2 -2 -3 -3 -3 -1 -2 -2 -3 -2 -3 -2 -3 -3 -4 -3 -2 -3 -2 -2 -5 -4 -5 -7 -6 -7 -7 -6 -5 -6 -5 -5 -6 -6 -6 -7 -7 -12 -10 -9 -8 -8
-14 -15 -17 -15 -11 -10 -10 -10 -5 -2 -2 -1 -2 -2 -3 -2 -3 -2 -2 -2 -2 -4 -3 -3 -5 -6 -4 -4 -1 -1 -3 -3 -5 -6 -7 -7 -6 -6 -7 -6 -5 -5 -5 -5 -6 -7 -6 -6 -6 -7 -10 -10 -9 -9
-9 -15 -12 -13 -13 -9 -8 -9 -6 -4 -4 -3 -3 -3 -3 -2 -3 -2 -2 -2 -3 -4 -5 -3 -3 -4 -5 -2 -2 -5 -5 -6 -6 -7 -10 -10 -6 -7 -6 -5 -7 -7 -7 -8 -8 -7 -6 -6 -5 -6 -6 -6 -8 -8
-11 -12 -11 -8 -8 -7 -6 -7 -7 -4 -4 -4 -4 -4 -3 -3 -3 -3 -4 -4 -3 -4 -4 -4 -4 -3 -2 -3 -4 -6 -6 -7 -8 -8 -7 -5 -8 -12 -8 -7 -6 -6 -10 -10 -9 -6 -6 -6 -6 -6 -6 -6 -5 -5
-13 -12 -9 -8 -7 -5 -6 -5 -4 -4 -4 -4 -4 -4 -4 -3 -4 -4 -5 -6 -6 -5 -3 -2 -2 -3 -4 -6 -6 -6 -6 -5 -5 -4 -5 -6 -8 -8 -6 -6 -5 -5 -7 -8 -8 -6 -6 -5 -5 -4 -5 -5 -4 -5
-8 -10 -9 -7 -5 -5 -5 -5 -4 -5 -5 -7 -5 -4 -5 -6 -7 -7 -7 -7 -6 -3 -3 -2 -5 -6 -6 -6 -6 -6 -6 -5 -5 -6 -7 -7 -7 -6 -5 -5 -5 -6 -5 -6 -7 -6 -4 -3 -3 -3 -3 -3 -3 -3
-7 -7 -6 -5 -4 -5 -5 -4 -4 -5 -6 -5 -6 -4 -5 -6 -6 -6 -8 -8 -4 -4 -4 -5 -5 -6 -7 -7 -7 -6 -6 -6 -6 -6 -5 -5 -5 -4 -4 -5 -6 -4 -5 -5 -5 -3 -3 -3 -2 -2 -2 -2 -3 -3
-5 -5 -6 -5 -4 -5 -5 -6 -5 -4 -5 -5 -5 -5 -4 -5 -5 -6 -8 -5 -5 -6 -7 -7 -6 -6 -6 -5 -6 -7 -7 -6 -6 -5 -4 -4 -4 -4 -5 -5 -4 -4 -5 -4 -3 -3 -3 -5 -4 -2 -1 -3 -3 -3
-5 -5 -5 -5 -6 -5 -6 -6 -5 -5 -5 -5 -5 -6 -5 -6 -7 -8 -7 -8 -9 -10 -9 -8 -9 -9 -7 -7 -6 -6 -6 -5 -5 -5 -5 -5 -5 -4 -5 -5 -5 -4 -4 -5 -6 -7 -9 -12 -10 -5 -2 -2 -4 -4
-4 -5 -5 -5 -5 -5 -5 -5 -5 -5 -6 -9 -10 -11 -12 -8 -9 -8 -10 -9 -10 -10 -10 -11 -11 -9 -9 -8 -7 -8 -10 -8 -6 -6 -6 -5 -4 -5 -5 -4 -3 -4 -4 -4 -7 -12 -12 -13 -12 -10 -5 -3 -4 -4
-4 -5 -5 -5 -5 -5 -6 -8 -8 -7 -6 -7 -11 -10 -11 -9 -11 -13 -10 -10 -11 -11 -11 -12 -11 -10 -8 -9 -9 -9 -10 -7 -6 -5 -7 -5 -3 -4 -5 -5 -5 -5 -5 -5 -8 -10 -13 -13 -10 -8 -8 -7 -4 -4
-5 -5 -5 -7 -9 -6 -8 -9 -9 -9 -11 -12 -11 -9 -9 -11 -10 -7 -9 -11 -11 -11 -12 -12 -11 -11 -9 -9 -9 -10 -9 -11 -9 -5 -6 -8 -7 -4 -6 -9 -8 -8 -8 -6 -6 -8 -11 -11 -9 -8 -8 -7 -4 -3
-6 -7 -6 -7 -7 -6 -8 -7 -9 -11 -11 -9 -11 -13 -10 -6 -8 -10 -11 -12 -12 -13 -14 -14 -13 -12 -12 -11 -10 -10 -11 -12 -11 -11 -9 -9 -10 -6 -5 -9 -10 -12 -11 -9 -9 -10 -10 -9 -8 -7 -5 -5 -5 -4
-6 -8 -9 -7 -7 -8 -11 -11 -11 -11 -10 -10 -10 -12 -11 -11 -10 -13 -14 -15 -15 -14 -14 -13 -13 -12 -12 -12 -13 -11 -11 -14 -14 -11 -12 -14 -15 -14 -12 -14 -15 -14 -12 -12 -12 -11 -9 -8 -7 -7 -4 -4 -5 -5
-6 -7 -7 -11 -8 -8 -8 -10 -11 -12 -13 -13 -11 -11 -12 -14 -14 -13 -13 -13 -13 -12 -11 -11 -12 -12 -11 -11 -11 -12 -13 -13 -10 -9 -9 -10 -15 -18 -15 -16 -13 -12 -12 -12 -11 -9 -9 -8 -7 -7 -4 -5 -5 -3
-7 -8 -9 -10 -11 -10 -10 -12 -13 -14 -12 -11 -11 -11 -11 -11 -11 -12 -11 -10 -10 -9 -10 -10 -10 -9 -9 -9 -9 -10 -11 -11 -9 -9 -8 -10 -19 -18 -14 -12 -11 -11 -11 -10 -9 -9 -9 -8 -7 -7 -5 -5 -5 -4
-12 -10 -9 -10 -11 -11 -11 -12 -12 -11 -11 -11 -11 -10 -9 -10 -10 -10 -10 -9 -9 -9 -9 -9 -8 -8 -8 -8 -8 -7 -8 -11 -8 -8 -9 -12 -13 -12 -11 -11 -11 -10 -9 -9 -9 -9 -8 -8 -7 -7 -5 -6 -6 -4
-10 -10 -10 -11 -10 -11 -10 -10 -9 -9 -9 -9 -9 -9 -8 -8 -8 -9 -10 -9 -9 -9 -9 -8 -8 -8 -8 -8 -8 -8 -8 -9 -10 -9 -9 -9 -10 -11 -10 -11 -11 -10 -9 -9 -8 -8 -8 -8 -7 -7 -6 -6 -6 -3
-7 -8 -9 -9 -10 -9 -9 -9 -9 -10 -10 -9 -9 -9 -9 -9 -8 -12 -14 -10 -9 -9 -8 -8 -8 -8 -9 -8 -8 -8 -8 -9 -9 -10 -9 -9 -10 -10 -10 -10 -11 -10 -8 -8 -8 -8 -8 -8 -7 -6 -6 -6 -6 -3

GFSWCAN_850_dewp_117.txt.gz
Dewpoint
4 4 4 4 3 3 1 -1 -2 -0 2 2 3 3 1 -1 -3 -6 -7 -7 -5 -5 -6 -2 -3 -2 -1 -2 -6 -5 -4 -3 -2 -2 -2 -3 -4 -5 -4 -6 -2 -0 0 1 1 2 -0 -4 -5 -8 -11 -11 -8 -8
4 4 4 3 3 3 2 -1 -2 -2 -1 1 2 3 3 2 1 -1 -3 -4 -6 -5 -5 -4 -3 -2 -3 -3 -3 -4 -6 -3 -3 -3 -3 -4 -3 -4 -5 -7 -5 -4 -4 -2 -1 -1 -6 -5 -6 -8 -7 -6 -7 -8
4 4 4 4 4 3 3 0 -2 -2 -2 -1 1 2 1 2 2 1 1 -0 -3 -4 -4 -4 -2 -3 -3 -2 -2 -3 -2 -2 -2 -2 -3 -3 -3 -4 -3 -4 -7 -7 -6 -4 -6 -9 -5 -8 -9 -8 -9 -9 -9 -9
4 4 4 4 4 4 3 1 -1 -2 -3 -3 -3 0 1 2 2 2 1 -2 -4 -3 -1 -3 -2 -1 -2 -3 -3 -2 -2 -1 -1 -1 -2 -2 -2 -4 -4 -5 -6 -7 -7 -7 -6 -8 -9 -10 -9 -7 -6 -6 -7 -6
3 3 4 4 4 4 2 1 -1 -1 -1 -2 -4 -4 1 2 2 2 1 -3 -3 -2 -2 -2 -2 -2 -2 -3 -3 -2 -2 -2 -2 -1 -1 -1 -2 -1 -2 -3 -2 -5 -6 -6 -5 -7 -6 -5 -5 -5 -4 -4 -4 -5
4 4 4 4 4 3 3 1 -0 -1 -2 -3 -5 -6 -2 3 2 2 -1 -3 -3 1 -1 -2 -3 -2 -3 -3 -3 -3 -2 -1 -1 -1 -2 -2 -1 -1 -1 -1 -3 -4 -4 -4 -4 -3 -4 -6 -6 -4 -3 -3 -4 -5
4 4 4 3 3 4 3 1 -1 -2 -3 -6 -8 -6 -2 2 1 2 1 1 1 1 -2 -2 -2 -1 -2 -3 -2 -2 -1 -1 -1 -1 -0 -1 -1 -0 -1 0 -3 -4 -3 -3 -4 -4 -5 -7 -5 -3 -3 -4 -3 -4
4 4 4 4 3 3 3 1 -2 -4 -6 -8 -9 -5 2 1 1 1 1 1 1 -0 -2 -3 -1 -1 -2 -2 -2 -2 -1 -1 -1 -1 -1 -1 -1 -1 0 -1 -2 -3 -4 -7 -6 -6 -5 -7 -10 -7 -3 -3 -3 -3
4 4 4 4 4 3 1 -1 -4 -7 -7 -8 -8 -3 0 1 1 1 -0 -1 -1 -2 -1 -1 -1 -3 -3 -2 -2 -2 -2 -2 -2 -1 -2 -1 -2 0 -1 -2 -3 -4 -4 -6 -10 -11 -10 -10 -10 -9 -7 -5 -4 -4
4 4 2 3 1 -2 -5 -7 -8 -8 -6 -5 -4 -3 1 0 0 -1 -1 -2 -1 -1 -1 -1 -1 -2 -3 -2 -2 -2 -2 -2 -2 -2 -2 -1 -1 -3 -4 -5 -4 -9 -10 -10 -11 -12 -12 -11 -8 -8 -7 -7 -6 -5
1 0 -1 -3 -4 -6 -6 -6 -7 -4 -1 -2 -1 -1 0 0 -0 -1 -1 -1 -2 -2 -1 -2 -1 -3 -2 -3 -3 -2 -4 -2 -1 -2 -1 -1 -1 -3 -5 -8 -13 -13 -10 -10 -9 -9 -10 -11 -11 -10 -9 -8 -8 -8
-1 -1 -1 -2 -2 -4 -5 -6 -1 -2 -1 -2 -2 -0 -1 -1 -1 -1 -3 -1 -1 -1 -2 -2 -2 -2 -2 -3 -2 -2 -4 -3 -2 -3 -1 -1 -3 -6 -7 -7 -7 -6 -6 -6 -6 -6 -6 -6 -7 -9 -11 -10 -8 -8
-4 -4 -4 -6 -7 -7 -7 -6 -2 -1 -1 -2 -2 -2 -2 -2 -1 -1 -2 -1 -1 -3 -2 -2 -3 -3 -2 -3 -3 -4 -2 -2 -5 -3 -2 -4 -6 -7 -7 -7 -8 -7 -6 -6 -6 -6 -6 -7 -8 -6 -6 -9 -10 -8
-6 -9 -10 -10 -10 -10 -8 -2 -1 -1 -2 -1 -1 -2 -3 -3 -2 -4 -4 -5 -3 -3 -2 -2 -3 -3 -3 -4 -4 -2 -3 -4 -2 -2 -3 -5 -7 -6 -6 -7 -7 -8 -9 -10 -9 -8 -7 -6 -8 -8 -7 -6 -7 -10
-13 -14 -14 -13 -13 -12 -10 -8 -5 -2 -2 -2 -2 -3 -4 -4 -4 -3 -2 -2 -2 -2 -3 -3 -3 -3 -5 -4 -3 -3 -1 -1 -3 -3 -4 -7 -7 -8 -7 -7 -8 -10 -9 -10 -10 -7 -9 -11 -9 -9 -8 -8 -8 -6
-13 -14 -13 -13 -13 -12 -11 -9 -7 -5 -4 -2 -2 -2 -4 -3 -3 -3 -2 -2 -2 -3 -3 -3 -5 -6 -5 -4 -2 -1 -1 -2 -4 -6 -6 -6 -6 -6 -6 -5 -6 -7 -9 -9 -7 -7 -7 -8 -10 -10 -9 -9 -9 -7
-14 -13 -14 -14 -11 -10 -10 -7 -4 -4 -4 -3 -4 -3 -3 -3 -3 -3 -2 -2 -2 -3 -4 -3 -3 -3 -5 -3 -3 -4 -4 -5 -6 -6 -7 -8 -8 -8 -7 -5 -5 -8 -8 -7 -7 -6 -7 -8 -9 -10 -9 -10 -5 -5
-12 -11 -10 -10 -11 -8 -7 -9 -9 -6 -4 -4 -4 -4 -4 -4 -4 -4 -5 -4 -3 -3 -4 -5 -5 -5 -4 -3 -5 -5 -6 -7 -7 -7 -7 -7 -7 -7 -7 -7 -9 -8 -7 -7 -8 -9 -9 -9 -8 -8 -5 -3 -3 -3
-11 -10 -8 -6 -8 -8 -7 -6 -6 -4 -5 -4 -4 -5 -5 -5 -6 -7 -8 -7 -5 -4 -4 -3 -5 -6 -5 -6 -6 -6 -6 -6 -6 -8 -8 -8 -7 -7 -7 -7 -6 -7 -9 -8 -9 -9 -8 -7 -7 -4 -3 -3 -2 -3
-8 -8 -8 -7 -6 -7 -7 -5 -5 -4 -6 -7 -5 -5 -5 -5 -9 -9 -8 -7 -5 -3 -3 -4 -5 -6 -6 -7 -8 -8 -8 -8 -7 -6 -6 -7 -7 -7 -6 -6 -6 -7 -6 -7 -7 -7 -7 -7 -5 -4 -5 -5 -4 -3
-7 -8 -7 -7 -5 -5 -5 -5 -5 -5 -6 -5 -5 -5 -5 -5 -5 -5 -6 -7 -4 -4 -5 -6 -7 -8 -9 -10 -11 -9 -8 -8 -7 -6 -7 -6 -6 -6 -5 -5 -6 -6 -5 -5 -5 -6 -7 -6 -4 -7 -9 -11 -11 -7
-6 -6 -4 -5 -5 -6 -6 -5 -5 -5 -6 -6 -5 -6 -5 -5 -6 -7 -8 -6 -6 -7 -7 -8 -9 -8 -9 -8 -10 -10 -10 -10 -10 -8 -6 -5 -5 -5 -5 -5 -5 -5 -4 -4 -4 -4 -4 -5 -7 -7 -10 -12 -11 -10
-5 -6 -5 -5 -5 -5 -7 -6 -5 -5 -5 -6 -6 -6 -6 -6 -8 -9 -7 -8 -8 -10 -10 -9 -10 -11 -10 -10 -10 -9 -10 -10 -7 -7 -7 -6 -6 -5 -5 -5 -5 -4 -4 -4 -4 -3 -4 -5 -7 -7 -8 -9 -10 -10
-5 -5 -5 -5 -6 -6 -6 -6 -6 -6 -6 -8 -11 -11 -10 -9 -9 -8 -10 -9 -10 -10 -10 -11 -11 -10 -11 -9 -9 -11 -13 -12 -10 -9 -9 -8 -6 -6 -6 -6 -7 -6 -4 -5 -5 -7 -6 -6 -7 -7 -7 -7 -9 -9
-4 -5 -5 -5 -5 -6 -6 -8 -7 -7 -7 -9 -13 -11 -11 -9 -12 -14 -11 -10 -11 -11 -11 -11 -11 -10 -10 -10 -10 -11 -13 -11 -10 -9 -10 -9 -8 -9 -12 -11 -7 -10 -9 -6 -6 -11 -11 -9 -8 -8 -7 -7 -9 -8
-4 -5 -6 -6 -8 -6 -7 -8 -8 -9 -12 -14 -11 -9 -10 -14 -10 -7 -10 -11 -11 -11 -11 -11 -11 -10 -10 -10 -11 -13 -15 -14 -13 -10 -10 -12 -12 -10 -10 -13 -11 -14 -15 -10 -6 -11 -13 -12 -8 -6 -7 -10 -8 -8
-5 -6 -5 -6 -7 -7 -8 -8 -9 -11 -12 -10 -12 -14 -11 -7 -8 -10 -13 -13 -13 -14 -14 -14 -13 -12 -12 -13 -13 -14 -14 -14 -14 -14 -13 -13 -11 -10 -9 -9 -9 -16 -17 -13 -11 -12 -11 -11 -9 -8 -9 -9 -9 -8
-7 -8 -9 -7 -7 -7 -12 -12 -11 -11 -11 -10 -11 -13 -12 -11 -11 -14 -14 -15 -15 -14 -14 -14 -14 -14 -14 -14 -13 -13 -13 -13 -12 -11 -10 -10 -12 -12 -12 -10 -11 -16 -17 -16 -15 -12 -10 -9 -9 -9 -8 -8 -8 -7
-6 -7 -8 -10 -9 -9 -8 -11 -11 -11 -12 -12 -11 -11 -12 -13 -14 -14 -14 -14 -14 -13 -13 -13 -13 -13 -11 -11 -11 -11 -11 -11 -9 -8 -8 -9 -12 -15 -12 -12 -13 -15 -15 -14 -12 -10 -9 -8 -8 -7 -8 -8 -8 -7
-7 -7 -8 -10 -11 -11 -10 -11 -12 -13 -12 -11 -12 -11 -11 -11 -12 -13 -12 -12 -11 -11 -11 -10 -10 -9 -9 -8 -8 -8 -9 -8 -8 -8 -8 -8 -10 -12 -10 -9 -10 -11 -11 -10 -9 -9 -8 -8 -8 -8 -8 -8 -7 -7
-8 -8 -8 -9 -11 -10 -10 -11 -10 -10 -10 -11 -11 -10 -11 -12 -12 -11 -11 -10 -10 -9 -9 -8 -8 -8 -8 -8 -8 -8 -8 -8 -7 -8 -8 -8 -8 -8 -8 -9 -9 -9 -10 -10 -9 -9 -8 -8 -8 -8 -8 -8 -8 -7
-9 -9 -10 -13 -11 -11 -11 -10 -10 -11 -11 -11 -10 -10 -10 -9 -9 -9 -11 -11 -11 -10 -10 -10 -9 -9 -10 -9 -8 -8 -8 -7 -7 -7 -7 -7 -8 -8 -9 -10 -9 -9 -9 -9 -9 -8 -9 -8 -8 -8 -8 -7 -7 -6
-8 -9 -10 -10 -11 -11 -11 -11 -10 -10 -10 -10 -10 -10 -9 -9 -9 -11 -14 -13 -12 -11 -11 -10 -10 -10 -10 -10 -10 -9 -9 -8 -8 -9 -8 -8 -8 -9 -9 -9 -9 -9 -9 -9 -9 -9 -9 -8 -8 -8 -7 -7 -6 -6

GFSWCAN_850_dewp_120.txt.gz
Dewpoint
3 4 4 3 4 4 3 1 -1 -1 -0 1 1 2 2 1 0 -1 -3 -5 -6 -7 -6 -3 -3 -2 -2 -3 -6 -5 -4 -4 -2 -3 -3 -4 -4 -5 -5 -7 -1 0 0 1 1 2 -2 -5 -5 -7 -12 -8 -7 -8
3 3 4 3 3 4 3 2 -1 -2 -2 -1 1 1 1 2 2 1 0 -1 -1 -3 -4 -4 -3 -2 -3 -4 -4 -4 -6 -4 -3 -4 -3 -4 -3 -4 -5 -8 -5 -4 -3 -2 -1 -2 -6 -5 -6 -7 -6 -6 -7 -6
3 3 4 4 3 3 3 2 -0 -1 -1 -2 -3 -1 -0 -0 1 1 1 -1 -3 -4 -3 -3 -3 -3 -2 -2 -2 -3 -2 -3 -2 -2 -4 -3 -3 -5 -4 -5 -7 -7 -6 -4 -6 -9 -6 -9 -9 -8 -6 -6 -5 -5
2 3 3 4 4 4 4 3 0 -1 -2 -2 -2 -4 -5 -2 -0 0 0 -1 -3 -2 -2 -3 -2 -1 -2 -2 -3 -2 -2 -2 -1 -1 -2 -3 -3 -5 -4 -6 -6 -8 -7 -7 -6 -8 -7 -9 -5 -4 -6 -5 -4 -3
2 3 3 3 4 4 4 3 1 -1 -2 -2 -2 -3 -4 -5 -0 1 1 -2 -1 -1 -1 -2 -2 -2 -2 -2 -2 -2 -2 -1 -1 -2 -1 -1 -2 -2 -2 -3 -2 -5 -6 -5 -5 -7 -4 -3 -4 -6 -7 -4 -2 -3
3 2 3 3 3 3 4 3 1 -1 -1 -1 -2 -4 -5 -4 -0 1 -0 -3 -4 0 -0 -2 -3 -2 -3 -3 -3 -2 -2 -2 -2 -2 -2 -2 -2 -2 -1 -1 -3 -4 -4 -4 -4 -4 -6 -6 -7 -8 -10 -9 -4 -3
3 3 3 3 3 3 3 3 3 0 -1 -1 -4 -6 -7 -4 0 -1 1 1 1 1 -0 -2 -2 -2 -2 -3 -2 -2 -1 -1 -1 -1 -1 -1 -1 0 -1 0 -3 -4 -2 -3 -5 -7 -10 -8 -8 -10 -8 -8 -7 -5
3 3 3 3 3 3 3 3 3 1 -2 -4 -6 -7 -6 0 -3 -2 -0 1 1 -0 -1 -5 -4 -2 -3 -2 -2 -2 -1 -1 -1 -1 -1 -1 -1 -1 0 -1 -2 -3 -6 -8 -9 -10 -10 -11 -11 -10 -9 -8 -8 -8
3 3 3 4 4 3 3 3 3 1 -1 -5 -6 -4 -0 -1 -0 0 -1 -1 -1 -1 -2 -2 -2 -4 -2 -2 -2 -2 -2 -3 -2 -2 -2 -2 -2 -0 -2 -2 -3 -4 -7 -10 -8 -8 -8 -7 -7 -8 -10 -10 -8 -8
3 3 4 4 4 4 3 3 2 -1 -5 -5 -4 -2 -1 0 0 0 -1 -1 -1 -1 -1 -1 -1 -2 -3 -2 -2 -2 -2 -3 -5 -2 -2 -2 -1 -3 -3 -4 -7 -12 -9 -8 -7 -6 -6 -6 -7 -7 -7 -7 -10 -9
2 3 3 3 3 4 3 2 -2 -5 -4 -1 -3 -1 0 0 -0 -1 -1 -2 -2 -2 -2 -2 -2 -3 -2 -3 -3 -2 -4 -2 -1 -4 -1 -2 -1 -3 -5 -11 -9 -7 -6 -6 -6 -6 -6 -6 -6 -6 -8 -8 -7 -7
3 4 3 3 2 2 -3 -5 -6 -5 -4 -4 -1 0 -0 -1 -1 -2 -3 -2 -1 -2 -2 -2 -2 -2 -2 -3 -2 -2 -3 -3 -1 -4 -2 -1 -4 -5 -7 -7 -7 -7 -8 -9 -10 -10 -8 -7 -7 -7 -9 -11 -10 -8
-0 -0 -0 -1 -2 -2 -1 -2 -2 -3 -3 -1 -1 -1 -2 -2 -2 -2 -4 -2 -1 -3 -2 -2 -3 -2 -2 -3 -3 -4 -2 -2 -5 -3 -2 -4 -5 -7 -6 -6 -7 -9 -10 -10 -10 -12 -12 -9 -8 -9 -11 -12 -12 -11
-2 -2 -2 -2 -2 -2 -3 -1 -1 -0 -1 -2 -2 -2 -4 -3 -5 -5 -5 -5 -4 -3 -2 -2 -3 -3 -3 -4 -4 -2 -3 -4 -2 -1 -3 -6 -6 -6 -6 -6 -8 -6 -6 -6 -7 -8 -8 -10 -9 -9 -9 -10 -12 -13
-3 -4 -4 -4 -4 -4 -3 -2 -1 -1 -3 -3 -2 -3 -5 -4 -4 -3 -2 -2 -2 -2 -2 -3 -4 -3 -4 -4 -3 -3 -2 -1 -2 -3 -5 -6 -7 -7 -7 -7 -5 -5 -6 -8 -9 -10 -11 -10 -9 -9 -9 -10 -12 -13
-5 -5 -6 -8 -10 -9 -7 -3 -2 -1 -4 -3 -3 -4 -4 -4 -4 -4 -4 -3 -2 -3 -3 -3 -5 -7 -4 -3 -2 -2 -2 -3 -4 -5 -6 -6 -6 -7 -8 -10 -10 -10 -10 -9 -9 -10 -9 -9 -9 -9 -10 -10 -12 -9
-5 -10 -12 -12 -11 -10 -8 -6 -4 -6 -4 -3 -4 -4 -3 -3 -3 -3 -3 -2 -1 -2 -3 -4 -5 -4 -5 -3 -3 -5 -4 -5 -6 -6 -7 -7 -8 -10 -13 -15 -15 -15 -11 -10 -8 -7 -8 -10 -10 -9 -9 -12 -11 -4
-12 -14 -13 -8 -9 -8 -5 -7 -9 -6 -4 -4 -4 -5 -4 -4 -4 -4 -5 -4 -3 -2 -3 -3 -5 -8 -5 -4 -5 -5 -5 -7 -10 -9 -9 -10 -12 -17 -17 -16 -16 -13 -9 -9 -8 -7 -8 -10 -8 -8 -9 -10 -7 -4
-12 -9 -8 -7 -8 -8 -8 -9 -9 -7 -6 -5 -5 -6 -5 -5 -6 -9 -9 -7 -4 -3 -4 -4 -8 -7 -5 -6 -7 -9 -9 -8 -8 -9 -12 -14 -12 -13 -14 -10 -9 -8 -8 -8 -7 -7 -8 -8 -6 -7 -8 -7 -5 -5
-8 -7 -6 -7 -7 -9 -7 -5 -6 -5 -6 -6 -5 -5 -5 -6 -9 -10 -11 -9 -6 -3 -4 -4 -6 -7 -7 -8 -8 -9 -11 -11 -9 -8 -8 -9 -9 -8 -8 -7 -7 -7 -7 -7 -6 -7 -7 -5 -6 -7 -6 -5 -4 -6
-6 -6 -5 -5 -5 -7 -7 -6 -5 -6 -6 -6 -5 -6 -6 -5 -5 -7 -8 -7 -4 -5 -5 -7 -8 -10 -13 -14 -14 -12 -11 -10 -8 -8 -8 -8 -8 -7 -7 -7 -7 -6 -6 -6 -6 -6 -5 -4 -5 -4 -3 -4 -4 -5
-6 -6 -5 -5 -7 -7 -7 -5 -6 -5 -6 -6 -6 -6 -6 -7 -6 -7 -7 -5 -5 -7 -8 -9 -9 -10 -10 -10 -12 -12 -11 -10 -9 -8 -8 -7 -6 -6 -7 -8 -7 -6 -6 -6 -6 -6 -5 -5 -6 -6 -6 -6 -5 -6
-4 -5 -5 -6 -5 -6 -6 -5 -6 -6 -7 -7 -6 -7 -7 -7 -7 -9 -7 -8 -10 -13 -12 -11 -12 -13 -11 -11 -10 -9 -10 -9 -9 -10 -10 -9 -9 -10 -9 -9 -8 -9 -9 -9 -9 -7 -6 -6 -6 -7 -7 -7 -6 -6
-5 -4 -5 -5 -6 -7 -6 -6 -6 -7 -7 -8 -9 -9 -11 -9 -8 -8 -11 -11 -12 -12 -12 -12 -11 -10 -10 -9 -9 -10 -13 -12 -10 -11 -12 -10 -10 -12 -11 -10 -9 -10 -12 -12 -11 -12 -13 -10 -8 -9 -9 -8 -8 -7
-5 -5 -5 -5 -6 -7 -7 -6 -8 -7 -7 -8 -9 -13 -12 -9 -13 -13 -11 -12 -12 -12 -12 -12 -12 -11 -9 -10 -11 -12 -14 -12 -12 -12 -16 -15 -15 -13 -12 -14 -11 -10 -12 -11 -10 -10 -12 -14 -13 -12 -10 -7 -8 -9
-5 -5 -5 -6 -7 -8 -9 -8 -7 -9 -13 -12 -10 -10 -10 -15 -13 -10 -11 -13 -13 -14 -14 -14 -14 -12 -11 -12 -11 -13 -15 -16 -14 -13 -15 -15 -13 -11 -11 -11 -13 -14 -15 -11 -9 -9 -12 -13 -10 -7 -7 -8 -8 -8
-5 -5 -5 -6 -7 -7 -9 -9 -9 -12 -12 -11 -12 -13 -12 -9 -10 -11 -14 -15 -14 -15 -15 -15 -14 -14 -13 -13 -14 -13 -13 -12 -11 -12 -12 -12 -11 -11 -10 -10 -9 -11 -13 -12 -10 -10 -10 -11 -10 -9 -9 -8 -7 -8
-5 -6 -7 -7 -7 -7 -11 -12 -12 -11 -12 -11 -11 -13 -12 -11 -11 -14 -15 -15 -15 -14 -14 -14 -14 -14 -13 -13 -13 -12 -12 -11 -11 -11 -10 -11 -11 -11 -11 -11 -12 -13 -14 -14 -13 -12 -12 -12 -11 -10 -8 -7 -8 -9
-6 -8 -8 -8 -9 -8 -8 -11 -11 -10 -13 -12 -12 -11 -12 -14 -14 -14 -13 -13 -13 -12 -12 -12 -12 -12 -11 -10 -10 -10 -10 -10 -9 -9 -9 -8 -9 -9 -9 -9 -9 -11 -13 -12 -12 -10 -10 -10 -9 -8 -8 -8 -8 -8
-6 -7 -9 -10 -10 -10 -10 -10 -11 -13 -13 -12 -12 -11 -12 -12 -13 -12 -12 -12 -11 -12 -12 -11 -10 -10 -9 -9 -9 -9 -9 -9 -8 -8 -7 -7 -8 -8 -8 -8 -8 -9 -9 -8 -8 -8 -8 -9 -9 -8 -9 -8 -8 -8
-8 -7 -8 -9 -11 -11 -11 -12 -11 -11 -11 -11 -11 -10 -10 -11 -12 -13 -12 -13 -12 -12 -12 -12 -13 -12 -10 -10 -10 -9 -9 -10 -9 -8 -8 -8 -7 -7 -7 -7 -8 -8 -8 -8 -8 -8 -8 -8 -9 -9 -9 -9 -9 -8
-8 -8 -9 -12 -12 -11 -11 -10 -10 -10 -11 -11 -11 -11 -11 -10 -10 -11 -16 -14 -13 -14 -14 -13 -12 -12 -11 -10 -10 -9 -9 -8 -8 -8 -8 -8 -7 -7 -7 -7 -7 -7 -7 -7 -8 -8 -8 -8 -8 -9 -8 -8 -8 -7
-9 -9 -10 -10 -11 -11 -12 -12 -12 -11 -12 -11 -11 -11 -11 -10 -10 -12 -14 -14 -15 -15 -14 -12 -11 -11 -10 -9 -8 -7 -6 -6 -7 -8 -8 -8 -8 -8 -8 -8 -8 -8 -7 -8 -8 -8 -8 -8 -8 -8 -8 -8 -8 -7

GFSWCAN_850_dewp_123.txt.gz
Dewpoint
2 3 3 3 4 4 4 3 1 -0 -1 -1 0 1 2 2 1 0 -1 -1 -2 -5 -6 -4 -4 -3 -3 -4 -7 -5 -4 -4 -3 -4 -5 -4 -4 -5 -5 -6 -1 -0 1 1 0 2 -3 -5 -6 -7 -12 -7 -7 -7
2 2 3 3 4 4 4 3 2 -0 -1 -1 -1 -0 0 0 0 1 1 -1 -2 -2 -4 -5 -3 -2 -3 -3 -5 -3 -7 -5 -4 -5 -4 -5 -3 -4 -6 -8 -5 -4 -3 -2 -1 -2 -7 -5 -7 -7 -6 -5 -6 -6
2 2 3 3 4 4 4 4 3 0 -1 -1 -1 -2 -2 -1 -1 -1 -1 -1 -3 -4 -3 -3 -3 -3 -2 -2 -2 -3 -3 -3 -3 -3 -4 -4 -4 -5 -4 -5 -8 -7 -6 -4 -6 -6 -6 -8 -8 -5 -5 -6 -8 -7
2 2 2 3 3 4 4 4 3 0 -1 -1 -1 -2 -3 -4 -3 -1 -1 -1 -2 -2 -2 -3 -2 -1 -2 -2 -3 -2 -2 -2 -1 -1 -3 -3 -3 -5 -5 -6 -6 -8 -6 -6 -6 -8 -6 -8 -5 -6 -7 -10 -10 -9
2 2 2 3 4 3 4 4 3 1 -1 -2 -1 -2 -2 -3 -6 -1 -0 -2 -2 -1 -2 -2 -2 -2 -2 -2 -2 -2 -2 -1 -1 -2 -2 -1 -2 -3 -2 -3 -2 -6 -7 -6 -5 -7 -4 -4 -8 -8 -10 -9 -9 -7
2 2 2 3 4 3 3 4 4 1 -1 -2 -1 -2 -3 -4 -7 -2 0 -3 -4 1 -2 -2 -3 -2 -2 -3 -3 -2 -2 -1 -2 -2 -2 -2 -2 -2 -2 -1 -3 -4 -5 -4 -4 -3 -6 -10 -10 -10 -9 -8 -8 -8
3 2 1 2 4 4 3 3 4 1 -0 -1 -1 -2 -4 -6 -3 -2 -0 -1 -0 -0 -1 -1 -2 -2 -2 -2 -2 -2 -1 -1 -1 -2 -1 -1 -1 -0 -2 -0 -3 -2 -3 -5 -7 -10 -11 -10 -9 -8 -8 -9 -10 -9
3 2 1 2 4 4 3 3 3 3 1 -1 -2 -4 -5 -4 -1 -3 -2 -1 -1 -1 -1 -5 -4 -2 -2 -2 -2 -2 -1 -1 -1 -1 -1 -1 -1 -1 -0 -2 -2 -3 -8 -9 -10 -10 -8 -7 -7 -7 -8 -8 -8 -8
3 3 1 2 3 4 4 3 3 3 1 -1 -4 -5 -6 -2 -2 -2 -2 -1 -1 -3 -2 -2 -2 -4 -2 -2 -2 -2 -2 -3 -2 -2 -2 -2 -2 -1 -2 -2 -3 -6 -9 -8 -7 -6 -6 -7 -7 -7 -7 -8 -9 -9
3 2 1 3 3 3 4 3 3 3 1 -1 -2 -5 -2 -1 -2 -1 -1 -1 -1 -1 -1 -2 -1 -2 -3 -2 -2 -2 -2 -2 -4 -3 -2 -2 -1 -2 -3 -3 -6 -9 -8 -7 -6 -7 -7 -7 -7 -8 -8 -10 -11 -12
2 1 2 3 2 2 3 4 4 1 -2 -3 -4 -4 -2 -1 -1 -1 -1 -2 -2 -2 -2 -2 -2 -2 -3 -3 -3 -2 -3 -3 -1 -4 -1 -1 -1 -3 -5 -9 -8 -7 -7 -8 -10 -9 -9 -8 -8 -8 -10 -10 -10 -11
2 2 3 2 3 2 3 4 2 -0 -0 -3 -4 -1 -0 -1 -1 -3 -5 -2 -2 -3 -2 -2 -2 -2 -2 -3 -2 -2 -3 -2 -1 -4 -1 -2 -4 -4 -7 -7 -7 -9 -9 -8 -7 -7 -7 -9 -11 -10 -10 -9 -9 -9
3 3 3 3 3 3 3 3 -0 -1 -1 -1 -1 -1 -2 -2 -2 -2 -6 -3 -2 -3 -3 -2 -3 -2 -2 -3 -3 -3 -1 -2 -4 -2 -2 -4 -5 -5 -6 -7 -7 -6 -6 -6 -8 -13 -13 -13 -14 -13 -12 -13 -10 -10
2 2 2 1 3 2 0 -0 0 -1 -1 -1 -2 -1 -3 -3 -5 -5 -6 -6 -4 -3 -3 -2 -3 -3 -3 -4 -4 -4 -3 -4 -2 -2 -3 -5 -6 -6 -7 -8 -8 -8 -10 -10 -10 -10 -10 -10 -9 -9 -11 -12 -11 -12
1 0 -0 -0 -1 -1 -0 -0 -1 -1 -2 -2 -2 -2 -3 -5 -4 -4 -2 -2 -2 -2 -2 -3 -3 -3 -4 -3 -4 -3 -2 -1 -2 -4 -5 -6 -7 -7 -8 -8 -10 -12 -13 -14 -14 -12 -13 -12 -9 -9 -11 -13 -15 -13
-2 -2 -2 -2 -1 -1 -1 -1 -1 -2 -3 -3 -3 -4 -4 -4 -4 -3 -3 -4 -2 -2 -2 -3 -5 -6 -3 -3 -2 -2 -3 -3 -5 -6 -6 -7 -9 -9 -10 -13 -14 -14 -13 -13 -13 -12 -12 -11 -10 -10 -10 -12 -15 -12
-3 -4 -3 -3 -2 -2 -2 -2 -2 -2 -4 -3 -4 -3 -4 -3 -3 -3 -4 -3 -2 -2 -2 -3 -3 -3 -6 -3 -3 -5 -4 -5 -6 -6 -7 -10 -10 -12 -14 -16 -15 -14 -15 -14 -14 -13 -13 -14 -13 -12 -12 -13 -13 -10
-5 -4 -5 -4 -4 -4 -4 -4 -6 -5 -4 -4 -4 -4 -3 -3 -4 -3 -3 -2 -2 -2 -3 -5 -5 -6 -5 -4 -5 -6 -5 -7 -9 -9 -12 -15 -15 -16 -14 -14 -15 -14 -13 -13 -13 -13 -13 -14 -13 -12 -11 -11 -8 -7
-11 -6 -5 -5 -5 -7 -8 -8 -9 -8 -6 -5 -5 -5 -4 -4 -5 -6 -6 -6 -5 -4 -4 -4 -7 -5 -5 -6 -7 -8 -9 -10 -12 -13 -15 -15 -14 -13 -13 -13 -11 -11 -11 -11 -12 -13 -13 -13 -10 -9 -9 -7 -5 -5
-9 -5 -5 -6 -8 -9 -8 -6 -7 -6 -6 -6 -5 -5 -5 -6 -7 -8 -8 -7 -5 -4 -4 -4 -5 -8 -8 -11 -13 -13 -14 -14 -11 -9 -9 -10 -10 -10 -10 -10 -10 -10 -11 -12 -12 -12 -11 -9 -8 -8 -6 -5 -4 -5
-5 -4 -5 -6 -7 -8 -7 -6 -5 -6 -6 -7 -6 -6 -6 -6 -6 -7 -8 -7 -5 -5 -5 -7 -12 -17 -17 -16 -17 -15 -13 -10 -8 -8 -8 -8 -9 -8 -8 -9 -11 -11 -10 -11 -11 -10 -8 -7 -8 -8 -8 -8 -7 -6
-4 -4 -4 -5 -7 -8 -7 -6 -6 -6 -6 -6 -6 -6 -7 -7 -6 -7 -7 -5 -6 -10 -10 -15 -17 -17 -17 -17 -17 -16 -14 -11 -10 -9 -9 -9 -7 -8 -8 -9 -9 -9 -10 -11 -11 -9 -10 -11 -12 -12 -11 -12 -11 -10
-6 -5 -6 -6 -8 -7 -7 -6 -6 -6 -6 -7 -7 -7 -7 -7 -7 -8 -7 -7 -9 -15 -18 -17 -17 -17 -15 -14 -13 -12 -13 -12 -11 -12 -12 -11 -11 -10 -10 -11 -11 -10 -10 -12 -12 -10 -9 -9 -11 -13 -12 -12 -12 -11
-6 -6 -8 -7 -6 -7 -6 -6 -6 -7 -7 -8 -8 -9 -10 -9 -8 -9 -11 -10 -15 -15 -15 -15 -14 -13 -13 -13 -13 -15 -17 -16 -14 -14 -15 -14 -11 -14 -15 -12 -13 -14 -14 -15 -14 -13 -14 -14 -13 -13 -14 -13 -10 -9
-5 -5 -5 -6 -6 -7 -7 -7 -8 -7 -8 -9 -9 -11 -13 -10 -13 -12 -12 -13 -15 -15 -16 -16 -15 -14 -13 -14 -15 -16 -17 -16 -13 -12 -15 -15 -14 -15 -15 -14 -14 -14 -13 -13 -14 -14 -14 -13 -13 -13 -14 -10 -8 -9
-5 -5 -6 -8 -10 -9 -9 -9 -9 -9 -11 -9 -10 -11 -10 -16 -15 -11 -12 -15 -16 -16 -16 -16 -16 -15 -15 -15 -15 -14 -14 -14 -11 -11 -12 -13 -12 -11 -10 -10 -11 -13 -13 -12 -11 -10 -10 -11 -12 -12 -11 -9 -8 -9
-5 -5 -5 -6 -8 -8 -10 -10 -9 -11 -12 -11 -12 -12 -12 -12 -11 -12 -16 -17 -17 -17 -18 -17 -16 -15 -15 -14 -13 -13 -12 -12 -11 -11 -11 -11 -11 -10 -10 -9 -9 -10 -10 -10 -9 -9 -9 -9 -10 -9 -8 -9 -9 -10
-5 -6 -7 -7 -7 -8 -10 -11 -11 -10 -10 -11 -12 -13 -12 -12 -11 -16 -17 -17 -17 -16 -16 -15 -14 -13 -13 -13 -13 -12 -12 -11 -11 -10 -10 -10 -10 -10 -10 -10 -10 -10 -9 -9 -9 -8 -8 -8 -9 -10 -10 -10 -9 -9
-6 -6 -7 -9 -8 -8 -9 -10 -10 -10 -11 -11 -10 -12 -13 -15 -16 -15 -15 -15 -14 -13 -13 -13 -17 -13 -11 -11 -12 -13 -12 -11 -9 -9 -9 -9 -9 -9 -9 -8 -8 -8 -8 -8 -8 -8 -8 -8 -8 -8 -8 -8 -8 -8
-6 -7 -8 -8 -9 -8 -8 -8 -10 -11 -11 -12 -13 -13 -13 -13 -14 -15 -13 -13 -13 -14 -15 -15 -12 -12 -12 -13 -13 -13 -12 -11 -10 -9 -8 -8 -8 -8 -7 -8 -7 -7 -7 -7 -7 -7 -7 -7 -8 -7 -7 -7 -8 -8
-7 -7 -7 -8 -8 -7 -8 -8 -8 -9 -11 -12 -12 -11 -11 -11 -14 -18 -15 -17 -17 -17 -16 -16 -16 -16 -15 -14 -13 -12 -11 -11 -10 -9 -8 -7 -7 -7 -7 -7 -7 -7 -6 -6 -6 -6 -7 -7 -7 -7 -8 -8 -9 -9
-7 -7 -8 -9 -10 -10 -10 -10 -10 -10 -11 -11 -11 -11 -11 -10 -10 -13 -18 -18 -17 -17 -18 -17 -16 -16 -15 -13 -12 -11 -11 -8 -6 -6 -6 -6 -6 -7 -7 -7 -7 -7 -7 -7 -7 -7 -7 -7 -7 -7 -8 -9 -9 -9
-9 -9 -9 -9 -10 -11 -11 -11 -12 -12 -12 -12 -12 -13 -12 -12 -12 -16 -17 -17 -16 -16 -16 -15 -15 -14 -14 -12 -11 -10 -8 -6 -7 -8 -7 -6 -6 -7 -8 -7 -7 -7 -7 -7 -7 -7 -7 -7 -7 -8 -8 -8 -8 -8

GFSWCAN_850_dewp_126.txt.gz
Dewpoint
3 2 2 2 3 3 4 4 3 2 -0 -1 -1 0 1 1 0 0 -1 -1 -2 -3 -5 -5 -4 -4 -4 -5 -6 -4 -2 -2 -3 -4 -6 -5 -5 -6 -5 -5 -1 -1 1 1 0 1 -1 -5 -5 -6 -7 -5 -5 -6
3 3 2 2 2 3 4 4 4 2 0 -1 -1 -1 -1 -1 -1 -1 -1 -1 -2 -3 -4 -5 -3 -3 -3 -3 -5 -3 -6 -4 -3 -5 -5 -5 -4 -5 -6 -8 -5 -4 -3 -3 -2 -3 -5 -5 -6 -6 -5 -5 -5 -6
4 3 2 2 2 3 3 4 4 3 1 -0 -1 -1 -3 -3 -3 -2 -2 -2 -3 -4 -3 -3 -3 -3 -2 -2 -3 -3 -4 -4 -3 -4 -4 -4 -4 -5 -5 -6 -8 -6 -5 -4 -5 -6 -5 -6 -7 -5 -6 -6 -9 -9
4 4 3 2 2 3 3 3 4 4 2 -0 -0 -1 -1 -2 -3 -4 -2 -2 -3 -2 -2 -3 -2 -1 -2 -2 -2 -2 -3 -3 -2 -2 -2 -3 -4 -5 -6 -6 -7 -7 -6 -5 -5 -7 -7 -7 -5 -7 -9 -9 -8 -7
4 4 3 2 2 3 3 3 3 4 2 -0 -1 -1 -1 -1 -3 -6 -3 -2 -2 -2 -1 -2 -2 -2 -1 -2 -2 -2 -2 -2 -1 -1 -1 -1 -2 -4 -3 -3 -3 -7 -7 -7 -7 -6 -4 -4 -9 -10 -10 -9 -9 -9
4 4 4 2 2 1 3 3 3 4 3 -0 -1 -1 -1 -2 -4 -4 -1 -3 -4 -1 -3 0 -3 -2 -2 -2 -2 -2 -2 -1 -1 -1 -1 -2 -2 -1 -1 -1 -4 -4 -7 -7 -4 -4 -4 -10 -10 -8 -8 -7 -7 -8
4 4 4 3 2 2 2 4 3 4 3 -0 -2 -2 -1 -3 -4 -2 -2 -2 -1 -5 -2 -0 -1 -2 -2 -2 -2 -2 -1 -1 -1 -2 -1 -1 -1 -1 -1 -0 -3 -3 -4 -3 -5 -10 -9 -8 -7 -7 -7 -8 -9 -9
4 5 5 3 2 2 2 4 3 3 3 -1 -2 -2 -3 -3 -3 -2 -3 -4 -3 -3 -3 0 -0 -2 -2 -2 -2 -2 -1 -1 -1 -1 -1 -1 -1 -1 1 -2 -3 -2 -5 -7 -9 -8 -7 -7 -8 -9 -9 -10 -11 -12
3 4 4 4 2 2 2 4 3 3 3 -0 -2 -2 -2 -2 -1 -1 -3 -2 -2 -3 -2 -1 1 1 -2 -2 -2 -2 -2 -1 -2 -1 -2 -1 -1 1 -1 -2 -2 -4 -8 -7 -7 -7 -9 -10 -10 -10 -11 -11 -11 -12
3 4 4 3 3 2 2 3 4 3 3 -1 -0 -1 -1 -2 -2 -2 -1 -1 -1 -1 -2 -1 -2 -1 -2 -2 -2 -2 -2 -2 -0 -2 -2 -1 -1 -2 -3 -2 -5 -7 -8 -7 -11 -11 -10 -9 -8 -9 -10 -10 -10 -9
4 4 4 3 3 2 2 3 4 3 1 0 0 -2 -2 -2 -1 -1 -1 -2 -2 -1 -1 -1 -1 -1 -3 -2 -2 -2 -1 -2 -0 -2 -1 -2 -1 -3 -3 -3 -5 -7 -9 -10 -8 -7 -8 -11 -13 -13 -15 -15 -14 -14
4 4 3 3 2 2 2 3 3 2 1 1 -1 -1 -1 -1 -1 -2 -2 -2 -3 -2 -2 -2 -2 -2 -2 -3 -2 -2 -1 -3 -0 -2 -2 -1 -3 -4 -7 -8 -7 -8 -8 -7 -8 -12 -16 -15 -14 -13 -13 -13 -12 -13
4 4 3 3 2 2 2 3 2 2 1 0 -0 -0 -1 -2 -1 -1 -3 -2 -2 -2 -3 -3 -2 -2 -2 -3 -3 -2 -1 -1 -4 -2 -2 -3 -4 -6 -6 -7 -7 -8 -10 -14 -12 -12 -13 -14 -14 -14 -13 -14 -11 -11
3 3 2 2 2 3 2 3 1 0 1 -1 -1 -2 -1 -2 -2 -3 -5 -4 -4 -3 -2 -2 -3 -3 -3 -3 -3 -2 -3 -4 -2 -2 -2 -4 -5 -6 -8 -9 -10 -11 -13 -14 -15 -16 -16 -15 -16 -16 -17 -17 -16 -16
3 3 2 2 2 3 3 2 0 0 -1 -2 -2 -1 -2 -4 -4 -5 -4 -2 -2 -3 -2 -3 -3 -3 -3 -3 -3 -3 -2 -1 -2 -2 -3 -5 -6 -8 -8 -9 -10 -12 -13 -13 -14 -14 -14 -14 -14 -16 -19 -19 -20 -18
3 2 3 2 2 2 0 -0 -1 -1 -2 -2 -3 -3 -4 -4 -3 -3 -3 -2 -2 -2 -2 -3 -3 -2 -2 -2 -2 -2 -2 -2 -3 -3 -6 -7 -8 -10 -12 -13 -15 -15 -14 -14 -13 -13 -12 -13 -15 -17 -18 -20 -19 -15
2 -1 1 2 0 -0 -0 -1 -2 -3 -3 -3 -3 -3 -3 -3 -3 -4 -4 -3 -2 -2 -2 -2 -2 -2 -4 -3 -3 -4 -3 -3 -6 -6 -6 -9 -11 -12 -14 -15 -14 -14 -14 -13 -12 -12 -13 -15 -15 -16 -18 -19 -15 -12
-2 -2 -1 -1 -1 -2 -2 -3 -4 -4 -4 -4 -4 -3 -3 -3 -3 -3 -3 -2 -2 -2 -2 -2 -5 -4 -3 -3 -3 -5 -5 -6 -9 -10 -13 -14 -13 -13 -13 -13 -14 -13 -13 -12 -13 -13 -13 -14 -15 -17 -14 -13 -9 -9
-3 -3 -3 -3 -2 -4 -4 -5 -5 -6 -5 -4 -4 -4 -3 -4 -4 -5 -3 -3 -2 -3 -4 -4 -4 -3 -4 -6 -6 -8 -9 -11 -13 -14 -14 -13 -13 -13 -13 -13 -12 -11 -12 -14 -14 -14 -14 -13 -12 -13 -12 -9 -8 -10
-4 -4 -4 -5 -5 -6 -5 -5 -6 -6 -6 -6 -5 -4 -5 -5 -5 -5 -5 -5 -5 -6 -5 -5 -5 -7 -8 -16 -16 -17 -17 -15 -12 -10 -10 -11 -13 -14 -15 -14 -12 -13 -12 -12 -11 -11 -13 -13 -14 -14 -11 -11 -10 -11
-4 -4 -5 -6 -8 -7 -6 -6 -6 -6 -6 -6 -5 -5 -5 -5 -6 -6 -6 -6 -6 -6 -6 -9 -15 -24 -24 -23 -21 -19 -16 -16 -14 -13 -12 -10 -12 -10 -9 -9 -10 -11 -10 -10 -11 -12 -13 -14 -14 -13 -11 -11 -11 -10
-4 -5 -5 -7 -9 -7 -7 -6 -6 -6 -6 -6 -6 -7 -7 -7 -7 -7 -6 -5 -7 -12 -13 -17 -24 -23 -22 -21 -20 -18 -16 -15 -14 -13 -14 -14 -12 -12 -13 -12 -11 -12 -12 -13 -13 -13 -15 -16 -16 -15 -13 -12 -12 -13
-4 -6 -8 -9 -9 -9 -6 -6 -6 -6 -7 -7 -7 -7 -7 -7 -8 -8 -7 -7 -10 -16 -18 -22 -22 -20 -18 -17 -15 -15 -17 -17 -16 -17 -17 -17 -16 -16 -15 -16 -16 -13 -13 -16 -17 -16 -16 -16 -15 -14 -14 -14 -13 -14
-5 -7 -9 -8 -8 -7 -6 -6 -6 -7 -8 -7 -7 -7 -8 -9 -8 -9 -8 -10 -14 -17 -18 -20 -18 -17 -16 -16 -17 -18 -19 -18 -16 -16 -16 -15 -14 -15 -15 -14 -15 -15 -15 -12 -11 -12 -12 -13 -13 -13 -13 -12 -13 -12
-8 -7 -7 -8 -7 -8 -9 -7 -8 -8 -8 -8 -8 -9 -10 -10 -10 -9 -9 -11 -17 -18 -19 -18 -17 -16 -16 -18 -18 -18 -18 -17 -16 -14 -16 -15 -11 -11 -11 -11 -10 -11 -10 -9 -10 -9 -10 -9 -10 -10 -10 -10 -10 -9
-6 -5 -5 -8 -9 -9 -9 -9 -9 -9 -8 -8 -10 -12 -11 -12 -11 -9 -10 -15 -18 -19 -19 -19 -18 -18 -18 -17 -17 -16 -16 -15 -13 -12 -14 -14 -11 -10 -10 -10 -9 -10 -9 -9 -9 -9 -9 -9 -9 -9 -9 -9 -9 -7
-5 -6 -5 -7 -8 -9 -10 -10 -9 -11 -11 -10 -12 -12 -11 -11 -10 -11 -14 -17 -18 -19 -18 -17 -17 -17 -16 -16 -15 -14 -14 -13 -12 -12 -13 -12 -11 -10 -10 -10 -10 -10 -10 -9 -9 -8 -8 -8 -8 -8 -8 -8 -8 -7
-5 -5 -9 -7 -8 -9 -10 -12 -11 -11 -11 -11 -12 -12 -11 -11 -10 -15 -16 -16 -16 -17 -17 -16 -16 -15 -15 -15 -14 -15 -15 -14 -12 -12 -12 -12 -11 -11 -11 -10 -9 -9 -9 -8 -8 -8 -7 -7 -7 -8 -7 -8 -8 -8
-6 -6 -7 -9 -8 -8 -9 -11 -11 -11 -11 -11 -10 -10 -11 -14 -14 -13 -14 -14 -15 -15 -15 -15 -19 -19 -16 -16 -14 -14 -13 -13 -11 -11 -11 -11 -11 -10 -9 -7 -7 -7 -7 -7 -7 -7 -7 -7 -7 -7 -7 -7 -7 -7
-6 -6 -7 -8 -8 -8 -8 -8 -9 -10 -11 -12 -13 -13 -12 -12 -12 -12 -12 -13 -13 -15 -18 -17 -17 -13 -14 -13 -15 -15 -15 -14 -13 -12 -11 -11 -10 -8 -7 -6 -6 -6 -7 -7 -7 -7 -7 -6 -7 -7 -7 -7 -7 -7
-7 -7 -8 -8 -9 -8 -8 -9 -9 -9 -9 -10 -10 -10 -10 -10 -11 -16 -15 -17 -19 -20 -19 -18 -17 -16 -15 -16 -15 -15 -14 -15 -14 -12 -10 -9 -7 -7 -7 -8 -7 -7 -7 -7 -7 -7 -7 -7 -7 -7 -7 -7 -7 -7
-7 -8 -9 -11 -10 -8 -8 -10 -10 -9 -9 -8 -8 -9 -10 -10 -10 -13 -22 -18 -19 -18 -18 -17 -16 -16 -16 -15 -15 -14 -14 -13 -13 -12 -9 -7 -6 -6 -8 -7 -6 -7 -7 -7 -7 -7 -7 -7 -7 -7 -7 -7 -7 -8
-8 -8 -8 -9 -10 -10 -11 -11 -11 -12 -11 -11 -11 -12 -12 -11 -12 -16 -18 -19 -18 -18 -17 -16 -15 -15 -15 -15 -14 -14 -14 -12 -11 -11 -9 -7 -6 -6 -7 -7 -7 -7 -7 -8 -8 -7 -7 -7 -7 -7 -7 -7 -7 -7